<?xml version="1.0" encoding="UTF-8" standalone="no" ?>
<gpx xmlns="http://www.topografix.com/GPX/1/1" xmlns:xsi="http://www.w3.org/2001/XMLSchema-instance" xsi:schemaLocation="http://www.topografix.com/GPX/1/1 http://www.topografix.com/GPX/1/1/gpx.xsd" version="1.1" creator="VisuGPX - https://www.visugpx.com">
  <metadata>
    <name>Etape 2 Saint-Amand-Montrond &gt; Saint-Florent-sur-Cher</name>
    <desc><![CDATA[Etape 2 qui va de Saint-Amand-Montrond à Saint-Florent-sur-Cher
Parcours du 14 juin]]></desc>
  </metadata>
  <trk>
    <name><![CDATA[20180610195922-k1GEa]]></name>
    <trkseg>
      <trkpt lat="46.73216" lon="2.51294">
        <ele>169</ele>
        <time>2018-04-16T10:19:10Z</time>
      </trkpt>
      <trkpt lat="46.73216" lon="2.51294">
        <ele>169</ele>
        <time>2018-04-16T10:19:16Z</time>
      </trkpt>
      <trkpt lat="46.73228" lon="2.5131">
        <ele>169</ele>
        <time>2018-04-16T10:19:20Z</time>
      </trkpt>
      <trkpt lat="46.73239" lon="2.51315">
        <ele>170</ele>
        <time>2018-04-16T10:19:25Z</time>
      </trkpt>
      <trkpt lat="46.73244" lon="2.51315">
        <ele>170</ele>
        <time>2018-04-16T10:19:27Z</time>
      </trkpt>
      <trkpt lat="46.73258" lon="2.5132">
        <ele>171</ele>
        <time>2018-04-16T10:19:33Z</time>
      </trkpt>
      <trkpt lat="46.73267" lon="2.51332">
        <ele>171</ele>
        <time>2018-04-16T10:19:42Z</time>
      </trkpt>
      <trkpt lat="46.73266" lon="2.51336">
        <ele>172</ele>
        <time>2018-04-16T10:19:46Z</time>
      </trkpt>
      <trkpt lat="46.73266" lon="2.51336">
        <ele>172</ele>
        <time>2018-04-16T10:19:47Z</time>
      </trkpt>
      <trkpt lat="46.73266" lon="2.51336">
        <ele>172</ele>
        <time>2018-04-16T10:19:48Z</time>
      </trkpt>
      <trkpt lat="46.73265" lon="2.51334">
        <ele>172</ele>
        <time>2018-04-16T10:19:51Z</time>
      </trkpt>
      <trkpt lat="46.73265" lon="2.51329">
        <ele>171</ele>
        <time>2018-04-16T10:19:54Z</time>
      </trkpt>
      <trkpt lat="46.73273" lon="2.51284">
        <ele>172</ele>
        <time>2018-04-16T10:20:05Z</time>
      </trkpt>
      <trkpt lat="46.73268" lon="2.51256">
        <ele>171</ele>
        <time>2018-04-16T10:20:12Z</time>
      </trkpt>
      <trkpt lat="46.73265" lon="2.51254">
        <ele>171</ele>
        <time>2018-04-16T10:20:13Z</time>
      </trkpt>
      <trkpt lat="46.73263" lon="2.51253">
        <ele>171</ele>
        <time>2018-04-16T10:20:14Z</time>
      </trkpt>
      <trkpt lat="46.7321" lon="2.51232">
        <ele>169</ele>
        <time>2018-04-16T10:20:31Z</time>
      </trkpt>
      <trkpt lat="46.73197" lon="2.51152">
        <ele>169</ele>
        <time>2018-04-16T10:20:48Z</time>
      </trkpt>
      <trkpt lat="46.73193" lon="2.51093">
        <ele>168</ele>
        <time>2018-04-16T10:21:03Z</time>
      </trkpt>
      <trkpt lat="46.73247" lon="2.51105">
        <ele>170</ele>
        <time>2018-04-16T10:21:26Z</time>
      </trkpt>
      <trkpt lat="46.73301" lon="2.51106">
        <ele>171</ele>
        <time>2018-04-16T10:21:45Z</time>
      </trkpt>
      <trkpt lat="46.73335" lon="2.51102">
        <ele>173</ele>
        <time>2018-04-16T10:21:57Z</time>
      </trkpt>
      <trkpt lat="46.73391" lon="2.51086">
        <ele>173</ele>
        <time>2018-04-16T10:22:15Z</time>
      </trkpt>
      <trkpt lat="46.73435" lon="2.51066">
        <ele>175</ele>
        <time>2018-04-16T10:22:30Z</time>
      </trkpt>
      <trkpt lat="46.73438" lon="2.51065">
        <ele>175</ele>
        <time>2018-04-16T10:22:31Z</time>
      </trkpt>
      <trkpt lat="46.73454" lon="2.51055">
        <ele>175</ele>
        <time>2018-04-16T10:22:37Z</time>
      </trkpt>
      <trkpt lat="46.73504" lon="2.51024">
        <ele>178</ele>
        <time>2018-04-16T10:22:54Z</time>
      </trkpt>
      <trkpt lat="46.73521" lon="2.51013">
        <ele>178</ele>
        <time>2018-04-16T10:23:01Z</time>
      </trkpt>
      <trkpt lat="46.73525" lon="2.51017">
        <ele>178</ele>
        <time>2018-04-16T10:23:03Z</time>
      </trkpt>
      <trkpt lat="46.73524" lon="2.51041">
        <ele>178</ele>
        <time>2018-04-16T10:23:08Z</time>
      </trkpt>
      <trkpt lat="46.7352" lon="2.51059">
        <ele>178</ele>
        <time>2018-04-16T10:23:12Z</time>
      </trkpt>
      <trkpt lat="46.73512" lon="2.51086">
        <ele>178</ele>
        <time>2018-04-16T10:23:18Z</time>
      </trkpt>
      <trkpt lat="46.73501" lon="2.51114">
        <ele>179</ele>
        <time>2018-04-16T10:23:24Z</time>
      </trkpt>
      <trkpt lat="46.73489" lon="2.51145">
        <ele>177</ele>
        <time>2018-04-16T10:23:32Z</time>
      </trkpt>
      <trkpt lat="46.73488" lon="2.51149">
        <ele>177</ele>
        <time>2018-04-16T10:23:33Z</time>
      </trkpt>
      <trkpt lat="46.73487" lon="2.51154">
        <ele>177</ele>
        <time>2018-04-16T10:23:34Z</time>
      </trkpt>
      <trkpt lat="46.73486" lon="2.51158">
        <ele>177</ele>
        <time>2018-04-16T10:23:35Z</time>
      </trkpt>
      <trkpt lat="46.73472" lon="2.51237">
        <ele>179</ele>
        <time>2018-04-16T10:23:53Z</time>
      </trkpt>
      <trkpt lat="46.73467" lon="2.51277">
        <ele>180</ele>
        <time>2018-04-16T10:24:02Z</time>
      </trkpt>
      <trkpt lat="46.73464" lon="2.51309">
        <ele>180</ele>
        <time>2018-04-16T10:24:09Z</time>
      </trkpt>
      <trkpt lat="46.73456" lon="2.51377">
        <ele>179</ele>
        <time>2018-04-16T10:24:24Z</time>
      </trkpt>
      <trkpt lat="46.73451" lon="2.51457">
        <ele>178</ele>
        <time>2018-04-16T10:24:41Z</time>
      </trkpt>
      <trkpt lat="46.73451" lon="2.5149">
        <ele>178</ele>
        <time>2018-04-16T10:24:49Z</time>
      </trkpt>
      <trkpt lat="46.73451" lon="2.51547">
        <ele>179</ele>
        <time>2018-04-16T10:25:02Z</time>
      </trkpt>
      <trkpt lat="46.73431" lon="2.516">
        <ele>179</ele>
        <time>2018-04-16T10:25:14Z</time>
      </trkpt>
      <trkpt lat="46.73423" lon="2.51597">
        <ele>178</ele>
        <time>2018-04-16T10:25:16Z</time>
      </trkpt>
      <trkpt lat="46.73403" lon="2.51576">
        <ele>175</ele>
        <time>2018-04-16T10:25:21Z</time>
      </trkpt>
      <trkpt lat="46.73393" lon="2.5157">
        <ele>175</ele>
        <time>2018-04-16T10:25:23Z</time>
      </trkpt>
      <trkpt lat="46.73376" lon="2.51565">
        <ele>175</ele>
        <time>2018-04-16T10:25:26Z</time>
      </trkpt>
      <trkpt lat="46.7337" lon="2.51564">
        <ele>175</ele>
        <time>2018-04-16T10:25:27Z</time>
      </trkpt>
      <trkpt lat="46.73332" lon="2.51557">
        <ele>173</ele>
        <time>2018-04-16T10:25:33Z</time>
      </trkpt>
      <trkpt lat="46.73306" lon="2.51552">
        <ele>173</ele>
        <time>2018-04-16T10:25:37Z</time>
      </trkpt>
      <trkpt lat="46.73288" lon="2.51548">
        <ele>173</ele>
        <time>2018-04-16T10:25:40Z</time>
      </trkpt>
      <trkpt lat="46.7327" lon="2.51544">
        <ele>173</ele>
        <time>2018-04-16T10:25:45Z</time>
      </trkpt>
      <trkpt lat="46.73268" lon="2.51542">
        <ele>173</ele>
        <time>2018-04-16T10:25:46Z</time>
      </trkpt>
      <trkpt lat="46.73261" lon="2.5152">
        <ele>174</ele>
        <time>2018-04-16T10:25:51Z</time>
      </trkpt>
      <trkpt lat="46.73268" lon="2.51502">
        <ele>174</ele>
        <time>2018-04-16T10:25:57Z</time>
      </trkpt>
      <trkpt lat="46.73268" lon="2.51499">
        <ele>174</ele>
        <time>2018-04-16T10:25:59Z</time>
      </trkpt>
      <trkpt lat="46.73267" lon="2.515">
        <ele>174</ele>
        <time>2018-04-16T10:26:11Z</time>
      </trkpt>
      <trkpt lat="46.73268" lon="2.515">
        <ele>174</ele>
        <time>2018-04-16T10:26:12Z</time>
      </trkpt>
      <trkpt lat="46.73268" lon="2.51499">
        <ele>174</ele>
        <time>2018-04-16T10:26:13Z</time>
      </trkpt>
      <trkpt lat="46.73268" lon="2.51499">
        <ele>174</ele>
        <time>2018-04-16T10:26:28Z</time>
      </trkpt>
      <trkpt lat="46.73267" lon="2.51503">
        <ele>174</ele>
        <time>2018-04-16T10:26:53Z</time>
      </trkpt>
      <trkpt lat="46.73255" lon="2.51566">
        <ele>173</ele>
        <time>2018-04-16T10:27:07Z</time>
      </trkpt>
      <trkpt lat="46.73256" lon="2.51572">
        <ele>173</ele>
        <time>2018-04-16T10:27:08Z</time>
      </trkpt>
      <trkpt lat="46.73258" lon="2.51578">
        <ele>172</ele>
        <time>2018-04-16T10:27:09Z</time>
      </trkpt>
      <trkpt lat="46.73264" lon="2.51586">
        <ele>172</ele>
        <time>2018-04-16T10:27:11Z</time>
      </trkpt>
      <trkpt lat="46.73267" lon="2.51588">
        <ele>172</ele>
        <time>2018-04-16T10:27:12Z</time>
      </trkpt>
      <trkpt lat="46.73275" lon="2.51589">
        <ele>172</ele>
        <time>2018-04-16T10:27:14Z</time>
      </trkpt>
      <trkpt lat="46.73289" lon="2.51588">
        <ele>173</ele>
        <time>2018-04-16T10:27:18Z</time>
      </trkpt>
      <trkpt lat="46.73313" lon="2.51592">
        <ele>173</ele>
        <time>2018-04-16T10:27:25Z</time>
      </trkpt>
      <trkpt lat="46.7333" lon="2.51596">
        <ele>173</ele>
        <time>2018-04-16T10:27:30Z</time>
      </trkpt>
      <trkpt lat="46.73341" lon="2.51598">
        <ele>174</ele>
        <time>2018-04-16T10:27:33Z</time>
      </trkpt>
      <trkpt lat="46.73355" lon="2.516">
        <ele>175</ele>
        <time>2018-04-16T10:27:37Z</time>
      </trkpt>
      <trkpt lat="46.73387" lon="2.51606">
        <ele>176</ele>
        <time>2018-04-16T10:27:46Z</time>
      </trkpt>
      <trkpt lat="46.73409" lon="2.51599">
        <ele>176</ele>
        <time>2018-04-16T10:27:57Z</time>
      </trkpt>
      <trkpt lat="46.73409" lon="2.51599">
        <ele>176</ele>
        <time>2018-04-16T10:28:01Z</time>
      </trkpt>
      <trkpt lat="46.73409" lon="2.51599">
        <ele>176</ele>
        <time>2018-04-16T10:28:02Z</time>
      </trkpt>
      <trkpt lat="46.73409" lon="2.51599">
        <ele>176</ele>
        <time>2018-04-16T10:28:03Z</time>
      </trkpt>
      <trkpt lat="46.73409" lon="2.51599">
        <ele>176</ele>
        <time>2018-04-16T10:28:04Z</time>
      </trkpt>
      <trkpt lat="46.73408" lon="2.51599">
        <ele>176</ele>
        <time>2018-04-16T10:28:05Z</time>
      </trkpt>
      <trkpt lat="46.73408" lon="2.51599">
        <ele>176</ele>
        <time>2018-04-16T10:28:06Z</time>
      </trkpt>
      <trkpt lat="46.73409" lon="2.51599">
        <ele>176</ele>
        <time>2018-04-16T10:28:08Z</time>
      </trkpt>
      <trkpt lat="46.73409" lon="2.51599">
        <ele>176</ele>
        <time>2018-04-16T10:28:09Z</time>
      </trkpt>
      <trkpt lat="46.73409" lon="2.51599">
        <ele>176</ele>
        <time>2018-04-16T10:28:12Z</time>
      </trkpt>
      <trkpt lat="46.7343" lon="2.51609">
        <ele>179</ele>
        <time>2018-04-16T10:28:28Z</time>
      </trkpt>
      <trkpt lat="46.73457" lon="2.51545">
        <ele>179</ele>
        <time>2018-04-16T10:28:44Z</time>
      </trkpt>
      <trkpt lat="46.73457" lon="2.51462">
        <ele>178</ele>
        <time>2018-04-16T10:28:58Z</time>
      </trkpt>
      <trkpt lat="46.73459" lon="2.51387">
        <ele>179</ele>
        <time>2018-04-16T10:29:15Z</time>
      </trkpt>
      <trkpt lat="46.73469" lon="2.51307">
        <ele>180</ele>
        <time>2018-04-16T10:29:55Z</time>
      </trkpt>
      <trkpt lat="46.73473" lon="2.51271">
        <ele>180</ele>
        <time>2018-04-16T10:30:03Z</time>
      </trkpt>
      <trkpt lat="46.73475" lon="2.51244">
        <ele>179</ele>
        <time>2018-04-16T10:30:09Z</time>
      </trkpt>
      <trkpt lat="46.73476" lon="2.51236">
        <ele>179</ele>
        <time>2018-04-16T10:30:11Z</time>
      </trkpt>
      <trkpt lat="46.73477" lon="2.51231">
        <ele>179</ele>
        <time>2018-04-16T10:30:12Z</time>
      </trkpt>
      <trkpt lat="46.73477" lon="2.51226">
        <ele>179</ele>
        <time>2018-04-16T10:30:13Z</time>
      </trkpt>
      <trkpt lat="46.7348" lon="2.51209">
        <ele>179</ele>
        <time>2018-04-16T10:30:16Z</time>
      </trkpt>
      <trkpt lat="46.73482" lon="2.51203">
        <ele>178</ele>
        <time>2018-04-16T10:30:17Z</time>
      </trkpt>
      <trkpt lat="46.73485" lon="2.51183">
        <ele>178</ele>
        <time>2018-04-16T10:30:20Z</time>
      </trkpt>
      <trkpt lat="46.73494" lon="2.51143">
        <ele>177</ele>
        <time>2018-04-16T10:30:26Z</time>
      </trkpt>
      <trkpt lat="46.73511" lon="2.51098">
        <ele>178</ele>
        <time>2018-04-16T10:30:33Z</time>
      </trkpt>
      <trkpt lat="46.73518" lon="2.51079">
        <ele>178</ele>
        <time>2018-04-16T10:30:36Z</time>
      </trkpt>
      <trkpt lat="46.73529" lon="2.51033">
        <ele>179</ele>
        <time>2018-04-16T10:31:20Z</time>
      </trkpt>
      <trkpt lat="46.73529" lon="2.51033">
        <ele>179</ele>
        <time>2018-04-16T10:31:23Z</time>
      </trkpt>
      <trkpt lat="46.73529" lon="2.51033">
        <ele>179</ele>
        <time>2018-04-16T10:31:28Z</time>
      </trkpt>
      <trkpt lat="46.73536" lon="2.51">
        <ele>178</ele>
        <time>2018-04-16T10:31:36Z</time>
      </trkpt>
      <trkpt lat="46.73541" lon="2.50964">
        <ele>178</ele>
        <time>2018-04-16T10:31:42Z</time>
      </trkpt>
      <trkpt lat="46.73548" lon="2.50921">
        <ele>178</ele>
        <time>2018-04-16T10:31:49Z</time>
      </trkpt>
      <trkpt lat="46.7356" lon="2.50857">
        <ele>177</ele>
        <time>2018-04-16T10:31:59Z</time>
      </trkpt>
      <trkpt lat="46.73562" lon="2.5085">
        <ele>177</ele>
        <time>2018-04-16T10:32:00Z</time>
      </trkpt>
      <trkpt lat="46.73564" lon="2.50843">
        <ele>177</ele>
        <time>2018-04-16T10:32:01Z</time>
      </trkpt>
      <trkpt lat="46.73569" lon="2.5083">
        <ele>176</ele>
        <time>2018-04-16T10:32:03Z</time>
      </trkpt>
      <trkpt lat="46.73571" lon="2.50823">
        <ele>176</ele>
        <time>2018-04-16T10:32:04Z</time>
      </trkpt>
      <trkpt lat="46.73573" lon="2.50816">
        <ele>176</ele>
        <time>2018-04-16T10:32:05Z</time>
      </trkpt>
      <trkpt lat="46.73575" lon="2.5081">
        <ele>176</ele>
        <time>2018-04-16T10:32:06Z</time>
      </trkpt>
      <trkpt lat="46.73586" lon="2.50779">
        <ele>178</ele>
        <time>2018-04-16T10:32:11Z</time>
      </trkpt>
      <trkpt lat="46.73591" lon="2.50758">
        <ele>177</ele>
        <time>2018-04-16T10:32:16Z</time>
      </trkpt>
      <trkpt lat="46.73582" lon="2.50736">
        <ele>175</ele>
        <time>2018-04-16T10:32:21Z</time>
      </trkpt>
      <trkpt lat="46.73581" lon="2.50724">
        <ele>175</ele>
        <time>2018-04-16T10:32:23Z</time>
      </trkpt>
      <trkpt lat="46.73584" lon="2.50711">
        <ele>177</ele>
        <time>2018-04-16T10:32:26Z</time>
      </trkpt>
      <trkpt lat="46.73588" lon="2.50701">
        <ele>177</ele>
        <time>2018-04-16T10:32:32Z</time>
      </trkpt>
      <trkpt lat="46.7359" lon="2.50699">
        <ele>177</ele>
        <time>2018-04-16T10:32:34Z</time>
      </trkpt>
      <trkpt lat="46.73592" lon="2.50695">
        <ele>176</ele>
        <time>2018-04-16T10:32:37Z</time>
      </trkpt>
      <trkpt lat="46.73594" lon="2.50692">
        <ele>176</ele>
        <time>2018-04-16T10:32:39Z</time>
      </trkpt>
      <trkpt lat="46.73596" lon="2.50689">
        <ele>176</ele>
        <time>2018-04-16T10:32:41Z</time>
      </trkpt>
      <trkpt lat="46.73597" lon="2.50686">
        <ele>176</ele>
        <time>2018-04-16T10:32:43Z</time>
      </trkpt>
      <trkpt lat="46.73598" lon="2.50685">
        <ele>176</ele>
        <time>2018-04-16T10:32:44Z</time>
      </trkpt>
      <trkpt lat="46.736" lon="2.5068">
        <ele>176</ele>
        <time>2018-04-16T10:32:47Z</time>
      </trkpt>
      <trkpt lat="46.7361" lon="2.50665">
        <ele>176</ele>
        <time>2018-04-16T10:32:56Z</time>
      </trkpt>
      <trkpt lat="46.73621" lon="2.50647">
        <ele>176</ele>
        <time>2018-04-16T10:33:03Z</time>
      </trkpt>
      <trkpt lat="46.73636" lon="2.50626">
        <ele>176</ele>
        <time>2018-04-16T10:33:14Z</time>
      </trkpt>
      <trkpt lat="46.73637" lon="2.50625">
        <ele>176</ele>
        <time>2018-04-16T10:33:15Z</time>
      </trkpt>
      <trkpt lat="46.73638" lon="2.50623">
        <ele>176</ele>
        <time>2018-04-16T10:33:16Z</time>
      </trkpt>
      <trkpt lat="46.73646" lon="2.50609">
        <ele>176</ele>
        <time>2018-04-16T10:33:24Z</time>
      </trkpt>
      <trkpt lat="46.73653" lon="2.50593">
        <ele>176</ele>
        <time>2018-04-16T10:34:02Z</time>
      </trkpt>
      <trkpt lat="46.73652" lon="2.50593">
        <ele>176</ele>
        <time>2018-04-16T10:34:11Z</time>
      </trkpt>
      <trkpt lat="46.73651" lon="2.50594">
        <ele>176</ele>
        <time>2018-04-16T10:34:34Z</time>
      </trkpt>
      <trkpt lat="46.73651" lon="2.50593">
        <ele>176</ele>
        <time>2018-04-16T10:34:39Z</time>
      </trkpt>
      <trkpt lat="46.73651" lon="2.50593">
        <ele>176</ele>
        <time>2018-04-16T10:34:41Z</time>
      </trkpt>
      <trkpt lat="46.73651" lon="2.50593">
        <ele>176</ele>
        <time>2018-04-16T10:34:42Z</time>
      </trkpt>
      <trkpt lat="46.73651" lon="2.50593">
        <ele>176</ele>
        <time>2018-04-16T10:34:43Z</time>
      </trkpt>
      <trkpt lat="46.73651" lon="2.50592">
        <ele>176</ele>
        <time>2018-04-16T10:34:44Z</time>
      </trkpt>
      <trkpt lat="46.7366" lon="2.50543">
        <ele>175</ele>
        <time>2018-04-16T10:34:57Z</time>
      </trkpt>
      <trkpt lat="46.73661" lon="2.50533">
        <ele>175</ele>
        <time>2018-04-16T10:34:59Z</time>
      </trkpt>
      <trkpt lat="46.73662" lon="2.50528">
        <ele>175</ele>
        <time>2018-04-16T10:35:00Z</time>
      </trkpt>
      <trkpt lat="46.73663" lon="2.50523">
        <ele>175</ele>
        <time>2018-04-16T10:35:01Z</time>
      </trkpt>
      <trkpt lat="46.73664" lon="2.50518">
        <ele>175</ele>
        <time>2018-04-16T10:35:02Z</time>
      </trkpt>
      <trkpt lat="46.73665" lon="2.50513">
        <ele>175</ele>
        <time>2018-04-16T10:35:03Z</time>
      </trkpt>
      <trkpt lat="46.73666" lon="2.50508">
        <ele>175</ele>
        <time>2018-04-16T10:35:04Z</time>
      </trkpt>
      <trkpt lat="46.73667" lon="2.50496">
        <ele>175</ele>
        <time>2018-04-16T10:35:06Z</time>
      </trkpt>
      <trkpt lat="46.73671" lon="2.50467">
        <ele>177</ele>
        <time>2018-04-16T10:35:11Z</time>
      </trkpt>
      <trkpt lat="46.73675" lon="2.50444">
        <ele>177</ele>
        <time>2018-04-16T10:35:15Z</time>
      </trkpt>
      <trkpt lat="46.73677" lon="2.50362">
        <ele>176</ele>
        <time>2018-04-16T10:35:27Z</time>
      </trkpt>
      <trkpt lat="46.73672" lon="2.50317">
        <ele>176</ele>
        <time>2018-04-16T10:35:33Z</time>
      </trkpt>
      <trkpt lat="46.73664" lon="2.50253">
        <ele>174</ele>
        <time>2018-04-16T10:35:41Z</time>
      </trkpt>
      <trkpt lat="46.73658" lon="2.50196">
        <ele>172</ele>
        <time>2018-04-16T10:35:48Z</time>
      </trkpt>
      <trkpt lat="46.73657" lon="2.50172">
        <ele>172</ele>
        <time>2018-04-16T10:35:51Z</time>
      </trkpt>
      <trkpt lat="46.73654" lon="2.50124">
        <ele>170</ele>
        <time>2018-04-16T10:35:57Z</time>
      </trkpt>
      <trkpt lat="46.73646" lon="2.50038">
        <ele>168</ele>
        <time>2018-04-16T10:36:07Z</time>
      </trkpt>
      <trkpt lat="46.73639" lon="2.49954">
        <ele>166</ele>
        <time>2018-04-16T10:36:16Z</time>
      </trkpt>
      <trkpt lat="46.73645" lon="2.49875">
        <ele>166</ele>
        <time>2018-04-16T10:36:25Z</time>
      </trkpt>
      <trkpt lat="46.73658" lon="2.49791">
        <ele>164</ele>
        <time>2018-04-16T10:36:35Z</time>
      </trkpt>
      <trkpt lat="46.7367" lon="2.49706">
        <ele>165</ele>
        <time>2018-04-16T10:36:45Z</time>
      </trkpt>
      <trkpt lat="46.73679" lon="2.49625">
        <ele>164</ele>
        <time>2018-04-16T10:36:55Z</time>
      </trkpt>
      <trkpt lat="46.73678" lon="2.49584">
        <ele>163</ele>
        <time>2018-04-16T10:37:00Z</time>
      </trkpt>
      <trkpt lat="46.73674" lon="2.49498">
        <ele>160</ele>
        <time>2018-04-16T10:37:10Z</time>
      </trkpt>
      <trkpt lat="46.73669" lon="2.49419">
        <ele>158</ele>
        <time>2018-04-16T10:37:19Z</time>
      </trkpt>
      <trkpt lat="46.73649" lon="2.49345">
        <ele>158</ele>
        <time>2018-04-16T10:37:28Z</time>
      </trkpt>
      <trkpt lat="46.73619" lon="2.49275">
        <ele>158</ele>
        <time>2018-04-16T10:37:37Z</time>
      </trkpt>
      <trkpt lat="46.736" lon="2.4923">
        <ele>158</ele>
        <time>2018-04-16T10:37:43Z</time>
      </trkpt>
      <trkpt lat="46.73578" lon="2.49176">
        <ele>158</ele>
        <time>2018-04-16T10:37:51Z</time>
      </trkpt>
      <trkpt lat="46.7357" lon="2.49156">
        <ele>158</ele>
        <time>2018-04-16T10:37:54Z</time>
      </trkpt>
      <trkpt lat="46.73566" lon="2.49141">
        <ele>158</ele>
        <time>2018-04-16T10:37:57Z</time>
      </trkpt>
      <trkpt lat="46.73563" lon="2.49138">
        <ele>158</ele>
        <time>2018-04-16T10:38:00Z</time>
      </trkpt>
      <trkpt lat="46.73564" lon="2.49138">
        <ele>158</ele>
        <time>2018-04-16T10:38:09Z</time>
      </trkpt>
      <trkpt lat="46.73564" lon="2.49138">
        <ele>158</ele>
        <time>2018-04-16T10:38:10Z</time>
      </trkpt>
      <trkpt lat="46.73564" lon="2.49138">
        <ele>158</ele>
        <time>2018-04-16T10:38:11Z</time>
      </trkpt>
      <trkpt lat="46.73564" lon="2.49139">
        <ele>158</ele>
        <time>2018-04-16T10:38:21Z</time>
      </trkpt>
      <trkpt lat="46.73564" lon="2.49139">
        <ele>158</ele>
        <time>2018-04-16T10:38:37Z</time>
      </trkpt>
      <trkpt lat="46.73564" lon="2.49139">
        <ele>158</ele>
        <time>2018-04-16T10:38:39Z</time>
      </trkpt>
      <trkpt lat="46.73564" lon="2.49139">
        <ele>158</ele>
        <time>2018-04-16T10:38:44Z</time>
      </trkpt>
      <trkpt lat="46.73564" lon="2.49139">
        <ele>158</ele>
        <time>2018-04-16T10:38:48Z</time>
      </trkpt>
      <trkpt lat="46.73564" lon="2.49139">
        <ele>158</ele>
        <time>2018-04-16T10:38:51Z</time>
      </trkpt>
      <trkpt lat="46.73564" lon="2.49139">
        <ele>158</ele>
        <time>2018-04-16T10:38:55Z</time>
      </trkpt>
      <trkpt lat="46.73564" lon="2.49139">
        <ele>158</ele>
        <time>2018-04-16T10:38:59Z</time>
      </trkpt>
      <trkpt lat="46.73564" lon="2.49139">
        <ele>158</ele>
        <time>2018-04-16T10:39:02Z</time>
      </trkpt>
      <trkpt lat="46.73564" lon="2.49137">
        <ele>158</ele>
        <time>2018-04-16T10:39:06Z</time>
      </trkpt>
      <trkpt lat="46.73563" lon="2.49133">
        <ele>157</ele>
        <time>2018-04-16T10:39:08Z</time>
      </trkpt>
      <trkpt lat="46.73549" lon="2.49107">
        <ele>157</ele>
        <time>2018-04-16T10:39:16Z</time>
      </trkpt>
      <trkpt lat="46.73539" lon="2.49085">
        <ele>157</ele>
        <time>2018-04-16T10:39:20Z</time>
      </trkpt>
      <trkpt lat="46.73535" lon="2.49073">
        <ele>156</ele>
        <time>2018-04-16T10:39:22Z</time>
      </trkpt>
      <trkpt lat="46.73528" lon="2.49045">
        <ele>155</ele>
        <time>2018-04-16T10:39:27Z</time>
      </trkpt>
      <trkpt lat="46.73529" lon="2.49027">
        <ele>155</ele>
        <time>2018-04-16T10:39:30Z</time>
      </trkpt>
      <trkpt lat="46.73527" lon="2.49015">
        <ele>155</ele>
        <time>2018-04-16T10:39:32Z</time>
      </trkpt>
      <trkpt lat="46.73521" lon="2.49005">
        <ele>154</ele>
        <time>2018-04-16T10:39:34Z</time>
      </trkpt>
      <trkpt lat="46.73509" lon="2.48997">
        <ele>153</ele>
        <time>2018-04-16T10:39:37Z</time>
      </trkpt>
      <trkpt lat="46.73494" lon="2.4898">
        <ele>151</ele>
        <time>2018-04-16T10:39:41Z</time>
      </trkpt>
      <trkpt lat="46.73482" lon="2.48956">
        <ele>151</ele>
        <time>2018-04-16T10:39:45Z</time>
      </trkpt>
      <trkpt lat="46.73451" lon="2.48884">
        <ele>149</ele>
        <time>2018-04-16T10:39:54Z</time>
      </trkpt>
      <trkpt lat="46.73434" lon="2.4884">
        <ele>149</ele>
        <time>2018-04-16T10:40:01Z</time>
      </trkpt>
      <trkpt lat="46.73471" lon="2.48788">
        <ele>150</ele>
        <time>2018-04-16T10:40:16Z</time>
      </trkpt>
      <trkpt lat="46.73522" lon="2.48748">
        <ele>151</ele>
        <time>2018-04-16T10:40:30Z</time>
      </trkpt>
      <trkpt lat="46.73542" lon="2.48716">
        <ele>151</ele>
        <time>2018-04-16T10:40:37Z</time>
      </trkpt>
      <trkpt lat="46.73547" lon="2.48707">
        <ele>151</ele>
        <time>2018-04-16T10:40:39Z</time>
      </trkpt>
      <trkpt lat="46.73555" lon="2.48696">
        <ele>151</ele>
        <time>2018-04-16T10:40:42Z</time>
      </trkpt>
      <trkpt lat="46.73559" lon="2.4869">
        <ele>151</ele>
        <time>2018-04-16T10:40:44Z</time>
      </trkpt>
      <trkpt lat="46.73564" lon="2.48684">
        <ele>151</ele>
        <time>2018-04-16T10:40:46Z</time>
      </trkpt>
      <trkpt lat="46.73566" lon="2.48681">
        <ele>151</ele>
        <time>2018-04-16T10:40:47Z</time>
      </trkpt>
      <trkpt lat="46.73568" lon="2.48679">
        <ele>151</ele>
        <time>2018-04-16T10:40:48Z</time>
      </trkpt>
      <trkpt lat="46.73571" lon="2.48674">
        <ele>152</ele>
        <time>2018-04-16T10:40:50Z</time>
      </trkpt>
      <trkpt lat="46.73573" lon="2.48672">
        <ele>152</ele>
        <time>2018-04-16T10:40:51Z</time>
      </trkpt>
      <trkpt lat="46.73576" lon="2.48668">
        <ele>152</ele>
        <time>2018-04-16T10:40:53Z</time>
      </trkpt>
      <trkpt lat="46.73578" lon="2.48665">
        <ele>151</ele>
        <time>2018-04-16T10:40:54Z</time>
      </trkpt>
      <trkpt lat="46.7358" lon="2.48663">
        <ele>151</ele>
        <time>2018-04-16T10:40:55Z</time>
      </trkpt>
      <trkpt lat="46.73582" lon="2.48661">
        <ele>151</ele>
        <time>2018-04-16T10:40:56Z</time>
      </trkpt>
      <trkpt lat="46.73583" lon="2.48658">
        <ele>151</ele>
        <time>2018-04-16T10:40:57Z</time>
      </trkpt>
      <trkpt lat="46.73604" lon="2.48628">
        <ele>150</ele>
        <time>2018-04-16T10:41:06Z</time>
      </trkpt>
      <trkpt lat="46.73607" lon="2.48624">
        <ele>150</ele>
        <time>2018-04-16T10:41:07Z</time>
      </trkpt>
      <trkpt lat="46.73612" lon="2.48616">
        <ele>150</ele>
        <time>2018-04-16T10:41:09Z</time>
      </trkpt>
      <trkpt lat="46.73621" lon="2.48601">
        <ele>150</ele>
        <time>2018-04-16T10:41:13Z</time>
      </trkpt>
      <trkpt lat="46.73625" lon="2.48582">
        <ele>150</ele>
        <time>2018-04-16T10:41:17Z</time>
      </trkpt>
      <trkpt lat="46.73629" lon="2.48566">
        <ele>150</ele>
        <time>2018-04-16T10:41:20Z</time>
      </trkpt>
      <trkpt lat="46.73631" lon="2.48549">
        <ele>150</ele>
        <time>2018-04-16T10:41:23Z</time>
      </trkpt>
      <trkpt lat="46.73634" lon="2.48538">
        <ele>150</ele>
        <time>2018-04-16T10:41:25Z</time>
      </trkpt>
      <trkpt lat="46.73635" lon="2.48532">
        <ele>150</ele>
        <time>2018-04-16T10:41:26Z</time>
      </trkpt>
      <trkpt lat="46.73638" lon="2.4852">
        <ele>150</ele>
        <time>2018-04-16T10:41:28Z</time>
      </trkpt>
      <trkpt lat="46.73649" lon="2.4848">
        <ele>151</ele>
        <time>2018-04-16T10:41:35Z</time>
      </trkpt>
      <trkpt lat="46.7366" lon="2.48446">
        <ele>151</ele>
        <time>2018-04-16T10:41:41Z</time>
      </trkpt>
      <trkpt lat="46.73662" lon="2.4844">
        <ele>151</ele>
        <time>2018-04-16T10:41:42Z</time>
      </trkpt>
      <trkpt lat="46.73664" lon="2.48435">
        <ele>152</ele>
        <time>2018-04-16T10:41:43Z</time>
      </trkpt>
      <trkpt lat="46.73675" lon="2.48394">
        <ele>152</ele>
        <time>2018-04-16T10:41:50Z</time>
      </trkpt>
      <trkpt lat="46.73684" lon="2.48367">
        <ele>150</ele>
        <time>2018-04-16T10:41:55Z</time>
      </trkpt>
      <trkpt lat="46.73707" lon="2.48303">
        <ele>149</ele>
        <time>2018-04-16T10:42:06Z</time>
      </trkpt>
      <trkpt lat="46.73713" lon="2.48263">
        <ele>149</ele>
        <time>2018-04-16T10:42:12Z</time>
      </trkpt>
      <trkpt lat="46.73716" lon="2.48245">
        <ele>149</ele>
        <time>2018-04-16T10:42:15Z</time>
      </trkpt>
      <trkpt lat="46.73719" lon="2.48233">
        <ele>149</ele>
        <time>2018-04-16T10:42:17Z</time>
      </trkpt>
      <trkpt lat="46.73722" lon="2.48215">
        <ele>149</ele>
        <time>2018-04-16T10:42:20Z</time>
      </trkpt>
      <trkpt lat="46.73726" lon="2.48198">
        <ele>149</ele>
        <time>2018-04-16T10:42:23Z</time>
      </trkpt>
      <trkpt lat="46.73743" lon="2.48145">
        <ele>150</ele>
        <time>2018-04-16T10:42:35Z</time>
      </trkpt>
      <trkpt lat="46.73774" lon="2.48133">
        <ele>152</ele>
        <time>2018-04-16T10:42:55Z</time>
      </trkpt>
      <trkpt lat="46.73775" lon="2.4813">
        <ele>152</ele>
        <time>2018-04-16T10:42:56Z</time>
      </trkpt>
      <trkpt lat="46.73782" lon="2.48123">
        <ele>152</ele>
        <time>2018-04-16T10:43:00Z</time>
      </trkpt>
      <trkpt lat="46.73786" lon="2.48133">
        <ele>152</ele>
        <time>2018-04-16T10:43:04Z</time>
      </trkpt>
      <trkpt lat="46.73788" lon="2.48134">
        <ele>152</ele>
        <time>2018-04-16T10:43:05Z</time>
      </trkpt>
      <trkpt lat="46.73831" lon="2.48144">
        <ele>152</ele>
        <time>2018-04-16T10:43:21Z</time>
      </trkpt>
      <trkpt lat="46.73837" lon="2.4812">
        <ele>153</ele>
        <time>2018-04-16T10:43:28Z</time>
      </trkpt>
      <trkpt lat="46.73832" lon="2.48105">
        <ele>153</ele>
        <time>2018-04-16T10:43:33Z</time>
      </trkpt>
      <trkpt lat="46.73837" lon="2.48082">
        <ele>153</ele>
        <time>2018-04-16T10:43:40Z</time>
      </trkpt>
      <trkpt lat="46.73887" lon="2.48053">
        <ele>153</ele>
        <time>2018-04-16T10:44:00Z</time>
      </trkpt>
      <trkpt lat="46.7389" lon="2.48044">
        <ele>153</ele>
        <time>2018-04-16T10:44:02Z</time>
      </trkpt>
      <trkpt lat="46.73901" lon="2.4802">
        <ele>152</ele>
        <time>2018-04-16T10:44:08Z</time>
      </trkpt>
      <trkpt lat="46.73904" lon="2.48011">
        <ele>152</ele>
        <time>2018-04-16T10:44:10Z</time>
      </trkpt>
      <trkpt lat="46.7391" lon="2.47999">
        <ele>151</ele>
        <time>2018-04-16T10:44:13Z</time>
      </trkpt>
      <trkpt lat="46.73914" lon="2.4799">
        <ele>151</ele>
        <time>2018-04-16T10:44:15Z</time>
      </trkpt>
      <trkpt lat="46.73921" lon="2.47978">
        <ele>152</ele>
        <time>2018-04-16T10:44:18Z</time>
      </trkpt>
      <trkpt lat="46.73925" lon="2.4797">
        <ele>153</ele>
        <time>2018-04-16T10:44:20Z</time>
      </trkpt>
      <trkpt lat="46.73954" lon="2.47902">
        <ele>153</ele>
        <time>2018-04-16T10:44:37Z</time>
      </trkpt>
      <trkpt lat="46.73957" lon="2.47893">
        <ele>153</ele>
        <time>2018-04-16T10:44:39Z</time>
      </trkpt>
      <trkpt lat="46.73962" lon="2.4788">
        <ele>153</ele>
        <time>2018-04-16T10:44:42Z</time>
      </trkpt>
      <trkpt lat="46.73977" lon="2.47846">
        <ele>152</ele>
        <time>2018-04-16T10:44:51Z</time>
      </trkpt>
      <trkpt lat="46.74007" lon="2.47779">
        <ele>153</ele>
        <time>2018-04-16T10:45:06Z</time>
      </trkpt>
      <trkpt lat="46.74036" lon="2.47712">
        <ele>153</ele>
        <time>2018-04-16T10:45:21Z</time>
      </trkpt>
      <trkpt lat="46.74067" lon="2.47645">
        <ele>153</ele>
        <time>2018-04-16T10:45:35Z</time>
      </trkpt>
      <trkpt lat="46.74099" lon="2.47577">
        <ele>156</ele>
        <time>2018-04-16T10:45:50Z</time>
      </trkpt>
      <trkpt lat="46.74109" lon="2.47554">
        <ele>157</ele>
        <time>2018-04-16T10:45:55Z</time>
      </trkpt>
      <trkpt lat="46.74119" lon="2.47532">
        <ele>158</ele>
        <time>2018-04-16T10:46:00Z</time>
      </trkpt>
      <trkpt lat="46.74125" lon="2.47518">
        <ele>158</ele>
        <time>2018-04-16T10:46:03Z</time>
      </trkpt>
      <trkpt lat="46.74155" lon="2.47451">
        <ele>159</ele>
        <time>2018-04-16T10:46:18Z</time>
      </trkpt>
      <trkpt lat="46.74173" lon="2.47397">
        <ele>166</ele>
        <time>2018-04-16T10:46:29Z</time>
      </trkpt>
      <trkpt lat="46.74174" lon="2.47392">
        <ele>167</ele>
        <time>2018-04-16T10:46:30Z</time>
      </trkpt>
      <trkpt lat="46.74186" lon="2.47314">
        <ele>165</ele>
        <time>2018-04-16T10:46:45Z</time>
      </trkpt>
      <trkpt lat="46.74192" lon="2.47289">
        <ele>166</ele>
        <time>2018-04-16T10:46:50Z</time>
      </trkpt>
      <trkpt lat="46.742" lon="2.47255">
        <ele>166</ele>
        <time>2018-04-16T10:46:58Z</time>
      </trkpt>
      <trkpt lat="46.74226" lon="2.47184">
        <ele>164</ele>
        <time>2018-04-16T10:47:17Z</time>
      </trkpt>
      <trkpt lat="46.74255" lon="2.4712">
        <ele>170</ele>
        <time>2018-04-16T10:47:31Z</time>
      </trkpt>
      <trkpt lat="46.74271" lon="2.47086">
        <ele>168</ele>
        <time>2018-04-16T10:47:38Z</time>
      </trkpt>
      <trkpt lat="46.74273" lon="2.47081">
        <ele>164</ele>
        <time>2018-04-16T10:47:39Z</time>
      </trkpt>
      <trkpt lat="46.74295" lon="2.47029">
        <ele>165</ele>
        <time>2018-04-16T10:47:50Z</time>
      </trkpt>
      <trkpt lat="46.74305" lon="2.47006">
        <ele>165</ele>
        <time>2018-04-16T10:47:55Z</time>
      </trkpt>
      <trkpt lat="46.74308" lon="2.47002">
        <ele>165</ele>
        <time>2018-04-16T10:47:56Z</time>
      </trkpt>
      <trkpt lat="46.7431" lon="2.46998">
        <ele>161</ele>
        <time>2018-04-16T10:47:57Z</time>
      </trkpt>
      <trkpt lat="46.74326" lon="2.46939">
        <ele>159</ele>
        <time>2018-04-16T10:48:09Z</time>
      </trkpt>
      <trkpt lat="46.74337" lon="2.46915">
        <ele>160</ele>
        <time>2018-04-16T10:48:16Z</time>
      </trkpt>
      <trkpt lat="46.74349" lon="2.46908">
        <ele>162</ele>
        <time>2018-04-16T10:48:25Z</time>
      </trkpt>
      <trkpt lat="46.74373" lon="2.46871">
        <ele>163</ele>
        <time>2018-04-16T10:48:57Z</time>
      </trkpt>
      <trkpt lat="46.74373" lon="2.46871">
        <ele>163</ele>
        <time>2018-04-16T10:49:05Z</time>
      </trkpt>
      <trkpt lat="46.74373" lon="2.46872">
        <ele>163</ele>
        <time>2018-04-16T10:49:12Z</time>
      </trkpt>
      <trkpt lat="46.74373" lon="2.46873">
        <ele>163</ele>
        <time>2018-04-16T10:49:20Z</time>
      </trkpt>
      <trkpt lat="46.74373" lon="2.46873">
        <ele>163</ele>
        <time>2018-04-16T10:49:27Z</time>
      </trkpt>
      <trkpt lat="46.74373" lon="2.46873">
        <ele>163</ele>
        <time>2018-04-16T10:49:32Z</time>
      </trkpt>
      <trkpt lat="46.74373" lon="2.46873">
        <ele>163</ele>
        <time>2018-04-16T10:49:39Z</time>
      </trkpt>
      <trkpt lat="46.74373" lon="2.46873">
        <ele>163</ele>
        <time>2018-04-16T10:49:45Z</time>
      </trkpt>
      <trkpt lat="46.74373" lon="2.46873">
        <ele>163</ele>
        <time>2018-04-16T10:49:46Z</time>
      </trkpt>
      <trkpt lat="46.74374" lon="2.4687">
        <ele>163</ele>
        <time>2018-04-16T10:49:53Z</time>
      </trkpt>
      <trkpt lat="46.74389" lon="2.46832">
        <ele>160</ele>
        <time>2018-04-16T10:50:03Z</time>
      </trkpt>
      <trkpt lat="46.74404" lon="2.46779">
        <ele>158</ele>
        <time>2018-04-16T10:50:12Z</time>
      </trkpt>
      <trkpt lat="46.74411" lon="2.46752">
        <ele>158</ele>
        <time>2018-04-16T10:50:16Z</time>
      </trkpt>
      <trkpt lat="46.74428" lon="2.46684">
        <ele>159</ele>
        <time>2018-04-16T10:50:26Z</time>
      </trkpt>
      <trkpt lat="46.74433" lon="2.46664">
        <ele>157</ele>
        <time>2018-04-16T10:50:29Z</time>
      </trkpt>
      <trkpt lat="46.74435" lon="2.46657">
        <ele>157</ele>
        <time>2018-04-16T10:50:30Z</time>
      </trkpt>
      <trkpt lat="46.74437" lon="2.4665">
        <ele>158</ele>
        <time>2018-04-16T10:50:31Z</time>
      </trkpt>
      <trkpt lat="46.74439" lon="2.46642">
        <ele>158</ele>
        <time>2018-04-16T10:50:32Z</time>
      </trkpt>
      <trkpt lat="46.74441" lon="2.46634">
        <ele>158</ele>
        <time>2018-04-16T10:50:33Z</time>
      </trkpt>
      <trkpt lat="46.74443" lon="2.46626">
        <ele>158</ele>
        <time>2018-04-16T10:50:34Z</time>
      </trkpt>
      <trkpt lat="46.74445" lon="2.46618">
        <ele>158</ele>
        <time>2018-04-16T10:50:35Z</time>
      </trkpt>
      <trkpt lat="46.74447" lon="2.46609">
        <ele>158</ele>
        <time>2018-04-16T10:50:36Z</time>
      </trkpt>
      <trkpt lat="46.74457" lon="2.46567">
        <ele>158</ele>
        <time>2018-04-16T10:50:41Z</time>
      </trkpt>
      <trkpt lat="46.74463" lon="2.46545">
        <ele>158</ele>
        <time>2018-04-16T10:50:44Z</time>
      </trkpt>
      <trkpt lat="46.74466" lon="2.46531">
        <ele>158</ele>
        <time>2018-04-16T10:50:46Z</time>
      </trkpt>
      <trkpt lat="46.74487" lon="2.46453">
        <ele>159</ele>
        <time>2018-04-16T10:50:59Z</time>
      </trkpt>
      <trkpt lat="46.74492" lon="2.46437">
        <ele>159</ele>
        <time>2018-04-16T10:51:02Z</time>
      </trkpt>
      <trkpt lat="46.745" lon="2.4641">
        <ele>159</ele>
        <time>2018-04-16T10:51:07Z</time>
      </trkpt>
      <trkpt lat="46.74516" lon="2.4633">
        <ele>161</ele>
        <time>2018-04-16T10:51:21Z</time>
      </trkpt>
      <trkpt lat="46.74542" lon="2.46259">
        <ele>163</ele>
        <time>2018-04-16T10:51:35Z</time>
      </trkpt>
      <trkpt lat="46.74572" lon="2.46187">
        <ele>160</ele>
        <time>2018-04-16T10:51:48Z</time>
      </trkpt>
      <trkpt lat="46.74581" lon="2.46159">
        <ele>159</ele>
        <time>2018-04-16T10:51:52Z</time>
      </trkpt>
      <trkpt lat="46.74582" lon="2.46152">
        <ele>158</ele>
        <time>2018-04-16T10:51:53Z</time>
      </trkpt>
      <trkpt lat="46.74584" lon="2.46144">
        <ele>162</ele>
        <time>2018-04-16T10:51:54Z</time>
      </trkpt>
      <trkpt lat="46.74602" lon="2.46063">
        <ele>160</ele>
        <time>2018-04-16T10:52:04Z</time>
      </trkpt>
      <trkpt lat="46.74609" lon="2.45983">
        <ele>157</ele>
        <time>2018-04-16T10:52:14Z</time>
      </trkpt>
      <trkpt lat="46.74605" lon="2.45924">
        <ele>155</ele>
        <time>2018-04-16T10:52:26Z</time>
      </trkpt>
      <trkpt lat="46.74598" lon="2.45863">
        <ele>153</ele>
        <time>2018-04-16T10:52:37Z</time>
      </trkpt>
      <trkpt lat="46.74574" lon="2.45789">
        <ele>150</ele>
        <time>2018-04-16T10:52:49Z</time>
      </trkpt>
      <trkpt lat="46.74552" lon="2.45758">
        <ele>150</ele>
        <time>2018-04-16T10:52:56Z</time>
      </trkpt>
      <trkpt lat="46.74535" lon="2.45748">
        <ele>150</ele>
        <time>2018-04-16T10:53:01Z</time>
      </trkpt>
      <trkpt lat="46.74522" lon="2.45741">
        <ele>151</ele>
        <time>2018-04-16T10:53:05Z</time>
      </trkpt>
      <trkpt lat="46.74519" lon="2.45738">
        <ele>151</ele>
        <time>2018-04-16T10:53:06Z</time>
      </trkpt>
      <trkpt lat="46.74516" lon="2.45735">
        <ele>151</ele>
        <time>2018-04-16T10:53:07Z</time>
      </trkpt>
      <trkpt lat="46.74513" lon="2.45731">
        <ele>151</ele>
        <time>2018-04-16T10:53:08Z</time>
      </trkpt>
      <trkpt lat="46.74507" lon="2.45724">
        <ele>151</ele>
        <time>2018-04-16T10:53:10Z</time>
      </trkpt>
      <trkpt lat="46.74504" lon="2.4572">
        <ele>151</ele>
        <time>2018-04-16T10:53:11Z</time>
      </trkpt>
      <trkpt lat="46.74502" lon="2.45717">
        <ele>151</ele>
        <time>2018-04-16T10:53:12Z</time>
      </trkpt>
      <trkpt lat="46.74494" lon="2.45704">
        <ele>150</ele>
        <time>2018-04-16T10:53:15Z</time>
      </trkpt>
      <trkpt lat="46.74483" lon="2.45687">
        <ele>150</ele>
        <time>2018-04-16T10:53:19Z</time>
      </trkpt>
      <trkpt lat="46.74459" lon="2.45652">
        <ele>149</ele>
        <time>2018-04-16T10:53:27Z</time>
      </trkpt>
      <trkpt lat="46.74453" lon="2.45643">
        <ele>149</ele>
        <time>2018-04-16T10:53:29Z</time>
      </trkpt>
      <trkpt lat="46.7445" lon="2.45638">
        <ele>149</ele>
        <time>2018-04-16T10:53:30Z</time>
      </trkpt>
      <trkpt lat="46.74438" lon="2.4562">
        <ele>149</ele>
        <time>2018-04-16T10:53:34Z</time>
      </trkpt>
      <trkpt lat="46.74432" lon="2.45611">
        <ele>149</ele>
        <time>2018-04-16T10:53:36Z</time>
      </trkpt>
      <trkpt lat="46.74422" lon="2.45596">
        <ele>149</ele>
        <time>2018-04-16T10:53:39Z</time>
      </trkpt>
      <trkpt lat="46.7441" lon="2.45578">
        <ele>149</ele>
        <time>2018-04-16T10:53:43Z</time>
      </trkpt>
      <trkpt lat="46.74406" lon="2.45573">
        <ele>149</ele>
        <time>2018-04-16T10:53:44Z</time>
      </trkpt>
      <trkpt lat="46.74403" lon="2.45568">
        <ele>149</ele>
        <time>2018-04-16T10:53:45Z</time>
      </trkpt>
      <trkpt lat="46.744" lon="2.45564">
        <ele>149</ele>
        <time>2018-04-16T10:53:46Z</time>
      </trkpt>
      <trkpt lat="46.74394" lon="2.45555">
        <ele>149</ele>
        <time>2018-04-16T10:53:48Z</time>
      </trkpt>
      <trkpt lat="46.74383" lon="2.45537">
        <ele>148</ele>
        <time>2018-04-16T10:53:52Z</time>
      </trkpt>
      <trkpt lat="46.74365" lon="2.45508">
        <ele>148</ele>
        <time>2018-04-16T10:53:58Z</time>
      </trkpt>
      <trkpt lat="46.74335" lon="2.4546">
        <ele>149</ele>
        <time>2018-04-16T10:54:08Z</time>
      </trkpt>
      <trkpt lat="46.74319" lon="2.45436">
        <ele>149</ele>
        <time>2018-04-16T10:54:13Z</time>
      </trkpt>
      <trkpt lat="46.74286" lon="2.45388">
        <ele>150</ele>
        <time>2018-04-16T10:54:23Z</time>
      </trkpt>
      <trkpt lat="46.74282" lon="2.45383">
        <ele>150</ele>
        <time>2018-04-16T10:54:24Z</time>
      </trkpt>
      <trkpt lat="46.74245" lon="2.45326">
        <ele>151</ele>
        <time>2018-04-16T10:54:35Z</time>
      </trkpt>
      <trkpt lat="46.74209" lon="2.45264">
        <ele>150</ele>
        <time>2018-04-16T10:54:47Z</time>
      </trkpt>
      <trkpt lat="46.74181" lon="2.45223">
        <ele>150</ele>
        <time>2018-04-16T10:54:56Z</time>
      </trkpt>
      <trkpt lat="46.74153" lon="2.45151">
        <ele>149</ele>
        <time>2018-04-16T10:55:08Z</time>
      </trkpt>
      <trkpt lat="46.74151" lon="2.45145">
        <ele>149</ele>
        <time>2018-04-16T10:55:09Z</time>
      </trkpt>
      <trkpt lat="46.74146" lon="2.45128">
        <ele>149</ele>
        <time>2018-04-16T10:55:12Z</time>
      </trkpt>
      <trkpt lat="46.74123" lon="2.45051">
        <ele>149</ele>
        <time>2018-04-16T10:55:24Z</time>
      </trkpt>
      <trkpt lat="46.74093" lon="2.44979">
        <ele>150</ele>
        <time>2018-04-16T10:55:36Z</time>
      </trkpt>
      <trkpt lat="46.74052" lon="2.44926">
        <ele>150</ele>
        <time>2018-04-16T10:55:48Z</time>
      </trkpt>
      <trkpt lat="46.74048" lon="2.44921">
        <ele>150</ele>
        <time>2018-04-16T10:55:49Z</time>
      </trkpt>
      <trkpt lat="46.74047" lon="2.4491">
        <ele>150</ele>
        <time>2018-04-16T10:55:51Z</time>
      </trkpt>
      <trkpt lat="46.74052" lon="2.44899">
        <ele>150</ele>
        <time>2018-04-16T10:55:53Z</time>
      </trkpt>
      <trkpt lat="46.74098" lon="2.44849">
        <ele>151</ele>
        <time>2018-04-16T10:56:05Z</time>
      </trkpt>
      <trkpt lat="46.74139" lon="2.44794">
        <ele>151</ele>
        <time>2018-04-16T10:56:17Z</time>
      </trkpt>
      <trkpt lat="46.74176" lon="2.4473">
        <ele>149</ele>
        <time>2018-04-16T10:56:30Z</time>
      </trkpt>
      <trkpt lat="46.74197" lon="2.44674">
        <ele>148</ele>
        <time>2018-04-16T10:56:40Z</time>
      </trkpt>
      <trkpt lat="46.74206" lon="2.4465">
        <ele>148</ele>
        <time>2018-04-16T10:56:44Z</time>
      </trkpt>
      <trkpt lat="46.74212" lon="2.4464">
        <ele>148</ele>
        <time>2018-04-16T10:56:46Z</time>
      </trkpt>
      <trkpt lat="46.74237" lon="2.44615">
        <ele>149</ele>
        <time>2018-04-16T10:56:53Z</time>
      </trkpt>
      <trkpt lat="46.74274" lon="2.44579">
        <ele>149</ele>
        <time>2018-04-16T10:57:03Z</time>
      </trkpt>
      <trkpt lat="46.74307" lon="2.44515">
        <ele>149</ele>
        <time>2018-04-16T10:57:15Z</time>
      </trkpt>
      <trkpt lat="46.74333" lon="2.44451">
        <ele>148</ele>
        <time>2018-04-16T10:57:27Z</time>
      </trkpt>
      <trkpt lat="46.74339" lon="2.4444">
        <ele>148</ele>
        <time>2018-04-16T10:57:29Z</time>
      </trkpt>
      <trkpt lat="46.74361" lon="2.44414">
        <ele>147</ele>
        <time>2018-04-16T10:57:36Z</time>
      </trkpt>
      <trkpt lat="46.74365" lon="2.44413">
        <ele>147</ele>
        <time>2018-04-16T10:57:37Z</time>
      </trkpt>
      <trkpt lat="46.74373" lon="2.44416">
        <ele>148</ele>
        <time>2018-04-16T10:57:39Z</time>
      </trkpt>
      <trkpt lat="46.7438" lon="2.44425">
        <ele>149</ele>
        <time>2018-04-16T10:57:41Z</time>
      </trkpt>
      <trkpt lat="46.7439" lon="2.44438">
        <ele>149</ele>
        <time>2018-04-16T10:57:44Z</time>
      </trkpt>
      <trkpt lat="46.74431" lon="2.44491">
        <ele>151</ele>
        <time>2018-04-16T10:57:57Z</time>
      </trkpt>
      <trkpt lat="46.74437" lon="2.44492">
        <ele>151</ele>
        <time>2018-04-16T10:57:59Z</time>
      </trkpt>
      <trkpt lat="46.74454" lon="2.4447">
        <ele>150</ele>
        <time>2018-04-16T10:58:05Z</time>
      </trkpt>
      <trkpt lat="46.74497" lon="2.4442">
        <ele>152</ele>
        <time>2018-04-16T10:58:18Z</time>
      </trkpt>
      <trkpt lat="46.74501" lon="2.44418">
        <ele>152</ele>
        <time>2018-04-16T10:58:19Z</time>
      </trkpt>
      <trkpt lat="46.74553" lon="2.44424">
        <ele>150</ele>
        <time>2018-04-16T10:58:34Z</time>
      </trkpt>
      <trkpt lat="46.74591" lon="2.44366">
        <ele>149</ele>
        <time>2018-04-16T10:58:49Z</time>
      </trkpt>
      <trkpt lat="46.74627" lon="2.44305">
        <ele>149</ele>
        <time>2018-04-16T10:59:02Z</time>
      </trkpt>
      <trkpt lat="46.74642" lon="2.44282">
        <ele>148</ele>
        <time>2018-04-16T10:59:07Z</time>
      </trkpt>
      <trkpt lat="46.74657" lon="2.44204">
        <ele>147</ele>
        <time>2018-04-16T10:59:21Z</time>
      </trkpt>
      <trkpt lat="46.74662" lon="2.44181">
        <ele>146</ele>
        <time>2018-04-16T10:59:25Z</time>
      </trkpt>
      <trkpt lat="46.74662" lon="2.44169">
        <ele>146</ele>
        <time>2018-04-16T10:59:27Z</time>
      </trkpt>
      <trkpt lat="46.74663" lon="2.44158">
        <ele>147</ele>
        <time>2018-04-16T10:59:29Z</time>
      </trkpt>
      <trkpt lat="46.74664" lon="2.44142">
        <ele>147</ele>
        <time>2018-04-16T10:59:32Z</time>
      </trkpt>
      <trkpt lat="46.74669" lon="2.44061">
        <ele>151</ele>
        <time>2018-04-16T10:59:46Z</time>
      </trkpt>
      <trkpt lat="46.74707" lon="2.44025">
        <ele>151</ele>
        <time>2018-04-16T10:59:59Z</time>
      </trkpt>
      <trkpt lat="46.74756" lon="2.43982">
        <ele>150</ele>
        <time>2018-04-16T11:00:14Z</time>
      </trkpt>
      <trkpt lat="46.74805" lon="2.43944">
        <ele>148</ele>
        <time>2018-04-16T11:00:27Z</time>
      </trkpt>
      <trkpt lat="46.74855" lon="2.43902">
        <ele>147</ele>
        <time>2018-04-16T11:00:39Z</time>
      </trkpt>
      <trkpt lat="46.74872" lon="2.43889">
        <ele>146</ele>
        <time>2018-04-16T11:00:43Z</time>
      </trkpt>
      <trkpt lat="46.74882" lon="2.43886">
        <ele>146</ele>
        <time>2018-04-16T11:00:45Z</time>
      </trkpt>
      <trkpt lat="46.7489" lon="2.43887">
        <ele>147</ele>
        <time>2018-04-16T11:00:47Z</time>
      </trkpt>
      <trkpt lat="46.74943" lon="2.43911">
        <ele>149</ele>
        <time>2018-04-16T11:00:59Z</time>
      </trkpt>
      <trkpt lat="46.74997" lon="2.43934">
        <ele>152</ele>
        <time>2018-04-16T11:01:13Z</time>
      </trkpt>
      <trkpt lat="46.75019" lon="2.43941">
        <ele>159</ele>
        <time>2018-04-16T11:01:26Z</time>
      </trkpt>
      <trkpt lat="46.75017" lon="2.43911">
        <ele>157</ele>
        <time>2018-04-16T11:02:18Z</time>
      </trkpt>
      <trkpt lat="46.75018" lon="2.43906">
        <ele>158</ele>
        <time>2018-04-16T11:02:20Z</time>
      </trkpt>
      <trkpt lat="46.75019" lon="2.43903">
        <ele>158</ele>
        <time>2018-04-16T11:02:21Z</time>
      </trkpt>
      <trkpt lat="46.75024" lon="2.43883">
        <ele>159</ele>
        <time>2018-04-16T11:02:26Z</time>
      </trkpt>
      <trkpt lat="46.75025" lon="2.43879">
        <ele>159</ele>
        <time>2018-04-16T11:02:27Z</time>
      </trkpt>
      <trkpt lat="46.75027" lon="2.43867">
        <ele>160</ele>
        <time>2018-04-16T11:02:30Z</time>
      </trkpt>
      <trkpt lat="46.7504" lon="2.43812">
        <ele>160</ele>
        <time>2018-04-16T11:02:41Z</time>
      </trkpt>
      <trkpt lat="46.75057" lon="2.43737">
        <ele>161</ele>
        <time>2018-04-16T11:02:56Z</time>
      </trkpt>
      <trkpt lat="46.75073" lon="2.4366">
        <ele>161</ele>
        <time>2018-04-16T11:03:09Z</time>
      </trkpt>
      <trkpt lat="46.75085" lon="2.43581">
        <ele>163</ele>
        <time>2018-04-16T11:03:22Z</time>
      </trkpt>
      <trkpt lat="46.75094" lon="2.43501">
        <ele>164</ele>
        <time>2018-04-16T11:03:35Z</time>
      </trkpt>
      <trkpt lat="46.75115" lon="2.43423">
        <ele>167</ele>
        <time>2018-04-16T11:03:49Z</time>
      </trkpt>
      <trkpt lat="46.75135" lon="2.43343">
        <ele>166</ele>
        <time>2018-04-16T11:04:01Z</time>
      </trkpt>
      <trkpt lat="46.75157" lon="2.43268">
        <ele>165</ele>
        <time>2018-04-16T11:04:14Z</time>
      </trkpt>
      <trkpt lat="46.75173" lon="2.43206">
        <ele>172</ele>
        <time>2018-04-16T11:04:24Z</time>
      </trkpt>
      <trkpt lat="46.75179" lon="2.43184">
        <ele>170</ele>
        <time>2018-04-16T11:04:28Z</time>
      </trkpt>
      <trkpt lat="46.75197" lon="2.43105">
        <ele>168</ele>
        <time>2018-04-16T11:04:40Z</time>
      </trkpt>
      <trkpt lat="46.75207" lon="2.43054">
        <ele>166</ele>
        <time>2018-04-16T11:04:48Z</time>
      </trkpt>
      <trkpt lat="46.75216" lon="2.43004">
        <ele>166</ele>
        <time>2018-04-16T11:04:55Z</time>
      </trkpt>
      <trkpt lat="46.75236" lon="2.42923">
        <ele>163</ele>
        <time>2018-04-16T11:05:06Z</time>
      </trkpt>
      <trkpt lat="46.75259" lon="2.42844">
        <ele>160</ele>
        <time>2018-04-16T11:05:17Z</time>
      </trkpt>
      <trkpt lat="46.75292" lon="2.42777">
        <ele>159</ele>
        <time>2018-04-16T11:05:29Z</time>
      </trkpt>
      <trkpt lat="46.75299" lon="2.42768">
        <ele>160</ele>
        <time>2018-04-16T11:05:31Z</time>
      </trkpt>
      <trkpt lat="46.75343" lon="2.4272">
        <ele>160</ele>
        <time>2018-04-16T11:05:43Z</time>
      </trkpt>
      <trkpt lat="46.7539" lon="2.42674">
        <ele>158</ele>
        <time>2018-04-16T11:05:57Z</time>
      </trkpt>
      <trkpt lat="46.75446" lon="2.42658">
        <ele>154</ele>
        <time>2018-04-16T11:06:14Z</time>
      </trkpt>
      <trkpt lat="46.755" lon="2.42659">
        <ele>154</ele>
        <time>2018-04-16T11:06:32Z</time>
      </trkpt>
      <trkpt lat="46.75503" lon="2.42662">
        <ele>154</ele>
        <time>2018-04-16T11:06:43Z</time>
      </trkpt>
      <trkpt lat="46.75512" lon="2.42701">
        <ele>160</ele>
        <time>2018-04-16T11:07:15Z</time>
      </trkpt>
      <trkpt lat="46.7551" lon="2.42727">
        <ele>163</ele>
        <time>2018-04-16T11:07:29Z</time>
      </trkpt>
      <trkpt lat="46.7551" lon="2.42731">
        <ele>163</ele>
        <time>2018-04-16T11:07:31Z</time>
      </trkpt>
      <trkpt lat="46.7551" lon="2.42779">
        <ele>170</ele>
        <time>2018-04-16T11:07:53Z</time>
      </trkpt>
      <trkpt lat="46.7551" lon="2.42781">
        <ele>170</ele>
        <time>2018-04-16T11:07:54Z</time>
      </trkpt>
      <trkpt lat="46.75509" lon="2.4279">
        <ele>171</ele>
        <time>2018-04-16T11:07:58Z</time>
      </trkpt>
      <trkpt lat="46.75509" lon="2.42794">
        <ele>171</ele>
        <time>2018-04-16T11:08:00Z</time>
      </trkpt>
      <trkpt lat="46.75511" lon="2.42804">
        <ele>172</ele>
        <time>2018-04-16T11:08:06Z</time>
      </trkpt>
      <trkpt lat="46.75514" lon="2.42827">
        <ele>174</ele>
        <time>2018-04-16T11:08:18Z</time>
      </trkpt>
      <trkpt lat="46.75513" lon="2.42835">
        <ele>177</ele>
        <time>2018-04-16T11:08:23Z</time>
      </trkpt>
      <trkpt lat="46.75513" lon="2.42843">
        <ele>177</ele>
        <time>2018-04-16T11:08:27Z</time>
      </trkpt>
      <trkpt lat="46.75512" lon="2.42856">
        <ele>178</ele>
        <time>2018-04-16T11:08:35Z</time>
      </trkpt>
      <trkpt lat="46.75512" lon="2.42864">
        <ele>178</ele>
        <time>2018-04-16T11:08:39Z</time>
      </trkpt>
      <trkpt lat="46.75513" lon="2.42874">
        <ele>179</ele>
        <time>2018-04-16T11:08:45Z</time>
      </trkpt>
      <trkpt lat="46.75513" lon="2.42876">
        <ele>179</ele>
        <time>2018-04-16T11:08:46Z</time>
      </trkpt>
      <trkpt lat="46.75513" lon="2.42878">
        <ele>179</ele>
        <time>2018-04-16T11:08:47Z</time>
      </trkpt>
      <trkpt lat="46.75514" lon="2.42879">
        <ele>179</ele>
        <time>2018-04-16T11:08:48Z</time>
      </trkpt>
      <trkpt lat="46.75515" lon="2.42885">
        <ele>180</ele>
        <time>2018-04-16T11:08:51Z</time>
      </trkpt>
      <trkpt lat="46.75515" lon="2.42898">
        <ele>181</ele>
        <time>2018-04-16T11:08:59Z</time>
      </trkpt>
      <trkpt lat="46.75516" lon="2.42902">
        <ele>181</ele>
        <time>2018-04-16T11:09:01Z</time>
      </trkpt>
      <trkpt lat="46.75517" lon="2.42921">
        <ele>185</ele>
        <time>2018-04-16T11:09:11Z</time>
      </trkpt>
      <trkpt lat="46.75518" lon="2.42929">
        <ele>185</ele>
        <time>2018-04-16T11:09:15Z</time>
      </trkpt>
      <trkpt lat="46.75516" lon="2.42954">
        <ele>185</ele>
        <time>2018-04-16T11:09:32Z</time>
      </trkpt>
      <trkpt lat="46.75518" lon="2.42956">
        <ele>185</ele>
        <time>2018-04-16T11:09:46Z</time>
      </trkpt>
      <trkpt lat="46.75517" lon="2.42953">
        <ele>185</ele>
        <time>2018-04-16T11:09:53Z</time>
      </trkpt>
      <trkpt lat="46.75518" lon="2.42961">
        <ele>186</ele>
        <time>2018-04-16T11:10:28Z</time>
      </trkpt>
      <trkpt lat="46.75517" lon="2.42961">
        <ele>186</ele>
        <time>2018-04-16T11:10:30Z</time>
      </trkpt>
      <trkpt lat="46.75517" lon="2.42961">
        <ele>186</ele>
        <time>2018-04-16T11:10:31Z</time>
      </trkpt>
      <trkpt lat="46.75517" lon="2.42961">
        <ele>186</ele>
        <time>2018-04-16T11:10:37Z</time>
      </trkpt>
      <trkpt lat="46.75517" lon="2.42961">
        <ele>186</ele>
        <time>2018-04-16T11:10:41Z</time>
      </trkpt>
      <trkpt lat="46.75517" lon="2.42961">
        <ele>186</ele>
        <time>2018-04-16T11:10:46Z</time>
      </trkpt>
      <trkpt lat="46.75517" lon="2.42961">
        <ele>186</ele>
        <time>2018-04-16T11:10:47Z</time>
      </trkpt>
      <trkpt lat="46.75517" lon="2.4296">
        <ele>186</ele>
        <time>2018-04-16T11:10:48Z</time>
      </trkpt>
      <trkpt lat="46.75517" lon="2.42961">
        <ele>186</ele>
        <time>2018-04-16T11:10:49Z</time>
      </trkpt>
      <trkpt lat="46.75519" lon="2.4296">
        <ele>186</ele>
        <time>2018-04-16T11:11:16Z</time>
      </trkpt>
      <trkpt lat="46.7552" lon="2.4296">
        <ele>186</ele>
        <time>2018-04-16T11:11:17Z</time>
      </trkpt>
      <trkpt lat="46.75521" lon="2.42961">
        <ele>186</ele>
        <time>2018-04-16T11:11:30Z</time>
      </trkpt>
      <trkpt lat="46.75521" lon="2.42962">
        <ele>186</ele>
        <time>2018-04-16T11:11:31Z</time>
      </trkpt>
      <trkpt lat="46.75521" lon="2.42962">
        <ele>186</ele>
        <time>2018-04-16T11:11:32Z</time>
      </trkpt>
      <trkpt lat="46.75521" lon="2.42962">
        <ele>186</ele>
        <time>2018-04-16T11:11:37Z</time>
      </trkpt>
      <trkpt lat="46.75521" lon="2.42962">
        <ele>186</ele>
        <time>2018-04-16T11:11:38Z</time>
      </trkpt>
      <trkpt lat="46.75526" lon="2.4296">
        <ele>186</ele>
        <time>2018-04-16T11:11:47Z</time>
      </trkpt>
      <trkpt lat="46.75565" lon="2.42973">
        <ele>185</ele>
        <time>2018-04-16T11:12:03Z</time>
      </trkpt>
      <trkpt lat="46.75568" lon="2.42974">
        <ele>185</ele>
        <time>2018-04-16T11:12:04Z</time>
      </trkpt>
      <trkpt lat="46.75574" lon="2.42975">
        <ele>185</ele>
        <time>2018-04-16T11:12:06Z</time>
      </trkpt>
      <trkpt lat="46.75583" lon="2.42977">
        <ele>185</ele>
        <time>2018-04-16T11:12:09Z</time>
      </trkpt>
      <trkpt lat="46.75591" lon="2.42979">
        <ele>184</ele>
        <time>2018-04-16T11:12:12Z</time>
      </trkpt>
      <trkpt lat="46.75609" lon="2.42982">
        <ele>183</ele>
        <time>2018-04-16T11:12:18Z</time>
      </trkpt>
      <trkpt lat="46.75616" lon="2.42983">
        <ele>183</ele>
        <time>2018-04-16T11:12:20Z</time>
      </trkpt>
      <trkpt lat="46.7567" lon="2.42986">
        <ele>181</ele>
        <time>2018-04-16T11:12:36Z</time>
      </trkpt>
      <trkpt lat="46.75683" lon="2.42988">
        <ele>181</ele>
        <time>2018-04-16T11:12:40Z</time>
      </trkpt>
      <trkpt lat="46.75699" lon="2.42989">
        <ele>181</ele>
        <time>2018-04-16T11:12:45Z</time>
      </trkpt>
      <trkpt lat="46.75729" lon="2.42994">
        <ele>181</ele>
        <time>2018-04-16T11:12:54Z</time>
      </trkpt>
      <trkpt lat="46.75744" lon="2.42995">
        <ele>181</ele>
        <time>2018-04-16T11:13:01Z</time>
      </trkpt>
      <trkpt lat="46.75799" lon="2.43004">
        <ele>183</ele>
        <time>2018-04-16T11:13:28Z</time>
      </trkpt>
      <trkpt lat="46.75805" lon="2.43005">
        <ele>182</ele>
        <time>2018-04-16T11:13:30Z</time>
      </trkpt>
      <trkpt lat="46.75808" lon="2.43005">
        <ele>182</ele>
        <time>2018-04-16T11:13:31Z</time>
      </trkpt>
      <trkpt lat="46.75811" lon="2.43006">
        <ele>182</ele>
        <time>2018-04-16T11:13:32Z</time>
      </trkpt>
      <trkpt lat="46.75824" lon="2.43007">
        <ele>182</ele>
        <time>2018-04-16T11:13:37Z</time>
      </trkpt>
      <trkpt lat="46.75845" lon="2.43005">
        <ele>182</ele>
        <time>2018-04-16T11:13:45Z</time>
      </trkpt>
      <trkpt lat="46.75857" lon="2.43005">
        <ele>182</ele>
        <time>2018-04-16T11:13:49Z</time>
      </trkpt>
      <trkpt lat="46.75879" lon="2.4301">
        <ele>182</ele>
        <time>2018-04-16T11:13:57Z</time>
      </trkpt>
      <trkpt lat="46.75884" lon="2.43011">
        <ele>182</ele>
        <time>2018-04-16T11:13:59Z</time>
      </trkpt>
      <trkpt lat="46.75917" lon="2.43016">
        <ele>182</ele>
        <time>2018-04-16T11:14:10Z</time>
      </trkpt>
      <trkpt lat="46.75957" lon="2.43023">
        <ele>183</ele>
        <time>2018-04-16T11:14:23Z</time>
      </trkpt>
      <trkpt lat="46.75995" lon="2.43031">
        <ele>183</ele>
        <time>2018-04-16T11:14:35Z</time>
      </trkpt>
      <trkpt lat="46.75999" lon="2.43033">
        <ele>183</ele>
        <time>2018-04-16T11:14:37Z</time>
      </trkpt>
      <trkpt lat="46.76054" lon="2.4304">
        <ele>183</ele>
        <time>2018-04-16T11:14:56Z</time>
      </trkpt>
      <trkpt lat="46.76068" lon="2.43044">
        <ele>183</ele>
        <time>2018-04-16T11:15:01Z</time>
      </trkpt>
      <trkpt lat="46.76123" lon="2.43068">
        <ele>183</ele>
        <time>2018-04-16T11:15:19Z</time>
      </trkpt>
      <trkpt lat="46.76155" lon="2.43086">
        <ele>187</ele>
        <time>2018-04-16T11:15:29Z</time>
      </trkpt>
      <trkpt lat="46.76208" lon="2.43111">
        <ele>188</ele>
        <time>2018-04-16T11:15:45Z</time>
      </trkpt>
      <trkpt lat="46.76259" lon="2.43134">
        <ele>187</ele>
        <time>2018-04-16T11:16:02Z</time>
      </trkpt>
      <trkpt lat="46.76268" lon="2.43138">
        <ele>187</ele>
        <time>2018-04-16T11:16:05Z</time>
      </trkpt>
      <trkpt lat="46.76304" lon="2.43154">
        <ele>187</ele>
        <time>2018-04-16T11:16:16Z</time>
      </trkpt>
      <trkpt lat="46.76308" lon="2.43155">
        <ele>187</ele>
        <time>2018-04-16T11:16:17Z</time>
      </trkpt>
      <trkpt lat="46.76317" lon="2.43156">
        <ele>187</ele>
        <time>2018-04-16T11:16:20Z</time>
      </trkpt>
      <trkpt lat="46.76342" lon="2.43154">
        <ele>185</ele>
        <time>2018-04-16T11:16:29Z</time>
      </trkpt>
      <trkpt lat="46.76384" lon="2.43163">
        <ele>183</ele>
        <time>2018-04-16T11:16:40Z</time>
      </trkpt>
      <trkpt lat="46.76413" lon="2.43169">
        <ele>185</ele>
        <time>2018-04-16T11:16:53Z</time>
      </trkpt>
      <trkpt lat="46.76418" lon="2.4317">
        <ele>184</ele>
        <time>2018-04-16T11:17:06Z</time>
      </trkpt>
      <trkpt lat="46.76419" lon="2.43171">
        <ele>184</ele>
        <time>2018-04-16T11:17:38Z</time>
      </trkpt>
      <trkpt lat="46.76472" lon="2.43193">
        <ele>181</ele>
        <time>2018-04-16T11:17:57Z</time>
      </trkpt>
      <trkpt lat="46.765" lon="2.43205">
        <ele>177</ele>
        <time>2018-04-16T11:18:03Z</time>
      </trkpt>
      <trkpt lat="46.76524" lon="2.43235">
        <ele>177</ele>
        <time>2018-04-16T11:18:09Z</time>
      </trkpt>
      <trkpt lat="46.76532" lon="2.43241">
        <ele>177</ele>
        <time>2018-04-16T11:18:11Z</time>
      </trkpt>
      <trkpt lat="46.76553" lon="2.43253">
        <ele>178</ele>
        <time>2018-04-16T11:18:17Z</time>
      </trkpt>
      <trkpt lat="46.76564" lon="2.43261">
        <ele>178</ele>
        <time>2018-04-16T11:18:23Z</time>
      </trkpt>
      <trkpt lat="46.76566" lon="2.43261">
        <ele>177</ele>
        <time>2018-04-16T11:18:24Z</time>
      </trkpt>
      <trkpt lat="46.76584" lon="2.43244">
        <ele>174</ele>
        <time>2018-04-16T11:18:30Z</time>
      </trkpt>
      <trkpt lat="46.76609" lon="2.43215">
        <ele>171</ele>
        <time>2018-04-16T11:18:37Z</time>
      </trkpt>
      <trkpt lat="46.76627" lon="2.43201">
        <ele>170</ele>
        <time>2018-04-16T11:18:42Z</time>
      </trkpt>
      <trkpt lat="46.76639" lon="2.43198">
        <ele>170</ele>
        <time>2018-04-16T11:18:48Z</time>
      </trkpt>
      <trkpt lat="46.7667" lon="2.43187">
        <ele>167</ele>
        <time>2018-04-16T11:18:58Z</time>
      </trkpt>
      <trkpt lat="46.76683" lon="2.43177">
        <ele>167</ele>
        <time>2018-04-16T11:19:01Z</time>
      </trkpt>
      <trkpt lat="46.76687" lon="2.43173">
        <ele>167</ele>
        <time>2018-04-16T11:19:02Z</time>
      </trkpt>
      <trkpt lat="46.76699" lon="2.43163">
        <ele>163</ele>
        <time>2018-04-16T11:19:06Z</time>
      </trkpt>
      <trkpt lat="46.76701" lon="2.43161">
        <ele>163</ele>
        <time>2018-04-16T11:19:07Z</time>
      </trkpt>
      <trkpt lat="46.76703" lon="2.43159">
        <ele>163</ele>
        <time>2018-04-16T11:19:08Z</time>
      </trkpt>
      <trkpt lat="46.76703" lon="2.43158">
        <ele>163</ele>
        <time>2018-04-16T11:19:09Z</time>
      </trkpt>
      <trkpt lat="46.76703" lon="2.43159">
        <ele>163</ele>
        <time>2018-04-16T11:19:15Z</time>
      </trkpt>
      <trkpt lat="46.76704" lon="2.4316">
        <ele>163</ele>
        <time>2018-04-16T11:19:21Z</time>
      </trkpt>
      <trkpt lat="46.76704" lon="2.4316">
        <ele>163</ele>
        <time>2018-04-16T11:19:26Z</time>
      </trkpt>
      <trkpt lat="46.76704" lon="2.4316">
        <ele>163</ele>
        <time>2018-04-16T11:19:31Z</time>
      </trkpt>
      <trkpt lat="46.76704" lon="2.4316">
        <ele>163</ele>
        <time>2018-04-16T11:19:34Z</time>
      </trkpt>
      <trkpt lat="46.76704" lon="2.43159">
        <ele>163</ele>
        <time>2018-04-16T11:19:37Z</time>
      </trkpt>
      <trkpt lat="46.76704" lon="2.4316">
        <ele>163</ele>
        <time>2018-04-16T11:19:42Z</time>
      </trkpt>
      <trkpt lat="46.767" lon="2.4316">
        <ele>163</ele>
        <time>2018-04-16T11:19:50Z</time>
      </trkpt>
      <trkpt lat="46.76689" lon="2.43169">
        <ele>167</ele>
        <time>2018-04-16T11:20:00Z</time>
      </trkpt>
      <trkpt lat="46.76687" lon="2.4317">
        <ele>167</ele>
        <time>2018-04-16T11:20:06Z</time>
      </trkpt>
      <trkpt lat="46.76686" lon="2.43168">
        <ele>167</ele>
        <time>2018-04-16T11:20:08Z</time>
      </trkpt>
      <trkpt lat="46.76685" lon="2.43165">
        <ele>164</ele>
        <time>2018-04-16T11:20:09Z</time>
      </trkpt>
    </trkseg>
  </trk>
  <trk>
    <name><![CDATA[20180610195922-k1GEa]]></name>
    <trkseg>
      <trkpt lat="46.86071" lon="2.32093">
        <ele>163</ele>
        <time>2018-04-16T14:52:41Z</time>
      </trkpt>
      <trkpt lat="46.86071" lon="2.32093">
        <ele>163</ele>
        <time>2018-04-16T14:52:42Z</time>
      </trkpt>
      <trkpt lat="46.86065" lon="2.32098">
        <ele>163</ele>
        <time>2018-04-16T14:52:51Z</time>
      </trkpt>
      <trkpt lat="46.86064" lon="2.321">
        <ele>163</ele>
        <time>2018-04-16T14:52:52Z</time>
      </trkpt>
      <trkpt lat="46.8606" lon="2.32109">
        <ele>163</ele>
        <time>2018-04-16T14:52:56Z</time>
      </trkpt>
      <trkpt lat="46.86054" lon="2.32136">
        <ele>163</ele>
        <time>2018-04-16T14:53:04Z</time>
      </trkpt>
      <trkpt lat="46.86053" lon="2.32139">
        <ele>163</ele>
        <time>2018-04-16T14:53:05Z</time>
      </trkpt>
      <trkpt lat="46.86052" lon="2.32143">
        <ele>163</ele>
        <time>2018-04-16T14:53:06Z</time>
      </trkpt>
      <trkpt lat="46.86051" lon="2.32146">
        <ele>163</ele>
        <time>2018-04-16T14:53:07Z</time>
      </trkpt>
      <trkpt lat="46.86047" lon="2.32183">
        <ele>162</ele>
        <time>2018-04-16T14:53:19Z</time>
      </trkpt>
      <trkpt lat="46.8605" lon="2.32183">
        <ele>162</ele>
        <time>2018-04-16T14:53:21Z</time>
      </trkpt>
      <trkpt lat="46.8609" lon="2.32157">
        <ele>161</ele>
        <time>2018-04-16T14:53:35Z</time>
      </trkpt>
      <trkpt lat="46.861" lon="2.32152">
        <ele>162</ele>
        <time>2018-04-16T14:53:38Z</time>
      </trkpt>
      <trkpt lat="46.86111" lon="2.32148">
        <ele>162</ele>
        <time>2018-04-16T14:53:41Z</time>
      </trkpt>
      <trkpt lat="46.86115" lon="2.32147">
        <ele>162</ele>
        <time>2018-04-16T14:53:42Z</time>
      </trkpt>
      <trkpt lat="46.86118" lon="2.32146">
        <ele>162</ele>
        <time>2018-04-16T14:53:43Z</time>
      </trkpt>
      <trkpt lat="46.86175" lon="2.32139">
        <ele>162</ele>
        <time>2018-04-16T14:53:59Z</time>
      </trkpt>
      <trkpt lat="46.86198" lon="2.32146">
        <ele>162</ele>
        <time>2018-04-16T14:54:06Z</time>
      </trkpt>
      <trkpt lat="46.86207" lon="2.3215">
        <ele>162</ele>
        <time>2018-04-16T14:54:09Z</time>
      </trkpt>
      <trkpt lat="46.86235" lon="2.32164">
        <ele>163</ele>
        <time>2018-04-16T14:54:19Z</time>
      </trkpt>
      <trkpt lat="46.8625" lon="2.32162">
        <ele>163</ele>
        <time>2018-04-16T14:54:24Z</time>
      </trkpt>
      <trkpt lat="46.86252" lon="2.32159">
        <ele>163</ele>
        <time>2018-04-16T14:54:25Z</time>
      </trkpt>
      <trkpt lat="46.86253" lon="2.32151">
        <ele>163</ele>
        <time>2018-04-16T14:54:27Z</time>
      </trkpt>
      <trkpt lat="46.86249" lon="2.32122">
        <ele>162</ele>
        <time>2018-04-16T14:54:32Z</time>
      </trkpt>
      <trkpt lat="46.86241" lon="2.32043">
        <ele>163</ele>
        <time>2018-04-16T14:54:47Z</time>
      </trkpt>
      <trkpt lat="46.86256" lon="2.31977">
        <ele>163</ele>
        <time>2018-04-16T14:55:02Z</time>
      </trkpt>
      <trkpt lat="46.8631" lon="2.31967">
        <ele>163</ele>
        <time>2018-04-16T14:55:17Z</time>
      </trkpt>
      <trkpt lat="46.8633" lon="2.31973">
        <ele>162</ele>
        <time>2018-04-16T14:56:01Z</time>
      </trkpt>
      <trkpt lat="46.86331" lon="2.31975">
        <ele>162</ele>
        <time>2018-04-16T14:56:19Z</time>
      </trkpt>
      <trkpt lat="46.86332" lon="2.31975">
        <ele>162</ele>
        <time>2018-04-16T14:56:34Z</time>
      </trkpt>
      <trkpt lat="46.86336" lon="2.31976">
        <ele>161</ele>
        <time>2018-04-16T14:56:37Z</time>
      </trkpt>
      <trkpt lat="46.86349" lon="2.31976">
        <ele>162</ele>
        <time>2018-04-16T14:56:42Z</time>
      </trkpt>
      <trkpt lat="46.86361" lon="2.31978">
        <ele>162</ele>
        <time>2018-04-16T14:56:46Z</time>
      </trkpt>
      <trkpt lat="46.86367" lon="2.31978">
        <ele>162</ele>
        <time>2018-04-16T14:56:48Z</time>
      </trkpt>
      <trkpt lat="46.8637" lon="2.31979">
        <ele>162</ele>
        <time>2018-04-16T14:56:49Z</time>
      </trkpt>
      <trkpt lat="46.86373" lon="2.31979">
        <ele>162</ele>
        <time>2018-04-16T14:56:50Z</time>
      </trkpt>
      <trkpt lat="46.86383" lon="2.3198">
        <ele>162</ele>
        <time>2018-04-16T14:56:53Z</time>
      </trkpt>
      <trkpt lat="46.86395" lon="2.31982">
        <ele>162</ele>
        <time>2018-04-16T14:56:57Z</time>
      </trkpt>
      <trkpt lat="46.86405" lon="2.31985">
        <ele>162</ele>
        <time>2018-04-16T14:57:00Z</time>
      </trkpt>
      <trkpt lat="46.86409" lon="2.31986">
        <ele>162</ele>
        <time>2018-04-16T14:57:01Z</time>
      </trkpt>
      <trkpt lat="46.86417" lon="2.31988">
        <ele>162</ele>
        <time>2018-04-16T14:57:03Z</time>
      </trkpt>
      <trkpt lat="46.86468" lon="2.32">
        <ele>162</ele>
        <time>2018-04-16T14:57:16Z</time>
      </trkpt>
      <trkpt lat="46.86475" lon="2.32001">
        <ele>162</ele>
        <time>2018-04-16T14:57:18Z</time>
      </trkpt>
      <trkpt lat="46.86482" lon="2.32001">
        <ele>162</ele>
        <time>2018-04-16T14:57:20Z</time>
      </trkpt>
      <trkpt lat="46.86508" lon="2.32005">
        <ele>162</ele>
        <time>2018-04-16T14:57:27Z</time>
      </trkpt>
      <trkpt lat="46.86519" lon="2.32008">
        <ele>162</ele>
        <time>2018-04-16T14:57:30Z</time>
      </trkpt>
      <trkpt lat="46.86543" lon="2.32014">
        <ele>161</ele>
        <time>2018-04-16T14:57:36Z</time>
      </trkpt>
      <trkpt lat="46.86547" lon="2.32015">
        <ele>161</ele>
        <time>2018-04-16T14:57:37Z</time>
      </trkpt>
      <trkpt lat="46.86555" lon="2.32018">
        <ele>161</ele>
        <time>2018-04-16T14:57:39Z</time>
      </trkpt>
      <trkpt lat="46.86579" lon="2.32023">
        <ele>161</ele>
        <time>2018-04-16T14:57:45Z</time>
      </trkpt>
      <trkpt lat="46.86603" lon="2.32023">
        <ele>161</ele>
        <time>2018-04-16T14:57:51Z</time>
      </trkpt>
      <trkpt lat="46.86661" lon="2.32017">
        <ele>161</ele>
        <time>2018-04-16T14:58:06Z</time>
      </trkpt>
      <trkpt lat="46.86717" lon="2.32024">
        <ele>160</ele>
        <time>2018-04-16T14:58:17Z</time>
      </trkpt>
      <trkpt lat="46.86774" lon="2.32037">
        <ele>157</ele>
        <time>2018-04-16T14:58:28Z</time>
      </trkpt>
      <trkpt lat="46.86828" lon="2.32032">
        <ele>155</ele>
        <time>2018-04-16T14:58:39Z</time>
      </trkpt>
      <trkpt lat="46.86864" lon="2.32039">
        <ele>153</ele>
        <time>2018-04-16T14:58:46Z</time>
      </trkpt>
      <trkpt lat="46.86921" lon="2.32036">
        <ele>150</ele>
        <time>2018-04-16T14:58:57Z</time>
      </trkpt>
      <trkpt lat="46.86931" lon="2.32034">
        <ele>150</ele>
        <time>2018-04-16T14:58:59Z</time>
      </trkpt>
      <trkpt lat="46.86986" lon="2.32004">
        <ele>148</ele>
        <time>2018-04-16T14:59:09Z</time>
      </trkpt>
      <trkpt lat="46.87041" lon="2.31988">
        <ele>148</ele>
        <time>2018-04-16T14:59:18Z</time>
      </trkpt>
      <trkpt lat="46.87095" lon="2.31975">
        <ele>148</ele>
        <time>2018-04-16T14:59:30Z</time>
      </trkpt>
      <trkpt lat="46.8715" lon="2.31958">
        <ele>148</ele>
        <time>2018-04-16T14:59:43Z</time>
      </trkpt>
      <trkpt lat="46.87197" lon="2.31917">
        <ele>149</ele>
        <time>2018-04-16T14:59:56Z</time>
      </trkpt>
      <trkpt lat="46.87248" lon="2.31895">
        <ele>146</ele>
        <time>2018-04-16T15:00:13Z</time>
      </trkpt>
      <trkpt lat="46.87305" lon="2.31906">
        <ele>145</ele>
        <time>2018-04-16T15:00:28Z</time>
      </trkpt>
      <trkpt lat="46.8736" lon="2.31909">
        <ele>145</ele>
        <time>2018-04-16T15:00:40Z</time>
      </trkpt>
      <trkpt lat="46.87383" lon="2.31907">
        <ele>145</ele>
        <time>2018-04-16T15:00:45Z</time>
      </trkpt>
      <trkpt lat="46.87388" lon="2.31906">
        <ele>145</ele>
        <time>2018-04-16T15:00:46Z</time>
      </trkpt>
      <trkpt lat="46.87392" lon="2.31906">
        <ele>145</ele>
        <time>2018-04-16T15:00:47Z</time>
      </trkpt>
      <trkpt lat="46.87397" lon="2.31905">
        <ele>145</ele>
        <time>2018-04-16T15:00:48Z</time>
      </trkpt>
      <trkpt lat="46.87452" lon="2.31903">
        <ele>146</ele>
        <time>2018-04-16T15:01:01Z</time>
      </trkpt>
      <trkpt lat="46.8747" lon="2.3191">
        <ele>146</ele>
        <time>2018-04-16T15:01:07Z</time>
      </trkpt>
      <trkpt lat="46.87496" lon="2.31928">
        <ele>149</ele>
        <time>2018-04-16T15:01:15Z</time>
      </trkpt>
      <trkpt lat="46.87516" lon="2.3194">
        <ele>151</ele>
        <time>2018-04-16T15:01:21Z</time>
      </trkpt>
      <trkpt lat="46.87562" lon="2.31975">
        <ele>153</ele>
        <time>2018-04-16T15:01:42Z</time>
      </trkpt>
      <trkpt lat="46.87597" lon="2.32036">
        <ele>155</ele>
        <time>2018-04-16T15:02:12Z</time>
      </trkpt>
      <trkpt lat="46.87618" lon="2.3206">
        <ele>156</ele>
        <time>2018-04-16T15:02:27Z</time>
      </trkpt>
      <trkpt lat="46.87624" lon="2.32064">
        <ele>156</ele>
        <time>2018-04-16T15:02:30Z</time>
      </trkpt>
      <trkpt lat="46.87662" lon="2.32105">
        <ele>156</ele>
        <time>2018-04-16T15:02:50Z</time>
      </trkpt>
      <trkpt lat="46.87664" lon="2.32107">
        <ele>156</ele>
        <time>2018-04-16T15:02:51Z</time>
      </trkpt>
      <trkpt lat="46.87669" lon="2.32112">
        <ele>159</ele>
        <time>2018-04-16T15:02:53Z</time>
      </trkpt>
      <trkpt lat="46.87674" lon="2.32116">
        <ele>159</ele>
        <time>2018-04-16T15:02:55Z</time>
      </trkpt>
      <trkpt lat="46.87676" lon="2.32119">
        <ele>159</ele>
        <time>2018-04-16T15:02:56Z</time>
      </trkpt>
      <trkpt lat="46.87678" lon="2.32121">
        <ele>159</ele>
        <time>2018-04-16T15:02:57Z</time>
      </trkpt>
      <trkpt lat="46.87686" lon="2.32129">
        <ele>159</ele>
        <time>2018-04-16T15:03:01Z</time>
      </trkpt>
      <trkpt lat="46.87734" lon="2.32172">
        <ele>159</ele>
        <time>2018-04-16T15:03:23Z</time>
      </trkpt>
      <trkpt lat="46.87754" lon="2.32186">
        <ele>161</ele>
        <time>2018-04-16T15:03:33Z</time>
      </trkpt>
      <trkpt lat="46.87769" lon="2.32198">
        <ele>161</ele>
        <time>2018-04-16T15:03:41Z</time>
      </trkpt>
      <trkpt lat="46.87787" lon="2.32208">
        <ele>161</ele>
        <time>2018-04-16T15:03:50Z</time>
      </trkpt>
      <trkpt lat="46.87789" lon="2.32208">
        <ele>161</ele>
        <time>2018-04-16T15:03:51Z</time>
      </trkpt>
      <trkpt lat="46.87792" lon="2.32209">
        <ele>161</ele>
        <time>2018-04-16T15:03:55Z</time>
      </trkpt>
      <trkpt lat="46.87793" lon="2.32212">
        <ele>161</ele>
        <time>2018-04-16T15:04:03Z</time>
      </trkpt>
      <trkpt lat="46.87826" lon="2.32217">
        <ele>162</ele>
        <time>2018-04-16T15:04:27Z</time>
      </trkpt>
      <trkpt lat="46.87838" lon="2.32218">
        <ele>163</ele>
        <time>2018-04-16T15:04:33Z</time>
      </trkpt>
      <trkpt lat="46.87841" lon="2.32219">
        <ele>163</ele>
        <time>2018-04-16T15:04:34Z</time>
      </trkpt>
      <trkpt lat="46.87845" lon="2.32219">
        <ele>163</ele>
        <time>2018-04-16T15:04:36Z</time>
      </trkpt>
      <trkpt lat="46.87858" lon="2.3222">
        <ele>163</ele>
        <time>2018-04-16T15:04:43Z</time>
      </trkpt>
      <trkpt lat="46.87862" lon="2.3222">
        <ele>163</ele>
        <time>2018-04-16T15:04:45Z</time>
      </trkpt>
      <trkpt lat="46.87906" lon="2.32218">
        <ele>163</ele>
        <time>2018-04-16T15:05:03Z</time>
      </trkpt>
      <trkpt lat="46.87943" lon="2.32224">
        <ele>164</ele>
        <time>2018-04-16T15:05:19Z</time>
      </trkpt>
      <trkpt lat="46.8797" lon="2.32232">
        <ele>164</ele>
        <time>2018-04-16T15:05:29Z</time>
      </trkpt>
      <trkpt lat="46.88015" lon="2.32247">
        <ele>164</ele>
        <time>2018-04-16T15:05:45Z</time>
      </trkpt>
      <trkpt lat="46.8805" lon="2.32264">
        <ele>163</ele>
        <time>2018-04-16T15:05:58Z</time>
      </trkpt>
      <trkpt lat="46.88062" lon="2.32275">
        <ele>163</ele>
        <time>2018-04-16T15:06:03Z</time>
      </trkpt>
      <trkpt lat="46.88112" lon="2.32314">
        <ele>164</ele>
        <time>2018-04-16T15:06:21Z</time>
      </trkpt>
      <trkpt lat="46.88162" lon="2.32352">
        <ele>164</ele>
        <time>2018-04-16T15:06:40Z</time>
      </trkpt>
      <trkpt lat="46.88165" lon="2.32354">
        <ele>164</ele>
        <time>2018-04-16T15:06:41Z</time>
      </trkpt>
      <trkpt lat="46.88197" lon="2.32379">
        <ele>165</ele>
        <time>2018-04-16T15:06:53Z</time>
      </trkpt>
      <trkpt lat="46.88235" lon="2.32409">
        <ele>165</ele>
        <time>2018-04-16T15:07:08Z</time>
      </trkpt>
      <trkpt lat="46.88243" lon="2.32414">
        <ele>165</ele>
        <time>2018-04-16T15:07:13Z</time>
      </trkpt>
      <trkpt lat="46.88248" lon="2.32415">
        <ele>165</ele>
        <time>2018-04-16T15:07:33Z</time>
      </trkpt>
      <trkpt lat="46.88248" lon="2.32415">
        <ele>165</ele>
        <time>2018-04-16T15:07:43Z</time>
      </trkpt>
      <trkpt lat="46.88248" lon="2.32415">
        <ele>165</ele>
        <time>2018-04-16T15:07:47Z</time>
      </trkpt>
      <trkpt lat="46.88249" lon="2.32418">
        <ele>165</ele>
        <time>2018-04-16T15:07:53Z</time>
      </trkpt>
      <trkpt lat="46.88251" lon="2.3242">
        <ele>165</ele>
        <time>2018-04-16T15:07:55Z</time>
      </trkpt>
      <trkpt lat="46.88251" lon="2.32422">
        <ele>165</ele>
        <time>2018-04-16T15:07:56Z</time>
      </trkpt>
      <trkpt lat="46.88304" lon="2.32445">
        <ele>164</ele>
        <time>2018-04-16T15:08:13Z</time>
      </trkpt>
      <trkpt lat="46.88324" lon="2.32464">
        <ele>164</ele>
        <time>2018-04-16T15:08:19Z</time>
      </trkpt>
      <trkpt lat="46.88335" lon="2.32477">
        <ele>164</ele>
        <time>2018-04-16T15:08:23Z</time>
      </trkpt>
      <trkpt lat="46.88338" lon="2.3248">
        <ele>164</ele>
        <time>2018-04-16T15:08:24Z</time>
      </trkpt>
      <trkpt lat="46.88341" lon="2.32483">
        <ele>164</ele>
        <time>2018-04-16T15:08:25Z</time>
      </trkpt>
      <trkpt lat="46.88388" lon="2.32532">
        <ele>164</ele>
        <time>2018-04-16T15:08:40Z</time>
      </trkpt>
      <trkpt lat="46.88436" lon="2.32574">
        <ele>164</ele>
        <time>2018-04-16T15:08:54Z</time>
      </trkpt>
      <trkpt lat="46.88443" lon="2.3258">
        <ele>164</ele>
        <time>2018-04-16T15:08:56Z</time>
      </trkpt>
      <trkpt lat="46.88482" lon="2.32613">
        <ele>165</ele>
        <time>2018-04-16T15:09:07Z</time>
      </trkpt>
      <trkpt lat="46.88529" lon="2.32655">
        <ele>166</ele>
        <time>2018-04-16T15:09:20Z</time>
      </trkpt>
      <trkpt lat="46.88576" lon="2.32697">
        <ele>165</ele>
        <time>2018-04-16T15:09:32Z</time>
      </trkpt>
      <trkpt lat="46.88596" lon="2.32714">
        <ele>164</ele>
        <time>2018-04-16T15:09:37Z</time>
      </trkpt>
      <trkpt lat="46.88644" lon="2.32754">
        <ele>164</ele>
        <time>2018-04-16T15:09:48Z</time>
      </trkpt>
      <trkpt lat="46.88692" lon="2.32803">
        <ele>163</ele>
        <time>2018-04-16T15:10:00Z</time>
      </trkpt>
      <trkpt lat="46.88707" lon="2.32819">
        <ele>163</ele>
        <time>2018-04-16T15:10:04Z</time>
      </trkpt>
      <trkpt lat="46.88735" lon="2.32843">
        <ele>163</ele>
        <time>2018-04-16T15:10:11Z</time>
      </trkpt>
      <trkpt lat="46.88754" lon="2.32862">
        <ele>163</ele>
        <time>2018-04-16T15:10:16Z</time>
      </trkpt>
      <trkpt lat="46.88799" lon="2.32911">
        <ele>162</ele>
        <time>2018-04-16T15:10:27Z</time>
      </trkpt>
      <trkpt lat="46.88838" lon="2.32946">
        <ele>162</ele>
        <time>2018-04-16T15:10:36Z</time>
      </trkpt>
      <trkpt lat="46.88857" lon="2.32971">
        <ele>162</ele>
        <time>2018-04-16T15:10:43Z</time>
      </trkpt>
      <trkpt lat="46.8886" lon="2.32982">
        <ele>162</ele>
        <time>2018-04-16T15:10:45Z</time>
      </trkpt>
      <trkpt lat="46.88868" lon="2.32997">
        <ele>162</ele>
        <time>2018-04-16T15:10:48Z</time>
      </trkpt>
      <trkpt lat="46.88911" lon="2.3305">
        <ele>162</ele>
        <time>2018-04-16T15:10:59Z</time>
      </trkpt>
      <trkpt lat="46.88938" lon="2.33082">
        <ele>162</ele>
        <time>2018-04-16T15:11:06Z</time>
      </trkpt>
      <trkpt lat="46.88962" lon="2.33114">
        <ele>163</ele>
        <time>2018-04-16T15:11:14Z</time>
      </trkpt>
      <trkpt lat="46.88963" lon="2.33118">
        <ele>163</ele>
        <time>2018-04-16T15:11:15Z</time>
      </trkpt>
      <trkpt lat="46.8899" lon="2.33188">
        <ele>164</ele>
        <time>2018-04-16T15:11:36Z</time>
      </trkpt>
      <trkpt lat="46.89001" lon="2.33195">
        <ele>164</ele>
        <time>2018-04-16T15:11:41Z</time>
      </trkpt>
      <trkpt lat="46.89004" lon="2.33195">
        <ele>164</ele>
        <time>2018-04-16T15:11:42Z</time>
      </trkpt>
      <trkpt lat="46.89006" lon="2.33195">
        <ele>164</ele>
        <time>2018-04-16T15:11:43Z</time>
      </trkpt>
      <trkpt lat="46.89014" lon="2.33193">
        <ele>164</ele>
        <time>2018-04-16T15:11:46Z</time>
      </trkpt>
      <trkpt lat="46.89019" lon="2.33189">
        <ele>164</ele>
        <time>2018-04-16T15:11:48Z</time>
      </trkpt>
      <trkpt lat="46.8904" lon="2.33134">
        <ele>164</ele>
        <time>2018-04-16T15:12:05Z</time>
      </trkpt>
      <trkpt lat="46.89042" lon="2.33116">
        <ele>164</ele>
        <time>2018-04-16T15:12:10Z</time>
      </trkpt>
      <trkpt lat="46.89046" lon="2.33104">
        <ele>164</ele>
        <time>2018-04-16T15:12:13Z</time>
      </trkpt>
      <trkpt lat="46.89054" lon="2.33087">
        <ele>164</ele>
        <time>2018-04-16T15:12:20Z</time>
      </trkpt>
      <trkpt lat="46.89062" lon="2.33083">
        <ele>163</ele>
        <time>2018-04-16T15:12:25Z</time>
      </trkpt>
      <trkpt lat="46.89083" lon="2.3308">
        <ele>165</ele>
        <time>2018-04-16T15:12:34Z</time>
      </trkpt>
      <trkpt lat="46.89137" lon="2.33072">
        <ele>165</ele>
        <time>2018-04-16T15:12:55Z</time>
      </trkpt>
      <trkpt lat="46.8916" lon="2.33067">
        <ele>165</ele>
        <time>2018-04-16T15:13:06Z</time>
      </trkpt>
      <trkpt lat="46.89162" lon="2.33067">
        <ele>165</ele>
        <time>2018-04-16T15:13:07Z</time>
      </trkpt>
      <trkpt lat="46.89208" lon="2.33066">
        <ele>165</ele>
        <time>2018-04-16T15:13:23Z</time>
      </trkpt>
      <trkpt lat="46.89236" lon="2.33077">
        <ele>166</ele>
        <time>2018-04-16T15:13:34Z</time>
      </trkpt>
      <trkpt lat="46.89243" lon="2.33079">
        <ele>166</ele>
        <time>2018-04-16T15:13:37Z</time>
      </trkpt>
      <trkpt lat="46.89276" lon="2.33088">
        <ele>165</ele>
        <time>2018-04-16T15:13:47Z</time>
      </trkpt>
      <trkpt lat="46.89298" lon="2.33097">
        <ele>165</ele>
        <time>2018-04-16T15:13:55Z</time>
      </trkpt>
      <trkpt lat="46.89352" lon="2.33108">
        <ele>164</ele>
        <time>2018-04-16T15:14:14Z</time>
      </trkpt>
      <trkpt lat="46.89365" lon="2.3311">
        <ele>164</ele>
        <time>2018-04-16T15:14:18Z</time>
      </trkpt>
      <trkpt lat="46.89394" lon="2.33108">
        <ele>165</ele>
        <time>2018-04-16T15:14:25Z</time>
      </trkpt>
      <trkpt lat="46.89401" lon="2.33109">
        <ele>165</ele>
        <time>2018-04-16T15:14:27Z</time>
      </trkpt>
      <trkpt lat="46.8942" lon="2.33118">
        <ele>165</ele>
        <time>2018-04-16T15:14:32Z</time>
      </trkpt>
      <trkpt lat="46.89432" lon="2.33128">
        <ele>165</ele>
        <time>2018-04-16T15:14:36Z</time>
      </trkpt>
      <trkpt lat="46.89443" lon="2.33136">
        <ele>165</ele>
        <time>2018-04-16T15:14:40Z</time>
      </trkpt>
      <trkpt lat="46.89457" lon="2.33138">
        <ele>165</ele>
        <time>2018-04-16T15:14:45Z</time>
      </trkpt>
      <trkpt lat="46.89492" lon="2.3314">
        <ele>165</ele>
        <time>2018-04-16T15:14:56Z</time>
      </trkpt>
      <trkpt lat="46.89498" lon="2.33139">
        <ele>165</ele>
        <time>2018-04-16T15:14:58Z</time>
      </trkpt>
      <trkpt lat="46.89505" lon="2.33136">
        <ele>164</ele>
        <time>2018-04-16T15:15:00Z</time>
      </trkpt>
      <trkpt lat="46.89554" lon="2.33129">
        <ele>164</ele>
        <time>2018-04-16T15:15:14Z</time>
      </trkpt>
      <trkpt lat="46.89564" lon="2.3313">
        <ele>164</ele>
        <time>2018-04-16T15:15:17Z</time>
      </trkpt>
      <trkpt lat="46.89567" lon="2.3313">
        <ele>164</ele>
        <time>2018-04-16T15:15:18Z</time>
      </trkpt>
      <trkpt lat="46.8957" lon="2.3313">
        <ele>164</ele>
        <time>2018-04-16T15:15:19Z</time>
      </trkpt>
      <trkpt lat="46.89573" lon="2.33129">
        <ele>164</ele>
        <time>2018-04-16T15:15:20Z</time>
      </trkpt>
      <trkpt lat="46.89577" lon="2.33129">
        <ele>164</ele>
        <time>2018-04-16T15:15:21Z</time>
      </trkpt>
      <trkpt lat="46.89608" lon="2.33069">
        <ele>163</ele>
        <time>2018-04-16T15:15:41Z</time>
      </trkpt>
      <trkpt lat="46.8961" lon="2.33055">
        <ele>162</ele>
        <time>2018-04-16T15:15:44Z</time>
      </trkpt>
      <trkpt lat="46.89611" lon="2.33051">
        <ele>162</ele>
        <time>2018-04-16T15:15:45Z</time>
      </trkpt>
      <trkpt lat="46.89612" lon="2.33047">
        <ele>162</ele>
        <time>2018-04-16T15:15:46Z</time>
      </trkpt>
      <trkpt lat="46.89612" lon="2.33042">
        <ele>162</ele>
        <time>2018-04-16T15:15:47Z</time>
      </trkpt>
      <trkpt lat="46.8962" lon="2.32962">
        <ele>162</ele>
        <time>2018-04-16T15:16:03Z</time>
      </trkpt>
      <trkpt lat="46.89622" lon="2.32882">
        <ele>161</ele>
        <time>2018-04-16T15:16:18Z</time>
      </trkpt>
      <trkpt lat="46.89621" lon="2.328">
        <ele>160</ele>
        <time>2018-04-16T15:16:32Z</time>
      </trkpt>
      <trkpt lat="46.89625" lon="2.3272">
        <ele>159</ele>
        <time>2018-04-16T15:16:49Z</time>
      </trkpt>
      <trkpt lat="46.89623" lon="2.32669">
        <ele>159</ele>
        <time>2018-04-16T15:16:59Z</time>
      </trkpt>
      <trkpt lat="46.89621" lon="2.3265">
        <ele>158</ele>
        <time>2018-04-16T15:17:03Z</time>
      </trkpt>
      <trkpt lat="46.89621" lon="2.3263">
        <ele>158</ele>
        <time>2018-04-16T15:17:07Z</time>
      </trkpt>
      <trkpt lat="46.89619" lon="2.3261">
        <ele>158</ele>
        <time>2018-04-16T15:17:11Z</time>
      </trkpt>
      <trkpt lat="46.89619" lon="2.32586">
        <ele>158</ele>
        <time>2018-04-16T15:17:16Z</time>
      </trkpt>
      <trkpt lat="46.89615" lon="2.32504">
        <ele>158</ele>
        <time>2018-04-16T15:17:33Z</time>
      </trkpt>
      <trkpt lat="46.89613" lon="2.32457">
        <ele>158</ele>
        <time>2018-04-16T15:17:42Z</time>
      </trkpt>
      <trkpt lat="46.89613" lon="2.32452">
        <ele>158</ele>
        <time>2018-04-16T15:17:43Z</time>
      </trkpt>
      <trkpt lat="46.89619" lon="2.3238">
        <ele>157</ele>
        <time>2018-04-16T15:17:56Z</time>
      </trkpt>
      <trkpt lat="46.89626" lon="2.32334">
        <ele>157</ele>
        <time>2018-04-16T15:18:05Z</time>
      </trkpt>
      <trkpt lat="46.89627" lon="2.32247">
        <ele>152</ele>
        <time>2018-04-16T15:18:19Z</time>
      </trkpt>
      <trkpt lat="46.89617" lon="2.32181">
        <ele>151</ele>
        <time>2018-04-16T15:18:27Z</time>
      </trkpt>
      <trkpt lat="46.89617" lon="2.32159">
        <ele>150</ele>
        <time>2018-04-16T15:18:30Z</time>
      </trkpt>
      <trkpt lat="46.89629" lon="2.32081">
        <ele>150</ele>
        <time>2018-04-16T15:18:44Z</time>
      </trkpt>
      <trkpt lat="46.89641" lon="2.3204">
        <ele>150</ele>
        <time>2018-04-16T15:18:53Z</time>
      </trkpt>
      <trkpt lat="46.89643" lon="2.32036">
        <ele>150</ele>
        <time>2018-04-16T15:18:54Z</time>
      </trkpt>
      <trkpt lat="46.89663" lon="2.31961">
        <ele>150</ele>
        <time>2018-04-16T15:19:07Z</time>
      </trkpt>
      <trkpt lat="46.89682" lon="2.31893">
        <ele>148</ele>
        <time>2018-04-16T15:19:18Z</time>
      </trkpt>
      <trkpt lat="46.89686" lon="2.31881">
        <ele>148</ele>
        <time>2018-04-16T15:19:20Z</time>
      </trkpt>
      <trkpt lat="46.89704" lon="2.31819">
        <ele>148</ele>
        <time>2018-04-16T15:19:31Z</time>
      </trkpt>
      <trkpt lat="46.89709" lon="2.31803">
        <ele>148</ele>
        <time>2018-04-16T15:19:34Z</time>
      </trkpt>
      <trkpt lat="46.8973" lon="2.31728">
        <ele>149</ele>
        <time>2018-04-16T15:19:48Z</time>
      </trkpt>
      <trkpt lat="46.89738" lon="2.31704">
        <ele>149</ele>
        <time>2018-04-16T15:19:53Z</time>
      </trkpt>
      <trkpt lat="46.89744" lon="2.31689">
        <ele>149</ele>
        <time>2018-04-16T15:20:02Z</time>
      </trkpt>
      <trkpt lat="46.89746" lon="2.3169">
        <ele>149</ele>
        <time>2018-04-16T15:20:03Z</time>
      </trkpt>
      <trkpt lat="46.89748" lon="2.31694">
        <ele>149</ele>
        <time>2018-04-16T15:20:05Z</time>
      </trkpt>
      <trkpt lat="46.89762" lon="2.3173">
        <ele>149</ele>
        <time>2018-04-16T15:20:14Z</time>
      </trkpt>
      <trkpt lat="46.8977" lon="2.31748">
        <ele>149</ele>
        <time>2018-04-16T15:20:19Z</time>
      </trkpt>
      <trkpt lat="46.89773" lon="2.31756">
        <ele>149</ele>
        <time>2018-04-16T15:20:21Z</time>
      </trkpt>
      <trkpt lat="46.89776" lon="2.31764">
        <ele>149</ele>
        <time>2018-04-16T15:20:23Z</time>
      </trkpt>
      <trkpt lat="46.89792" lon="2.31806">
        <ele>149</ele>
        <time>2018-04-16T15:20:32Z</time>
      </trkpt>
      <trkpt lat="46.89801" lon="2.31829">
        <ele>148</ele>
        <time>2018-04-16T15:20:37Z</time>
      </trkpt>
      <trkpt lat="46.8981" lon="2.31855">
        <ele>148</ele>
        <time>2018-04-16T15:20:42Z</time>
      </trkpt>
      <trkpt lat="46.89829" lon="2.31903">
        <ele>147</ele>
        <time>2018-04-16T15:20:51Z</time>
      </trkpt>
      <trkpt lat="46.89859" lon="2.31959">
        <ele>148</ele>
        <time>2018-04-16T15:21:05Z</time>
      </trkpt>
      <trkpt lat="46.89871" lon="2.31978">
        <ele>148</ele>
        <time>2018-04-16T15:21:11Z</time>
      </trkpt>
      <trkpt lat="46.89873" lon="2.31981">
        <ele>148</ele>
        <time>2018-04-16T15:21:12Z</time>
      </trkpt>
      <trkpt lat="46.89876" lon="2.31984">
        <ele>148</ele>
        <time>2018-04-16T15:21:13Z</time>
      </trkpt>
      <trkpt lat="46.8988" lon="2.3199">
        <ele>148</ele>
        <time>2018-04-16T15:21:15Z</time>
      </trkpt>
      <trkpt lat="46.89897" lon="2.32011">
        <ele>149</ele>
        <time>2018-04-16T15:21:22Z</time>
      </trkpt>
      <trkpt lat="46.8992" lon="2.32037">
        <ele>150</ele>
        <time>2018-04-16T15:21:31Z</time>
      </trkpt>
      <trkpt lat="46.89925" lon="2.32044">
        <ele>150</ele>
        <time>2018-04-16T15:21:33Z</time>
      </trkpt>
      <trkpt lat="46.89929" lon="2.32049">
        <ele>150</ele>
        <time>2018-04-16T15:21:35Z</time>
      </trkpt>
      <trkpt lat="46.89969" lon="2.32109">
        <ele>153</ele>
        <time>2018-04-16T15:21:54Z</time>
      </trkpt>
      <trkpt lat="46.89973" lon="2.32115">
        <ele>153</ele>
        <time>2018-04-16T15:21:56Z</time>
      </trkpt>
      <trkpt lat="46.89982" lon="2.32132">
        <ele>153</ele>
        <time>2018-04-16T15:22:01Z</time>
      </trkpt>
      <trkpt lat="46.90006" lon="2.3218">
        <ele>154</ele>
        <time>2018-04-16T15:22:20Z</time>
      </trkpt>
      <trkpt lat="46.90008" lon="2.32183">
        <ele>154</ele>
        <time>2018-04-16T15:22:22Z</time>
      </trkpt>
      <trkpt lat="46.90011" lon="2.3219">
        <ele>154</ele>
        <time>2018-04-16T15:22:26Z</time>
      </trkpt>
      <trkpt lat="46.90014" lon="2.32196">
        <ele>154</ele>
        <time>2018-04-16T15:22:30Z</time>
      </trkpt>
      <trkpt lat="46.90015" lon="2.32197">
        <ele>154</ele>
        <time>2018-04-16T15:22:31Z</time>
      </trkpt>
      <trkpt lat="46.90014" lon="2.32198">
        <ele>154</ele>
        <time>2018-04-16T15:22:47Z</time>
      </trkpt>
      <trkpt lat="46.90014" lon="2.32199">
        <ele>154</ele>
        <time>2018-04-16T15:22:56Z</time>
      </trkpt>
      <trkpt lat="46.90013" lon="2.32199">
        <ele>154</ele>
        <time>2018-04-16T15:23:02Z</time>
      </trkpt>
      <trkpt lat="46.90014" lon="2.32197">
        <ele>154</ele>
        <time>2018-04-16T15:23:10Z</time>
      </trkpt>
      <trkpt lat="46.90013" lon="2.32197">
        <ele>154</ele>
        <time>2018-04-16T15:23:16Z</time>
      </trkpt>
      <trkpt lat="46.90014" lon="2.32197">
        <ele>154</ele>
        <time>2018-04-16T15:23:22Z</time>
      </trkpt>
      <trkpt lat="46.90013" lon="2.32197">
        <ele>154</ele>
        <time>2018-04-16T15:23:23Z</time>
      </trkpt>
      <trkpt lat="46.90013" lon="2.32197">
        <ele>154</ele>
        <time>2018-04-16T15:23:24Z</time>
      </trkpt>
      <trkpt lat="46.90013" lon="2.32196">
        <ele>154</ele>
        <time>2018-04-16T15:23:25Z</time>
      </trkpt>
      <trkpt lat="46.90013" lon="2.32196">
        <ele>154</ele>
        <time>2018-04-16T15:23:26Z</time>
      </trkpt>
      <trkpt lat="46.90012" lon="2.32192">
        <ele>154</ele>
        <time>2018-04-16T15:23:29Z</time>
      </trkpt>
      <trkpt lat="46.90008" lon="2.32184">
        <ele>154</ele>
        <time>2018-04-16T15:23:33Z</time>
      </trkpt>
      <trkpt lat="46.90001" lon="2.32169">
        <ele>154</ele>
        <time>2018-04-16T15:23:39Z</time>
      </trkpt>
      <trkpt lat="46.89996" lon="2.32159">
        <ele>154</ele>
        <time>2018-04-16T15:23:42Z</time>
      </trkpt>
      <trkpt lat="46.89981" lon="2.32133">
        <ele>153</ele>
        <time>2018-04-16T15:23:50Z</time>
      </trkpt>
      <trkpt lat="46.8998" lon="2.32129">
        <ele>153</ele>
        <time>2018-04-16T15:23:51Z</time>
      </trkpt>
      <trkpt lat="46.89978" lon="2.32126">
        <ele>153</ele>
        <time>2018-04-16T15:23:52Z</time>
      </trkpt>
      <trkpt lat="46.89976" lon="2.32122">
        <ele>153</ele>
        <time>2018-04-16T15:23:53Z</time>
      </trkpt>
      <trkpt lat="46.89971" lon="2.32114">
        <ele>153</ele>
        <time>2018-04-16T15:23:55Z</time>
      </trkpt>
      <trkpt lat="46.89935" lon="2.32059">
        <ele>150</ele>
        <time>2018-04-16T15:24:08Z</time>
      </trkpt>
      <trkpt lat="46.89929" lon="2.3205">
        <ele>150</ele>
        <time>2018-04-16T15:24:10Z</time>
      </trkpt>
      <trkpt lat="46.89922" lon="2.3204">
        <ele>150</ele>
        <time>2018-04-16T15:24:12Z</time>
      </trkpt>
      <trkpt lat="46.89901" lon="2.32016">
        <ele>149</ele>
        <time>2018-04-16T15:24:17Z</time>
      </trkpt>
      <trkpt lat="46.89858" lon="2.31959">
        <ele>148</ele>
        <time>2018-04-16T15:24:30Z</time>
      </trkpt>
      <trkpt lat="46.89845" lon="2.31938">
        <ele>147</ele>
        <time>2018-04-16T15:24:34Z</time>
      </trkpt>
      <trkpt lat="46.89833" lon="2.31917">
        <ele>147</ele>
        <time>2018-04-16T15:24:38Z</time>
      </trkpt>
      <trkpt lat="46.89828" lon="2.31906">
        <ele>147</ele>
        <time>2018-04-16T15:24:40Z</time>
      </trkpt>
      <trkpt lat="46.89804" lon="2.31845">
        <ele>148</ele>
        <time>2018-04-16T15:24:51Z</time>
      </trkpt>
      <trkpt lat="46.89796" lon="2.31824">
        <ele>149</ele>
        <time>2018-04-16T15:24:55Z</time>
      </trkpt>
      <trkpt lat="46.89794" lon="2.31819">
        <ele>149</ele>
        <time>2018-04-16T15:24:56Z</time>
      </trkpt>
      <trkpt lat="46.8979" lon="2.31809">
        <ele>149</ele>
        <time>2018-04-16T15:24:58Z</time>
      </trkpt>
      <trkpt lat="46.89773" lon="2.31764">
        <ele>149</ele>
        <time>2018-04-16T15:25:07Z</time>
      </trkpt>
      <trkpt lat="46.89756" lon="2.31723">
        <ele>149</ele>
        <time>2018-04-16T15:25:16Z</time>
      </trkpt>
      <trkpt lat="46.89745" lon="2.317">
        <ele>149</ele>
        <time>2018-04-16T15:25:22Z</time>
      </trkpt>
      <trkpt lat="46.89743" lon="2.31695">
        <ele>149</ele>
        <time>2018-04-16T15:25:25Z</time>
      </trkpt>
      <trkpt lat="46.89743" lon="2.31693">
        <ele>149</ele>
        <time>2018-04-16T15:25:30Z</time>
      </trkpt>
      <trkpt lat="46.89743" lon="2.31694">
        <ele>149</ele>
        <time>2018-04-16T15:25:32Z</time>
      </trkpt>
      <trkpt lat="46.89743" lon="2.31693">
        <ele>149</ele>
        <time>2018-04-16T15:25:41Z</time>
      </trkpt>
      <trkpt lat="46.89744" lon="2.31692">
        <ele>149</ele>
        <time>2018-04-16T15:25:48Z</time>
      </trkpt>
      <trkpt lat="46.89744" lon="2.31692">
        <ele>149</ele>
        <time>2018-04-16T15:25:51Z</time>
      </trkpt>
      <trkpt lat="46.89745" lon="2.31693">
        <ele>149</ele>
        <time>2018-04-16T15:26:06Z</time>
      </trkpt>
      <trkpt lat="46.89745" lon="2.31693">
        <ele>149</ele>
        <time>2018-04-16T15:26:10Z</time>
      </trkpt>
      <trkpt lat="46.89745" lon="2.31693">
        <ele>149</ele>
        <time>2018-04-16T15:26:11Z</time>
      </trkpt>
      <trkpt lat="46.89745" lon="2.31693">
        <ele>149</ele>
        <time>2018-04-16T15:26:13Z</time>
      </trkpt>
      <trkpt lat="46.89745" lon="2.31693">
        <ele>149</ele>
        <time>2018-04-16T15:26:15Z</time>
      </trkpt>
      <trkpt lat="46.89744" lon="2.31693">
        <ele>149</ele>
        <time>2018-04-16T15:26:18Z</time>
      </trkpt>
      <trkpt lat="46.89746" lon="2.31693">
        <ele>149</ele>
        <time>2018-04-16T15:26:39Z</time>
      </trkpt>
      <trkpt lat="46.8975" lon="2.31692">
        <ele>150</ele>
        <time>2018-04-16T15:26:56Z</time>
      </trkpt>
      <trkpt lat="46.89802" lon="2.31673">
        <ele>150</ele>
        <time>2018-04-16T15:27:14Z</time>
      </trkpt>
      <trkpt lat="46.8981" lon="2.3167">
        <ele>150</ele>
        <time>2018-04-16T15:27:16Z</time>
      </trkpt>
      <trkpt lat="46.89816" lon="2.31668">
        <ele>151</ele>
        <time>2018-04-16T15:27:18Z</time>
      </trkpt>
      <trkpt lat="46.89823" lon="2.31665">
        <ele>151</ele>
        <time>2018-04-16T15:27:20Z</time>
      </trkpt>
      <trkpt lat="46.8983" lon="2.31663">
        <ele>151</ele>
        <time>2018-04-16T15:27:22Z</time>
      </trkpt>
      <trkpt lat="46.89858" lon="2.31653">
        <ele>151</ele>
        <time>2018-04-16T15:27:30Z</time>
      </trkpt>
      <trkpt lat="46.89876" lon="2.31647">
        <ele>151</ele>
        <time>2018-04-16T15:27:35Z</time>
      </trkpt>
      <trkpt lat="46.89902" lon="2.31639">
        <ele>151</ele>
        <time>2018-04-16T15:27:43Z</time>
      </trkpt>
      <trkpt lat="46.89939" lon="2.31618">
        <ele>151</ele>
        <time>2018-04-16T15:27:57Z</time>
      </trkpt>
      <trkpt lat="46.89935" lon="2.31579">
        <ele>152</ele>
        <time>2018-04-16T15:28:06Z</time>
      </trkpt>
      <trkpt lat="46.89941" lon="2.31566">
        <ele>152</ele>
        <time>2018-04-16T15:28:10Z</time>
      </trkpt>
      <trkpt lat="46.89997" lon="2.31548">
        <ele>152</ele>
        <time>2018-04-16T15:28:28Z</time>
      </trkpt>
      <trkpt lat="46.90051" lon="2.3153">
        <ele>152</ele>
        <time>2018-04-16T15:28:45Z</time>
      </trkpt>
      <trkpt lat="46.90105" lon="2.31511">
        <ele>152</ele>
        <time>2018-04-16T15:29:03Z</time>
      </trkpt>
      <trkpt lat="46.9016" lon="2.31493">
        <ele>153</ele>
        <time>2018-04-16T15:29:21Z</time>
      </trkpt>
      <trkpt lat="46.90213" lon="2.31475">
        <ele>152</ele>
        <time>2018-04-16T15:29:37Z</time>
      </trkpt>
      <trkpt lat="46.90255" lon="2.31458">
        <ele>150</ele>
        <time>2018-04-16T15:29:55Z</time>
      </trkpt>
      <trkpt lat="46.90255" lon="2.31457">
        <ele>150</ele>
        <time>2018-04-16T15:29:58Z</time>
      </trkpt>
      <trkpt lat="46.90255" lon="2.31457">
        <ele>150</ele>
        <time>2018-04-16T15:30:04Z</time>
      </trkpt>
      <trkpt lat="46.90255" lon="2.31457">
        <ele>150</ele>
        <time>2018-04-16T15:30:05Z</time>
      </trkpt>
      <trkpt lat="46.90255" lon="2.31457">
        <ele>150</ele>
        <time>2018-04-16T15:30:06Z</time>
      </trkpt>
      <trkpt lat="46.90254" lon="2.31457">
        <ele>150</ele>
        <time>2018-04-16T15:30:14Z</time>
      </trkpt>
      <trkpt lat="46.90255" lon="2.31457">
        <ele>150</ele>
        <time>2018-04-16T15:30:18Z</time>
      </trkpt>
      <trkpt lat="46.90255" lon="2.31457">
        <ele>150</ele>
        <time>2018-04-16T15:30:19Z</time>
      </trkpt>
      <trkpt lat="46.90255" lon="2.31457">
        <ele>150</ele>
        <time>2018-04-16T15:30:21Z</time>
      </trkpt>
      <trkpt lat="46.90255" lon="2.31457">
        <ele>150</ele>
        <time>2018-04-16T15:30:27Z</time>
      </trkpt>
      <trkpt lat="46.90254" lon="2.31457">
        <ele>150</ele>
        <time>2018-04-16T15:30:28Z</time>
      </trkpt>
      <trkpt lat="46.90256" lon="2.3146">
        <ele>150</ele>
        <time>2018-04-16T15:30:45Z</time>
      </trkpt>
      <trkpt lat="46.90273" lon="2.31537">
        <ele>149</ele>
        <time>2018-04-16T15:31:02Z</time>
      </trkpt>
      <trkpt lat="46.9029" lon="2.31618">
        <ele>148</ele>
        <time>2018-04-16T15:31:13Z</time>
      </trkpt>
      <trkpt lat="46.90304" lon="2.3168">
        <ele>148</ele>
        <time>2018-04-16T15:31:19Z</time>
      </trkpt>
      <trkpt lat="46.90318" lon="2.31722">
        <ele>149</ele>
        <time>2018-04-16T15:31:23Z</time>
      </trkpt>
      <trkpt lat="46.90322" lon="2.31732">
        <ele>149</ele>
        <time>2018-04-16T15:31:24Z</time>
      </trkpt>
      <trkpt lat="46.90327" lon="2.3174">
        <ele>149</ele>
        <time>2018-04-16T15:31:25Z</time>
      </trkpt>
      <trkpt lat="46.90332" lon="2.31749">
        <ele>150</ele>
        <time>2018-04-16T15:31:26Z</time>
      </trkpt>
      <trkpt lat="46.90336" lon="2.31757">
        <ele>151</ele>
        <time>2018-04-16T15:31:27Z</time>
      </trkpt>
      <trkpt lat="46.90377" lon="2.31819">
        <ele>153</ele>
        <time>2018-04-16T15:31:37Z</time>
      </trkpt>
      <trkpt lat="46.90403" lon="2.31861">
        <ele>154</ele>
        <time>2018-04-16T15:31:45Z</time>
      </trkpt>
      <trkpt lat="46.90406" lon="2.31866">
        <ele>154</ele>
        <time>2018-04-16T15:31:46Z</time>
      </trkpt>
      <trkpt lat="46.90409" lon="2.31871">
        <ele>154</ele>
        <time>2018-04-16T15:31:47Z</time>
      </trkpt>
      <trkpt lat="46.90413" lon="2.31876">
        <ele>154</ele>
        <time>2018-04-16T15:31:48Z</time>
      </trkpt>
      <trkpt lat="46.90422" lon="2.31891">
        <ele>155</ele>
        <time>2018-04-16T15:31:51Z</time>
      </trkpt>
      <trkpt lat="46.90439" lon="2.31915">
        <ele>155</ele>
        <time>2018-04-16T15:31:56Z</time>
      </trkpt>
      <trkpt lat="46.9045" lon="2.31933">
        <ele>154</ele>
        <time>2018-04-16T15:32:00Z</time>
      </trkpt>
      <trkpt lat="46.90462" lon="2.31952">
        <ele>155</ele>
        <time>2018-04-16T15:32:04Z</time>
      </trkpt>
      <trkpt lat="46.90495" lon="2.32017">
        <ele>154</ele>
        <time>2018-04-16T15:32:17Z</time>
      </trkpt>
      <trkpt lat="46.90501" lon="2.32032">
        <ele>156</ele>
        <time>2018-04-16T15:32:20Z</time>
      </trkpt>
      <trkpt lat="46.90515" lon="2.32076">
        <ele>155</ele>
        <time>2018-04-16T15:32:28Z</time>
      </trkpt>
      <trkpt lat="46.90541" lon="2.32149">
        <ele>156</ele>
        <time>2018-04-16T15:32:41Z</time>
      </trkpt>
      <trkpt lat="46.90554" lon="2.32182">
        <ele>156</ele>
        <time>2018-04-16T15:32:47Z</time>
      </trkpt>
      <trkpt lat="46.90576" lon="2.32241">
        <ele>156</ele>
        <time>2018-04-16T15:32:58Z</time>
      </trkpt>
      <trkpt lat="46.90585" lon="2.32263">
        <ele>157</ele>
        <time>2018-04-16T15:33:02Z</time>
      </trkpt>
      <trkpt lat="46.90608" lon="2.32323">
        <ele>157</ele>
        <time>2018-04-16T15:33:13Z</time>
      </trkpt>
      <trkpt lat="46.90618" lon="2.32348">
        <ele>157</ele>
        <time>2018-04-16T15:33:18Z</time>
      </trkpt>
      <trkpt lat="46.90639" lon="2.324">
        <ele>157</ele>
        <time>2018-04-16T15:33:28Z</time>
      </trkpt>
      <trkpt lat="46.9065" lon="2.32424">
        <ele>157</ele>
        <time>2018-04-16T15:33:48Z</time>
      </trkpt>
      <trkpt lat="46.9065" lon="2.32421">
        <ele>157</ele>
        <time>2018-04-16T15:33:54Z</time>
      </trkpt>
      <trkpt lat="46.90651" lon="2.3242">
        <ele>157</ele>
        <time>2018-04-16T15:34:04Z</time>
      </trkpt>
      <trkpt lat="46.90648" lon="2.32416">
        <ele>158</ele>
        <time>2018-04-16T15:34:07Z</time>
      </trkpt>
      <trkpt lat="46.90645" lon="2.32406">
        <ele>157</ele>
        <time>2018-04-16T15:34:15Z</time>
      </trkpt>
      <trkpt lat="46.90654" lon="2.32417">
        <ele>157</ele>
        <time>2018-04-16T15:34:42Z</time>
      </trkpt>
      <trkpt lat="46.90655" lon="2.32416">
        <ele>158</ele>
        <time>2018-04-16T15:34:43Z</time>
      </trkpt>
      <trkpt lat="46.90702" lon="2.32377">
        <ele>160</ele>
        <time>2018-04-16T15:35:01Z</time>
      </trkpt>
      <trkpt lat="46.90725" lon="2.32357">
        <ele>161</ele>
        <time>2018-04-16T15:35:15Z</time>
      </trkpt>
      <trkpt lat="46.90735" lon="2.32347">
        <ele>161</ele>
        <time>2018-04-16T15:35:20Z</time>
      </trkpt>
      <trkpt lat="46.90739" lon="2.32342">
        <ele>161</ele>
        <time>2018-04-16T15:35:22Z</time>
      </trkpt>
      <trkpt lat="46.9074" lon="2.32341">
        <ele>161</ele>
        <time>2018-04-16T15:35:23Z</time>
      </trkpt>
      <trkpt lat="46.90787" lon="2.32301">
        <ele>163</ele>
        <time>2018-04-16T15:35:42Z</time>
      </trkpt>
      <trkpt lat="46.90792" lon="2.32297">
        <ele>163</ele>
        <time>2018-04-16T15:35:44Z</time>
      </trkpt>
      <trkpt lat="46.90808" lon="2.32285">
        <ele>163</ele>
        <time>2018-04-16T15:35:51Z</time>
      </trkpt>
      <trkpt lat="46.90819" lon="2.32272">
        <ele>163</ele>
        <time>2018-04-16T15:35:56Z</time>
      </trkpt>
      <trkpt lat="46.90837" lon="2.32256">
        <ele>163</ele>
        <time>2018-04-16T15:36:04Z</time>
      </trkpt>
      <trkpt lat="46.90882" lon="2.32211">
        <ele>164</ele>
        <time>2018-04-16T15:36:23Z</time>
      </trkpt>
      <trkpt lat="46.90919" lon="2.3218">
        <ele>164</ele>
        <time>2018-04-16T15:36:34Z</time>
      </trkpt>
      <trkpt lat="46.9094" lon="2.32164">
        <ele>164</ele>
        <time>2018-04-16T15:36:41Z</time>
      </trkpt>
      <trkpt lat="46.90946" lon="2.32159">
        <ele>164</ele>
        <time>2018-04-16T15:36:43Z</time>
      </trkpt>
      <trkpt lat="46.90993" lon="2.32115">
        <ele>164</ele>
        <time>2018-04-16T15:36:58Z</time>
      </trkpt>
      <trkpt lat="46.91" lon="2.32109">
        <ele>163</ele>
        <time>2018-04-16T15:37:00Z</time>
      </trkpt>
      <trkpt lat="46.91016" lon="2.32097">
        <ele>162</ele>
        <time>2018-04-16T15:37:05Z</time>
      </trkpt>
      <trkpt lat="46.91041" lon="2.32076">
        <ele>162</ele>
        <time>2018-04-16T15:37:12Z</time>
      </trkpt>
      <trkpt lat="46.91077" lon="2.32044">
        <ele>161</ele>
        <time>2018-04-16T15:37:22Z</time>
      </trkpt>
      <trkpt lat="46.91103" lon="2.32021">
        <ele>160</ele>
        <time>2018-04-16T15:37:29Z</time>
      </trkpt>
      <trkpt lat="46.91107" lon="2.32017">
        <ele>160</ele>
        <time>2018-04-16T15:37:30Z</time>
      </trkpt>
      <trkpt lat="46.9112" lon="2.32006">
        <ele>160</ele>
        <time>2018-04-16T15:37:33Z</time>
      </trkpt>
      <trkpt lat="46.91167" lon="2.31964">
        <ele>161</ele>
        <time>2018-04-16T15:37:46Z</time>
      </trkpt>
      <trkpt lat="46.91178" lon="2.31955">
        <ele>161</ele>
        <time>2018-04-16T15:37:49Z</time>
      </trkpt>
      <trkpt lat="46.91188" lon="2.31946">
        <ele>161</ele>
        <time>2018-04-16T15:37:52Z</time>
      </trkpt>
      <trkpt lat="46.91198" lon="2.31936">
        <ele>161</ele>
        <time>2018-04-16T15:37:55Z</time>
      </trkpt>
      <trkpt lat="46.91205" lon="2.3193">
        <ele>161</ele>
        <time>2018-04-16T15:37:57Z</time>
      </trkpt>
      <trkpt lat="46.91234" lon="2.31905">
        <ele>162</ele>
        <time>2018-04-16T15:38:05Z</time>
      </trkpt>
      <trkpt lat="46.91283" lon="2.31864">
        <ele>159</ele>
        <time>2018-04-16T15:38:18Z</time>
      </trkpt>
      <trkpt lat="46.91305" lon="2.31843">
        <ele>158</ele>
        <time>2018-04-16T15:38:24Z</time>
      </trkpt>
      <trkpt lat="46.91325" lon="2.31823">
        <ele>159</ele>
        <time>2018-04-16T15:38:30Z</time>
      </trkpt>
      <trkpt lat="46.9136" lon="2.31792">
        <ele>156</ele>
        <time>2018-04-16T15:38:40Z</time>
      </trkpt>
      <trkpt lat="46.91389" lon="2.31769">
        <ele>156</ele>
        <time>2018-04-16T15:38:55Z</time>
      </trkpt>
      <trkpt lat="46.91398" lon="2.31761">
        <ele>155</ele>
        <time>2018-04-16T15:39:02Z</time>
      </trkpt>
      <trkpt lat="46.91398" lon="2.31761">
        <ele>155</ele>
        <time>2018-04-16T15:39:05Z</time>
      </trkpt>
      <trkpt lat="46.91402" lon="2.31757">
        <ele>155</ele>
        <time>2018-04-16T15:39:18Z</time>
      </trkpt>
      <trkpt lat="46.91403" lon="2.31759">
        <ele>155</ele>
        <time>2018-04-16T15:39:36Z</time>
      </trkpt>
      <trkpt lat="46.91404" lon="2.3176">
        <ele>155</ele>
        <time>2018-04-16T15:39:45Z</time>
      </trkpt>
      <trkpt lat="46.91402" lon="2.3176">
        <ele>155</ele>
        <time>2018-04-16T15:39:54Z</time>
      </trkpt>
      <trkpt lat="46.91398" lon="2.31759">
        <ele>155</ele>
        <time>2018-04-16T15:40:23Z</time>
      </trkpt>
      <trkpt lat="46.91398" lon="2.31758">
        <ele>155</ele>
        <time>2018-04-16T15:40:24Z</time>
      </trkpt>
      <trkpt lat="46.91399" lon="2.31757">
        <ele>155</ele>
        <time>2018-04-16T15:40:36Z</time>
      </trkpt>
      <trkpt lat="46.91405" lon="2.3175">
        <ele>155</ele>
        <time>2018-04-16T15:40:59Z</time>
      </trkpt>
      <trkpt lat="46.91406" lon="2.3175">
        <ele>155</ele>
        <time>2018-04-16T15:41:01Z</time>
      </trkpt>
      <trkpt lat="46.91407" lon="2.31749">
        <ele>155</ele>
        <time>2018-04-16T15:41:02Z</time>
      </trkpt>
      <trkpt lat="46.91408" lon="2.31748">
        <ele>155</ele>
        <time>2018-04-16T15:41:03Z</time>
      </trkpt>
      <trkpt lat="46.9141" lon="2.31745">
        <ele>155</ele>
        <time>2018-04-16T15:41:05Z</time>
      </trkpt>
      <trkpt lat="46.91449" lon="2.31716">
        <ele>152</ele>
        <time>2018-04-16T15:41:21Z</time>
      </trkpt>
      <trkpt lat="46.91457" lon="2.31714">
        <ele>151</ele>
        <time>2018-04-16T15:41:24Z</time>
      </trkpt>
      <trkpt lat="46.91491" lon="2.31711">
        <ele>150</ele>
        <time>2018-04-16T15:41:36Z</time>
      </trkpt>
      <trkpt lat="46.91511" lon="2.31712">
        <ele>148</ele>
        <time>2018-04-16T15:41:43Z</time>
      </trkpt>
      <trkpt lat="46.91521" lon="2.31711">
        <ele>148</ele>
        <time>2018-04-16T15:41:47Z</time>
      </trkpt>
      <trkpt lat="46.91534" lon="2.31711">
        <ele>148</ele>
        <time>2018-04-16T15:41:51Z</time>
      </trkpt>
      <trkpt lat="46.91551" lon="2.31712">
        <ele>148</ele>
        <time>2018-04-16T15:41:56Z</time>
      </trkpt>
      <trkpt lat="46.91561" lon="2.31712">
        <ele>148</ele>
        <time>2018-04-16T15:41:59Z</time>
      </trkpt>
      <trkpt lat="46.91578" lon="2.31712">
        <ele>148</ele>
        <time>2018-04-16T15:42:06Z</time>
      </trkpt>
      <trkpt lat="46.91629" lon="2.31687">
        <ele>148</ele>
        <time>2018-04-16T15:42:25Z</time>
      </trkpt>
      <trkpt lat="46.91645" lon="2.31682">
        <ele>148</ele>
        <time>2018-04-16T15:42:30Z</time>
      </trkpt>
      <trkpt lat="46.91668" lon="2.31672">
        <ele>149</ele>
        <time>2018-04-16T15:42:59Z</time>
      </trkpt>
      <trkpt lat="46.91666" lon="2.3167">
        <ele>148</ele>
        <time>2018-04-16T15:43:22Z</time>
      </trkpt>
      <trkpt lat="46.91678" lon="2.31654">
        <ele>151</ele>
        <time>2018-04-16T15:43:35Z</time>
      </trkpt>
      <trkpt lat="46.91651" lon="2.31591">
        <ele>147</ele>
        <time>2018-04-16T15:43:49Z</time>
      </trkpt>
      <trkpt lat="46.9164" lon="2.31559">
        <ele>147</ele>
        <time>2018-04-16T15:43:57Z</time>
      </trkpt>
      <trkpt lat="46.91629" lon="2.31526">
        <ele>147</ele>
        <time>2018-04-16T15:44:05Z</time>
      </trkpt>
      <trkpt lat="46.91618" lon="2.31502">
        <ele>146</ele>
        <time>2018-04-16T15:44:11Z</time>
      </trkpt>
      <trkpt lat="46.91609" lon="2.31477">
        <ele>146</ele>
        <time>2018-04-16T15:44:17Z</time>
      </trkpt>
      <trkpt lat="46.91607" lon="2.31449">
        <ele>146</ele>
        <time>2018-04-16T15:44:23Z</time>
      </trkpt>
      <trkpt lat="46.91614" lon="2.31404">
        <ele>145</ele>
        <time>2018-04-16T15:44:34Z</time>
      </trkpt>
      <trkpt lat="46.91642" lon="2.31333">
        <ele>145</ele>
        <time>2018-04-16T15:44:52Z</time>
      </trkpt>
      <trkpt lat="46.91675" lon="2.31294">
        <ele>149</ele>
        <time>2018-04-16T15:45:07Z</time>
      </trkpt>
      <trkpt lat="46.91684" lon="2.31289">
        <ele>149</ele>
        <time>2018-04-16T15:45:10Z</time>
      </trkpt>
      <trkpt lat="46.91719" lon="2.31272">
        <ele>151</ele>
        <time>2018-04-16T15:45:24Z</time>
      </trkpt>
      <trkpt lat="46.91735" lon="2.31256">
        <ele>151</ele>
        <time>2018-04-16T15:45:31Z</time>
      </trkpt>
      <trkpt lat="46.91743" lon="2.31244">
        <ele>152</ele>
        <time>2018-04-16T15:45:35Z</time>
      </trkpt>
      <trkpt lat="46.91753" lon="2.31225">
        <ele>154</ele>
        <time>2018-04-16T15:45:40Z</time>
      </trkpt>
      <trkpt lat="46.9179" lon="2.31163">
        <ele>155</ele>
        <time>2018-04-16T15:45:58Z</time>
      </trkpt>
      <trkpt lat="46.91843" lon="2.31149">
        <ele>154</ele>
        <time>2018-04-16T15:46:15Z</time>
      </trkpt>
      <trkpt lat="46.91899" lon="2.31145">
        <ele>154</ele>
        <time>2018-04-16T15:46:34Z</time>
      </trkpt>
      <trkpt lat="46.91922" lon="2.31131">
        <ele>153</ele>
        <time>2018-04-16T15:46:42Z</time>
      </trkpt>
      <trkpt lat="46.91929" lon="2.31126">
        <ele>153</ele>
        <time>2018-04-16T15:46:45Z</time>
      </trkpt>
      <trkpt lat="46.9195" lon="2.31116">
        <ele>153</ele>
        <time>2018-04-16T15:46:55Z</time>
      </trkpt>
      <trkpt lat="46.91953" lon="2.31116">
        <ele>153</ele>
        <time>2018-04-16T15:46:57Z</time>
      </trkpt>
      <trkpt lat="46.91966" lon="2.31117">
        <ele>153</ele>
        <time>2018-04-16T15:47:03Z</time>
      </trkpt>
      <trkpt lat="46.91974" lon="2.31117">
        <ele>153</ele>
        <time>2018-04-16T15:47:06Z</time>
      </trkpt>
      <trkpt lat="46.92015" lon="2.31118">
        <ele>153</ele>
        <time>2018-04-16T15:47:20Z</time>
      </trkpt>
      <trkpt lat="46.92022" lon="2.31118">
        <ele>153</ele>
        <time>2018-04-16T15:47:22Z</time>
      </trkpt>
      <trkpt lat="46.92034" lon="2.31119">
        <ele>153</ele>
        <time>2018-04-16T15:47:26Z</time>
      </trkpt>
      <trkpt lat="46.9205" lon="2.31118">
        <ele>153</ele>
        <time>2018-04-16T15:47:31Z</time>
      </trkpt>
      <trkpt lat="46.9209" lon="2.31112">
        <ele>153</ele>
        <time>2018-04-16T15:47:43Z</time>
      </trkpt>
      <trkpt lat="46.92101" lon="2.31109">
        <ele>153</ele>
        <time>2018-04-16T15:47:46Z</time>
      </trkpt>
      <trkpt lat="46.9212" lon="2.31097">
        <ele>153</ele>
        <time>2018-04-16T15:47:53Z</time>
      </trkpt>
      <trkpt lat="46.92152" lon="2.31033">
        <ele>153</ele>
        <time>2018-04-16T15:48:09Z</time>
      </trkpt>
      <trkpt lat="46.92174" lon="2.30982">
        <ele>154</ele>
        <time>2018-04-16T15:48:21Z</time>
      </trkpt>
      <trkpt lat="46.92182" lon="2.30965">
        <ele>154</ele>
        <time>2018-04-16T15:48:25Z</time>
      </trkpt>
      <trkpt lat="46.92211" lon="2.30897">
        <ele>155</ele>
        <time>2018-04-16T15:48:40Z</time>
      </trkpt>
      <trkpt lat="46.92238" lon="2.30826">
        <ele>155</ele>
        <time>2018-04-16T15:48:54Z</time>
      </trkpt>
      <trkpt lat="46.92252" lon="2.30773">
        <ele>154</ele>
        <time>2018-04-16T15:49:04Z</time>
      </trkpt>
      <trkpt lat="46.92254" lon="2.30755">
        <ele>154</ele>
        <time>2018-04-16T15:49:08Z</time>
      </trkpt>
      <trkpt lat="46.92255" lon="2.30751">
        <ele>154</ele>
        <time>2018-04-16T15:49:11Z</time>
      </trkpt>
      <trkpt lat="46.92255" lon="2.30752">
        <ele>154</ele>
        <time>2018-04-16T15:49:20Z</time>
      </trkpt>
      <trkpt lat="46.92254" lon="2.30752">
        <ele>154</ele>
        <time>2018-04-16T15:49:23Z</time>
      </trkpt>
      <trkpt lat="46.92254" lon="2.30753">
        <ele>154</ele>
        <time>2018-04-16T15:49:30Z</time>
      </trkpt>
      <trkpt lat="46.92255" lon="2.30753">
        <ele>154</ele>
        <time>2018-04-16T15:49:43Z</time>
      </trkpt>
      <trkpt lat="46.92255" lon="2.30752">
        <ele>154</ele>
        <time>2018-04-16T15:50:04Z</time>
      </trkpt>
      <trkpt lat="46.92255" lon="2.30752">
        <ele>154</ele>
        <time>2018-04-16T15:50:23Z</time>
      </trkpt>
      <trkpt lat="46.92267" lon="2.30673">
        <ele>154</ele>
        <time>2018-04-16T15:50:45Z</time>
      </trkpt>
      <trkpt lat="46.92271" lon="2.3065">
        <ele>154</ele>
        <time>2018-04-16T15:50:49Z</time>
      </trkpt>
      <trkpt lat="46.9228" lon="2.30602">
        <ele>154</ele>
        <time>2018-04-16T15:50:57Z</time>
      </trkpt>
      <trkpt lat="46.9229" lon="2.30522">
        <ele>153</ele>
        <time>2018-04-16T15:51:09Z</time>
      </trkpt>
      <trkpt lat="46.92289" lon="2.30515">
        <ele>153</ele>
        <time>2018-04-16T15:51:10Z</time>
      </trkpt>
      <trkpt lat="46.92289" lon="2.30501">
        <ele>153</ele>
        <time>2018-04-16T15:51:12Z</time>
      </trkpt>
      <trkpt lat="46.9229" lon="2.30488">
        <ele>153</ele>
        <time>2018-04-16T15:51:14Z</time>
      </trkpt>
      <trkpt lat="46.92294" lon="2.3045">
        <ele>153</ele>
        <time>2018-04-16T15:51:20Z</time>
      </trkpt>
      <trkpt lat="46.92296" lon="2.30438">
        <ele>153</ele>
        <time>2018-04-16T15:51:22Z</time>
      </trkpt>
      <trkpt lat="46.923" lon="2.30415">
        <ele>153</ele>
        <time>2018-04-16T15:51:26Z</time>
      </trkpt>
      <trkpt lat="46.92315" lon="2.30334">
        <ele>152</ele>
        <time>2018-04-16T15:51:40Z</time>
      </trkpt>
      <trkpt lat="46.92327" lon="2.3026">
        <ele>151</ele>
        <time>2018-04-16T15:51:53Z</time>
      </trkpt>
      <trkpt lat="46.92327" lon="2.30248">
        <ele>150</ele>
        <time>2018-04-16T15:51:55Z</time>
      </trkpt>
      <trkpt lat="46.92331" lon="2.30205">
        <ele>150</ele>
        <time>2018-04-16T15:52:03Z</time>
      </trkpt>
      <trkpt lat="46.92333" lon="2.30185">
        <ele>149</ele>
        <time>2018-04-16T15:52:08Z</time>
      </trkpt>
      <trkpt lat="46.92333" lon="2.30129">
        <ele>146</ele>
        <time>2018-04-16T15:52:22Z</time>
      </trkpt>
      <trkpt lat="46.92329" lon="2.30116">
        <ele>145</ele>
        <time>2018-04-16T15:52:24Z</time>
      </trkpt>
      <trkpt lat="46.92323" lon="2.30102">
        <ele>144</ele>
        <time>2018-04-16T15:52:26Z</time>
      </trkpt>
      <trkpt lat="46.92288" lon="2.30048">
        <ele>141</ele>
        <time>2018-04-16T15:52:35Z</time>
      </trkpt>
      <trkpt lat="46.92276" lon="2.3002">
        <ele>140</ele>
        <time>2018-04-16T15:52:42Z</time>
      </trkpt>
      <trkpt lat="46.9232" lon="2.30027">
        <ele>139</ele>
        <time>2018-04-16T15:52:54Z</time>
      </trkpt>
      <trkpt lat="46.92327" lon="2.30026">
        <ele>139</ele>
        <time>2018-04-16T15:52:57Z</time>
      </trkpt>
      <trkpt lat="46.9234" lon="2.29961">
        <ele>135</ele>
        <time>2018-04-16T15:53:08Z</time>
      </trkpt>
      <trkpt lat="46.92341" lon="2.29947">
        <ele>135</ele>
        <time>2018-04-16T15:53:10Z</time>
      </trkpt>
      <trkpt lat="46.92338" lon="2.29935">
        <ele>135</ele>
        <time>2018-04-16T15:53:12Z</time>
      </trkpt>
      <trkpt lat="46.92334" lon="2.29923">
        <ele>134</ele>
        <time>2018-04-16T15:53:14Z</time>
      </trkpt>
      <trkpt lat="46.92324" lon="2.29906">
        <ele>134</ele>
        <time>2018-04-16T15:53:17Z</time>
      </trkpt>
      <trkpt lat="46.92307" lon="2.29862">
        <ele>133</ele>
        <time>2018-04-16T15:53:26Z</time>
      </trkpt>
      <trkpt lat="46.92316" lon="2.29859">
        <ele>133</ele>
        <time>2018-04-16T15:54:17Z</time>
      </trkpt>
      <trkpt lat="46.92316" lon="2.2986">
        <ele>133</ele>
        <time>2018-04-16T15:54:18Z</time>
      </trkpt>
      <trkpt lat="46.92317" lon="2.29861">
        <ele>133</ele>
        <time>2018-04-16T15:54:23Z</time>
      </trkpt>
      <trkpt lat="46.92316" lon="2.2986">
        <ele>133</ele>
        <time>2018-04-16T15:54:37Z</time>
      </trkpt>
      <trkpt lat="46.92316" lon="2.29857">
        <ele>133</ele>
        <time>2018-04-16T15:54:53Z</time>
      </trkpt>
      <trkpt lat="46.92317" lon="2.29858">
        <ele>133</ele>
        <time>2018-04-16T15:55:24Z</time>
      </trkpt>
      <trkpt lat="46.92317" lon="2.29857">
        <ele>133</ele>
        <time>2018-04-16T15:55:28Z</time>
      </trkpt>
      <trkpt lat="46.92318" lon="2.29857">
        <ele>133</ele>
        <time>2018-04-16T15:55:31Z</time>
      </trkpt>
      <trkpt lat="46.92318" lon="2.29857">
        <ele>133</ele>
        <time>2018-04-16T15:55:32Z</time>
      </trkpt>
      <trkpt lat="46.92319" lon="2.29857">
        <ele>133</ele>
        <time>2018-04-16T15:55:33Z</time>
      </trkpt>
      <trkpt lat="46.9232" lon="2.29855">
        <ele>133</ele>
        <time>2018-04-16T15:55:35Z</time>
      </trkpt>
      <trkpt lat="46.92322" lon="2.29849">
        <ele>133</ele>
        <time>2018-04-16T15:55:38Z</time>
      </trkpt>
      <trkpt lat="46.92321" lon="2.29849">
        <ele>133</ele>
        <time>2018-04-16T15:55:39Z</time>
      </trkpt>
      <trkpt lat="46.92317" lon="2.2985">
        <ele>133</ele>
        <time>2018-04-16T15:55:41Z</time>
      </trkpt>
      <trkpt lat="46.92312" lon="2.29854">
        <ele>133</ele>
        <time>2018-04-16T15:55:43Z</time>
      </trkpt>
      <trkpt lat="46.92298" lon="2.29869">
        <ele>133</ele>
        <time>2018-04-16T15:55:48Z</time>
      </trkpt>
    </trkseg>
  </trk>
  <trk>
    <name><![CDATA[20180610195922-k1GEa]]></name>
    <trkseg>
      <trkpt lat="46.57035" lon="2.60184">
        <ele>170</ele>
        <time>2018-04-16T09:22:12Z</time>
      </trkpt>
      <trkpt lat="46.57035" lon="2.60184">
        <ele>170</ele>
        <time>2018-04-16T09:22:18Z</time>
      </trkpt>
      <trkpt lat="46.57037" lon="2.60183">
        <ele>170</ele>
        <time>2018-04-16T09:22:19Z</time>
      </trkpt>
      <trkpt lat="46.57033" lon="2.60184">
        <ele>170</ele>
        <time>2018-04-16T09:22:24Z</time>
      </trkpt>
      <trkpt lat="46.57031" lon="2.60184">
        <ele>170</ele>
        <time>2018-04-16T09:22:33Z</time>
      </trkpt>
      <trkpt lat="46.57033" lon="2.60179">
        <ele>170</ele>
        <time>2018-04-16T09:22:37Z</time>
      </trkpt>
      <trkpt lat="46.57035" lon="2.60177">
        <ele>170</ele>
        <time>2018-04-16T09:22:38Z</time>
      </trkpt>
      <trkpt lat="46.57047" lon="2.60165">
        <ele>171</ele>
        <time>2018-04-16T09:22:42Z</time>
      </trkpt>
      <trkpt lat="46.57054" lon="2.6016">
        <ele>171</ele>
        <time>2018-04-16T09:22:44Z</time>
      </trkpt>
      <trkpt lat="46.57065" lon="2.6015">
        <ele>171</ele>
        <time>2018-04-16T09:22:47Z</time>
      </trkpt>
      <trkpt lat="46.57069" lon="2.60146">
        <ele>171</ele>
        <time>2018-04-16T09:22:48Z</time>
      </trkpt>
      <trkpt lat="46.57073" lon="2.60142">
        <ele>171</ele>
        <time>2018-04-16T09:22:49Z</time>
      </trkpt>
      <trkpt lat="46.571" lon="2.60104">
        <ele>172</ele>
        <time>2018-04-16T09:22:57Z</time>
      </trkpt>
      <trkpt lat="46.57107" lon="2.6009">
        <ele>172</ele>
        <time>2018-04-16T09:23:00Z</time>
      </trkpt>
      <trkpt lat="46.57117" lon="2.60076">
        <ele>172</ele>
        <time>2018-04-16T09:23:04Z</time>
      </trkpt>
      <trkpt lat="46.57135" lon="2.60052">
        <ele>172</ele>
        <time>2018-04-16T09:23:11Z</time>
      </trkpt>
      <trkpt lat="46.57146" lon="2.60043">
        <ele>172</ele>
        <time>2018-04-16T09:23:15Z</time>
      </trkpt>
      <trkpt lat="46.57152" lon="2.60039">
        <ele>172</ele>
        <time>2018-04-16T09:23:17Z</time>
      </trkpt>
      <trkpt lat="46.57157" lon="2.60037">
        <ele>172</ele>
        <time>2018-04-16T09:23:19Z</time>
      </trkpt>
      <trkpt lat="46.57164" lon="2.60032">
        <ele>172</ele>
        <time>2018-04-16T09:23:22Z</time>
      </trkpt>
      <trkpt lat="46.57166" lon="2.6003">
        <ele>172</ele>
        <time>2018-04-16T09:23:23Z</time>
      </trkpt>
      <trkpt lat="46.57174" lon="2.60022">
        <ele>172</ele>
        <time>2018-04-16T09:23:27Z</time>
      </trkpt>
      <trkpt lat="46.57197" lon="2.60015">
        <ele>172</ele>
        <time>2018-04-16T09:23:34Z</time>
      </trkpt>
      <trkpt lat="46.57226" lon="2.60004">
        <ele>172</ele>
        <time>2018-04-16T09:23:42Z</time>
      </trkpt>
      <trkpt lat="46.57265" lon="2.59991">
        <ele>172</ele>
        <time>2018-04-16T09:23:52Z</time>
      </trkpt>
      <trkpt lat="46.57298" lon="2.5998">
        <ele>171</ele>
        <time>2018-04-16T09:24:00Z</time>
      </trkpt>
      <trkpt lat="46.57329" lon="2.5997">
        <ele>171</ele>
        <time>2018-04-16T09:24:07Z</time>
      </trkpt>
      <trkpt lat="46.57339" lon="2.59966">
        <ele>171</ele>
        <time>2018-04-16T09:24:09Z</time>
      </trkpt>
      <trkpt lat="46.57389" lon="2.59949">
        <ele>171</ele>
        <time>2018-04-16T09:24:20Z</time>
      </trkpt>
      <trkpt lat="46.57399" lon="2.59946">
        <ele>171</ele>
        <time>2018-04-16T09:24:22Z</time>
      </trkpt>
      <trkpt lat="46.57431" lon="2.59936">
        <ele>170</ele>
        <time>2018-04-16T09:24:29Z</time>
      </trkpt>
      <trkpt lat="46.57435" lon="2.59935">
        <ele>170</ele>
        <time>2018-04-16T09:24:30Z</time>
      </trkpt>
      <trkpt lat="46.57466" lon="2.59924">
        <ele>170</ele>
        <time>2018-04-16T09:24:37Z</time>
      </trkpt>
      <trkpt lat="46.57503" lon="2.59912">
        <ele>170</ele>
        <time>2018-04-16T09:24:45Z</time>
      </trkpt>
      <trkpt lat="46.57507" lon="2.5991">
        <ele>170</ele>
        <time>2018-04-16T09:24:46Z</time>
      </trkpt>
      <trkpt lat="46.57539" lon="2.59899">
        <ele>170</ele>
        <time>2018-04-16T09:24:53Z</time>
      </trkpt>
      <trkpt lat="46.57556" lon="2.59893">
        <ele>170</ele>
        <time>2018-04-16T09:24:57Z</time>
      </trkpt>
      <trkpt lat="46.5757" lon="2.5989">
        <ele>170</ele>
        <time>2018-04-16T09:25:00Z</time>
      </trkpt>
      <trkpt lat="46.57583" lon="2.59884">
        <ele>170</ele>
        <time>2018-04-16T09:25:03Z</time>
      </trkpt>
      <trkpt lat="46.576" lon="2.59879">
        <ele>170</ele>
        <time>2018-04-16T09:25:07Z</time>
      </trkpt>
      <trkpt lat="46.57617" lon="2.59872">
        <ele>170</ele>
        <time>2018-04-16T09:25:11Z</time>
      </trkpt>
      <trkpt lat="46.5764" lon="2.59861">
        <ele>170</ele>
        <time>2018-04-16T09:25:16Z</time>
      </trkpt>
      <trkpt lat="46.57685" lon="2.59839">
        <ele>171</ele>
        <time>2018-04-16T09:25:26Z</time>
      </trkpt>
      <trkpt lat="46.5773" lon="2.59819">
        <ele>172</ele>
        <time>2018-04-16T09:25:36Z</time>
      </trkpt>
      <trkpt lat="46.57767" lon="2.59813">
        <ele>172</ele>
        <time>2018-04-16T09:25:44Z</time>
      </trkpt>
      <trkpt lat="46.57818" lon="2.59815">
        <ele>171</ele>
        <time>2018-04-16T09:25:55Z</time>
      </trkpt>
      <trkpt lat="46.57871" lon="2.59823">
        <ele>171</ele>
        <time>2018-04-16T09:26:06Z</time>
      </trkpt>
      <trkpt lat="46.57882" lon="2.59828">
        <ele>171</ele>
        <time>2018-04-16T09:26:08Z</time>
      </trkpt>
      <trkpt lat="46.57901" lon="2.59843">
        <ele>170</ele>
        <time>2018-04-16T09:26:12Z</time>
      </trkpt>
      <trkpt lat="46.5791" lon="2.59851">
        <ele>170</ele>
        <time>2018-04-16T09:26:14Z</time>
      </trkpt>
      <trkpt lat="46.57936" lon="2.59876">
        <ele>170</ele>
        <time>2018-04-16T09:26:20Z</time>
      </trkpt>
      <trkpt lat="46.57977" lon="2.59914">
        <ele>170</ele>
        <time>2018-04-16T09:26:30Z</time>
      </trkpt>
      <trkpt lat="46.57981" lon="2.59918">
        <ele>170</ele>
        <time>2018-04-16T09:26:31Z</time>
      </trkpt>
      <trkpt lat="46.58001" lon="2.59937">
        <ele>170</ele>
        <time>2018-04-16T09:26:36Z</time>
      </trkpt>
      <trkpt lat="46.58038" lon="2.59974">
        <ele>170</ele>
        <time>2018-04-16T09:26:46Z</time>
      </trkpt>
      <trkpt lat="46.58041" lon="2.59977">
        <ele>170</ele>
        <time>2018-04-16T09:26:47Z</time>
      </trkpt>
      <trkpt lat="46.5806" lon="2.60001">
        <ele>170</ele>
        <time>2018-04-16T09:26:53Z</time>
      </trkpt>
      <trkpt lat="46.58062" lon="2.60005">
        <ele>170</ele>
        <time>2018-04-16T09:26:54Z</time>
      </trkpt>
      <trkpt lat="46.58069" lon="2.6001">
        <ele>170</ele>
        <time>2018-04-16T09:26:57Z</time>
      </trkpt>
      <trkpt lat="46.58071" lon="2.60009">
        <ele>170</ele>
        <time>2018-04-16T09:26:58Z</time>
      </trkpt>
      <trkpt lat="46.5807" lon="2.60008">
        <ele>170</ele>
        <time>2018-04-16T09:27:02Z</time>
      </trkpt>
      <trkpt lat="46.5807" lon="2.60008">
        <ele>170</ele>
        <time>2018-04-16T09:27:15Z</time>
      </trkpt>
      <trkpt lat="46.5807" lon="2.60008">
        <ele>170</ele>
        <time>2018-04-16T09:27:27Z</time>
      </trkpt>
      <trkpt lat="46.58071" lon="2.60008">
        <ele>170</ele>
        <time>2018-04-16T09:27:36Z</time>
      </trkpt>
      <trkpt lat="46.58071" lon="2.60008">
        <ele>170</ele>
        <time>2018-04-16T09:27:43Z</time>
      </trkpt>
      <trkpt lat="46.58071" lon="2.60008">
        <ele>170</ele>
        <time>2018-04-16T09:27:57Z</time>
      </trkpt>
      <trkpt lat="46.58071" lon="2.60008">
        <ele>170</ele>
        <time>2018-04-16T09:28:09Z</time>
      </trkpt>
      <trkpt lat="46.58071" lon="2.60008">
        <ele>170</ele>
        <time>2018-04-16T09:28:19Z</time>
      </trkpt>
      <trkpt lat="46.58071" lon="2.60008">
        <ele>170</ele>
        <time>2018-04-16T09:28:29Z</time>
      </trkpt>
      <trkpt lat="46.58071" lon="2.60009">
        <ele>170</ele>
        <time>2018-04-16T09:28:37Z</time>
      </trkpt>
      <trkpt lat="46.58071" lon="2.60009">
        <ele>170</ele>
        <time>2018-04-16T09:28:44Z</time>
      </trkpt>
      <trkpt lat="46.58071" lon="2.60009">
        <ele>170</ele>
        <time>2018-04-16T09:28:48Z</time>
      </trkpt>
      <trkpt lat="46.58071" lon="2.60009">
        <ele>170</ele>
        <time>2018-04-16T09:29:00Z</time>
      </trkpt>
      <trkpt lat="46.58071" lon="2.60009">
        <ele>170</ele>
        <time>2018-04-16T09:29:16Z</time>
      </trkpt>
      <trkpt lat="46.58071" lon="2.60009">
        <ele>170</ele>
        <time>2018-04-16T09:29:29Z</time>
      </trkpt>
      <trkpt lat="46.58071" lon="2.60009">
        <ele>170</ele>
        <time>2018-04-16T09:29:47Z</time>
      </trkpt>
      <trkpt lat="46.58072" lon="2.60009">
        <ele>170</ele>
        <time>2018-04-16T09:29:56Z</time>
      </trkpt>
      <trkpt lat="46.58072" lon="2.60009">
        <ele>170</ele>
        <time>2018-04-16T09:30:07Z</time>
      </trkpt>
      <trkpt lat="46.58072" lon="2.60009">
        <ele>170</ele>
        <time>2018-04-16T09:30:17Z</time>
      </trkpt>
      <trkpt lat="46.58072" lon="2.60009">
        <ele>170</ele>
        <time>2018-04-16T09:30:29Z</time>
      </trkpt>
      <trkpt lat="46.58073" lon="2.60009">
        <ele>170</ele>
        <time>2018-04-16T09:30:40Z</time>
      </trkpt>
      <trkpt lat="46.58073" lon="2.60009">
        <ele>170</ele>
        <time>2018-04-16T09:30:49Z</time>
      </trkpt>
      <trkpt lat="46.58073" lon="2.60009">
        <ele>170</ele>
        <time>2018-04-16T09:30:58Z</time>
      </trkpt>
      <trkpt lat="46.58073" lon="2.60009">
        <ele>170</ele>
        <time>2018-04-16T09:31:06Z</time>
      </trkpt>
      <trkpt lat="46.58074" lon="2.60007">
        <ele>170</ele>
        <time>2018-04-16T09:31:09Z</time>
      </trkpt>
      <trkpt lat="46.58079" lon="2.60005">
        <ele>170</ele>
        <time>2018-04-16T09:31:11Z</time>
      </trkpt>
      <trkpt lat="46.58086" lon="2.60001">
        <ele>170</ele>
        <time>2018-04-16T09:31:13Z</time>
      </trkpt>
    </trkseg>
  </trk>
  <trk>
    <name><![CDATA[20180610195922-k1GEa]]></name>
    <trkseg>
      <trkpt lat="46.90253" lon="2.31458">
        <ele>150</ele>
        <time>2018-04-16T16:08:12Z</time>
      </trkpt>
      <trkpt lat="46.9025" lon="2.31462">
        <ele>150</ele>
        <time>2018-04-16T16:08:14Z</time>
      </trkpt>
      <trkpt lat="46.90195" lon="2.31479">
        <ele>152</ele>
        <time>2018-04-16T16:08:28Z</time>
      </trkpt>
      <trkpt lat="46.90142" lon="2.31497">
        <ele>153</ele>
        <time>2018-04-16T16:08:42Z</time>
      </trkpt>
      <trkpt lat="46.90104" lon="2.3151">
        <ele>152</ele>
        <time>2018-04-16T16:08:53Z</time>
      </trkpt>
      <trkpt lat="46.90055" lon="2.31527">
        <ele>152</ele>
        <time>2018-04-16T16:09:06Z</time>
      </trkpt>
      <trkpt lat="46.89999" lon="2.31545">
        <ele>152</ele>
        <time>2018-04-16T16:09:20Z</time>
      </trkpt>
      <trkpt lat="46.89943" lon="2.31564">
        <ele>152</ele>
        <time>2018-04-16T16:09:35Z</time>
      </trkpt>
      <trkpt lat="46.89933" lon="2.31575">
        <ele>152</ele>
        <time>2018-04-16T16:09:39Z</time>
      </trkpt>
      <trkpt lat="46.89935" lon="2.31622">
        <ele>151</ele>
        <time>2018-04-16T16:09:48Z</time>
      </trkpt>
      <trkpt lat="46.89903" lon="2.31638">
        <ele>151</ele>
        <time>2018-04-16T16:09:57Z</time>
      </trkpt>
      <trkpt lat="46.89848" lon="2.31655">
        <ele>151</ele>
        <time>2018-04-16T16:10:10Z</time>
      </trkpt>
      <trkpt lat="46.89795" lon="2.31672">
        <ele>150</ele>
        <time>2018-04-16T16:10:23Z</time>
      </trkpt>
      <trkpt lat="46.89743" lon="2.31694">
        <ele>149</ele>
        <time>2018-04-16T16:10:41Z</time>
      </trkpt>
      <trkpt lat="46.89741" lon="2.31691">
        <ele>149</ele>
        <time>2018-04-16T16:11:19Z</time>
      </trkpt>
      <trkpt lat="46.89741" lon="2.31691">
        <ele>149</ele>
        <time>2018-04-16T16:11:27Z</time>
      </trkpt>
      <trkpt lat="46.89741" lon="2.3169">
        <ele>149</ele>
        <time>2018-04-16T16:11:34Z</time>
      </trkpt>
      <trkpt lat="46.89741" lon="2.31691">
        <ele>149</ele>
        <time>2018-04-16T16:11:42Z</time>
      </trkpt>
      <trkpt lat="46.89741" lon="2.3169">
        <ele>149</ele>
        <time>2018-04-16T16:11:56Z</time>
      </trkpt>
      <trkpt lat="46.89741" lon="2.3169">
        <ele>149</ele>
        <time>2018-04-16T16:11:57Z</time>
      </trkpt>
      <trkpt lat="46.89741" lon="2.3169">
        <ele>149</ele>
        <time>2018-04-16T16:11:58Z</time>
      </trkpt>
      <trkpt lat="46.89741" lon="2.3169">
        <ele>149</ele>
        <time>2018-04-16T16:11:59Z</time>
      </trkpt>
      <trkpt lat="46.89741" lon="2.31691">
        <ele>149</ele>
        <time>2018-04-16T16:12:05Z</time>
      </trkpt>
      <trkpt lat="46.89741" lon="2.3169">
        <ele>149</ele>
        <time>2018-04-16T16:12:18Z</time>
      </trkpt>
      <trkpt lat="46.8974" lon="2.31684">
        <ele>149</ele>
        <time>2018-04-16T16:12:44Z</time>
      </trkpt>
      <trkpt lat="46.89719" lon="2.31628">
        <ele>150</ele>
        <time>2018-04-16T16:12:57Z</time>
      </trkpt>
      <trkpt lat="46.89716" lon="2.31619">
        <ele>151</ele>
        <time>2018-04-16T16:12:59Z</time>
      </trkpt>
      <trkpt lat="46.89712" lon="2.31606">
        <ele>151</ele>
        <time>2018-04-16T16:13:02Z</time>
      </trkpt>
      <trkpt lat="46.8971" lon="2.31601">
        <ele>151</ele>
        <time>2018-04-16T16:13:03Z</time>
      </trkpt>
      <trkpt lat="46.89707" lon="2.31592">
        <ele>151</ele>
        <time>2018-04-16T16:13:05Z</time>
      </trkpt>
      <trkpt lat="46.89704" lon="2.31583">
        <ele>152</ele>
        <time>2018-04-16T16:13:07Z</time>
      </trkpt>
      <trkpt lat="46.89694" lon="2.31557">
        <ele>152</ele>
        <time>2018-04-16T16:13:13Z</time>
      </trkpt>
      <trkpt lat="46.89683" lon="2.31525">
        <ele>153</ele>
        <time>2018-04-16T16:13:20Z</time>
      </trkpt>
      <trkpt lat="46.89674" lon="2.31502">
        <ele>154</ele>
        <time>2018-04-16T16:13:25Z</time>
      </trkpt>
      <trkpt lat="46.89671" lon="2.31493">
        <ele>154</ele>
        <time>2018-04-16T16:13:27Z</time>
      </trkpt>
      <trkpt lat="46.89661" lon="2.31467">
        <ele>154</ele>
        <time>2018-04-16T16:13:33Z</time>
      </trkpt>
      <trkpt lat="46.89647" lon="2.31432">
        <ele>154</ele>
        <time>2018-04-16T16:13:41Z</time>
      </trkpt>
      <trkpt lat="46.8964" lon="2.31413">
        <ele>154</ele>
        <time>2018-04-16T16:13:45Z</time>
      </trkpt>
      <trkpt lat="46.89638" lon="2.31408">
        <ele>154</ele>
        <time>2018-04-16T16:13:46Z</time>
      </trkpt>
      <trkpt lat="46.89606" lon="2.31343">
        <ele>154</ele>
        <time>2018-04-16T16:14:01Z</time>
      </trkpt>
      <trkpt lat="46.89581" lon="2.31266">
        <ele>153</ele>
        <time>2018-04-16T16:14:14Z</time>
      </trkpt>
      <trkpt lat="46.89559" lon="2.31184">
        <ele>150</ele>
        <time>2018-04-16T16:14:23Z</time>
      </trkpt>
      <trkpt lat="46.89546" lon="2.3112">
        <ele>148</ele>
        <time>2018-04-16T16:14:29Z</time>
      </trkpt>
      <trkpt lat="46.89528" lon="2.31038">
        <ele>146</ele>
        <time>2018-04-16T16:14:38Z</time>
      </trkpt>
      <trkpt lat="46.89521" lon="2.31005">
        <ele>145</ele>
        <time>2018-04-16T16:14:42Z</time>
      </trkpt>
      <trkpt lat="46.89503" lon="2.30927">
        <ele>144</ele>
        <time>2018-04-16T16:14:51Z</time>
      </trkpt>
      <trkpt lat="46.89492" lon="2.30871">
        <ele>143</ele>
        <time>2018-04-16T16:14:58Z</time>
      </trkpt>
      <trkpt lat="46.89482" lon="2.30789">
        <ele>142</ele>
        <time>2018-04-16T16:15:08Z</time>
      </trkpt>
      <trkpt lat="46.89476" lon="2.3071">
        <ele>141</ele>
        <time>2018-04-16T16:15:18Z</time>
      </trkpt>
      <trkpt lat="46.89467" lon="2.30632">
        <ele>141</ele>
        <time>2018-04-16T16:15:28Z</time>
      </trkpt>
      <trkpt lat="46.89461" lon="2.3061">
        <ele>141</ele>
        <time>2018-04-16T16:15:31Z</time>
      </trkpt>
      <trkpt lat="46.89448" lon="2.30581">
        <ele>142</ele>
        <time>2018-04-16T16:15:36Z</time>
      </trkpt>
      <trkpt lat="46.8944" lon="2.30568">
        <ele>142</ele>
        <time>2018-04-16T16:15:39Z</time>
      </trkpt>
      <trkpt lat="46.89435" lon="2.30558">
        <ele>142</ele>
        <time>2018-04-16T16:15:41Z</time>
      </trkpt>
      <trkpt lat="46.8943" lon="2.3055">
        <ele>142</ele>
        <time>2018-04-16T16:15:43Z</time>
      </trkpt>
      <trkpt lat="46.89419" lon="2.30509">
        <ele>142</ele>
        <time>2018-04-16T16:15:53Z</time>
      </trkpt>
      <trkpt lat="46.89433" lon="2.30487">
        <ele>141</ele>
        <time>2018-04-16T16:16:01Z</time>
      </trkpt>
      <trkpt lat="46.89419" lon="2.30449">
        <ele>141</ele>
        <time>2018-04-16T16:16:23Z</time>
      </trkpt>
      <trkpt lat="46.89411" lon="2.30416">
        <ele>139</ele>
        <time>2018-04-16T16:16:32Z</time>
      </trkpt>
      <trkpt lat="46.89427" lon="2.30381">
        <ele>138</ele>
        <time>2018-04-16T16:16:40Z</time>
      </trkpt>
      <trkpt lat="46.89462" lon="2.30354">
        <ele>137</ele>
        <time>2018-04-16T16:16:49Z</time>
      </trkpt>
      <trkpt lat="46.89469" lon="2.30345">
        <ele>137</ele>
        <time>2018-04-16T16:16:51Z</time>
      </trkpt>
      <trkpt lat="46.89472" lon="2.3034">
        <ele>137</ele>
        <time>2018-04-16T16:16:52Z</time>
      </trkpt>
      <trkpt lat="46.89473" lon="2.30333">
        <ele>134</ele>
        <time>2018-04-16T16:16:53Z</time>
      </trkpt>
      <trkpt lat="46.89474" lon="2.30325">
        <ele>134</ele>
        <time>2018-04-16T16:16:54Z</time>
      </trkpt>
      <trkpt lat="46.89473" lon="2.30316">
        <ele>134</ele>
        <time>2018-04-16T16:16:55Z</time>
      </trkpt>
      <trkpt lat="46.89468" lon="2.30297">
        <ele>134</ele>
        <time>2018-04-16T16:16:57Z</time>
      </trkpt>
      <trkpt lat="46.89466" lon="2.30287">
        <ele>133</ele>
        <time>2018-04-16T16:16:58Z</time>
      </trkpt>
      <trkpt lat="46.89463" lon="2.30277">
        <ele>133</ele>
        <time>2018-04-16T16:16:59Z</time>
      </trkpt>
      <trkpt lat="46.8946" lon="2.30267">
        <ele>133</ele>
        <time>2018-04-16T16:17:00Z</time>
      </trkpt>
      <trkpt lat="46.89452" lon="2.30221">
        <ele>131</ele>
        <time>2018-04-16T16:17:06Z</time>
      </trkpt>
      <trkpt lat="46.89456" lon="2.30207">
        <ele>131</ele>
        <time>2018-04-16T16:17:09Z</time>
      </trkpt>
      <trkpt lat="46.89459" lon="2.30203">
        <ele>131</ele>
        <time>2018-04-16T16:17:10Z</time>
      </trkpt>
      <trkpt lat="46.89461" lon="2.30199">
        <ele>131</ele>
        <time>2018-04-16T16:17:11Z</time>
      </trkpt>
      <trkpt lat="46.89482" lon="2.30175">
        <ele>130</ele>
        <time>2018-04-16T16:17:18Z</time>
      </trkpt>
      <trkpt lat="46.89513" lon="2.30148">
        <ele>130</ele>
        <time>2018-04-16T16:17:26Z</time>
      </trkpt>
      <trkpt lat="46.89536" lon="2.3014">
        <ele>130</ele>
        <time>2018-04-16T16:17:31Z</time>
      </trkpt>
      <trkpt lat="46.89549" lon="2.30135">
        <ele>130</ele>
        <time>2018-04-16T16:17:34Z</time>
      </trkpt>
      <trkpt lat="46.89573" lon="2.30124">
        <ele>130</ele>
        <time>2018-04-16T16:17:40Z</time>
      </trkpt>
      <trkpt lat="46.89604" lon="2.30105">
        <ele>129</ele>
        <time>2018-04-16T16:17:48Z</time>
      </trkpt>
      <trkpt lat="46.89641" lon="2.30079">
        <ele>129</ele>
        <time>2018-04-16T16:17:57Z</time>
      </trkpt>
      <trkpt lat="46.89692" lon="2.30057">
        <ele>129</ele>
        <time>2018-04-16T16:18:10Z</time>
      </trkpt>
      <trkpt lat="46.89743" lon="2.30018">
        <ele>130</ele>
        <time>2018-04-16T16:18:23Z</time>
      </trkpt>
      <trkpt lat="46.89782" lon="2.29962">
        <ele>131</ele>
        <time>2018-04-16T16:18:35Z</time>
      </trkpt>
      <trkpt lat="46.89805" lon="2.29921">
        <ele>131</ele>
        <time>2018-04-16T16:18:48Z</time>
      </trkpt>
      <trkpt lat="46.89808" lon="2.29919">
        <ele>131</ele>
        <time>2018-04-16T16:18:50Z</time>
      </trkpt>
      <trkpt lat="46.89812" lon="2.29921">
        <ele>132</ele>
        <time>2018-04-16T16:19:39Z</time>
      </trkpt>
      <trkpt lat="46.89811" lon="2.29921">
        <ele>132</ele>
        <time>2018-04-16T16:20:31Z</time>
      </trkpt>
      <trkpt lat="46.89811" lon="2.29921">
        <ele>132</ele>
        <time>2018-04-16T16:20:49Z</time>
      </trkpt>
      <trkpt lat="46.89811" lon="2.29921">
        <ele>132</ele>
        <time>2018-04-16T16:20:54Z</time>
      </trkpt>
      <trkpt lat="46.89811" lon="2.29921">
        <ele>132</ele>
        <time>2018-04-16T16:20:56Z</time>
      </trkpt>
      <trkpt lat="46.89811" lon="2.29921">
        <ele>132</ele>
        <time>2018-04-16T16:20:57Z</time>
      </trkpt>
      <trkpt lat="46.89811" lon="2.29921">
        <ele>132</ele>
        <time>2018-04-16T16:20:58Z</time>
      </trkpt>
      <trkpt lat="46.89811" lon="2.29921">
        <ele>132</ele>
        <time>2018-04-16T16:21:00Z</time>
      </trkpt>
      <trkpt lat="46.89811" lon="2.29921">
        <ele>132</ele>
        <time>2018-04-16T16:21:04Z</time>
      </trkpt>
      <trkpt lat="46.89811" lon="2.29921">
        <ele>132</ele>
        <time>2018-04-16T16:21:08Z</time>
      </trkpt>
      <trkpt lat="46.89811" lon="2.29921">
        <ele>132</ele>
        <time>2018-04-16T16:21:18Z</time>
      </trkpt>
      <trkpt lat="46.89811" lon="2.29921">
        <ele>132</ele>
        <time>2018-04-16T16:21:24Z</time>
      </trkpt>
      <trkpt lat="46.89811" lon="2.29921">
        <ele>132</ele>
        <time>2018-04-16T16:21:43Z</time>
      </trkpt>
      <trkpt lat="46.89811" lon="2.29921">
        <ele>132</ele>
        <time>2018-04-16T16:21:47Z</time>
      </trkpt>
      <trkpt lat="46.89811" lon="2.2992">
        <ele>132</ele>
        <time>2018-04-16T16:21:48Z</time>
      </trkpt>
      <trkpt lat="46.89811" lon="2.2992">
        <ele>132</ele>
        <time>2018-04-16T16:21:49Z</time>
      </trkpt>
      <trkpt lat="46.89811" lon="2.29923">
        <ele>132</ele>
        <time>2018-04-16T16:21:57Z</time>
      </trkpt>
      <trkpt lat="46.89811" lon="2.29923">
        <ele>132</ele>
        <time>2018-04-16T16:21:58Z</time>
      </trkpt>
      <trkpt lat="46.89811" lon="2.29923">
        <ele>132</ele>
        <time>2018-04-16T16:21:59Z</time>
      </trkpt>
      <trkpt lat="46.89811" lon="2.29923">
        <ele>132</ele>
        <time>2018-04-16T16:22:01Z</time>
      </trkpt>
      <trkpt lat="46.89811" lon="2.29923">
        <ele>132</ele>
        <time>2018-04-16T16:22:13Z</time>
      </trkpt>
      <trkpt lat="46.89811" lon="2.29922">
        <ele>132</ele>
        <time>2018-04-16T16:22:16Z</time>
      </trkpt>
      <trkpt lat="46.89812" lon="2.29922">
        <ele>132</ele>
        <time>2018-04-16T16:22:20Z</time>
      </trkpt>
      <trkpt lat="46.89815" lon="2.29918">
        <ele>132</ele>
        <time>2018-04-16T16:22:22Z</time>
      </trkpt>
      <trkpt lat="46.89815" lon="2.29904">
        <ele>131</ele>
        <time>2018-04-16T16:22:25Z</time>
      </trkpt>
      <trkpt lat="46.89807" lon="2.29836">
        <ele>131</ele>
        <time>2018-04-16T16:22:37Z</time>
      </trkpt>
      <trkpt lat="46.89799" lon="2.29791">
        <ele>131</ele>
        <time>2018-04-16T16:22:44Z</time>
      </trkpt>
      <trkpt lat="46.89797" lon="2.29779">
        <ele>131</ele>
        <time>2018-04-16T16:22:46Z</time>
      </trkpt>
      <trkpt lat="46.89789" lon="2.29721">
        <ele>131</ele>
        <time>2018-04-16T16:22:55Z</time>
      </trkpt>
      <trkpt lat="46.89784" lon="2.29689">
        <ele>131</ele>
        <time>2018-04-16T16:23:00Z</time>
      </trkpt>
      <trkpt lat="46.89783" lon="2.29682">
        <ele>131</ele>
        <time>2018-04-16T16:23:01Z</time>
      </trkpt>
      <trkpt lat="46.89781" lon="2.2967">
        <ele>131</ele>
        <time>2018-04-16T16:23:03Z</time>
      </trkpt>
      <trkpt lat="46.8978" lon="2.29663">
        <ele>131</ele>
        <time>2018-04-16T16:23:04Z</time>
      </trkpt>
      <trkpt lat="46.89779" lon="2.29657">
        <ele>131</ele>
        <time>2018-04-16T16:23:05Z</time>
      </trkpt>
      <trkpt lat="46.89772" lon="2.29623">
        <ele>131</ele>
        <time>2018-04-16T16:23:11Z</time>
      </trkpt>
      <trkpt lat="46.89746" lon="2.29568">
        <ele>130</ele>
        <time>2018-04-16T16:23:22Z</time>
      </trkpt>
      <trkpt lat="46.89712" lon="2.29504">
        <ele>131</ele>
        <time>2018-04-16T16:23:39Z</time>
      </trkpt>
      <trkpt lat="46.89676" lon="2.2944">
        <ele>133</ele>
        <time>2018-04-16T16:23:54Z</time>
      </trkpt>
      <trkpt lat="46.89653" lon="2.29366">
        <ele>136</ele>
        <time>2018-04-16T16:24:09Z</time>
      </trkpt>
      <trkpt lat="46.89653" lon="2.2934">
        <ele>137</ele>
        <time>2018-04-16T16:24:15Z</time>
      </trkpt>
      <trkpt lat="46.89654" lon="2.29318">
        <ele>140</ele>
        <time>2018-04-16T16:24:26Z</time>
      </trkpt>
      <trkpt lat="46.89653" lon="2.29319">
        <ele>140</ele>
        <time>2018-04-16T16:24:46Z</time>
      </trkpt>
      <trkpt lat="46.89653" lon="2.29319">
        <ele>140</ele>
        <time>2018-04-16T16:24:47Z</time>
      </trkpt>
      <trkpt lat="46.89653" lon="2.29319">
        <ele>140</ele>
        <time>2018-04-16T16:24:48Z</time>
      </trkpt>
      <trkpt lat="46.89653" lon="2.29319">
        <ele>140</ele>
        <time>2018-04-16T16:24:49Z</time>
      </trkpt>
      <trkpt lat="46.89653" lon="2.2932">
        <ele>140</ele>
        <time>2018-04-16T16:24:52Z</time>
      </trkpt>
      <trkpt lat="46.89654" lon="2.2932">
        <ele>140</ele>
        <time>2018-04-16T16:24:53Z</time>
      </trkpt>
      <trkpt lat="46.89653" lon="2.29319">
        <ele>140</ele>
        <time>2018-04-16T16:24:54Z</time>
      </trkpt>
      <trkpt lat="46.89653" lon="2.29319">
        <ele>140</ele>
        <time>2018-04-16T16:25:07Z</time>
      </trkpt>
      <trkpt lat="46.89654" lon="2.29319">
        <ele>140</ele>
        <time>2018-04-16T16:25:27Z</time>
      </trkpt>
      <trkpt lat="46.89654" lon="2.29319">
        <ele>140</ele>
        <time>2018-04-16T16:25:31Z</time>
      </trkpt>
      <trkpt lat="46.89654" lon="2.29319">
        <ele>140</ele>
        <time>2018-04-16T16:25:36Z</time>
      </trkpt>
      <trkpt lat="46.89654" lon="2.29319">
        <ele>140</ele>
        <time>2018-04-16T16:25:41Z</time>
      </trkpt>
      <trkpt lat="46.89654" lon="2.29319">
        <ele>140</ele>
        <time>2018-04-16T16:25:47Z</time>
      </trkpt>
      <trkpt lat="46.89654" lon="2.29319">
        <ele>140</ele>
        <time>2018-04-16T16:25:48Z</time>
      </trkpt>
      <trkpt lat="46.89654" lon="2.29319">
        <ele>140</ele>
        <time>2018-04-16T16:25:49Z</time>
      </trkpt>
      <trkpt lat="46.89654" lon="2.29319">
        <ele>140</ele>
        <time>2018-04-16T16:25:50Z</time>
      </trkpt>
      <trkpt lat="46.89654" lon="2.29319">
        <ele>140</ele>
        <time>2018-04-16T16:25:51Z</time>
      </trkpt>
      <trkpt lat="46.89654" lon="2.29319">
        <ele>140</ele>
        <time>2018-04-16T16:25:57Z</time>
      </trkpt>
      <trkpt lat="46.89654" lon="2.29319">
        <ele>140</ele>
        <time>2018-04-16T16:26:29Z</time>
      </trkpt>
      <trkpt lat="46.89654" lon="2.29319">
        <ele>140</ele>
        <time>2018-04-16T16:26:33Z</time>
      </trkpt>
      <trkpt lat="46.89654" lon="2.29319">
        <ele>140</ele>
        <time>2018-04-16T16:26:36Z</time>
      </trkpt>
      <trkpt lat="46.89654" lon="2.29319">
        <ele>140</ele>
        <time>2018-04-16T16:26:37Z</time>
      </trkpt>
      <trkpt lat="46.89654" lon="2.29319">
        <ele>140</ele>
        <time>2018-04-16T16:26:39Z</time>
      </trkpt>
      <trkpt lat="46.89654" lon="2.29319">
        <ele>140</ele>
        <time>2018-04-16T16:26:43Z</time>
      </trkpt>
      <trkpt lat="46.89654" lon="2.29319">
        <ele>140</ele>
        <time>2018-04-16T16:26:46Z</time>
      </trkpt>
      <trkpt lat="46.89654" lon="2.29319">
        <ele>140</ele>
        <time>2018-04-16T16:26:55Z</time>
      </trkpt>
      <trkpt lat="46.89654" lon="2.29319">
        <ele>140</ele>
        <time>2018-04-16T16:26:56Z</time>
      </trkpt>
      <trkpt lat="46.89654" lon="2.29318">
        <ele>140</ele>
        <time>2018-04-16T16:26:58Z</time>
      </trkpt>
      <trkpt lat="46.89654" lon="2.29318">
        <ele>140</ele>
        <time>2018-04-16T16:27:01Z</time>
      </trkpt>
      <trkpt lat="46.89654" lon="2.29318">
        <ele>140</ele>
        <time>2018-04-16T16:27:03Z</time>
      </trkpt>
      <trkpt lat="46.89653" lon="2.29319">
        <ele>140</ele>
        <time>2018-04-16T16:27:17Z</time>
      </trkpt>
      <trkpt lat="46.89653" lon="2.29319">
        <ele>140</ele>
        <time>2018-04-16T16:27:22Z</time>
      </trkpt>
      <trkpt lat="46.89653" lon="2.29319">
        <ele>140</ele>
        <time>2018-04-16T16:27:24Z</time>
      </trkpt>
      <trkpt lat="46.89657" lon="2.29317">
        <ele>140</ele>
        <time>2018-04-16T16:27:29Z</time>
      </trkpt>
      <trkpt lat="46.89674" lon="2.29314">
        <ele>141</ele>
        <time>2018-04-16T16:27:36Z</time>
      </trkpt>
      <trkpt lat="46.89676" lon="2.29314">
        <ele>141</ele>
        <time>2018-04-16T16:27:37Z</time>
      </trkpt>
      <trkpt lat="46.89679" lon="2.29315">
        <ele>141</ele>
        <time>2018-04-16T16:27:38Z</time>
      </trkpt>
      <trkpt lat="46.89691" lon="2.29314">
        <ele>141</ele>
        <time>2018-04-16T16:27:42Z</time>
      </trkpt>
      <trkpt lat="46.89703" lon="2.29315">
        <ele>142</ele>
        <time>2018-04-16T16:27:47Z</time>
      </trkpt>
      <trkpt lat="46.89706" lon="2.29315">
        <ele>142</ele>
        <time>2018-04-16T16:27:48Z</time>
      </trkpt>
      <trkpt lat="46.89708" lon="2.29315">
        <ele>142</ele>
        <time>2018-04-16T16:27:49Z</time>
      </trkpt>
      <trkpt lat="46.8971" lon="2.29314">
        <ele>142</ele>
        <time>2018-04-16T16:27:50Z</time>
      </trkpt>
      <trkpt lat="46.89737" lon="2.2931">
        <ele>142</ele>
        <time>2018-04-16T16:28:02Z</time>
      </trkpt>
      <trkpt lat="46.89749" lon="2.29309">
        <ele>142</ele>
        <time>2018-04-16T16:28:07Z</time>
      </trkpt>
      <trkpt lat="46.89803" lon="2.29301">
        <ele>146</ele>
        <time>2018-04-16T16:28:32Z</time>
      </trkpt>
      <trkpt lat="46.89858" lon="2.2929">
        <ele>149</ele>
        <time>2018-04-16T16:28:58Z</time>
      </trkpt>
      <trkpt lat="46.89912" lon="2.29267">
        <ele>149</ele>
        <time>2018-04-16T16:29:17Z</time>
      </trkpt>
      <trkpt lat="46.89966" lon="2.29243">
        <ele>150</ele>
        <time>2018-04-16T16:29:30Z</time>
      </trkpt>
      <trkpt lat="46.9002" lon="2.2922">
        <ele>149</ele>
        <time>2018-04-16T16:29:44Z</time>
      </trkpt>
      <trkpt lat="46.90056" lon="2.29203">
        <ele>150</ele>
        <time>2018-04-16T16:29:55Z</time>
      </trkpt>
      <trkpt lat="46.90108" lon="2.29179">
        <ele>151</ele>
        <time>2018-04-16T16:30:09Z</time>
      </trkpt>
      <trkpt lat="46.90161" lon="2.29159">
        <ele>154</ele>
        <time>2018-04-16T16:30:22Z</time>
      </trkpt>
      <trkpt lat="46.90189" lon="2.29149">
        <ele>154</ele>
        <time>2018-04-16T16:30:29Z</time>
      </trkpt>
      <trkpt lat="46.90208" lon="2.29141">
        <ele>153</ele>
        <time>2018-04-16T16:30:34Z</time>
      </trkpt>
      <trkpt lat="46.90222" lon="2.29135">
        <ele>153</ele>
        <time>2018-04-16T16:30:38Z</time>
      </trkpt>
      <trkpt lat="46.90226" lon="2.29133">
        <ele>153</ele>
        <time>2018-04-16T16:30:39Z</time>
      </trkpt>
      <trkpt lat="46.90233" lon="2.29129">
        <ele>153</ele>
        <time>2018-04-16T16:30:41Z</time>
      </trkpt>
      <trkpt lat="46.90265" lon="2.29108">
        <ele>150</ele>
        <time>2018-04-16T16:30:49Z</time>
      </trkpt>
      <trkpt lat="46.90278" lon="2.29096">
        <ele>150</ele>
        <time>2018-04-16T16:30:53Z</time>
      </trkpt>
      <trkpt lat="46.90282" lon="2.29092">
        <ele>150</ele>
        <time>2018-04-16T16:30:54Z</time>
      </trkpt>
      <trkpt lat="46.90303" lon="2.29073">
        <ele>153</ele>
        <time>2018-04-16T16:31:00Z</time>
      </trkpt>
      <trkpt lat="46.90349" lon="2.29027">
        <ele>151</ele>
        <time>2018-04-16T16:31:14Z</time>
      </trkpt>
      <trkpt lat="46.90399" lon="2.28996">
        <ele>153</ele>
        <time>2018-04-16T16:31:26Z</time>
      </trkpt>
      <trkpt lat="46.90441" lon="2.28981">
        <ele>150</ele>
        <time>2018-04-16T16:31:33Z</time>
      </trkpt>
      <trkpt lat="46.90495" lon="2.28964">
        <ele>148</ele>
        <time>2018-04-16T16:31:40Z</time>
      </trkpt>
      <trkpt lat="46.90552" lon="2.28948">
        <ele>141</ele>
        <time>2018-04-16T16:31:46Z</time>
      </trkpt>
      <trkpt lat="46.90615" lon="2.28928">
        <ele>137</ele>
        <time>2018-04-16T16:31:52Z</time>
      </trkpt>
      <trkpt lat="46.90671" lon="2.28909">
        <ele>141</ele>
        <time>2018-04-16T16:32:00Z</time>
      </trkpt>
      <trkpt lat="46.90726" lon="2.28889">
        <ele>144</ele>
        <time>2018-04-16T16:32:12Z</time>
      </trkpt>
      <trkpt lat="46.9075" lon="2.28883">
        <ele>144</ele>
        <time>2018-04-16T16:32:18Z</time>
      </trkpt>
      <trkpt lat="46.9078" lon="2.28876">
        <ele>144</ele>
        <time>2018-04-16T16:32:28Z</time>
      </trkpt>
      <trkpt lat="46.90794" lon="2.28873">
        <ele>144</ele>
        <time>2018-04-16T16:32:34Z</time>
      </trkpt>
      <trkpt lat="46.90834" lon="2.28861">
        <ele>143</ele>
        <time>2018-04-16T16:32:51Z</time>
      </trkpt>
      <trkpt lat="46.90884" lon="2.28843">
        <ele>143</ele>
        <time>2018-04-16T16:33:08Z</time>
      </trkpt>
      <trkpt lat="46.90912" lon="2.28835">
        <ele>144</ele>
        <time>2018-04-16T16:33:14Z</time>
      </trkpt>
      <trkpt lat="46.90917" lon="2.28834">
        <ele>145</ele>
        <time>2018-04-16T16:33:15Z</time>
      </trkpt>
      <trkpt lat="46.90921" lon="2.28833">
        <ele>145</ele>
        <time>2018-04-16T16:33:16Z</time>
      </trkpt>
      <trkpt lat="46.90976" lon="2.28817">
        <ele>145</ele>
        <time>2018-04-16T16:33:27Z</time>
      </trkpt>
      <trkpt lat="46.91019" lon="2.28805">
        <ele>142</ele>
        <time>2018-04-16T16:33:35Z</time>
      </trkpt>
      <trkpt lat="46.91073" lon="2.2879">
        <ele>142</ele>
        <time>2018-04-16T16:33:45Z</time>
      </trkpt>
      <trkpt lat="46.91128" lon="2.28775">
        <ele>140</ele>
        <time>2018-04-16T16:33:57Z</time>
      </trkpt>
      <trkpt lat="46.91163" lon="2.28766">
        <ele>141</ele>
        <time>2018-04-16T16:34:06Z</time>
      </trkpt>
      <trkpt lat="46.91213" lon="2.28748">
        <ele>145</ele>
        <time>2018-04-16T16:34:23Z</time>
      </trkpt>
      <trkpt lat="46.91267" lon="2.28733">
        <ele>146</ele>
        <time>2018-04-16T16:34:42Z</time>
      </trkpt>
      <trkpt lat="46.91321" lon="2.28717">
        <ele>147</ele>
        <time>2018-04-16T16:35:00Z</time>
      </trkpt>
      <trkpt lat="46.9133" lon="2.28714">
        <ele>147</ele>
        <time>2018-04-16T16:35:03Z</time>
      </trkpt>
      <trkpt lat="46.91352" lon="2.28707">
        <ele>147</ele>
        <time>2018-04-16T16:35:10Z</time>
      </trkpt>
      <trkpt lat="46.91355" lon="2.28706">
        <ele>147</ele>
        <time>2018-04-16T16:35:11Z</time>
      </trkpt>
      <trkpt lat="46.91358" lon="2.28705">
        <ele>147</ele>
        <time>2018-04-16T16:35:12Z</time>
      </trkpt>
      <trkpt lat="46.91368" lon="2.28701">
        <ele>147</ele>
        <time>2018-04-16T16:35:15Z</time>
      </trkpt>
      <trkpt lat="46.91376" lon="2.28699">
        <ele>146</ele>
        <time>2018-04-16T16:35:17Z</time>
      </trkpt>
      <trkpt lat="46.9138" lon="2.28697">
        <ele>146</ele>
        <time>2018-04-16T16:35:18Z</time>
      </trkpt>
      <trkpt lat="46.91436" lon="2.28681">
        <ele>146</ele>
        <time>2018-04-16T16:35:29Z</time>
      </trkpt>
      <trkpt lat="46.91442" lon="2.28681">
        <ele>146</ele>
        <time>2018-04-16T16:35:30Z</time>
      </trkpt>
      <trkpt lat="46.91496" lon="2.28675">
        <ele>147</ele>
        <time>2018-04-16T16:35:41Z</time>
      </trkpt>
      <trkpt lat="46.91543" lon="2.28658">
        <ele>148</ele>
        <time>2018-04-16T16:35:52Z</time>
      </trkpt>
      <trkpt lat="46.9158" lon="2.28642">
        <ele>147</ele>
        <time>2018-04-16T16:36:00Z</time>
      </trkpt>
      <trkpt lat="46.91631" lon="2.28616">
        <ele>146</ele>
        <time>2018-04-16T16:36:11Z</time>
      </trkpt>
      <trkpt lat="46.91684" lon="2.28591">
        <ele>144</ele>
        <time>2018-04-16T16:36:24Z</time>
      </trkpt>
      <trkpt lat="46.91697" lon="2.28594">
        <ele>143</ele>
        <time>2018-04-16T16:36:30Z</time>
      </trkpt>
      <trkpt lat="46.91696" lon="2.28593">
        <ele>143</ele>
        <time>2018-04-16T16:36:43Z</time>
      </trkpt>
      <trkpt lat="46.91696" lon="2.28593">
        <ele>143</ele>
        <time>2018-04-16T16:36:49Z</time>
      </trkpt>
      <trkpt lat="46.91696" lon="2.28593">
        <ele>143</ele>
        <time>2018-04-16T16:36:59Z</time>
      </trkpt>
      <trkpt lat="46.91696" lon="2.28593">
        <ele>143</ele>
        <time>2018-04-16T16:37:33Z</time>
      </trkpt>
      <trkpt lat="46.91696" lon="2.28593">
        <ele>143</ele>
        <time>2018-04-16T16:37:36Z</time>
      </trkpt>
      <trkpt lat="46.91696" lon="2.28593">
        <ele>143</ele>
        <time>2018-04-16T16:37:40Z</time>
      </trkpt>
      <trkpt lat="46.91696" lon="2.28594">
        <ele>143</ele>
        <time>2018-04-16T16:37:42Z</time>
      </trkpt>
      <trkpt lat="46.91696" lon="2.28594">
        <ele>143</ele>
        <time>2018-04-16T16:37:43Z</time>
      </trkpt>
      <trkpt lat="46.91696" lon="2.28594">
        <ele>143</ele>
        <time>2018-04-16T16:37:44Z</time>
      </trkpt>
      <trkpt lat="46.91696" lon="2.28594">
        <ele>143</ele>
        <time>2018-04-16T16:37:46Z</time>
      </trkpt>
      <trkpt lat="46.91696" lon="2.28594">
        <ele>143</ele>
        <time>2018-04-16T16:37:47Z</time>
      </trkpt>
      <trkpt lat="46.91696" lon="2.28594">
        <ele>143</ele>
        <time>2018-04-16T16:37:48Z</time>
      </trkpt>
      <trkpt lat="46.91696" lon="2.28594">
        <ele>143</ele>
        <time>2018-04-16T16:37:49Z</time>
      </trkpt>
      <trkpt lat="46.91696" lon="2.28594">
        <ele>143</ele>
        <time>2018-04-16T16:37:55Z</time>
      </trkpt>
      <trkpt lat="46.91696" lon="2.28594">
        <ele>143</ele>
        <time>2018-04-16T16:37:57Z</time>
      </trkpt>
      <trkpt lat="46.91696" lon="2.28594">
        <ele>143</ele>
        <time>2018-04-16T16:38:07Z</time>
      </trkpt>
      <trkpt lat="46.91696" lon="2.28594">
        <ele>143</ele>
        <time>2018-04-16T16:38:15Z</time>
      </trkpt>
      <trkpt lat="46.91696" lon="2.28594">
        <ele>143</ele>
        <time>2018-04-16T16:38:18Z</time>
      </trkpt>
      <trkpt lat="46.91696" lon="2.28594">
        <ele>143</ele>
        <time>2018-04-16T16:38:20Z</time>
      </trkpt>
      <trkpt lat="46.91696" lon="2.28594">
        <ele>143</ele>
        <time>2018-04-16T16:38:21Z</time>
      </trkpt>
      <trkpt lat="46.91696" lon="2.28594">
        <ele>143</ele>
        <time>2018-04-16T16:38:23Z</time>
      </trkpt>
      <trkpt lat="46.91696" lon="2.28594">
        <ele>143</ele>
        <time>2018-04-16T16:38:28Z</time>
      </trkpt>
      <trkpt lat="46.91697" lon="2.28598">
        <ele>143</ele>
        <time>2018-04-16T16:38:39Z</time>
      </trkpt>
      <trkpt lat="46.91709" lon="2.28625">
        <ele>142</ele>
        <time>2018-04-16T16:38:44Z</time>
      </trkpt>
      <trkpt lat="46.91731" lon="2.28691">
        <ele>141</ele>
        <time>2018-04-16T16:38:53Z</time>
      </trkpt>
      <trkpt lat="46.91731" lon="2.28708">
        <ele>141</ele>
        <time>2018-04-16T16:38:55Z</time>
      </trkpt>
      <trkpt lat="46.91728" lon="2.28724">
        <ele>140</ele>
        <time>2018-04-16T16:38:57Z</time>
      </trkpt>
      <trkpt lat="46.91724" lon="2.28744">
        <ele>140</ele>
        <time>2018-04-16T16:39:00Z</time>
      </trkpt>
      <trkpt lat="46.91724" lon="2.28758">
        <ele>138</ele>
        <time>2018-04-16T16:39:02Z</time>
      </trkpt>
      <trkpt lat="46.91727" lon="2.2877">
        <ele>137</ele>
        <time>2018-04-16T16:39:04Z</time>
      </trkpt>
      <trkpt lat="46.91737" lon="2.28792">
        <ele>136</ele>
        <time>2018-04-16T16:39:08Z</time>
      </trkpt>
      <trkpt lat="46.91745" lon="2.28799">
        <ele>136</ele>
        <time>2018-04-16T16:39:10Z</time>
      </trkpt>
      <trkpt lat="46.91756" lon="2.28798">
        <ele>134</ele>
        <time>2018-04-16T16:39:12Z</time>
      </trkpt>
      <trkpt lat="46.91799" lon="2.28762">
        <ele>134</ele>
        <time>2018-04-16T16:39:19Z</time>
      </trkpt>
      <trkpt lat="46.91814" lon="2.28757">
        <ele>133</ele>
        <time>2018-04-16T16:39:21Z</time>
      </trkpt>
      <trkpt lat="46.91828" lon="2.28766">
        <ele>133</ele>
        <time>2018-04-16T16:39:23Z</time>
      </trkpt>
      <trkpt lat="46.91835" lon="2.28788">
        <ele>130</ele>
        <time>2018-04-16T16:39:25Z</time>
      </trkpt>
      <trkpt lat="46.91838" lon="2.28876">
        <ele>129</ele>
        <time>2018-04-16T16:39:33Z</time>
      </trkpt>
      <trkpt lat="46.91846" lon="2.28962">
        <ele>129</ele>
        <time>2018-04-16T16:39:41Z</time>
      </trkpt>
      <trkpt lat="46.91868" lon="2.29042">
        <ele>129</ele>
        <time>2018-04-16T16:39:51Z</time>
      </trkpt>
      <trkpt lat="46.91889" lon="2.29118">
        <ele>129</ele>
        <time>2018-04-16T16:40:02Z</time>
      </trkpt>
      <trkpt lat="46.9191" lon="2.29197">
        <ele>130</ele>
        <time>2018-04-16T16:40:13Z</time>
      </trkpt>
      <trkpt lat="46.91929" lon="2.29274">
        <ele>129</ele>
        <time>2018-04-16T16:40:24Z</time>
      </trkpt>
      <trkpt lat="46.91941" lon="2.29323">
        <ele>129</ele>
        <time>2018-04-16T16:40:31Z</time>
      </trkpt>
      <trkpt lat="46.91956" lon="2.29376">
        <ele>129</ele>
        <time>2018-04-16T16:40:39Z</time>
      </trkpt>
      <trkpt lat="46.91992" lon="2.29441">
        <ele>129</ele>
        <time>2018-04-16T16:40:50Z</time>
      </trkpt>
      <trkpt lat="46.92041" lon="2.2948">
        <ele>128</ele>
        <time>2018-04-16T16:41:01Z</time>
      </trkpt>
      <trkpt lat="46.92091" lon="2.29517">
        <ele>128</ele>
        <time>2018-04-16T16:41:12Z</time>
      </trkpt>
      <trkpt lat="46.92141" lon="2.2956">
        <ele>129</ele>
        <time>2018-04-16T16:41:24Z</time>
      </trkpt>
      <trkpt lat="46.92184" lon="2.29616">
        <ele>128</ele>
        <time>2018-04-16T16:41:38Z</time>
      </trkpt>
      <trkpt lat="46.92222" lon="2.29674">
        <ele>129</ele>
        <time>2018-04-16T16:41:52Z</time>
      </trkpt>
      <trkpt lat="46.92231" lon="2.29691">
        <ele>129</ele>
        <time>2018-04-16T16:41:55Z</time>
      </trkpt>
      <trkpt lat="46.92248" lon="2.29746">
        <ele>130</ele>
        <time>2018-04-16T16:42:02Z</time>
      </trkpt>
      <trkpt lat="46.92261" lon="2.29786">
        <ele>131</ele>
        <time>2018-04-16T16:42:08Z</time>
      </trkpt>
      <trkpt lat="46.92263" lon="2.29792">
        <ele>132</ele>
        <time>2018-04-16T16:42:09Z</time>
      </trkpt>
      <trkpt lat="46.923" lon="2.29848">
        <ele>133</ele>
        <time>2018-04-16T16:42:26Z</time>
      </trkpt>
      <trkpt lat="46.92303" lon="2.29851">
        <ele>133</ele>
        <time>2018-04-16T16:42:28Z</time>
      </trkpt>
      <trkpt lat="46.92308" lon="2.29856">
        <ele>133</ele>
        <time>2018-04-16T16:42:31Z</time>
      </trkpt>
      <trkpt lat="46.92315" lon="2.29856">
        <ele>133</ele>
        <time>2018-04-16T16:43:02Z</time>
      </trkpt>
      <trkpt lat="46.92315" lon="2.29856">
        <ele>133</ele>
        <time>2018-04-16T16:43:15Z</time>
      </trkpt>
      <trkpt lat="46.92315" lon="2.29856">
        <ele>133</ele>
        <time>2018-04-16T16:43:32Z</time>
      </trkpt>
      <trkpt lat="46.92315" lon="2.29856">
        <ele>133</ele>
        <time>2018-04-16T16:43:36Z</time>
      </trkpt>
      <trkpt lat="46.92315" lon="2.29856">
        <ele>133</ele>
        <time>2018-04-16T16:43:37Z</time>
      </trkpt>
      <trkpt lat="46.92315" lon="2.29856">
        <ele>133</ele>
        <time>2018-04-16T16:44:03Z</time>
      </trkpt>
      <trkpt lat="46.92315" lon="2.29856">
        <ele>133</ele>
        <time>2018-04-16T16:44:16Z</time>
      </trkpt>
      <trkpt lat="46.92315" lon="2.29856">
        <ele>133</ele>
        <time>2018-04-16T16:44:28Z</time>
      </trkpt>
      <trkpt lat="46.92315" lon="2.29856">
        <ele>133</ele>
        <time>2018-04-16T16:44:43Z</time>
      </trkpt>
      <trkpt lat="46.92363" lon="2.29811">
        <ele>136</ele>
        <time>2018-04-16T16:45:04Z</time>
      </trkpt>
      <trkpt lat="46.92368" lon="2.29806">
        <ele>136</ele>
        <time>2018-04-16T16:45:06Z</time>
      </trkpt>
      <trkpt lat="46.9237" lon="2.29804">
        <ele>136</ele>
        <time>2018-04-16T16:45:07Z</time>
      </trkpt>
      <trkpt lat="46.92373" lon="2.29803">
        <ele>136</ele>
        <time>2018-04-16T16:45:08Z</time>
      </trkpt>
      <trkpt lat="46.92375" lon="2.29803">
        <ele>136</ele>
        <time>2018-04-16T16:45:09Z</time>
      </trkpt>
      <trkpt lat="46.92381" lon="2.29801">
        <ele>136</ele>
        <time>2018-04-16T16:45:12Z</time>
      </trkpt>
      <trkpt lat="46.92383" lon="2.29799">
        <ele>136</ele>
        <time>2018-04-16T16:45:13Z</time>
      </trkpt>
      <trkpt lat="46.92385" lon="2.29797">
        <ele>136</ele>
        <time>2018-04-16T16:45:14Z</time>
      </trkpt>
      <trkpt lat="46.9241" lon="2.29779">
        <ele>137</ele>
        <time>2018-04-16T16:45:23Z</time>
      </trkpt>
      <trkpt lat="46.92416" lon="2.29775">
        <ele>137</ele>
        <time>2018-04-16T16:45:26Z</time>
      </trkpt>
      <trkpt lat="46.9243" lon="2.29758">
        <ele>141</ele>
        <time>2018-04-16T16:45:34Z</time>
      </trkpt>
      <trkpt lat="46.9244" lon="2.29726">
        <ele>141</ele>
        <time>2018-04-16T16:45:46Z</time>
      </trkpt>
      <trkpt lat="46.92439" lon="2.29726">
        <ele>141</ele>
        <time>2018-04-16T16:45:47Z</time>
      </trkpt>
      <trkpt lat="46.92438" lon="2.29725">
        <ele>141</ele>
        <time>2018-04-16T16:45:50Z</time>
      </trkpt>
      <trkpt lat="46.92438" lon="2.29725">
        <ele>141</ele>
        <time>2018-04-16T16:45:53Z</time>
      </trkpt>
      <trkpt lat="46.92438" lon="2.29725">
        <ele>141</ele>
        <time>2018-04-16T16:45:54Z</time>
      </trkpt>
      <trkpt lat="46.92438" lon="2.29725">
        <ele>141</ele>
        <time>2018-04-16T16:45:55Z</time>
      </trkpt>
      <trkpt lat="46.92438" lon="2.29725">
        <ele>141</ele>
        <time>2018-04-16T16:45:56Z</time>
      </trkpt>
      <trkpt lat="46.92438" lon="2.29725">
        <ele>141</ele>
        <time>2018-04-16T16:45:57Z</time>
      </trkpt>
      <trkpt lat="46.92438" lon="2.29725">
        <ele>141</ele>
        <time>2018-04-16T16:46:04Z</time>
      </trkpt>
      <trkpt lat="46.92438" lon="2.29725">
        <ele>141</ele>
        <time>2018-04-16T16:46:11Z</time>
      </trkpt>
      <trkpt lat="46.92439" lon="2.29722">
        <ele>141</ele>
        <time>2018-04-16T16:46:22Z</time>
      </trkpt>
      <trkpt lat="46.92445" lon="2.29707">
        <ele>141</ele>
        <time>2018-04-16T16:46:27Z</time>
      </trkpt>
      <trkpt lat="46.9245" lon="2.29689">
        <ele>141</ele>
        <time>2018-04-16T16:46:33Z</time>
      </trkpt>
      <trkpt lat="46.92452" lon="2.2968">
        <ele>141</ele>
        <time>2018-04-16T16:46:35Z</time>
      </trkpt>
      <trkpt lat="46.92453" lon="2.29676">
        <ele>141</ele>
        <time>2018-04-16T16:46:36Z</time>
      </trkpt>
      <trkpt lat="46.92466" lon="2.29632">
        <ele>138</ele>
        <time>2018-04-16T16:46:43Z</time>
      </trkpt>
      <trkpt lat="46.92477" lon="2.29601">
        <ele>138</ele>
        <time>2018-04-16T16:46:47Z</time>
      </trkpt>
      <trkpt lat="46.92485" lon="2.29575">
        <ele>137</ele>
        <time>2018-04-16T16:46:50Z</time>
      </trkpt>
      <trkpt lat="46.92491" lon="2.29558">
        <ele>136</ele>
        <time>2018-04-16T16:46:52Z</time>
      </trkpt>
      <trkpt lat="46.92493" lon="2.29549">
        <ele>135</ele>
        <time>2018-04-16T16:46:53Z</time>
      </trkpt>
      <trkpt lat="46.92496" lon="2.29539">
        <ele>135</ele>
        <time>2018-04-16T16:46:54Z</time>
      </trkpt>
      <trkpt lat="46.92508" lon="2.2949">
        <ele>138</ele>
        <time>2018-04-16T16:46:59Z</time>
      </trkpt>
      <trkpt lat="46.92516" lon="2.29461">
        <ele>139</ele>
        <time>2018-04-16T16:47:02Z</time>
      </trkpt>
      <trkpt lat="46.92518" lon="2.29452">
        <ele>139</ele>
        <time>2018-04-16T16:47:03Z</time>
      </trkpt>
      <trkpt lat="46.92521" lon="2.29443">
        <ele>139</ele>
        <time>2018-04-16T16:47:04Z</time>
      </trkpt>
      <trkpt lat="46.92527" lon="2.29416">
        <ele>137</ele>
        <time>2018-04-16T16:47:07Z</time>
      </trkpt>
      <trkpt lat="46.92529" lon="2.29407">
        <ele>137</ele>
        <time>2018-04-16T16:47:08Z</time>
      </trkpt>
      <trkpt lat="46.92531" lon="2.29399">
        <ele>138</ele>
        <time>2018-04-16T16:47:09Z</time>
      </trkpt>
      <trkpt lat="46.92532" lon="2.29391">
        <ele>138</ele>
        <time>2018-04-16T16:47:10Z</time>
      </trkpt>
      <trkpt lat="46.92534" lon="2.29383">
        <ele>138</ele>
        <time>2018-04-16T16:47:11Z</time>
      </trkpt>
      <trkpt lat="46.92536" lon="2.29375">
        <ele>138</ele>
        <time>2018-04-16T16:47:12Z</time>
      </trkpt>
      <trkpt lat="46.92541" lon="2.2935">
        <ele>138</ele>
        <time>2018-04-16T16:47:15Z</time>
      </trkpt>
      <trkpt lat="46.92543" lon="2.29342">
        <ele>139</ele>
        <time>2018-04-16T16:47:16Z</time>
      </trkpt>
      <trkpt lat="46.92544" lon="2.29334">
        <ele>139</ele>
        <time>2018-04-16T16:47:17Z</time>
      </trkpt>
      <trkpt lat="46.92545" lon="2.29326">
        <ele>137</ele>
        <time>2018-04-16T16:47:18Z</time>
      </trkpt>
      <trkpt lat="46.92548" lon="2.2931">
        <ele>137</ele>
        <time>2018-04-16T16:47:20Z</time>
      </trkpt>
      <trkpt lat="46.92554" lon="2.29269">
        <ele>137</ele>
        <time>2018-04-16T16:47:25Z</time>
      </trkpt>
      <trkpt lat="46.92555" lon="2.2926">
        <ele>137</ele>
        <time>2018-04-16T16:47:26Z</time>
      </trkpt>
      <trkpt lat="46.92558" lon="2.29236">
        <ele>137</ele>
        <time>2018-04-16T16:47:29Z</time>
      </trkpt>
      <trkpt lat="46.92558" lon="2.29228">
        <ele>137</ele>
        <time>2018-04-16T16:47:30Z</time>
      </trkpt>
      <trkpt lat="46.92559" lon="2.29219">
        <ele>136</ele>
        <time>2018-04-16T16:47:31Z</time>
      </trkpt>
      <trkpt lat="46.92569" lon="2.2914">
        <ele>137</ele>
        <time>2018-04-16T16:47:41Z</time>
      </trkpt>
      <trkpt lat="46.92574" lon="2.29058">
        <ele>137</ele>
        <time>2018-04-16T16:47:53Z</time>
      </trkpt>
      <trkpt lat="46.92576" lon="2.28975">
        <ele>136</ele>
        <time>2018-04-16T16:48:05Z</time>
      </trkpt>
      <trkpt lat="46.92573" lon="2.28893">
        <ele>135</ele>
        <time>2018-04-16T16:48:16Z</time>
      </trkpt>
      <trkpt lat="46.92569" lon="2.28814">
        <ele>135</ele>
        <time>2018-04-16T16:48:26Z</time>
      </trkpt>
      <trkpt lat="46.92568" lon="2.28782">
        <ele>135</ele>
        <time>2018-04-16T16:48:30Z</time>
      </trkpt>
      <trkpt lat="46.92573" lon="2.28702">
        <ele>134</ele>
        <time>2018-04-16T16:48:40Z</time>
      </trkpt>
      <trkpt lat="46.9259" lon="2.28624">
        <ele>139</ele>
        <time>2018-04-16T16:48:51Z</time>
      </trkpt>
      <trkpt lat="46.92594" lon="2.28611">
        <ele>138</ele>
        <time>2018-04-16T16:48:53Z</time>
      </trkpt>
      <trkpt lat="46.92595" lon="2.28604">
        <ele>138</ele>
        <time>2018-04-16T16:48:54Z</time>
      </trkpt>
      <trkpt lat="46.92622" lon="2.28532">
        <ele>136</ele>
        <time>2018-04-16T16:49:06Z</time>
      </trkpt>
      <trkpt lat="46.92655" lon="2.28464">
        <ele>132</ele>
        <time>2018-04-16T16:49:20Z</time>
      </trkpt>
      <trkpt lat="46.92678" lon="2.28432">
        <ele>133</ele>
        <time>2018-04-16T16:49:27Z</time>
      </trkpt>
      <trkpt lat="46.92687" lon="2.28424">
        <ele>133</ele>
        <time>2018-04-16T16:49:29Z</time>
      </trkpt>
      <trkpt lat="46.92722" lon="2.28409">
        <ele>130</ele>
        <time>2018-04-16T16:49:37Z</time>
      </trkpt>
      <trkpt lat="46.9273" lon="2.28407">
        <ele>130</ele>
        <time>2018-04-16T16:49:39Z</time>
      </trkpt>
      <trkpt lat="46.9275" lon="2.28411">
        <ele>131</ele>
        <time>2018-04-16T16:49:44Z</time>
      </trkpt>
      <trkpt lat="46.92797" lon="2.28453">
        <ele>136</ele>
        <time>2018-04-16T16:49:59Z</time>
      </trkpt>
      <trkpt lat="46.9284" lon="2.28504">
        <ele>140</ele>
        <time>2018-04-16T16:50:16Z</time>
      </trkpt>
      <trkpt lat="46.92888" lon="2.28542">
        <ele>143</ele>
        <time>2018-04-16T16:50:34Z</time>
      </trkpt>
      <trkpt lat="46.92939" lon="2.2857">
        <ele>141</ele>
        <time>2018-04-16T16:50:51Z</time>
      </trkpt>
      <trkpt lat="46.92989" lon="2.28601">
        <ele>143</ele>
        <time>2018-04-16T16:51:05Z</time>
      </trkpt>
      <trkpt lat="46.93042" lon="2.28616">
        <ele>139</ele>
        <time>2018-04-16T16:51:20Z</time>
      </trkpt>
      <trkpt lat="46.93092" lon="2.28656">
        <ele>139</ele>
        <time>2018-04-16T16:51:35Z</time>
      </trkpt>
      <trkpt lat="46.93131" lon="2.28681">
        <ele>142</ele>
        <time>2018-04-16T16:51:47Z</time>
      </trkpt>
      <trkpt lat="46.93165" lon="2.28706">
        <ele>142</ele>
        <time>2018-04-16T16:51:57Z</time>
      </trkpt>
      <trkpt lat="46.93201" lon="2.28729">
        <ele>139</ele>
        <time>2018-04-16T16:52:06Z</time>
      </trkpt>
      <trkpt lat="46.93233" lon="2.28735">
        <ele>138</ele>
        <time>2018-04-16T16:52:14Z</time>
      </trkpt>
      <trkpt lat="46.93254" lon="2.28736">
        <ele>136</ele>
        <time>2018-04-16T16:52:19Z</time>
      </trkpt>
      <trkpt lat="46.93303" lon="2.28746">
        <ele>134</ele>
        <time>2018-04-16T16:52:29Z</time>
      </trkpt>
      <trkpt lat="46.93336" lon="2.2878">
        <ele>137</ele>
        <time>2018-04-16T16:52:37Z</time>
      </trkpt>
      <trkpt lat="46.93345" lon="2.28784">
        <ele>137</ele>
        <time>2018-04-16T16:52:39Z</time>
      </trkpt>
      <trkpt lat="46.93397" lon="2.28765">
        <ele>137</ele>
        <time>2018-04-16T16:52:53Z</time>
      </trkpt>
      <trkpt lat="46.93446" lon="2.28755">
        <ele>139</ele>
        <time>2018-04-16T16:53:09Z</time>
      </trkpt>
      <trkpt lat="46.93502" lon="2.28747">
        <ele>138</ele>
        <time>2018-04-16T16:53:24Z</time>
      </trkpt>
      <trkpt lat="46.93551" lon="2.28743">
        <ele>137</ele>
        <time>2018-04-16T16:53:39Z</time>
      </trkpt>
      <trkpt lat="46.93579" lon="2.28756">
        <ele>141</ele>
        <time>2018-04-16T16:53:46Z</time>
      </trkpt>
      <trkpt lat="46.93588" lon="2.28763">
        <ele>142</ele>
        <time>2018-04-16T16:53:51Z</time>
      </trkpt>
      <trkpt lat="46.9359" lon="2.28758">
        <ele>142</ele>
        <time>2018-04-16T16:53:53Z</time>
      </trkpt>
      <trkpt lat="46.93585" lon="2.28738">
        <ele>140</ele>
        <time>2018-04-16T16:53:58Z</time>
      </trkpt>
      <trkpt lat="46.93576" lon="2.28721">
        <ele>137</ele>
        <time>2018-04-16T16:54:02Z</time>
      </trkpt>
      <trkpt lat="46.93568" lon="2.28717">
        <ele>136</ele>
        <time>2018-04-16T16:54:04Z</time>
      </trkpt>
      <trkpt lat="46.93551" lon="2.28715">
        <ele>136</ele>
        <time>2018-04-16T16:54:08Z</time>
      </trkpt>
      <trkpt lat="46.93542" lon="2.28713">
        <ele>135</ele>
        <time>2018-04-16T16:54:10Z</time>
      </trkpt>
      <trkpt lat="46.93539" lon="2.2871">
        <ele>135</ele>
        <time>2018-04-16T16:54:11Z</time>
      </trkpt>
      <trkpt lat="46.93537" lon="2.28704">
        <ele>135</ele>
        <time>2018-04-16T16:54:12Z</time>
      </trkpt>
      <trkpt lat="46.93539" lon="2.2869">
        <ele>134</ele>
        <time>2018-04-16T16:54:14Z</time>
      </trkpt>
      <trkpt lat="46.9355" lon="2.28671">
        <ele>133</ele>
        <time>2018-04-16T16:54:17Z</time>
      </trkpt>
      <trkpt lat="46.93556" lon="2.28661">
        <ele>129</ele>
        <time>2018-04-16T16:54:19Z</time>
      </trkpt>
      <trkpt lat="46.93578" lon="2.28629">
        <ele>129</ele>
        <time>2018-04-16T16:54:26Z</time>
      </trkpt>
      <trkpt lat="46.93629" lon="2.28591">
        <ele>130</ele>
        <time>2018-04-16T16:54:38Z</time>
      </trkpt>
      <trkpt lat="46.93669" lon="2.28562">
        <ele>129</ele>
        <time>2018-04-16T16:54:47Z</time>
      </trkpt>
      <trkpt lat="46.93715" lon="2.28518">
        <ele>129</ele>
        <time>2018-04-16T16:54:58Z</time>
      </trkpt>
      <trkpt lat="46.93737" lon="2.28493">
        <ele>129</ele>
        <time>2018-04-16T16:55:04Z</time>
      </trkpt>
      <trkpt lat="46.9378" lon="2.28433">
        <ele>130</ele>
        <time>2018-04-16T16:55:15Z</time>
      </trkpt>
      <trkpt lat="46.93819" lon="2.28376">
        <ele>129</ele>
        <time>2018-04-16T16:55:25Z</time>
      </trkpt>
      <trkpt lat="46.93856" lon="2.28313">
        <ele>128</ele>
        <time>2018-04-16T16:55:35Z</time>
      </trkpt>
      <trkpt lat="46.93859" lon="2.28305">
        <ele>128</ele>
        <time>2018-04-16T16:55:36Z</time>
      </trkpt>
      <trkpt lat="46.93864" lon="2.28291">
        <ele>128</ele>
        <time>2018-04-16T16:55:38Z</time>
      </trkpt>
      <trkpt lat="46.93875" lon="2.28209">
        <ele>128</ele>
        <time>2018-04-16T16:55:50Z</time>
      </trkpt>
      <trkpt lat="46.93876" lon="2.28129">
        <ele>128</ele>
        <time>2018-04-16T16:56:00Z</time>
      </trkpt>
      <trkpt lat="46.93894" lon="2.28054">
        <ele>128</ele>
        <time>2018-04-16T16:56:10Z</time>
      </trkpt>
      <trkpt lat="46.93915" lon="2.27979">
        <ele>128</ele>
        <time>2018-04-16T16:56:20Z</time>
      </trkpt>
      <trkpt lat="46.93933" lon="2.2791">
        <ele>128</ele>
        <time>2018-04-16T16:56:29Z</time>
      </trkpt>
      <trkpt lat="46.93949" lon="2.2783">
        <ele>130</ele>
        <time>2018-04-16T16:56:39Z</time>
      </trkpt>
      <trkpt lat="46.93955" lon="2.27744">
        <ele>130</ele>
        <time>2018-04-16T16:56:50Z</time>
      </trkpt>
      <trkpt lat="46.93958" lon="2.27663">
        <ele>131</ele>
        <time>2018-04-16T16:57:00Z</time>
      </trkpt>
      <trkpt lat="46.93966" lon="2.27582">
        <ele>133</ele>
        <time>2018-04-16T16:57:10Z</time>
      </trkpt>
      <trkpt lat="46.93983" lon="2.27504">
        <ele>134</ele>
        <time>2018-04-16T16:57:20Z</time>
      </trkpt>
      <trkpt lat="46.94012" lon="2.2743">
        <ele>133</ele>
        <time>2018-04-16T16:57:30Z</time>
      </trkpt>
      <trkpt lat="46.94047" lon="2.27361">
        <ele>133</ele>
        <time>2018-04-16T16:57:40Z</time>
      </trkpt>
      <trkpt lat="46.94079" lon="2.27295">
        <ele>133</ele>
        <time>2018-04-16T16:57:50Z</time>
      </trkpt>
      <trkpt lat="46.94082" lon="2.2729">
        <ele>133</ele>
        <time>2018-04-16T16:57:51Z</time>
      </trkpt>
      <trkpt lat="46.94133" lon="2.27262">
        <ele>134</ele>
        <time>2018-04-16T16:58:09Z</time>
      </trkpt>
      <trkpt lat="46.94187" lon="2.27247">
        <ele>136</ele>
        <time>2018-04-16T16:58:31Z</time>
      </trkpt>
      <trkpt lat="46.94225" lon="2.27233">
        <ele>138</ele>
        <time>2018-04-16T16:58:52Z</time>
      </trkpt>
      <trkpt lat="46.94225" lon="2.27232">
        <ele>138</ele>
        <time>2018-04-16T17:00:29Z</time>
      </trkpt>
      <trkpt lat="46.94225" lon="2.27232">
        <ele>138</ele>
        <time>2018-04-16T17:00:42Z</time>
      </trkpt>
      <trkpt lat="46.94225" lon="2.27232">
        <ele>138</ele>
        <time>2018-04-16T17:00:51Z</time>
      </trkpt>
      <trkpt lat="46.94225" lon="2.27232">
        <ele>138</ele>
        <time>2018-04-16T17:01:06Z</time>
      </trkpt>
      <trkpt lat="46.94225" lon="2.27232">
        <ele>138</ele>
        <time>2018-04-16T17:01:08Z</time>
      </trkpt>
      <trkpt lat="46.94225" lon="2.27232">
        <ele>138</ele>
        <time>2018-04-16T17:01:09Z</time>
      </trkpt>
      <trkpt lat="46.94225" lon="2.27232">
        <ele>138</ele>
        <time>2018-04-16T17:01:13Z</time>
      </trkpt>
      <trkpt lat="46.94225" lon="2.27232">
        <ele>138</ele>
        <time>2018-04-16T17:01:14Z</time>
      </trkpt>
      <trkpt lat="46.94225" lon="2.27232">
        <ele>138</ele>
        <time>2018-04-16T17:01:16Z</time>
      </trkpt>
      <trkpt lat="46.94225" lon="2.27232">
        <ele>138</ele>
        <time>2018-04-16T17:01:17Z</time>
      </trkpt>
      <trkpt lat="46.94225" lon="2.27232">
        <ele>138</ele>
        <time>2018-04-16T17:01:27Z</time>
      </trkpt>
      <trkpt lat="46.94225" lon="2.27232">
        <ele>138</ele>
        <time>2018-04-16T17:01:32Z</time>
      </trkpt>
      <trkpt lat="46.94225" lon="2.27232">
        <ele>138</ele>
        <time>2018-04-16T17:01:37Z</time>
      </trkpt>
      <trkpt lat="46.94225" lon="2.27232">
        <ele>138</ele>
        <time>2018-04-16T17:01:43Z</time>
      </trkpt>
      <trkpt lat="46.94225" lon="2.27232">
        <ele>138</ele>
        <time>2018-04-16T17:01:53Z</time>
      </trkpt>
      <trkpt lat="46.94225" lon="2.27232">
        <ele>138</ele>
        <time>2018-04-16T17:02:02Z</time>
      </trkpt>
      <trkpt lat="46.94225" lon="2.27232">
        <ele>138</ele>
        <time>2018-04-16T17:02:03Z</time>
      </trkpt>
      <trkpt lat="46.94225" lon="2.27232">
        <ele>138</ele>
        <time>2018-04-16T17:02:05Z</time>
      </trkpt>
      <trkpt lat="46.94225" lon="2.27227">
        <ele>138</ele>
        <time>2018-04-16T17:02:10Z</time>
      </trkpt>
      <trkpt lat="46.94225" lon="2.27214">
        <ele>138</ele>
        <time>2018-04-16T17:02:14Z</time>
      </trkpt>
      <trkpt lat="46.9422" lon="2.27191">
        <ele>137</ele>
        <time>2018-04-16T17:02:19Z</time>
      </trkpt>
      <trkpt lat="46.94202" lon="2.27113">
        <ele>136</ele>
        <time>2018-04-16T17:02:33Z</time>
      </trkpt>
      <trkpt lat="46.942" lon="2.27101">
        <ele>136</ele>
        <time>2018-04-16T17:02:35Z</time>
      </trkpt>
      <trkpt lat="46.94199" lon="2.27095">
        <ele>136</ele>
        <time>2018-04-16T17:02:36Z</time>
      </trkpt>
      <trkpt lat="46.94197" lon="2.27083">
        <ele>135</ele>
        <time>2018-04-16T17:02:38Z</time>
      </trkpt>
      <trkpt lat="46.94195" lon="2.27077">
        <ele>135</ele>
        <time>2018-04-16T17:02:39Z</time>
      </trkpt>
      <trkpt lat="46.94193" lon="2.27072">
        <ele>135</ele>
        <time>2018-04-16T17:02:40Z</time>
      </trkpt>
      <trkpt lat="46.9419" lon="2.27068">
        <ele>135</ele>
        <time>2018-04-16T17:02:41Z</time>
      </trkpt>
      <trkpt lat="46.94181" lon="2.27061">
        <ele>135</ele>
        <time>2018-04-16T17:02:43Z</time>
      </trkpt>
      <trkpt lat="46.94171" lon="2.2706">
        <ele>135</ele>
        <time>2018-04-16T17:02:45Z</time>
      </trkpt>
      <trkpt lat="46.94163" lon="2.27068">
        <ele>134</ele>
        <time>2018-04-16T17:02:47Z</time>
      </trkpt>
      <trkpt lat="46.94155" lon="2.2708">
        <ele>134</ele>
        <time>2018-04-16T17:02:49Z</time>
      </trkpt>
      <trkpt lat="46.9415" lon="2.27096">
        <ele>134</ele>
        <time>2018-04-16T17:02:51Z</time>
      </trkpt>
      <trkpt lat="46.9414" lon="2.27123">
        <ele>134</ele>
        <time>2018-04-16T17:02:54Z</time>
      </trkpt>
      <trkpt lat="46.94132" lon="2.27143">
        <ele>133</ele>
        <time>2018-04-16T17:02:56Z</time>
      </trkpt>
      <trkpt lat="46.9412" lon="2.2716">
        <ele>133</ele>
        <time>2018-04-16T17:02:58Z</time>
      </trkpt>
      <trkpt lat="46.94105" lon="2.27172">
        <ele>133</ele>
        <time>2018-04-16T17:03:00Z</time>
      </trkpt>
      <trkpt lat="46.94088" lon="2.27177">
        <ele>133</ele>
        <time>2018-04-16T17:03:02Z</time>
      </trkpt>
      <trkpt lat="46.94071" lon="2.27175">
        <ele>132</ele>
        <time>2018-04-16T17:03:04Z</time>
      </trkpt>
      <trkpt lat="46.94048" lon="2.27165">
        <ele>131</ele>
        <time>2018-04-16T17:03:07Z</time>
      </trkpt>
      <trkpt lat="46.94004" lon="2.27117">
        <ele>130</ele>
        <time>2018-04-16T17:03:14Z</time>
      </trkpt>
      <trkpt lat="46.93958" lon="2.27067">
        <ele>128</ele>
        <time>2018-04-16T17:03:24Z</time>
      </trkpt>
      <trkpt lat="46.93948" lon="2.27054">
        <ele>128</ele>
        <time>2018-04-16T17:03:28Z</time>
      </trkpt>
      <trkpt lat="46.93931" lon="2.27032">
        <ele>127</ele>
        <time>2018-04-16T17:03:36Z</time>
      </trkpt>
      <trkpt lat="46.93887" lon="2.26982">
        <ele>127</ele>
        <time>2018-04-16T17:03:51Z</time>
      </trkpt>
      <trkpt lat="46.9385" lon="2.2694">
        <ele>128</ele>
        <time>2018-04-16T17:04:02Z</time>
      </trkpt>
      <trkpt lat="46.93843" lon="2.26931">
        <ele>128</ele>
        <time>2018-04-16T17:04:04Z</time>
      </trkpt>
      <trkpt lat="46.93832" lon="2.26918">
        <ele>129</ele>
        <time>2018-04-16T17:04:07Z</time>
      </trkpt>
      <trkpt lat="46.93788" lon="2.26866">
        <ele>129</ele>
        <time>2018-04-16T17:04:17Z</time>
      </trkpt>
      <trkpt lat="46.93738" lon="2.26829">
        <ele>128</ele>
        <time>2018-04-16T17:04:27Z</time>
      </trkpt>
      <trkpt lat="46.93723" lon="2.26823">
        <ele>128</ele>
        <time>2018-04-16T17:04:30Z</time>
      </trkpt>
      <trkpt lat="46.93702" lon="2.26818">
        <ele>128</ele>
        <time>2018-04-16T17:04:34Z</time>
      </trkpt>
      <trkpt lat="46.93669" lon="2.26818">
        <ele>128</ele>
        <time>2018-04-16T17:04:40Z</time>
      </trkpt>
      <trkpt lat="46.93664" lon="2.2682">
        <ele>128</ele>
        <time>2018-04-16T17:04:41Z</time>
      </trkpt>
      <trkpt lat="46.93659" lon="2.26821">
        <ele>128</ele>
        <time>2018-04-16T17:04:42Z</time>
      </trkpt>
      <trkpt lat="46.93627" lon="2.26829">
        <ele>128</ele>
        <time>2018-04-16T17:04:49Z</time>
      </trkpt>
      <trkpt lat="46.93615" lon="2.26833">
        <ele>128</ele>
        <time>2018-04-16T17:04:52Z</time>
      </trkpt>
      <trkpt lat="46.93582" lon="2.2684">
        <ele>129</ele>
        <time>2018-04-16T17:05:05Z</time>
      </trkpt>
      <trkpt lat="46.93588" lon="2.26833">
        <ele>128</ele>
        <time>2018-04-16T17:05:22Z</time>
      </trkpt>
      <trkpt lat="46.93624" lon="2.26824">
        <ele>128</ele>
        <time>2018-04-16T17:05:31Z</time>
      </trkpt>
      <trkpt lat="46.93681" lon="2.26813">
        <ele>128</ele>
        <time>2018-04-16T17:05:41Z</time>
      </trkpt>
      <trkpt lat="46.93706" lon="2.26806">
        <ele>128</ele>
        <time>2018-04-16T17:05:46Z</time>
      </trkpt>
      <trkpt lat="46.93716" lon="2.26804">
        <ele>128</ele>
        <time>2018-04-16T17:05:48Z</time>
      </trkpt>
      <trkpt lat="46.93725" lon="2.26799">
        <ele>128</ele>
        <time>2018-04-16T17:05:50Z</time>
      </trkpt>
      <trkpt lat="46.93732" lon="2.26784">
        <ele>127</ele>
        <time>2018-04-16T17:05:53Z</time>
      </trkpt>
      <trkpt lat="46.9374" lon="2.2676">
        <ele>127</ele>
        <time>2018-04-16T17:06:41Z</time>
      </trkpt>
      <trkpt lat="46.9374" lon="2.2676">
        <ele>127</ele>
        <time>2018-04-16T17:06:55Z</time>
      </trkpt>
      <trkpt lat="46.9374" lon="2.2676">
        <ele>127</ele>
        <time>2018-04-16T17:06:59Z</time>
      </trkpt>
      <trkpt lat="46.9374" lon="2.2676">
        <ele>127</ele>
        <time>2018-04-16T17:07:00Z</time>
      </trkpt>
      <trkpt lat="46.9374" lon="2.2676">
        <ele>127</ele>
        <time>2018-04-16T17:07:03Z</time>
      </trkpt>
      <trkpt lat="46.9374" lon="2.2676">
        <ele>127</ele>
        <time>2018-04-16T17:07:28Z</time>
      </trkpt>
      <trkpt lat="46.9374" lon="2.2676">
        <ele>127</ele>
        <time>2018-04-16T17:07:29Z</time>
      </trkpt>
      <trkpt lat="46.9374" lon="2.2676">
        <ele>127</ele>
        <time>2018-04-16T17:07:36Z</time>
      </trkpt>
      <trkpt lat="46.9374" lon="2.2676">
        <ele>127</ele>
        <time>2018-04-16T17:07:37Z</time>
      </trkpt>
      <trkpt lat="46.9374" lon="2.2676">
        <ele>127</ele>
        <time>2018-04-16T17:07:49Z</time>
      </trkpt>
      <trkpt lat="46.9374" lon="2.2676">
        <ele>127</ele>
        <time>2018-04-16T17:07:53Z</time>
      </trkpt>
      <trkpt lat="46.93743" lon="2.26751">
        <ele>127</ele>
        <time>2018-04-16T17:08:02Z</time>
      </trkpt>
      <trkpt lat="46.9375" lon="2.26721">
        <ele>127</ele>
        <time>2018-04-16T17:08:10Z</time>
      </trkpt>
      <trkpt lat="46.93756" lon="2.26696">
        <ele>127</ele>
        <time>2018-04-16T17:08:16Z</time>
      </trkpt>
      <trkpt lat="46.93775" lon="2.26621">
        <ele>126</ele>
        <time>2018-04-16T17:08:30Z</time>
      </trkpt>
      <trkpt lat="46.93783" lon="2.26593">
        <ele>126</ele>
        <time>2018-04-16T17:08:35Z</time>
      </trkpt>
      <trkpt lat="46.9379" lon="2.2657">
        <ele>125</ele>
        <time>2018-04-16T17:08:40Z</time>
      </trkpt>
      <trkpt lat="46.93802" lon="2.26531">
        <ele>125</ele>
        <time>2018-04-16T17:08:48Z</time>
      </trkpt>
      <trkpt lat="46.93824" lon="2.26455">
        <ele>126</ele>
        <time>2018-04-16T17:09:02Z</time>
      </trkpt>
      <trkpt lat="46.93857" lon="2.26389">
        <ele>128</ele>
        <time>2018-04-16T17:09:15Z</time>
      </trkpt>
      <trkpt lat="46.93892" lon="2.26322">
        <ele>127</ele>
        <time>2018-04-16T17:09:28Z</time>
      </trkpt>
      <trkpt lat="46.93922" lon="2.26257">
        <ele>128</ele>
        <time>2018-04-16T17:09:41Z</time>
      </trkpt>
      <trkpt lat="46.93893" lon="2.26193">
        <ele>127</ele>
        <time>2018-04-16T17:09:54Z</time>
      </trkpt>
      <trkpt lat="46.93864" lon="2.26152">
        <ele>126</ele>
        <time>2018-04-16T17:10:03Z</time>
      </trkpt>
      <trkpt lat="46.93823" lon="2.26109">
        <ele>127</ele>
        <time>2018-04-16T17:10:15Z</time>
      </trkpt>
      <trkpt lat="46.93792" lon="2.26074">
        <ele>129</ele>
        <time>2018-04-16T17:11:18Z</time>
      </trkpt>
      <trkpt lat="46.9379" lon="2.26075">
        <ele>129</ele>
        <time>2018-04-16T17:11:26Z</time>
      </trkpt>
      <trkpt lat="46.93784" lon="2.26074">
        <ele>129</ele>
        <time>2018-04-16T17:11:35Z</time>
      </trkpt>
      <trkpt lat="46.93785" lon="2.26074">
        <ele>129</ele>
        <time>2018-04-16T17:11:51Z</time>
      </trkpt>
      <trkpt lat="46.93785" lon="2.26074">
        <ele>129</ele>
        <time>2018-04-16T17:12:00Z</time>
      </trkpt>
      <trkpt lat="46.93785" lon="2.26074">
        <ele>129</ele>
        <time>2018-04-16T17:12:04Z</time>
      </trkpt>
      <trkpt lat="46.93784" lon="2.26074">
        <ele>129</ele>
        <time>2018-04-16T17:12:27Z</time>
      </trkpt>
      <trkpt lat="46.93785" lon="2.26074">
        <ele>129</ele>
        <time>2018-04-16T17:12:37Z</time>
      </trkpt>
      <trkpt lat="46.93785" lon="2.26074">
        <ele>129</ele>
        <time>2018-04-16T17:12:49Z</time>
      </trkpt>
      <trkpt lat="46.93785" lon="2.26074">
        <ele>129</ele>
        <time>2018-04-16T17:12:56Z</time>
      </trkpt>
      <trkpt lat="46.93785" lon="2.26074">
        <ele>129</ele>
        <time>2018-04-16T17:13:11Z</time>
      </trkpt>
      <trkpt lat="46.93785" lon="2.26074">
        <ele>129</ele>
        <time>2018-04-16T17:13:36Z</time>
      </trkpt>
      <trkpt lat="46.93785" lon="2.26074">
        <ele>129</ele>
        <time>2018-04-16T17:13:46Z</time>
      </trkpt>
      <trkpt lat="46.93785" lon="2.26074">
        <ele>129</ele>
        <time>2018-04-16T17:13:54Z</time>
      </trkpt>
      <trkpt lat="46.93785" lon="2.26074">
        <ele>129</ele>
        <time>2018-04-16T17:14:05Z</time>
      </trkpt>
      <trkpt lat="46.93786" lon="2.26077">
        <ele>129</ele>
        <time>2018-04-16T17:14:08Z</time>
      </trkpt>
      <trkpt lat="46.93784" lon="2.26081">
        <ele>129</ele>
        <time>2018-04-16T17:14:12Z</time>
      </trkpt>
      <trkpt lat="46.93778" lon="2.26092">
        <ele>128</ele>
        <time>2018-04-16T17:14:16Z</time>
      </trkpt>
      <trkpt lat="46.93774" lon="2.261">
        <ele>128</ele>
        <time>2018-04-16T17:14:18Z</time>
      </trkpt>
      <trkpt lat="46.93744" lon="2.26163">
        <ele>130</ele>
        <time>2018-04-16T17:14:33Z</time>
      </trkpt>
      <trkpt lat="46.93741" lon="2.26166">
        <ele>130</ele>
        <time>2018-04-16T17:14:35Z</time>
      </trkpt>
      <trkpt lat="46.93738" lon="2.26166">
        <ele>130</ele>
        <time>2018-04-16T17:14:42Z</time>
      </trkpt>
      <trkpt lat="46.93738" lon="2.26166">
        <ele>130</ele>
        <time>2018-04-16T17:14:43Z</time>
      </trkpt>
      <trkpt lat="46.93741" lon="2.26161">
        <ele>130</ele>
        <time>2018-04-16T17:14:49Z</time>
      </trkpt>
      <trkpt lat="46.93751" lon="2.2614">
        <ele>128</ele>
        <time>2018-04-16T17:14:54Z</time>
      </trkpt>
      <trkpt lat="46.9377" lon="2.26102">
        <ele>128</ele>
        <time>2018-04-16T17:15:01Z</time>
      </trkpt>
      <trkpt lat="46.93786" lon="2.26069">
        <ele>129</ele>
        <time>2018-04-16T17:15:07Z</time>
      </trkpt>
      <trkpt lat="46.93791" lon="2.26058">
        <ele>129</ele>
        <time>2018-04-16T17:15:09Z</time>
      </trkpt>
      <trkpt lat="46.93796" lon="2.26048">
        <ele>129</ele>
        <time>2018-04-16T17:15:11Z</time>
      </trkpt>
      <trkpt lat="46.93833" lon="2.25985">
        <ele>130</ele>
        <time>2018-04-16T17:15:27Z</time>
      </trkpt>
      <trkpt lat="46.93867" lon="2.25952">
        <ele>129</ele>
        <time>2018-04-16T17:15:47Z</time>
      </trkpt>
      <trkpt lat="46.93867" lon="2.25949">
        <ele>129</ele>
        <time>2018-04-16T17:16:07Z</time>
      </trkpt>
      <trkpt lat="46.93861" lon="2.25876">
        <ele>135</ele>
        <time>2018-04-16T17:16:24Z</time>
      </trkpt>
      <trkpt lat="46.93869" lon="2.25864">
        <ele>136</ele>
        <time>2018-04-16T17:16:30Z</time>
      </trkpt>
      <trkpt lat="46.9387" lon="2.25863">
        <ele>136</ele>
        <time>2018-04-16T17:16:31Z</time>
      </trkpt>
      <trkpt lat="46.93872" lon="2.2586">
        <ele>136</ele>
        <time>2018-04-16T17:16:33Z</time>
      </trkpt>
      <trkpt lat="46.93874" lon="2.25856">
        <ele>136</ele>
        <time>2018-04-16T17:16:36Z</time>
      </trkpt>
      <trkpt lat="46.93877" lon="2.2585">
        <ele>136</ele>
        <time>2018-04-16T17:16:39Z</time>
      </trkpt>
      <trkpt lat="46.93879" lon="2.25844">
        <ele>136</ele>
        <time>2018-04-16T17:16:42Z</time>
      </trkpt>
      <trkpt lat="46.93883" lon="2.25835">
        <ele>137</ele>
        <time>2018-04-16T17:16:47Z</time>
      </trkpt>
      <trkpt lat="46.93884" lon="2.25833">
        <ele>141</ele>
        <time>2018-04-16T17:16:48Z</time>
      </trkpt>
      <trkpt lat="46.93886" lon="2.25829">
        <ele>141</ele>
        <time>2018-04-16T17:16:50Z</time>
      </trkpt>
      <trkpt lat="46.93899" lon="2.25795">
        <ele>142</ele>
        <time>2018-04-16T17:17:05Z</time>
      </trkpt>
      <trkpt lat="46.93912" lon="2.25768">
        <ele>143</ele>
        <time>2018-04-16T17:17:19Z</time>
      </trkpt>
      <trkpt lat="46.93937" lon="2.25714">
        <ele>146</ele>
        <time>2018-04-16T17:17:46Z</time>
      </trkpt>
      <trkpt lat="46.93939" lon="2.25697">
        <ele>147</ele>
        <time>2018-04-16T17:17:53Z</time>
      </trkpt>
      <trkpt lat="46.9394" lon="2.25689">
        <ele>147</ele>
        <time>2018-04-16T17:17:56Z</time>
      </trkpt>
      <trkpt lat="46.93942" lon="2.25675">
        <ele>148</ele>
        <time>2018-04-16T17:18:02Z</time>
      </trkpt>
      <trkpt lat="46.93943" lon="2.25667">
        <ele>148</ele>
        <time>2018-04-16T17:18:05Z</time>
      </trkpt>
      <trkpt lat="46.93948" lon="2.25647">
        <ele>150</ele>
        <time>2018-04-16T17:18:14Z</time>
      </trkpt>
      <trkpt lat="46.93953" lon="2.25624">
        <ele>149</ele>
        <time>2018-04-16T17:18:38Z</time>
      </trkpt>
      <trkpt lat="46.93953" lon="2.25624">
        <ele>149</ele>
        <time>2018-04-16T17:19:42Z</time>
      </trkpt>
      <trkpt lat="46.93957" lon="2.25625">
        <ele>150</ele>
        <time>2018-04-16T17:19:45Z</time>
      </trkpt>
      <trkpt lat="46.9398" lon="2.25626">
        <ele>149</ele>
        <time>2018-04-16T17:19:56Z</time>
      </trkpt>
      <trkpt lat="46.93986" lon="2.25627">
        <ele>149</ele>
        <time>2018-04-16T17:19:59Z</time>
      </trkpt>
      <trkpt lat="46.93988" lon="2.25627">
        <ele>149</ele>
        <time>2018-04-16T17:20:00Z</time>
      </trkpt>
      <trkpt lat="46.93991" lon="2.25627">
        <ele>149</ele>
        <time>2018-04-16T17:20:01Z</time>
      </trkpt>
      <trkpt lat="46.93995" lon="2.25627">
        <ele>149</ele>
        <time>2018-04-16T17:20:03Z</time>
      </trkpt>
      <trkpt lat="46.93997" lon="2.25627">
        <ele>149</ele>
        <time>2018-04-16T17:20:04Z</time>
      </trkpt>
      <trkpt lat="46.94004" lon="2.2563">
        <ele>149</ele>
        <time>2018-04-16T17:20:07Z</time>
      </trkpt>
      <trkpt lat="46.94016" lon="2.2567">
        <ele>147</ele>
        <time>2018-04-16T17:20:22Z</time>
      </trkpt>
      <trkpt lat="46.94017" lon="2.25724">
        <ele>143</ele>
        <time>2018-04-16T17:20:35Z</time>
      </trkpt>
      <trkpt lat="46.94051" lon="2.25715">
        <ele>143</ele>
        <time>2018-04-16T17:20:50Z</time>
      </trkpt>
      <trkpt lat="46.94106" lon="2.25705">
        <ele>143</ele>
        <time>2018-04-16T17:21:10Z</time>
      </trkpt>
      <trkpt lat="46.94114" lon="2.25702">
        <ele>143</ele>
        <time>2018-04-16T17:21:13Z</time>
      </trkpt>
      <trkpt lat="46.94168" lon="2.25682">
        <ele>145</ele>
        <time>2018-04-16T17:21:33Z</time>
      </trkpt>
      <trkpt lat="46.94221" lon="2.25694">
        <ele>143</ele>
        <time>2018-04-16T17:21:51Z</time>
      </trkpt>
      <trkpt lat="46.94234" lon="2.25693">
        <ele>143</ele>
        <time>2018-04-16T17:21:56Z</time>
      </trkpt>
      <trkpt lat="46.94234" lon="2.25616">
        <ele>148</ele>
        <time>2018-04-16T17:22:21Z</time>
      </trkpt>
      <trkpt lat="46.9422" lon="2.25539">
        <ele>151</ele>
        <time>2018-04-16T17:22:46Z</time>
      </trkpt>
      <trkpt lat="46.94213" lon="2.25469">
        <ele>152</ele>
        <time>2018-04-16T17:23:08Z</time>
      </trkpt>
      <trkpt lat="46.94215" lon="2.25467">
        <ele>152</ele>
        <time>2018-04-16T17:23:10Z</time>
      </trkpt>
      <trkpt lat="46.94217" lon="2.25466">
        <ele>152</ele>
        <time>2018-04-16T17:23:12Z</time>
      </trkpt>
      <trkpt lat="46.94272" lon="2.25448">
        <ele>152</ele>
        <time>2018-04-16T17:23:32Z</time>
      </trkpt>
      <trkpt lat="46.94303" lon="2.25429">
        <ele>151</ele>
        <time>2018-04-16T17:23:41Z</time>
      </trkpt>
      <trkpt lat="46.94336" lon="2.25378">
        <ele>152</ele>
        <time>2018-04-16T17:24:03Z</time>
      </trkpt>
      <trkpt lat="46.94336" lon="2.25378">
        <ele>152</ele>
        <time>2018-04-16T17:24:13Z</time>
      </trkpt>
      <trkpt lat="46.94339" lon="2.2538">
        <ele>152</ele>
        <time>2018-04-16T17:24:25Z</time>
      </trkpt>
      <trkpt lat="46.94376" lon="2.25443">
        <ele>151</ele>
        <time>2018-04-16T17:24:39Z</time>
      </trkpt>
      <trkpt lat="46.94418" lon="2.25501">
        <ele>151</ele>
        <time>2018-04-16T17:24:50Z</time>
      </trkpt>
      <trkpt lat="46.94429" lon="2.25516">
        <ele>149</ele>
        <time>2018-04-16T17:24:53Z</time>
      </trkpt>
      <trkpt lat="46.94433" lon="2.25521">
        <ele>149</ele>
        <time>2018-04-16T17:24:54Z</time>
      </trkpt>
      <trkpt lat="46.94443" lon="2.25537">
        <ele>148</ele>
        <time>2018-04-16T17:24:57Z</time>
      </trkpt>
      <trkpt lat="46.9445" lon="2.25548">
        <ele>148</ele>
        <time>2018-04-16T17:24:59Z</time>
      </trkpt>
      <trkpt lat="46.94454" lon="2.25554">
        <ele>148</ele>
        <time>2018-04-16T17:25:00Z</time>
      </trkpt>
      <trkpt lat="46.94479" lon="2.25593">
        <ele>145</ele>
        <time>2018-04-16T17:25:07Z</time>
      </trkpt>
      <trkpt lat="46.94482" lon="2.25598">
        <ele>145</ele>
        <time>2018-04-16T17:25:08Z</time>
      </trkpt>
      <trkpt lat="46.94486" lon="2.25603">
        <ele>145</ele>
        <time>2018-04-16T17:25:09Z</time>
      </trkpt>
      <trkpt lat="46.9449" lon="2.25609">
        <ele>145</ele>
        <time>2018-04-16T17:25:10Z</time>
      </trkpt>
      <trkpt lat="46.94494" lon="2.25614">
        <ele>145</ele>
        <time>2018-04-16T17:25:11Z</time>
      </trkpt>
      <trkpt lat="46.94513" lon="2.25635">
        <ele>143</ele>
        <time>2018-04-16T17:25:16Z</time>
      </trkpt>
      <trkpt lat="46.9452" lon="2.25641">
        <ele>143</ele>
        <time>2018-04-16T17:25:18Z</time>
      </trkpt>
      <trkpt lat="46.94533" lon="2.25649">
        <ele>143</ele>
        <time>2018-04-16T17:25:23Z</time>
      </trkpt>
      <trkpt lat="46.94552" lon="2.25651">
        <ele>143</ele>
        <time>2018-04-16T17:25:30Z</time>
      </trkpt>
      <trkpt lat="46.94598" lon="2.25636">
        <ele>140</ele>
        <time>2018-04-16T17:25:45Z</time>
      </trkpt>
      <trkpt lat="46.94642" lon="2.25595">
        <ele>138</ele>
        <time>2018-04-16T17:26:19Z</time>
      </trkpt>
      <trkpt lat="46.94642" lon="2.25595">
        <ele>138</ele>
        <time>2018-04-16T17:26:37Z</time>
      </trkpt>
      <trkpt lat="46.94642" lon="2.25595">
        <ele>138</ele>
        <time>2018-04-16T17:26:42Z</time>
      </trkpt>
      <trkpt lat="46.94642" lon="2.25595">
        <ele>138</ele>
        <time>2018-04-16T17:26:43Z</time>
      </trkpt>
      <trkpt lat="46.94642" lon="2.25595">
        <ele>138</ele>
        <time>2018-04-16T17:26:44Z</time>
      </trkpt>
      <trkpt lat="46.94642" lon="2.25595">
        <ele>138</ele>
        <time>2018-04-16T17:26:45Z</time>
      </trkpt>
      <trkpt lat="46.94642" lon="2.25595">
        <ele>138</ele>
        <time>2018-04-16T17:26:46Z</time>
      </trkpt>
      <trkpt lat="46.94642" lon="2.25595">
        <ele>138</ele>
        <time>2018-04-16T17:26:56Z</time>
      </trkpt>
      <trkpt lat="46.94647" lon="2.25586">
        <ele>138</ele>
        <time>2018-04-16T17:27:44Z</time>
      </trkpt>
      <trkpt lat="46.94649" lon="2.25581">
        <ele>137</ele>
        <time>2018-04-16T17:27:45Z</time>
      </trkpt>
      <trkpt lat="46.94651" lon="2.25575">
        <ele>137</ele>
        <time>2018-04-16T17:27:46Z</time>
      </trkpt>
      <trkpt lat="46.94659" lon="2.25557">
        <ele>137</ele>
        <time>2018-04-16T17:27:49Z</time>
      </trkpt>
      <trkpt lat="46.94669" lon="2.25536">
        <ele>134</ele>
        <time>2018-04-16T17:27:52Z</time>
      </trkpt>
      <trkpt lat="46.94673" lon="2.25529">
        <ele>134</ele>
        <time>2018-04-16T17:27:53Z</time>
      </trkpt>
      <trkpt lat="46.9468" lon="2.25514">
        <ele>134</ele>
        <time>2018-04-16T17:27:55Z</time>
      </trkpt>
      <trkpt lat="46.94698" lon="2.25477">
        <ele>134</ele>
        <time>2018-04-16T17:28:00Z</time>
      </trkpt>
      <trkpt lat="46.94708" lon="2.25456">
        <ele>133</ele>
        <time>2018-04-16T17:28:03Z</time>
      </trkpt>
      <trkpt lat="46.94718" lon="2.25437">
        <ele>134</ele>
        <time>2018-04-16T17:28:06Z</time>
      </trkpt>
      <trkpt lat="46.9475" lon="2.25371">
        <ele>135</ele>
        <time>2018-04-16T17:28:19Z</time>
      </trkpt>
      <trkpt lat="46.94761" lon="2.25347">
        <ele>138</ele>
        <time>2018-04-16T17:28:25Z</time>
      </trkpt>
      <trkpt lat="46.94766" lon="2.25337">
        <ele>138</ele>
        <time>2018-04-16T17:28:28Z</time>
      </trkpt>
      <trkpt lat="46.94772" lon="2.25326">
        <ele>140</ele>
        <time>2018-04-16T17:28:31Z</time>
      </trkpt>
      <trkpt lat="46.94803" lon="2.25257">
        <ele>142</ele>
        <time>2018-04-16T17:28:50Z</time>
      </trkpt>
      <trkpt lat="46.94805" lon="2.25254">
        <ele>142</ele>
        <time>2018-04-16T17:28:51Z</time>
      </trkpt>
      <trkpt lat="46.94806" lon="2.25251">
        <ele>142</ele>
        <time>2018-04-16T17:28:52Z</time>
      </trkpt>
      <trkpt lat="46.94807" lon="2.25248">
        <ele>144</ele>
        <time>2018-04-16T17:28:53Z</time>
      </trkpt>
      <trkpt lat="46.94818" lon="2.25224">
        <ele>145</ele>
        <time>2018-04-16T17:29:00Z</time>
      </trkpt>
      <trkpt lat="46.94839" lon="2.25183">
        <ele>147</ele>
        <time>2018-04-16T17:29:12Z</time>
      </trkpt>
      <trkpt lat="46.94841" lon="2.2518">
        <ele>147</ele>
        <time>2018-04-16T17:29:13Z</time>
      </trkpt>
      <trkpt lat="46.94844" lon="2.25173">
        <ele>147</ele>
        <time>2018-04-16T17:29:15Z</time>
      </trkpt>
      <trkpt lat="46.94846" lon="2.25169">
        <ele>147</ele>
        <time>2018-04-16T17:29:16Z</time>
      </trkpt>
      <trkpt lat="46.94847" lon="2.25166">
        <ele>148</ele>
        <time>2018-04-16T17:29:17Z</time>
      </trkpt>
      <trkpt lat="46.94867" lon="2.25128">
        <ele>149</ele>
        <time>2018-04-16T17:29:28Z</time>
      </trkpt>
      <trkpt lat="46.9487" lon="2.25122">
        <ele>149</ele>
        <time>2018-04-16T17:29:30Z</time>
      </trkpt>
      <trkpt lat="46.94883" lon="2.25097">
        <ele>149</ele>
        <time>2018-04-16T17:29:37Z</time>
      </trkpt>
      <trkpt lat="46.94889" lon="2.25082">
        <ele>151</ele>
        <time>2018-04-16T17:29:41Z</time>
      </trkpt>
      <trkpt lat="46.94923" lon="2.25015">
        <ele>153</ele>
        <time>2018-04-16T17:29:59Z</time>
      </trkpt>
      <trkpt lat="46.94947" lon="2.24968">
        <ele>153</ele>
        <time>2018-04-16T17:30:09Z</time>
      </trkpt>
      <trkpt lat="46.9496" lon="2.24944">
        <ele>153</ele>
        <time>2018-04-16T17:30:14Z</time>
      </trkpt>
      <trkpt lat="46.94972" lon="2.24924">
        <ele>152</ele>
        <time>2018-04-16T17:30:18Z</time>
      </trkpt>
      <trkpt lat="46.95" lon="2.24852">
        <ele>152</ele>
        <time>2018-04-16T17:30:31Z</time>
      </trkpt>
      <trkpt lat="46.95027" lon="2.24789">
        <ele>153</ele>
        <time>2018-04-16T17:30:44Z</time>
      </trkpt>
      <trkpt lat="46.95039" lon="2.24767">
        <ele>153</ele>
        <time>2018-04-16T17:30:51Z</time>
      </trkpt>
      <trkpt lat="46.95043" lon="2.24768">
        <ele>153</ele>
        <time>2018-04-16T17:30:53Z</time>
      </trkpt>
      <trkpt lat="46.95084" lon="2.24815">
        <ele>153</ele>
        <time>2018-04-16T17:31:08Z</time>
      </trkpt>
      <trkpt lat="46.95087" lon="2.24819">
        <ele>153</ele>
        <time>2018-04-16T17:31:09Z</time>
      </trkpt>
      <trkpt lat="46.95091" lon="2.24822">
        <ele>153</ele>
        <time>2018-04-16T17:31:10Z</time>
      </trkpt>
      <trkpt lat="46.9511" lon="2.24843">
        <ele>153</ele>
        <time>2018-04-16T17:31:16Z</time>
      </trkpt>
      <trkpt lat="46.95151" lon="2.24889">
        <ele>154</ele>
        <time>2018-04-16T17:31:29Z</time>
      </trkpt>
      <trkpt lat="46.95166" lon="2.24906">
        <ele>154</ele>
        <time>2018-04-16T17:31:34Z</time>
      </trkpt>
      <trkpt lat="46.95211" lon="2.24956">
        <ele>153</ele>
        <time>2018-04-16T17:31:48Z</time>
      </trkpt>
      <trkpt lat="46.95227" lon="2.24973">
        <ele>153</ele>
        <time>2018-04-16T17:31:53Z</time>
      </trkpt>
      <trkpt lat="46.95278" lon="2.25008">
        <ele>152</ele>
        <time>2018-04-16T17:32:07Z</time>
      </trkpt>
      <trkpt lat="46.95293" lon="2.25014">
        <ele>152</ele>
        <time>2018-04-16T17:32:11Z</time>
      </trkpt>
      <trkpt lat="46.9533" lon="2.25022">
        <ele>152</ele>
        <time>2018-04-16T17:32:19Z</time>
      </trkpt>
      <trkpt lat="46.95344" lon="2.25024">
        <ele>151</ele>
        <time>2018-04-16T17:32:22Z</time>
      </trkpt>
      <trkpt lat="46.95348" lon="2.25025">
        <ele>151</ele>
        <time>2018-04-16T17:32:23Z</time>
      </trkpt>
      <trkpt lat="46.95383" lon="2.25031">
        <ele>151</ele>
        <time>2018-04-16T17:32:33Z</time>
      </trkpt>
      <trkpt lat="46.95384" lon="2.25035">
        <ele>151</ele>
        <time>2018-04-16T17:32:35Z</time>
      </trkpt>
      <trkpt lat="46.95386" lon="2.25059">
        <ele>151</ele>
        <time>2018-04-16T17:32:45Z</time>
      </trkpt>
      <trkpt lat="46.95419" lon="2.25068">
        <ele>151</ele>
        <time>2018-04-16T17:32:58Z</time>
      </trkpt>
      <trkpt lat="46.95431" lon="2.25043">
        <ele>152</ele>
        <time>2018-04-16T17:33:06Z</time>
      </trkpt>
      <trkpt lat="46.95448" lon="2.25042">
        <ele>152</ele>
        <time>2018-04-16T17:33:12Z</time>
      </trkpt>
      <trkpt lat="46.95505" lon="2.25052">
        <ele>152</ele>
        <time>2018-04-16T17:33:31Z</time>
      </trkpt>
      <trkpt lat="46.95526" lon="2.25058">
        <ele>151</ele>
        <time>2018-04-16T17:33:38Z</time>
      </trkpt>
      <trkpt lat="46.95554" lon="2.25063">
        <ele>151</ele>
        <time>2018-04-16T17:34:04Z</time>
      </trkpt>
      <trkpt lat="46.95554" lon="2.25063">
        <ele>151</ele>
        <time>2018-04-16T17:34:05Z</time>
      </trkpt>
      <trkpt lat="46.95554" lon="2.25063">
        <ele>151</ele>
        <time>2018-04-16T17:34:07Z</time>
      </trkpt>
      <trkpt lat="46.95554" lon="2.25063">
        <ele>151</ele>
        <time>2018-04-16T17:34:09Z</time>
      </trkpt>
      <trkpt lat="46.95554" lon="2.25063">
        <ele>151</ele>
        <time>2018-04-16T17:34:11Z</time>
      </trkpt>
      <trkpt lat="46.95554" lon="2.25063">
        <ele>151</ele>
        <time>2018-04-16T17:34:36Z</time>
      </trkpt>
      <trkpt lat="46.95602" lon="2.25072">
        <ele>149</ele>
        <time>2018-04-16T17:35:02Z</time>
      </trkpt>
      <trkpt lat="46.9562" lon="2.25075">
        <ele>149</ele>
        <time>2018-04-16T17:35:08Z</time>
      </trkpt>
      <trkpt lat="46.95643" lon="2.25079">
        <ele>148</ele>
        <time>2018-04-16T17:35:14Z</time>
      </trkpt>
      <trkpt lat="46.957" lon="2.25089">
        <ele>146</ele>
        <time>2018-04-16T17:35:27Z</time>
      </trkpt>
      <trkpt lat="46.95737" lon="2.25096">
        <ele>147</ele>
        <time>2018-04-16T17:35:35Z</time>
      </trkpt>
      <trkpt lat="46.95769" lon="2.25102">
        <ele>147</ele>
        <time>2018-04-16T17:35:44Z</time>
      </trkpt>
      <trkpt lat="46.95775" lon="2.25103">
        <ele>147</ele>
        <time>2018-04-16T17:35:48Z</time>
      </trkpt>
      <trkpt lat="46.95791" lon="2.25108">
        <ele>147</ele>
        <time>2018-04-16T17:36:12Z</time>
      </trkpt>
      <trkpt lat="46.95791" lon="2.25108">
        <ele>147</ele>
        <time>2018-04-16T17:36:35Z</time>
      </trkpt>
      <trkpt lat="46.95791" lon="2.25108">
        <ele>147</ele>
        <time>2018-04-16T17:36:39Z</time>
      </trkpt>
      <trkpt lat="46.95791" lon="2.25108">
        <ele>147</ele>
        <time>2018-04-16T17:36:47Z</time>
      </trkpt>
      <trkpt lat="46.95791" lon="2.25108">
        <ele>147</ele>
        <time>2018-04-16T17:36:48Z</time>
      </trkpt>
      <trkpt lat="46.95791" lon="2.25108">
        <ele>147</ele>
        <time>2018-04-16T17:36:50Z</time>
      </trkpt>
      <trkpt lat="46.95791" lon="2.25108">
        <ele>147</ele>
        <time>2018-04-16T17:36:55Z</time>
      </trkpt>
      <trkpt lat="46.95791" lon="2.25108">
        <ele>147</ele>
        <time>2018-04-16T17:36:59Z</time>
      </trkpt>
      <trkpt lat="46.95791" lon="2.25108">
        <ele>147</ele>
        <time>2018-04-16T17:37:16Z</time>
      </trkpt>
      <trkpt lat="46.95791" lon="2.25108">
        <ele>147</ele>
        <time>2018-04-16T17:37:17Z</time>
      </trkpt>
      <trkpt lat="46.95791" lon="2.25109">
        <ele>147</ele>
        <time>2018-04-16T17:37:19Z</time>
      </trkpt>
      <trkpt lat="46.9578" lon="2.25102">
        <ele>147</ele>
        <time>2018-04-16T17:37:33Z</time>
      </trkpt>
      <trkpt lat="46.95788" lon="2.25089">
        <ele>147</ele>
        <time>2018-04-16T17:37:42Z</time>
      </trkpt>
      <trkpt lat="46.95792" lon="2.25085">
        <ele>147</ele>
        <time>2018-04-16T17:37:45Z</time>
      </trkpt>
      <trkpt lat="46.95798" lon="2.2508">
        <ele>149</ele>
        <time>2018-04-16T17:37:48Z</time>
      </trkpt>
      <trkpt lat="46.9581" lon="2.25067">
        <ele>149</ele>
        <time>2018-04-16T17:37:53Z</time>
      </trkpt>
      <trkpt lat="46.95843" lon="2.25033">
        <ele>149</ele>
        <time>2018-04-16T17:38:04Z</time>
      </trkpt>
      <trkpt lat="46.95874" lon="2.25004">
        <ele>149</ele>
        <time>2018-04-16T17:38:12Z</time>
      </trkpt>
      <trkpt lat="46.9588" lon="2.24995">
        <ele>149</ele>
        <time>2018-04-16T17:38:14Z</time>
      </trkpt>
      <trkpt lat="46.95894" lon="2.24961">
        <ele>149</ele>
        <time>2018-04-16T17:38:20Z</time>
      </trkpt>
      <trkpt lat="46.959" lon="2.24945">
        <ele>149</ele>
        <time>2018-04-16T17:38:23Z</time>
      </trkpt>
      <trkpt lat="46.95901" lon="2.24941">
        <ele>149</ele>
        <time>2018-04-16T17:38:24Z</time>
      </trkpt>
      <trkpt lat="46.95903" lon="2.24936">
        <ele>149</ele>
        <time>2018-04-16T17:38:25Z</time>
      </trkpt>
      <trkpt lat="46.95904" lon="2.24931">
        <ele>149</ele>
        <time>2018-04-16T17:38:26Z</time>
      </trkpt>
      <trkpt lat="46.95939" lon="2.24878">
        <ele>149</ele>
        <time>2018-04-16T17:38:42Z</time>
      </trkpt>
      <trkpt lat="46.95988" lon="2.2484">
        <ele>148</ele>
        <time>2018-04-16T17:38:55Z</time>
      </trkpt>
      <trkpt lat="46.96024" lon="2.24815">
        <ele>147</ele>
        <time>2018-04-16T17:39:04Z</time>
      </trkpt>
      <trkpt lat="46.9604" lon="2.24804">
        <ele>146</ele>
        <time>2018-04-16T17:39:08Z</time>
      </trkpt>
      <trkpt lat="46.96076" lon="2.24778">
        <ele>146</ele>
        <time>2018-04-16T17:39:15Z</time>
      </trkpt>
      <trkpt lat="46.96112" lon="2.24755">
        <ele>144</ele>
        <time>2018-04-16T17:39:21Z</time>
      </trkpt>
      <trkpt lat="46.96163" lon="2.2472">
        <ele>145</ele>
        <time>2018-04-16T17:39:34Z</time>
      </trkpt>
      <trkpt lat="46.96194" lon="2.247">
        <ele>144</ele>
        <time>2018-04-16T17:39:46Z</time>
      </trkpt>
      <trkpt lat="46.9621" lon="2.24685">
        <ele>144</ele>
        <time>2018-04-16T17:39:56Z</time>
      </trkpt>
      <trkpt lat="46.96259" lon="2.24652">
        <ele>142</ele>
        <time>2018-04-16T17:40:19Z</time>
      </trkpt>
      <trkpt lat="46.96265" lon="2.2465">
        <ele>141</ele>
        <time>2018-04-16T17:40:31Z</time>
      </trkpt>
      <trkpt lat="46.96265" lon="2.2465">
        <ele>141</ele>
        <time>2018-04-16T17:40:40Z</time>
      </trkpt>
      <trkpt lat="46.96265" lon="2.2465">
        <ele>141</ele>
        <time>2018-04-16T17:40:41Z</time>
      </trkpt>
      <trkpt lat="46.96265" lon="2.2465">
        <ele>141</ele>
        <time>2018-04-16T17:40:42Z</time>
      </trkpt>
      <trkpt lat="46.96265" lon="2.2465">
        <ele>141</ele>
        <time>2018-04-16T17:40:52Z</time>
      </trkpt>
      <trkpt lat="46.96265" lon="2.2465">
        <ele>141</ele>
        <time>2018-04-16T17:41:06Z</time>
      </trkpt>
      <trkpt lat="46.96265" lon="2.2465">
        <ele>141</ele>
        <time>2018-04-16T17:41:11Z</time>
      </trkpt>
      <trkpt lat="46.96265" lon="2.2465">
        <ele>141</ele>
        <time>2018-04-16T17:41:23Z</time>
      </trkpt>
      <trkpt lat="46.96265" lon="2.2465">
        <ele>141</ele>
        <time>2018-04-16T17:41:28Z</time>
      </trkpt>
      <trkpt lat="46.96265" lon="2.2465">
        <ele>141</ele>
        <time>2018-04-16T17:41:32Z</time>
      </trkpt>
      <trkpt lat="46.96265" lon="2.2465">
        <ele>141</ele>
        <time>2018-04-16T17:41:33Z</time>
      </trkpt>
      <trkpt lat="46.96265" lon="2.2465">
        <ele>141</ele>
        <time>2018-04-16T17:41:35Z</time>
      </trkpt>
      <trkpt lat="46.96265" lon="2.2465">
        <ele>141</ele>
        <time>2018-04-16T17:41:36Z</time>
      </trkpt>
      <trkpt lat="46.96265" lon="2.2465">
        <ele>141</ele>
        <time>2018-04-16T17:41:37Z</time>
      </trkpt>
      <trkpt lat="46.96265" lon="2.2465">
        <ele>141</ele>
        <time>2018-04-16T17:41:50Z</time>
      </trkpt>
      <trkpt lat="46.96265" lon="2.2465">
        <ele>141</ele>
        <time>2018-04-16T17:41:54Z</time>
      </trkpt>
      <trkpt lat="46.96265" lon="2.2465">
        <ele>141</ele>
        <time>2018-04-16T17:41:58Z</time>
      </trkpt>
      <trkpt lat="46.96265" lon="2.2465">
        <ele>141</ele>
        <time>2018-04-16T17:42:05Z</time>
      </trkpt>
      <trkpt lat="46.96265" lon="2.2465">
        <ele>141</ele>
        <time>2018-04-16T17:42:07Z</time>
      </trkpt>
      <trkpt lat="46.96265" lon="2.2465">
        <ele>141</ele>
        <time>2018-04-16T17:42:08Z</time>
      </trkpt>
      <trkpt lat="46.96265" lon="2.2465">
        <ele>141</ele>
        <time>2018-04-16T17:42:09Z</time>
      </trkpt>
      <trkpt lat="46.96265" lon="2.2465">
        <ele>141</ele>
        <time>2018-04-16T17:42:11Z</time>
      </trkpt>
      <trkpt lat="46.96265" lon="2.2465">
        <ele>141</ele>
        <time>2018-04-16T17:42:12Z</time>
      </trkpt>
      <trkpt lat="46.96265" lon="2.2465">
        <ele>141</ele>
        <time>2018-04-16T17:42:13Z</time>
      </trkpt>
      <trkpt lat="46.96265" lon="2.2465">
        <ele>141</ele>
        <time>2018-04-16T17:42:23Z</time>
      </trkpt>
      <trkpt lat="46.96265" lon="2.2465">
        <ele>141</ele>
        <time>2018-04-16T17:42:26Z</time>
      </trkpt>
      <trkpt lat="46.96265" lon="2.2465">
        <ele>141</ele>
        <time>2018-04-16T17:42:27Z</time>
      </trkpt>
      <trkpt lat="46.96265" lon="2.24651">
        <ele>141</ele>
        <time>2018-04-16T17:42:40Z</time>
      </trkpt>
      <trkpt lat="46.96265" lon="2.24651">
        <ele>141</ele>
        <time>2018-04-16T17:42:41Z</time>
      </trkpt>
      <trkpt lat="46.96265" lon="2.24651">
        <ele>141</ele>
        <time>2018-04-16T17:42:51Z</time>
      </trkpt>
      <trkpt lat="46.96265" lon="2.24651">
        <ele>141</ele>
        <time>2018-04-16T17:43:08Z</time>
      </trkpt>
      <trkpt lat="46.96265" lon="2.24651">
        <ele>141</ele>
        <time>2018-04-16T17:43:18Z</time>
      </trkpt>
      <trkpt lat="46.96265" lon="2.24651">
        <ele>141</ele>
        <time>2018-04-16T17:43:27Z</time>
      </trkpt>
      <trkpt lat="46.96265" lon="2.24651">
        <ele>141</ele>
        <time>2018-04-16T17:43:28Z</time>
      </trkpt>
      <trkpt lat="46.96265" lon="2.24651">
        <ele>141</ele>
        <time>2018-04-16T17:43:32Z</time>
      </trkpt>
      <trkpt lat="46.96265" lon="2.24651">
        <ele>141</ele>
        <time>2018-04-16T17:43:35Z</time>
      </trkpt>
      <trkpt lat="46.96268" lon="2.2465">
        <ele>141</ele>
        <time>2018-04-16T17:43:37Z</time>
      </trkpt>
      <trkpt lat="46.96277" lon="2.24647">
        <ele>141</ele>
        <time>2018-04-16T17:43:40Z</time>
      </trkpt>
      <trkpt lat="46.96291" lon="2.24638">
        <ele>140</ele>
        <time>2018-04-16T17:43:44Z</time>
      </trkpt>
      <trkpt lat="46.96302" lon="2.24632">
        <ele>140</ele>
        <time>2018-04-16T17:43:47Z</time>
      </trkpt>
      <trkpt lat="46.9631" lon="2.24627">
        <ele>140</ele>
        <time>2018-04-16T17:43:49Z</time>
      </trkpt>
      <trkpt lat="46.96319" lon="2.24621">
        <ele>140</ele>
        <time>2018-04-16T17:43:51Z</time>
      </trkpt>
      <trkpt lat="46.96344" lon="2.24604">
        <ele>136</ele>
        <time>2018-04-16T17:43:56Z</time>
      </trkpt>
      <trkpt lat="46.96349" lon="2.246">
        <ele>136</ele>
        <time>2018-04-16T17:43:57Z</time>
      </trkpt>
      <trkpt lat="46.96355" lon="2.24596">
        <ele>136</ele>
        <time>2018-04-16T17:43:58Z</time>
      </trkpt>
      <trkpt lat="46.96367" lon="2.24588">
        <ele>135</ele>
        <time>2018-04-16T17:44:00Z</time>
      </trkpt>
      <trkpt lat="46.96382" lon="2.24579">
        <ele>134</ele>
        <time>2018-04-16T17:44:02Z</time>
      </trkpt>
      <trkpt lat="46.96397" lon="2.2457">
        <ele>134</ele>
        <time>2018-04-16T17:44:04Z</time>
      </trkpt>
      <trkpt lat="46.9645" lon="2.2455">
        <ele>135</ele>
        <time>2018-04-16T17:44:12Z</time>
      </trkpt>
      <trkpt lat="46.96481" lon="2.2454">
        <ele>136</ele>
        <time>2018-04-16T17:44:23Z</time>
      </trkpt>
      <trkpt lat="46.96534" lon="2.24517">
        <ele>139</ele>
        <time>2018-04-16T17:44:47Z</time>
      </trkpt>
      <trkpt lat="46.96549" lon="2.24509">
        <ele>139</ele>
        <time>2018-04-16T17:44:55Z</time>
      </trkpt>
      <trkpt lat="46.96563" lon="2.24503">
        <ele>140</ele>
        <time>2018-04-16T17:45:03Z</time>
      </trkpt>
      <trkpt lat="46.96571" lon="2.245">
        <ele>140</ele>
        <time>2018-04-16T17:45:07Z</time>
      </trkpt>
      <trkpt lat="46.96581" lon="2.24496">
        <ele>141</ele>
        <time>2018-04-16T17:45:12Z</time>
      </trkpt>
      <trkpt lat="46.96597" lon="2.24489">
        <ele>141</ele>
        <time>2018-04-16T17:45:19Z</time>
      </trkpt>
      <trkpt lat="46.966" lon="2.24488">
        <ele>141</ele>
        <time>2018-04-16T17:45:20Z</time>
      </trkpt>
      <trkpt lat="46.96602" lon="2.24487">
        <ele>141</ele>
        <time>2018-04-16T17:45:21Z</time>
      </trkpt>
      <trkpt lat="46.96605" lon="2.24487">
        <ele>141</ele>
        <time>2018-04-16T17:45:22Z</time>
      </trkpt>
      <trkpt lat="46.96607" lon="2.24486">
        <ele>141</ele>
        <time>2018-04-16T17:45:23Z</time>
      </trkpt>
      <trkpt lat="46.96628" lon="2.24477">
        <ele>141</ele>
        <time>2018-04-16T17:45:45Z</time>
      </trkpt>
      <trkpt lat="46.96651" lon="2.24451">
        <ele>141</ele>
        <time>2018-04-16T17:45:51Z</time>
      </trkpt>
      <trkpt lat="46.96663" lon="2.24441">
        <ele>141</ele>
        <time>2018-04-16T17:45:54Z</time>
      </trkpt>
      <trkpt lat="46.96705" lon="2.24437">
        <ele>144</ele>
        <time>2018-04-16T17:46:07Z</time>
      </trkpt>
      <trkpt lat="46.96761" lon="2.24445">
        <ele>148</ele>
        <time>2018-04-16T17:46:28Z</time>
      </trkpt>
      <trkpt lat="46.96816" lon="2.24437">
        <ele>148</ele>
        <time>2018-04-16T17:46:50Z</time>
      </trkpt>
      <trkpt lat="46.96868" lon="2.24424">
        <ele>149</ele>
        <time>2018-04-16T17:47:11Z</time>
      </trkpt>
      <trkpt lat="46.96907" lon="2.24417">
        <ele>149</ele>
        <time>2018-04-16T17:47:27Z</time>
      </trkpt>
      <trkpt lat="46.96937" lon="2.24419">
        <ele>150</ele>
        <time>2018-04-16T17:47:39Z</time>
      </trkpt>
      <trkpt lat="46.96992" lon="2.24432">
        <ele>151</ele>
        <time>2018-04-16T17:48:01Z</time>
      </trkpt>
      <trkpt lat="46.97008" lon="2.24435">
        <ele>151</ele>
        <time>2018-04-16T17:48:08Z</time>
      </trkpt>
      <trkpt lat="46.97025" lon="2.24439">
        <ele>151</ele>
        <time>2018-04-16T17:48:15Z</time>
      </trkpt>
      <trkpt lat="46.97037" lon="2.24441">
        <ele>151</ele>
        <time>2018-04-16T17:48:20Z</time>
      </trkpt>
      <trkpt lat="46.97046" lon="2.24442">
        <ele>151</ele>
        <time>2018-04-16T17:48:24Z</time>
      </trkpt>
      <trkpt lat="46.97056" lon="2.24444">
        <ele>151</ele>
        <time>2018-04-16T17:48:28Z</time>
      </trkpt>
      <trkpt lat="46.97108" lon="2.24446">
        <ele>152</ele>
        <time>2018-04-16T17:48:49Z</time>
      </trkpt>
      <trkpt lat="46.9711" lon="2.24445">
        <ele>152</ele>
        <time>2018-04-16T17:48:50Z</time>
      </trkpt>
      <trkpt lat="46.97138" lon="2.24441">
        <ele>153</ele>
        <time>2018-04-16T17:49:00Z</time>
      </trkpt>
      <trkpt lat="46.97141" lon="2.2444">
        <ele>153</ele>
        <time>2018-04-16T17:49:01Z</time>
      </trkpt>
      <trkpt lat="46.97144" lon="2.2444">
        <ele>153</ele>
        <time>2018-04-16T17:49:02Z</time>
      </trkpt>
      <trkpt lat="46.97152" lon="2.24438">
        <ele>153</ele>
        <time>2018-04-16T17:49:05Z</time>
      </trkpt>
      <trkpt lat="46.97154" lon="2.24437">
        <ele>153</ele>
        <time>2018-04-16T17:49:06Z</time>
      </trkpt>
      <trkpt lat="46.97162" lon="2.24433">
        <ele>153</ele>
        <time>2018-04-16T17:49:09Z</time>
      </trkpt>
      <trkpt lat="46.97177" lon="2.24429">
        <ele>154</ele>
        <time>2018-04-16T17:49:14Z</time>
      </trkpt>
      <trkpt lat="46.97232" lon="2.24412">
        <ele>155</ele>
        <time>2018-04-16T17:49:32Z</time>
      </trkpt>
      <trkpt lat="46.97269" lon="2.244">
        <ele>154</ele>
        <time>2018-04-16T17:49:45Z</time>
      </trkpt>
      <trkpt lat="46.97304" lon="2.24388">
        <ele>153</ele>
        <time>2018-04-16T17:49:56Z</time>
      </trkpt>
      <trkpt lat="46.97307" lon="2.24387">
        <ele>153</ele>
        <time>2018-04-16T17:49:57Z</time>
      </trkpt>
      <trkpt lat="46.97313" lon="2.24385">
        <ele>153</ele>
        <time>2018-04-16T17:49:59Z</time>
      </trkpt>
      <trkpt lat="46.97339" lon="2.24374">
        <ele>152</ele>
        <time>2018-04-16T17:50:09Z</time>
      </trkpt>
      <trkpt lat="46.97382" lon="2.24359">
        <ele>152</ele>
        <time>2018-04-16T17:50:22Z</time>
      </trkpt>
      <trkpt lat="46.97438" lon="2.24341">
        <ele>153</ele>
        <time>2018-04-16T17:50:37Z</time>
      </trkpt>
      <trkpt lat="46.97474" lon="2.24324">
        <ele>152</ele>
        <time>2018-04-16T17:50:48Z</time>
      </trkpt>
      <trkpt lat="46.97493" lon="2.24317">
        <ele>153</ele>
        <time>2018-04-16T17:50:53Z</time>
      </trkpt>
      <trkpt lat="46.97543" lon="2.24295">
        <ele>154</ele>
        <time>2018-04-16T17:51:07Z</time>
      </trkpt>
      <trkpt lat="46.97596" lon="2.24265">
        <ele>154</ele>
        <time>2018-04-16T17:51:25Z</time>
      </trkpt>
      <trkpt lat="46.97602" lon="2.2426">
        <ele>154</ele>
        <time>2018-04-16T17:51:27Z</time>
      </trkpt>
      <trkpt lat="46.97604" lon="2.24258">
        <ele>154</ele>
        <time>2018-04-16T17:51:28Z</time>
      </trkpt>
      <trkpt lat="46.97613" lon="2.2425">
        <ele>154</ele>
        <time>2018-04-16T17:51:31Z</time>
      </trkpt>
      <trkpt lat="46.97615" lon="2.24248">
        <ele>155</ele>
        <time>2018-04-16T17:51:32Z</time>
      </trkpt>
      <trkpt lat="46.97618" lon="2.24245">
        <ele>155</ele>
        <time>2018-04-16T17:51:33Z</time>
      </trkpt>
      <trkpt lat="46.97646" lon="2.24239">
        <ele>154</ele>
        <time>2018-04-16T17:51:44Z</time>
      </trkpt>
      <trkpt lat="46.97651" lon="2.24239">
        <ele>154</ele>
        <time>2018-04-16T17:51:47Z</time>
      </trkpt>
      <trkpt lat="46.97653" lon="2.24239">
        <ele>154</ele>
        <time>2018-04-16T17:51:48Z</time>
      </trkpt>
      <trkpt lat="46.9766" lon="2.24239">
        <ele>154</ele>
        <time>2018-04-16T17:51:54Z</time>
      </trkpt>
      <trkpt lat="46.97663" lon="2.24239">
        <ele>154</ele>
        <time>2018-04-16T17:51:57Z</time>
      </trkpt>
      <trkpt lat="46.9767" lon="2.24243">
        <ele>154</ele>
        <time>2018-04-16T17:52:02Z</time>
      </trkpt>
      <trkpt lat="46.97671" lon="2.24243">
        <ele>154</ele>
        <time>2018-04-16T17:52:08Z</time>
      </trkpt>
      <trkpt lat="46.97671" lon="2.24243">
        <ele>154</ele>
        <time>2018-04-16T17:52:29Z</time>
      </trkpt>
      <trkpt lat="46.97671" lon="2.24243">
        <ele>154</ele>
        <time>2018-04-16T17:52:34Z</time>
      </trkpt>
      <trkpt lat="46.97671" lon="2.24243">
        <ele>154</ele>
        <time>2018-04-16T17:52:38Z</time>
      </trkpt>
      <trkpt lat="46.97671" lon="2.24243">
        <ele>154</ele>
        <time>2018-04-16T17:52:52Z</time>
      </trkpt>
      <trkpt lat="46.97671" lon="2.24243">
        <ele>154</ele>
        <time>2018-04-16T17:53:07Z</time>
      </trkpt>
      <trkpt lat="46.97671" lon="2.24243">
        <ele>154</ele>
        <time>2018-04-16T17:53:22Z</time>
      </trkpt>
      <trkpt lat="46.97671" lon="2.24243">
        <ele>154</ele>
        <time>2018-04-16T17:53:44Z</time>
      </trkpt>
      <trkpt lat="46.97671" lon="2.24243">
        <ele>154</ele>
        <time>2018-04-16T17:53:49Z</time>
      </trkpt>
      <trkpt lat="46.97671" lon="2.24243">
        <ele>154</ele>
        <time>2018-04-16T17:53:55Z</time>
      </trkpt>
      <trkpt lat="46.97671" lon="2.24243">
        <ele>154</ele>
        <time>2018-04-16T17:53:56Z</time>
      </trkpt>
      <trkpt lat="46.97671" lon="2.24243">
        <ele>154</ele>
        <time>2018-04-16T17:54:01Z</time>
      </trkpt>
      <trkpt lat="46.97671" lon="2.24243">
        <ele>154</ele>
        <time>2018-04-16T17:54:02Z</time>
      </trkpt>
      <trkpt lat="46.97671" lon="2.24243">
        <ele>154</ele>
        <time>2018-04-16T17:54:14Z</time>
      </trkpt>
      <trkpt lat="46.97671" lon="2.24243">
        <ele>154</ele>
        <time>2018-04-16T17:54:20Z</time>
      </trkpt>
      <trkpt lat="46.97671" lon="2.24243">
        <ele>154</ele>
        <time>2018-04-16T17:54:27Z</time>
      </trkpt>
      <trkpt lat="46.97671" lon="2.24243">
        <ele>154</ele>
        <time>2018-04-16T17:54:31Z</time>
      </trkpt>
      <trkpt lat="46.97671" lon="2.24243">
        <ele>154</ele>
        <time>2018-04-16T17:54:32Z</time>
      </trkpt>
      <trkpt lat="46.97671" lon="2.24243">
        <ele>154</ele>
        <time>2018-04-16T17:54:41Z</time>
      </trkpt>
      <trkpt lat="46.97671" lon="2.24243">
        <ele>154</ele>
        <time>2018-04-16T17:54:43Z</time>
      </trkpt>
      <trkpt lat="46.97671" lon="2.24243">
        <ele>154</ele>
        <time>2018-04-16T17:54:45Z</time>
      </trkpt>
      <trkpt lat="46.97671" lon="2.24243">
        <ele>154</ele>
        <time>2018-04-16T17:54:52Z</time>
      </trkpt>
      <trkpt lat="46.97671" lon="2.24243">
        <ele>154</ele>
        <time>2018-04-16T17:54:58Z</time>
      </trkpt>
      <trkpt lat="46.97671" lon="2.24243">
        <ele>154</ele>
        <time>2018-04-16T17:55:12Z</time>
      </trkpt>
      <trkpt lat="46.97671" lon="2.24243">
        <ele>154</ele>
        <time>2018-04-16T17:55:20Z</time>
      </trkpt>
      <trkpt lat="46.97671" lon="2.24243">
        <ele>154</ele>
        <time>2018-04-16T17:55:29Z</time>
      </trkpt>
      <trkpt lat="46.97671" lon="2.24243">
        <ele>154</ele>
        <time>2018-04-16T17:55:48Z</time>
      </trkpt>
      <trkpt lat="46.97671" lon="2.24245">
        <ele>154</ele>
        <time>2018-04-16T17:56:24Z</time>
      </trkpt>
      <trkpt lat="46.97671" lon="2.24245">
        <ele>154</ele>
        <time>2018-04-16T17:56:33Z</time>
      </trkpt>
      <trkpt lat="46.97672" lon="2.24245">
        <ele>154</ele>
        <time>2018-04-16T17:56:34Z</time>
      </trkpt>
      <trkpt lat="46.97672" lon="2.24246">
        <ele>154</ele>
        <time>2018-04-16T17:56:36Z</time>
      </trkpt>
      <trkpt lat="46.97672" lon="2.24246">
        <ele>154</ele>
        <time>2018-04-16T17:56:38Z</time>
      </trkpt>
      <trkpt lat="46.97672" lon="2.24246">
        <ele>154</ele>
        <time>2018-04-16T17:56:39Z</time>
      </trkpt>
      <trkpt lat="46.97673" lon="2.24245">
        <ele>154</ele>
        <time>2018-04-16T17:56:41Z</time>
      </trkpt>
      <trkpt lat="46.97673" lon="2.24245">
        <ele>154</ele>
        <time>2018-04-16T17:56:42Z</time>
      </trkpt>
      <trkpt lat="46.97673" lon="2.24245">
        <ele>154</ele>
        <time>2018-04-16T17:56:45Z</time>
      </trkpt>
      <trkpt lat="46.97673" lon="2.24245">
        <ele>154</ele>
        <time>2018-04-16T17:56:46Z</time>
      </trkpt>
      <trkpt lat="46.97673" lon="2.24245">
        <ele>154</ele>
        <time>2018-04-16T17:56:47Z</time>
      </trkpt>
      <trkpt lat="46.97673" lon="2.24245">
        <ele>154</ele>
        <time>2018-04-16T17:56:49Z</time>
      </trkpt>
      <trkpt lat="46.97673" lon="2.24245">
        <ele>154</ele>
        <time>2018-04-16T17:57:02Z</time>
      </trkpt>
      <trkpt lat="46.97673" lon="2.24245">
        <ele>154</ele>
        <time>2018-04-16T17:57:04Z</time>
      </trkpt>
      <trkpt lat="46.97673" lon="2.24245">
        <ele>154</ele>
        <time>2018-04-16T17:57:06Z</time>
      </trkpt>
      <trkpt lat="46.97673" lon="2.24245">
        <ele>154</ele>
        <time>2018-04-16T17:57:11Z</time>
      </trkpt>
      <trkpt lat="46.97673" lon="2.24245">
        <ele>154</ele>
        <time>2018-04-16T17:57:19Z</time>
      </trkpt>
      <trkpt lat="46.97673" lon="2.24245">
        <ele>154</ele>
        <time>2018-04-16T17:57:24Z</time>
      </trkpt>
      <trkpt lat="46.97673" lon="2.24245">
        <ele>154</ele>
        <time>2018-04-16T17:58:36Z</time>
      </trkpt>
      <trkpt lat="46.97673" lon="2.24245">
        <ele>154</ele>
        <time>2018-04-16T17:58:43Z</time>
      </trkpt>
      <trkpt lat="46.97673" lon="2.24245">
        <ele>154</ele>
        <time>2018-04-16T17:58:44Z</time>
      </trkpt>
      <trkpt lat="46.97673" lon="2.24244">
        <ele>154</ele>
        <time>2018-04-16T17:58:52Z</time>
      </trkpt>
      <trkpt lat="46.97673" lon="2.24244">
        <ele>154</ele>
        <time>2018-04-16T17:59:10Z</time>
      </trkpt>
      <trkpt lat="46.97673" lon="2.24244">
        <ele>154</ele>
        <time>2018-04-16T17:59:12Z</time>
      </trkpt>
      <trkpt lat="46.97673" lon="2.24244">
        <ele>154</ele>
        <time>2018-04-16T17:59:14Z</time>
      </trkpt>
      <trkpt lat="46.97673" lon="2.24244">
        <ele>154</ele>
        <time>2018-04-16T17:59:15Z</time>
      </trkpt>
      <trkpt lat="46.97673" lon="2.24244">
        <ele>154</ele>
        <time>2018-04-16T17:59:17Z</time>
      </trkpt>
      <trkpt lat="46.97673" lon="2.24244">
        <ele>154</ele>
        <time>2018-04-16T17:59:18Z</time>
      </trkpt>
      <trkpt lat="46.97673" lon="2.24244">
        <ele>154</ele>
        <time>2018-04-16T17:59:21Z</time>
      </trkpt>
      <trkpt lat="46.97673" lon="2.24244">
        <ele>154</ele>
        <time>2018-04-16T17:59:23Z</time>
      </trkpt>
      <trkpt lat="46.97673" lon="2.24244">
        <ele>154</ele>
        <time>2018-04-16T17:59:24Z</time>
      </trkpt>
      <trkpt lat="46.97673" lon="2.24244">
        <ele>154</ele>
        <time>2018-04-16T17:59:56Z</time>
      </trkpt>
      <trkpt lat="46.97673" lon="2.24244">
        <ele>154</ele>
        <time>2018-04-16T18:00:11Z</time>
      </trkpt>
      <trkpt lat="46.97673" lon="2.24243">
        <ele>154</ele>
        <time>2018-04-16T18:00:38Z</time>
      </trkpt>
      <trkpt lat="46.97673" lon="2.24243">
        <ele>154</ele>
        <time>2018-04-16T18:00:40Z</time>
      </trkpt>
      <trkpt lat="46.97673" lon="2.24243">
        <ele>154</ele>
        <time>2018-04-16T18:00:46Z</time>
      </trkpt>
      <trkpt lat="46.97673" lon="2.24243">
        <ele>154</ele>
        <time>2018-04-16T18:00:49Z</time>
      </trkpt>
      <trkpt lat="46.97673" lon="2.24243">
        <ele>154</ele>
        <time>2018-04-16T18:00:56Z</time>
      </trkpt>
      <trkpt lat="46.97673" lon="2.24243">
        <ele>154</ele>
        <time>2018-04-16T18:00:58Z</time>
      </trkpt>
      <trkpt lat="46.97673" lon="2.24243">
        <ele>154</ele>
        <time>2018-04-16T18:00:59Z</time>
      </trkpt>
      <trkpt lat="46.97673" lon="2.24243">
        <ele>154</ele>
        <time>2018-04-16T18:01:00Z</time>
      </trkpt>
      <trkpt lat="46.97673" lon="2.24243">
        <ele>154</ele>
        <time>2018-04-16T18:01:02Z</time>
      </trkpt>
      <trkpt lat="46.97673" lon="2.24244">
        <ele>154</ele>
        <time>2018-04-16T18:01:04Z</time>
      </trkpt>
      <trkpt lat="46.97674" lon="2.24244">
        <ele>154</ele>
        <time>2018-04-16T18:01:09Z</time>
      </trkpt>
      <trkpt lat="46.97674" lon="2.24244">
        <ele>154</ele>
        <time>2018-04-16T18:01:13Z</time>
      </trkpt>
      <trkpt lat="46.97674" lon="2.24244">
        <ele>154</ele>
        <time>2018-04-16T18:01:18Z</time>
      </trkpt>
      <trkpt lat="46.97674" lon="2.24244">
        <ele>154</ele>
        <time>2018-04-16T18:01:23Z</time>
      </trkpt>
      <trkpt lat="46.97674" lon="2.24244">
        <ele>154</ele>
        <time>2018-04-16T18:01:24Z</time>
      </trkpt>
      <trkpt lat="46.97674" lon="2.24244">
        <ele>154</ele>
        <time>2018-04-16T18:01:26Z</time>
      </trkpt>
      <trkpt lat="46.97674" lon="2.24245">
        <ele>154</ele>
        <time>2018-04-16T18:01:58Z</time>
      </trkpt>
      <trkpt lat="46.97674" lon="2.24245">
        <ele>154</ele>
        <time>2018-04-16T18:02:03Z</time>
      </trkpt>
      <trkpt lat="46.97674" lon="2.24245">
        <ele>154</ele>
        <time>2018-04-16T18:02:08Z</time>
      </trkpt>
      <trkpt lat="46.97674" lon="2.24245">
        <ele>154</ele>
        <time>2018-04-16T18:02:14Z</time>
      </trkpt>
      <trkpt lat="46.97674" lon="2.24245">
        <ele>154</ele>
        <time>2018-04-16T18:02:21Z</time>
      </trkpt>
      <trkpt lat="46.97674" lon="2.24245">
        <ele>154</ele>
        <time>2018-04-16T18:02:22Z</time>
      </trkpt>
      <trkpt lat="46.97674" lon="2.24245">
        <ele>154</ele>
        <time>2018-04-16T18:02:23Z</time>
      </trkpt>
      <trkpt lat="46.97674" lon="2.24245">
        <ele>154</ele>
        <time>2018-04-16T18:02:24Z</time>
      </trkpt>
      <trkpt lat="46.97674" lon="2.24245">
        <ele>154</ele>
        <time>2018-04-16T18:02:25Z</time>
      </trkpt>
      <trkpt lat="46.97675" lon="2.24245">
        <ele>154</ele>
        <time>2018-04-16T18:02:43Z</time>
      </trkpt>
      <trkpt lat="46.97675" lon="2.24245">
        <ele>154</ele>
        <time>2018-04-16T18:02:44Z</time>
      </trkpt>
      <trkpt lat="46.97675" lon="2.24245">
        <ele>154</ele>
        <time>2018-04-16T18:02:47Z</time>
      </trkpt>
      <trkpt lat="46.97675" lon="2.24245">
        <ele>154</ele>
        <time>2018-04-16T18:02:49Z</time>
      </trkpt>
      <trkpt lat="46.97675" lon="2.24245">
        <ele>154</ele>
        <time>2018-04-16T18:02:50Z</time>
      </trkpt>
      <trkpt lat="46.97675" lon="2.24245">
        <ele>154</ele>
        <time>2018-04-16T18:02:51Z</time>
      </trkpt>
      <trkpt lat="46.97675" lon="2.24245">
        <ele>154</ele>
        <time>2018-04-16T18:02:52Z</time>
      </trkpt>
      <trkpt lat="46.97676" lon="2.24245">
        <ele>154</ele>
        <time>2018-04-16T18:02:53Z</time>
      </trkpt>
      <trkpt lat="46.97675" lon="2.24245">
        <ele>154</ele>
        <time>2018-04-16T18:02:56Z</time>
      </trkpt>
      <trkpt lat="46.97676" lon="2.24245">
        <ele>154</ele>
        <time>2018-04-16T18:02:58Z</time>
      </trkpt>
      <trkpt lat="46.97675" lon="2.24245">
        <ele>154</ele>
        <time>2018-04-16T18:02:59Z</time>
      </trkpt>
      <trkpt lat="46.97676" lon="2.24244">
        <ele>154</ele>
        <time>2018-04-16T18:03:10Z</time>
      </trkpt>
      <trkpt lat="46.97676" lon="2.24244">
        <ele>154</ele>
        <time>2018-04-16T18:03:28Z</time>
      </trkpt>
      <trkpt lat="46.97676" lon="2.24244">
        <ele>154</ele>
        <time>2018-04-16T18:03:30Z</time>
      </trkpt>
      <trkpt lat="46.97676" lon="2.24244">
        <ele>154</ele>
        <time>2018-04-16T18:03:31Z</time>
      </trkpt>
      <trkpt lat="46.97676" lon="2.24244">
        <ele>154</ele>
        <time>2018-04-16T18:03:32Z</time>
      </trkpt>
      <trkpt lat="46.97676" lon="2.24245">
        <ele>154</ele>
        <time>2018-04-16T18:03:34Z</time>
      </trkpt>
      <trkpt lat="46.97676" lon="2.24245">
        <ele>154</ele>
        <time>2018-04-16T18:03:38Z</time>
      </trkpt>
      <trkpt lat="46.97676" lon="2.24245">
        <ele>154</ele>
        <time>2018-04-16T18:03:39Z</time>
      </trkpt>
      <trkpt lat="46.97676" lon="2.24245">
        <ele>154</ele>
        <time>2018-04-16T18:04:07Z</time>
      </trkpt>
      <trkpt lat="46.97676" lon="2.24244">
        <ele>154</ele>
        <time>2018-04-16T18:04:13Z</time>
      </trkpt>
      <trkpt lat="46.97676" lon="2.24244">
        <ele>154</ele>
        <time>2018-04-16T18:04:20Z</time>
      </trkpt>
      <trkpt lat="46.97676" lon="2.24244">
        <ele>154</ele>
        <time>2018-04-16T18:04:24Z</time>
      </trkpt>
      <trkpt lat="46.97676" lon="2.24244">
        <ele>154</ele>
        <time>2018-04-16T18:04:36Z</time>
      </trkpt>
      <trkpt lat="46.97676" lon="2.24243">
        <ele>154</ele>
        <time>2018-04-16T18:04:55Z</time>
      </trkpt>
      <trkpt lat="46.97676" lon="2.24243">
        <ele>154</ele>
        <time>2018-04-16T18:04:56Z</time>
      </trkpt>
      <trkpt lat="46.97677" lon="2.24243">
        <ele>154</ele>
        <time>2018-04-16T18:04:57Z</time>
      </trkpt>
      <trkpt lat="46.97677" lon="2.24244">
        <ele>154</ele>
        <time>2018-04-16T18:05:01Z</time>
      </trkpt>
      <trkpt lat="46.97677" lon="2.24244">
        <ele>154</ele>
        <time>2018-04-16T18:05:04Z</time>
      </trkpt>
      <trkpt lat="46.97677" lon="2.24244">
        <ele>154</ele>
        <time>2018-04-16T18:05:06Z</time>
      </trkpt>
      <trkpt lat="46.97677" lon="2.24244">
        <ele>154</ele>
        <time>2018-04-16T18:05:09Z</time>
      </trkpt>
      <trkpt lat="46.97677" lon="2.24244">
        <ele>154</ele>
        <time>2018-04-16T18:05:13Z</time>
      </trkpt>
      <trkpt lat="46.97677" lon="2.24244">
        <ele>154</ele>
        <time>2018-04-16T18:05:16Z</time>
      </trkpt>
      <trkpt lat="46.97677" lon="2.24244">
        <ele>154</ele>
        <time>2018-04-16T18:05:17Z</time>
      </trkpt>
      <trkpt lat="46.97679" lon="2.24244">
        <ele>154</ele>
        <time>2018-04-16T18:05:24Z</time>
      </trkpt>
      <trkpt lat="46.9768" lon="2.24244">
        <ele>154</ele>
        <time>2018-04-16T18:05:25Z</time>
      </trkpt>
      <trkpt lat="46.97689" lon="2.24242">
        <ele>154</ele>
        <time>2018-04-16T18:05:29Z</time>
      </trkpt>
      <trkpt lat="46.97744" lon="2.24227">
        <ele>154</ele>
        <time>2018-04-16T18:05:46Z</time>
      </trkpt>
      <trkpt lat="46.9777" lon="2.24213">
        <ele>154</ele>
        <time>2018-04-16T18:05:53Z</time>
      </trkpt>
      <trkpt lat="46.97821" lon="2.24179">
        <ele>155</ele>
        <time>2018-04-16T18:06:07Z</time>
      </trkpt>
      <trkpt lat="46.97842" lon="2.24165">
        <ele>155</ele>
        <time>2018-04-16T18:06:13Z</time>
      </trkpt>
      <trkpt lat="46.97894" lon="2.24127">
        <ele>153</ele>
        <time>2018-04-16T18:06:28Z</time>
      </trkpt>
      <trkpt lat="46.97944" lon="2.24088">
        <ele>152</ele>
        <time>2018-04-16T18:06:42Z</time>
      </trkpt>
      <trkpt lat="46.9799" lon="2.24059">
        <ele>153</ele>
        <time>2018-04-16T18:06:54Z</time>
      </trkpt>
      <trkpt lat="46.98034" lon="2.24031">
        <ele>152</ele>
        <time>2018-04-16T18:07:04Z</time>
      </trkpt>
      <trkpt lat="46.98084" lon="2.23996">
        <ele>152</ele>
        <time>2018-04-16T18:07:18Z</time>
      </trkpt>
      <trkpt lat="46.98136" lon="2.23963">
        <ele>152</ele>
        <time>2018-04-16T18:07:35Z</time>
      </trkpt>
      <trkpt lat="46.98187" lon="2.23929">
        <ele>150</ele>
        <time>2018-04-16T18:07:49Z</time>
      </trkpt>
      <trkpt lat="46.98198" lon="2.23917">
        <ele>150</ele>
        <time>2018-04-16T18:07:57Z</time>
      </trkpt>
      <trkpt lat="46.98198" lon="2.23911">
        <ele>150</ele>
        <time>2018-04-16T18:08:00Z</time>
      </trkpt>
      <trkpt lat="46.98189" lon="2.23885">
        <ele>150</ele>
        <time>2018-04-16T18:08:07Z</time>
      </trkpt>
      <trkpt lat="46.98187" lon="2.23876">
        <ele>149</ele>
        <time>2018-04-16T18:08:09Z</time>
      </trkpt>
      <trkpt lat="46.9819" lon="2.23868">
        <ele>149</ele>
        <time>2018-04-16T18:08:11Z</time>
      </trkpt>
      <trkpt lat="46.98211" lon="2.23873">
        <ele>149</ele>
        <time>2018-04-16T18:08:18Z</time>
      </trkpt>
      <trkpt lat="46.98217" lon="2.23877">
        <ele>149</ele>
        <time>2018-04-16T18:08:22Z</time>
      </trkpt>
      <trkpt lat="46.98216" lon="2.23877">
        <ele>149</ele>
        <time>2018-04-16T18:08:26Z</time>
      </trkpt>
      <trkpt lat="46.98216" lon="2.23877">
        <ele>149</ele>
        <time>2018-04-16T18:08:32Z</time>
      </trkpt>
      <trkpt lat="46.98225" lon="2.23882">
        <ele>149</ele>
        <time>2018-04-16T18:08:43Z</time>
      </trkpt>
      <trkpt lat="46.98277" lon="2.23905">
        <ele>148</ele>
        <time>2018-04-16T18:08:59Z</time>
      </trkpt>
      <trkpt lat="46.98279" lon="2.23905">
        <ele>148</ele>
        <time>2018-04-16T18:09:06Z</time>
      </trkpt>
      <trkpt lat="46.98279" lon="2.23905">
        <ele>148</ele>
        <time>2018-04-16T18:09:07Z</time>
      </trkpt>
      <trkpt lat="46.98279" lon="2.23905">
        <ele>148</ele>
        <time>2018-04-16T18:09:08Z</time>
      </trkpt>
      <trkpt lat="46.98279" lon="2.23905">
        <ele>148</ele>
        <time>2018-04-16T18:09:11Z</time>
      </trkpt>
      <trkpt lat="46.98279" lon="2.23905">
        <ele>148</ele>
        <time>2018-04-16T18:09:13Z</time>
      </trkpt>
      <trkpt lat="46.98277" lon="2.2391">
        <ele>148</ele>
        <time>2018-04-16T18:09:19Z</time>
      </trkpt>
      <trkpt lat="46.98276" lon="2.23936">
        <ele>147</ele>
        <time>2018-04-16T18:09:23Z</time>
      </trkpt>
      <trkpt lat="46.98281" lon="2.24015">
        <ele>146</ele>
        <time>2018-04-16T18:09:32Z</time>
      </trkpt>
      <trkpt lat="46.98282" lon="2.24024">
        <ele>146</ele>
        <time>2018-04-16T18:09:33Z</time>
      </trkpt>
      <trkpt lat="46.98283" lon="2.24033">
        <ele>146</ele>
        <time>2018-04-16T18:09:34Z</time>
      </trkpt>
      <trkpt lat="46.98289" lon="2.24078">
        <ele>145</ele>
        <time>2018-04-16T18:09:39Z</time>
      </trkpt>
      <trkpt lat="46.98291" lon="2.24096">
        <ele>144</ele>
        <time>2018-04-16T18:09:41Z</time>
      </trkpt>
      <trkpt lat="46.98304" lon="2.2418">
        <ele>143</ele>
        <time>2018-04-16T18:09:51Z</time>
      </trkpt>
      <trkpt lat="46.98315" lon="2.24217">
        <ele>143</ele>
        <time>2018-04-16T18:09:56Z</time>
      </trkpt>
      <trkpt lat="46.98323" lon="2.24247">
        <ele>143</ele>
        <time>2018-04-16T18:10:00Z</time>
      </trkpt>
      <trkpt lat="46.98327" lon="2.24261">
        <ele>143</ele>
        <time>2018-04-16T18:10:02Z</time>
      </trkpt>
      <trkpt lat="46.98333" lon="2.24274">
        <ele>143</ele>
        <time>2018-04-16T18:10:04Z</time>
      </trkpt>
      <trkpt lat="46.98364" lon="2.24346">
        <ele>138</ele>
        <time>2018-04-16T18:10:15Z</time>
      </trkpt>
      <trkpt lat="46.98384" lon="2.24381">
        <ele>136</ele>
        <time>2018-04-16T18:10:21Z</time>
      </trkpt>
      <trkpt lat="46.98421" lon="2.24441">
        <ele>131</ele>
        <time>2018-04-16T18:10:32Z</time>
      </trkpt>
      <trkpt lat="46.9845" lon="2.24484">
        <ele>128</ele>
        <time>2018-04-16T18:10:40Z</time>
      </trkpt>
      <trkpt lat="46.98484" lon="2.24545">
        <ele>126</ele>
        <time>2018-04-16T18:10:51Z</time>
      </trkpt>
      <trkpt lat="46.98522" lon="2.24607">
        <ele>125</ele>
        <time>2018-04-16T18:11:02Z</time>
      </trkpt>
      <trkpt lat="46.98561" lon="2.2467">
        <ele>125</ele>
        <time>2018-04-16T18:11:13Z</time>
      </trkpt>
      <trkpt lat="46.98575" lon="2.24692">
        <ele>124</ele>
        <time>2018-04-16T18:11:17Z</time>
      </trkpt>
      <trkpt lat="46.98611" lon="2.24751">
        <ele>121</ele>
        <time>2018-04-16T18:11:27Z</time>
      </trkpt>
      <trkpt lat="46.98636" lon="2.24792">
        <ele>122</ele>
        <time>2018-04-16T18:11:34Z</time>
      </trkpt>
      <trkpt lat="46.98643" lon="2.24804">
        <ele>122</ele>
        <time>2018-04-16T18:11:36Z</time>
      </trkpt>
      <trkpt lat="46.98679" lon="2.24863">
        <ele>127</ele>
        <time>2018-04-16T18:11:46Z</time>
      </trkpt>
      <trkpt lat="46.98704" lon="2.24903">
        <ele>129</ele>
        <time>2018-04-16T18:11:53Z</time>
      </trkpt>
      <trkpt lat="46.98724" lon="2.24937">
        <ele>134</ele>
        <time>2018-04-16T18:11:59Z</time>
      </trkpt>
      <trkpt lat="46.98746" lon="2.24967">
        <ele>137</ele>
        <time>2018-04-16T18:12:05Z</time>
      </trkpt>
      <trkpt lat="46.98756" lon="2.24972">
        <ele>143</ele>
        <time>2018-04-16T18:12:07Z</time>
      </trkpt>
      <trkpt lat="46.98766" lon="2.24976">
        <ele>143</ele>
        <time>2018-04-16T18:12:09Z</time>
      </trkpt>
      <trkpt lat="46.9882" lon="2.24982">
        <ele>145</ele>
        <time>2018-04-16T18:12:25Z</time>
      </trkpt>
      <trkpt lat="46.98838" lon="2.24981">
        <ele>148</ele>
        <time>2018-04-16T18:12:34Z</time>
      </trkpt>
      <trkpt lat="46.98853" lon="2.24982">
        <ele>148</ele>
        <time>2018-04-16T18:13:13Z</time>
      </trkpt>
      <trkpt lat="46.98853" lon="2.24982">
        <ele>148</ele>
        <time>2018-04-16T18:13:27Z</time>
      </trkpt>
      <trkpt lat="46.98854" lon="2.24982">
        <ele>148</ele>
        <time>2018-04-16T18:13:53Z</time>
      </trkpt>
      <trkpt lat="46.98888" lon="2.24984">
        <ele>148</ele>
        <time>2018-04-16T18:14:05Z</time>
      </trkpt>
      <trkpt lat="46.98914" lon="2.24992">
        <ele>149</ele>
        <time>2018-04-16T18:14:13Z</time>
      </trkpt>
      <trkpt lat="46.98917" lon="2.24993">
        <ele>149</ele>
        <time>2018-04-16T18:14:14Z</time>
      </trkpt>
      <trkpt lat="46.98921" lon="2.24994">
        <ele>149</ele>
        <time>2018-04-16T18:14:15Z</time>
      </trkpt>
      <trkpt lat="46.98924" lon="2.24995">
        <ele>148</ele>
        <time>2018-04-16T18:14:16Z</time>
      </trkpt>
      <trkpt lat="46.98927" lon="2.24996">
        <ele>148</ele>
        <time>2018-04-16T18:14:17Z</time>
      </trkpt>
      <trkpt lat="46.98932" lon="2.24997">
        <ele>148</ele>
        <time>2018-04-16T18:14:19Z</time>
      </trkpt>
      <trkpt lat="46.98947" lon="2.25003">
        <ele>148</ele>
        <time>2018-04-16T18:14:26Z</time>
      </trkpt>
      <trkpt lat="46.98954" lon="2.25009">
        <ele>148</ele>
        <time>2018-04-16T18:14:31Z</time>
      </trkpt>
      <trkpt lat="46.98962" lon="2.25015">
        <ele>148</ele>
        <time>2018-04-16T18:14:35Z</time>
      </trkpt>
      <trkpt lat="46.99003" lon="2.25045">
        <ele>146</ele>
        <time>2018-04-16T18:14:45Z</time>
      </trkpt>
      <trkpt lat="46.99023" lon="2.25057">
        <ele>146</ele>
        <time>2018-04-16T18:14:52Z</time>
      </trkpt>
      <trkpt lat="46.99024" lon="2.25051">
        <ele>146</ele>
        <time>2018-04-16T18:14:54Z</time>
      </trkpt>
      <trkpt lat="46.99023" lon="2.25042">
        <ele>146</ele>
        <time>2018-04-16T18:14:56Z</time>
      </trkpt>
      <trkpt lat="46.9902" lon="2.2503">
        <ele>146</ele>
        <time>2018-04-16T18:14:58Z</time>
      </trkpt>
      <trkpt lat="46.99009" lon="2.24997">
        <ele>146</ele>
        <time>2018-04-16T18:15:03Z</time>
      </trkpt>
      <trkpt lat="46.98999" lon="2.24955">
        <ele>146</ele>
        <time>2018-04-16T18:15:09Z</time>
      </trkpt>
      <trkpt lat="46.98996" lon="2.24942">
        <ele>146</ele>
        <time>2018-04-16T18:15:11Z</time>
      </trkpt>
      <trkpt lat="46.98999" lon="2.24931">
        <ele>145</ele>
        <time>2018-04-16T18:15:13Z</time>
      </trkpt>
      <trkpt lat="46.99007" lon="2.24923">
        <ele>144</ele>
        <time>2018-04-16T18:15:15Z</time>
      </trkpt>
      <trkpt lat="46.99059" lon="2.249">
        <ele>140</ele>
        <time>2018-04-16T18:15:27Z</time>
      </trkpt>
      <trkpt lat="46.99064" lon="2.24898">
        <ele>140</ele>
        <time>2018-04-16T18:15:35Z</time>
      </trkpt>
      <trkpt lat="46.99064" lon="2.24898">
        <ele>140</ele>
        <time>2018-04-16T18:15:46Z</time>
      </trkpt>
      <trkpt lat="46.99064" lon="2.24888">
        <ele>140</ele>
        <time>2018-04-16T18:16:03Z</time>
      </trkpt>
      <trkpt lat="46.99066" lon="2.2488">
        <ele>140</ele>
        <time>2018-04-16T18:16:07Z</time>
      </trkpt>
      <trkpt lat="46.99077" lon="2.24883">
        <ele>140</ele>
        <time>2018-04-16T18:16:12Z</time>
      </trkpt>
      <trkpt lat="46.99107" lon="2.24867">
        <ele>138</ele>
        <time>2018-04-16T18:16:19Z</time>
      </trkpt>
      <trkpt lat="46.99159" lon="2.24843">
        <ele>137</ele>
        <time>2018-04-16T18:16:32Z</time>
      </trkpt>
      <trkpt lat="46.99163" lon="2.24835">
        <ele>137</ele>
        <time>2018-04-16T18:16:54Z</time>
      </trkpt>
      <trkpt lat="46.9917" lon="2.24826">
        <ele>137</ele>
        <time>2018-04-16T18:17:00Z</time>
      </trkpt>
      <trkpt lat="46.99147" lon="2.24797">
        <ele>136</ele>
        <time>2018-04-16T18:17:10Z</time>
      </trkpt>
      <trkpt lat="46.99171" lon="2.24724">
        <ele>134</ele>
        <time>2018-04-16T18:17:23Z</time>
      </trkpt>
      <trkpt lat="46.99183" lon="2.24641">
        <ele>130</ele>
        <time>2018-04-16T18:17:33Z</time>
      </trkpt>
      <trkpt lat="46.992" lon="2.24568">
        <ele>127</ele>
        <time>2018-04-16T18:17:50Z</time>
      </trkpt>
      <trkpt lat="46.99204" lon="2.24557">
        <ele>127</ele>
        <time>2018-04-16T18:17:52Z</time>
      </trkpt>
      <trkpt lat="46.99211" lon="2.24548">
        <ele>127</ele>
        <time>2018-04-16T18:17:54Z</time>
      </trkpt>
      <trkpt lat="46.99229" lon="2.24529">
        <ele>127</ele>
        <time>2018-04-16T18:18:27Z</time>
      </trkpt>
      <trkpt lat="46.99229" lon="2.24529">
        <ele>127</ele>
        <time>2018-04-16T18:18:34Z</time>
      </trkpt>
      <trkpt lat="46.99229" lon="2.24529">
        <ele>127</ele>
        <time>2018-04-16T18:18:41Z</time>
      </trkpt>
      <trkpt lat="46.9926" lon="2.245">
        <ele>128</ele>
        <time>2018-04-16T18:18:59Z</time>
      </trkpt>
      <trkpt lat="46.99305" lon="2.24456">
        <ele>127</ele>
        <time>2018-04-16T18:19:18Z</time>
      </trkpt>
      <trkpt lat="46.99306" lon="2.24455">
        <ele>127</ele>
        <time>2018-04-16T18:19:19Z</time>
      </trkpt>
      <trkpt lat="46.99312" lon="2.24455">
        <ele>127</ele>
        <time>2018-04-16T18:19:24Z</time>
      </trkpt>
      <trkpt lat="46.99319" lon="2.24417">
        <ele>127</ele>
        <time>2018-04-16T18:19:34Z</time>
      </trkpt>
      <trkpt lat="46.99336" lon="2.24352">
        <ele>126</ele>
        <time>2018-04-16T18:19:42Z</time>
      </trkpt>
      <trkpt lat="46.99367" lon="2.24305">
        <ele>125</ele>
        <time>2018-04-16T18:19:51Z</time>
      </trkpt>
      <trkpt lat="46.99375" lon="2.243">
        <ele>125</ele>
        <time>2018-04-16T18:19:53Z</time>
      </trkpt>
      <trkpt lat="46.99423" lon="2.24283">
        <ele>125</ele>
        <time>2018-04-16T18:20:11Z</time>
      </trkpt>
      <trkpt lat="46.99423" lon="2.24283">
        <ele>125</ele>
        <time>2018-04-16T18:20:14Z</time>
      </trkpt>
      <trkpt lat="46.99423" lon="2.24283">
        <ele>125</ele>
        <time>2018-04-16T18:20:18Z</time>
      </trkpt>
      <trkpt lat="46.99423" lon="2.24283">
        <ele>125</ele>
        <time>2018-04-16T18:20:19Z</time>
      </trkpt>
      <trkpt lat="46.99423" lon="2.24283">
        <ele>125</ele>
        <time>2018-04-16T18:20:20Z</time>
      </trkpt>
      <trkpt lat="46.99423" lon="2.24283">
        <ele>125</ele>
        <time>2018-04-16T18:20:22Z</time>
      </trkpt>
      <trkpt lat="46.99423" lon="2.24283">
        <ele>125</ele>
        <time>2018-04-16T18:20:24Z</time>
      </trkpt>
      <trkpt lat="46.99424" lon="2.24283">
        <ele>125</ele>
        <time>2018-04-16T18:20:29Z</time>
      </trkpt>
      <trkpt lat="46.99426" lon="2.24281">
        <ele>125</ele>
        <time>2018-04-16T18:20:31Z</time>
      </trkpt>
      <trkpt lat="46.99428" lon="2.24279">
        <ele>125</ele>
        <time>2018-04-16T18:20:33Z</time>
      </trkpt>
      <trkpt lat="46.99429" lon="2.24279">
        <ele>125</ele>
        <time>2018-04-16T18:20:37Z</time>
      </trkpt>
      <trkpt lat="46.99429" lon="2.24279">
        <ele>125</ele>
        <time>2018-04-16T18:20:38Z</time>
      </trkpt>
      <trkpt lat="46.99429" lon="2.24279">
        <ele>125</ele>
        <time>2018-04-16T18:20:39Z</time>
      </trkpt>
      <trkpt lat="46.99429" lon="2.24279">
        <ele>125</ele>
        <time>2018-04-16T18:20:40Z</time>
      </trkpt>
      <trkpt lat="46.9948" lon="2.24235">
        <ele>123</ele>
        <time>2018-04-16T18:21:09Z</time>
      </trkpt>
      <trkpt lat="46.99499" lon="2.24221">
        <ele>123</ele>
        <time>2018-04-16T18:21:13Z</time>
      </trkpt>
      <trkpt lat="46.99508" lon="2.24221">
        <ele>125</ele>
        <time>2018-04-16T18:21:15Z</time>
      </trkpt>
      <trkpt lat="46.99518" lon="2.24225">
        <ele>125</ele>
        <time>2018-04-16T18:21:17Z</time>
      </trkpt>
      <trkpt lat="46.99525" lon="2.24234">
        <ele>125</ele>
        <time>2018-04-16T18:21:19Z</time>
      </trkpt>
      <trkpt lat="46.99529" lon="2.24246">
        <ele>125</ele>
        <time>2018-04-16T18:21:21Z</time>
      </trkpt>
      <trkpt lat="46.99528" lon="2.24259">
        <ele>128</ele>
        <time>2018-04-16T18:21:23Z</time>
      </trkpt>
      <trkpt lat="46.99511" lon="2.24315">
        <ele>128</ele>
        <time>2018-04-16T18:21:36Z</time>
      </trkpt>
      <trkpt lat="46.99513" lon="2.24326">
        <ele>128</ele>
        <time>2018-04-16T18:21:59Z</time>
      </trkpt>
      <trkpt lat="46.9951" lon="2.24327">
        <ele>128</ele>
        <time>2018-04-16T18:22:04Z</time>
      </trkpt>
      <trkpt lat="46.99488" lon="2.24334">
        <ele>128</ele>
        <time>2018-04-16T18:22:12Z</time>
      </trkpt>
      <trkpt lat="46.99474" lon="2.24342">
        <ele>128</ele>
        <time>2018-04-16T18:22:17Z</time>
      </trkpt>
      <trkpt lat="46.99478" lon="2.24368">
        <ele>129</ele>
        <time>2018-04-16T18:22:28Z</time>
      </trkpt>
      <trkpt lat="46.99513" lon="2.24341">
        <ele>129</ele>
        <time>2018-04-16T18:22:59Z</time>
      </trkpt>
      <trkpt lat="46.99516" lon="2.24345">
        <ele>129</ele>
        <time>2018-04-16T18:23:02Z</time>
      </trkpt>
      <trkpt lat="46.99534" lon="2.24368">
        <ele>130</ele>
        <time>2018-04-16T18:23:13Z</time>
      </trkpt>
      <trkpt lat="46.9954" lon="2.24378">
        <ele>130</ele>
        <time>2018-04-16T18:23:17Z</time>
      </trkpt>
      <trkpt lat="46.99541" lon="2.2438">
        <ele>130</ele>
        <time>2018-04-16T18:23:18Z</time>
      </trkpt>
      <trkpt lat="46.99573" lon="2.24444">
        <ele>132</ele>
        <time>2018-04-16T18:23:42Z</time>
      </trkpt>
      <trkpt lat="46.99576" lon="2.24447">
        <ele>132</ele>
        <time>2018-04-16T18:24:10Z</time>
      </trkpt>
      <trkpt lat="46.99576" lon="2.24447">
        <ele>132</ele>
        <time>2018-04-16T18:24:11Z</time>
      </trkpt>
      <trkpt lat="46.99576" lon="2.24447">
        <ele>132</ele>
        <time>2018-04-16T18:24:12Z</time>
      </trkpt>
      <trkpt lat="46.99576" lon="2.24447">
        <ele>132</ele>
        <time>2018-04-16T18:24:13Z</time>
      </trkpt>
      <trkpt lat="46.99576" lon="2.24447">
        <ele>132</ele>
        <time>2018-04-16T18:24:18Z</time>
      </trkpt>
      <trkpt lat="46.99575" lon="2.24448">
        <ele>132</ele>
        <time>2018-04-16T18:24:41Z</time>
      </trkpt>
      <trkpt lat="46.9961" lon="2.24508">
        <ele>135</ele>
        <time>2018-04-16T18:25:13Z</time>
      </trkpt>
      <trkpt lat="46.99616" lon="2.24519">
        <ele>135</ele>
        <time>2018-04-16T18:25:19Z</time>
      </trkpt>
      <trkpt lat="46.99617" lon="2.24521">
        <ele>135</ele>
        <time>2018-04-16T18:25:20Z</time>
      </trkpt>
      <trkpt lat="46.9965" lon="2.24583">
        <ele>136</ele>
        <time>2018-04-16T18:25:39Z</time>
      </trkpt>
      <trkpt lat="46.99658" lon="2.24597">
        <ele>136</ele>
        <time>2018-04-16T18:25:43Z</time>
      </trkpt>
      <trkpt lat="46.9966" lon="2.24601">
        <ele>136</ele>
        <time>2018-04-16T18:25:44Z</time>
      </trkpt>
      <trkpt lat="46.99662" lon="2.24604">
        <ele>136</ele>
        <time>2018-04-16T18:25:45Z</time>
      </trkpt>
      <trkpt lat="46.99677" lon="2.24614">
        <ele>139</ele>
        <time>2018-04-16T18:25:50Z</time>
      </trkpt>
      <trkpt lat="46.9968" lon="2.24616">
        <ele>139</ele>
        <time>2018-04-16T18:25:51Z</time>
      </trkpt>
      <trkpt lat="46.9969" lon="2.24618">
        <ele>139</ele>
        <time>2018-04-16T18:25:54Z</time>
      </trkpt>
      <trkpt lat="46.99699" lon="2.2462">
        <ele>139</ele>
        <time>2018-04-16T18:25:57Z</time>
      </trkpt>
      <trkpt lat="46.99705" lon="2.24622">
        <ele>139</ele>
        <time>2018-04-16T18:25:59Z</time>
      </trkpt>
      <trkpt lat="46.99708" lon="2.24623">
        <ele>139</ele>
        <time>2018-04-16T18:26:00Z</time>
      </trkpt>
      <trkpt lat="46.99715" lon="2.24626">
        <ele>139</ele>
        <time>2018-04-16T18:26:02Z</time>
      </trkpt>
      <trkpt lat="46.99718" lon="2.24627">
        <ele>139</ele>
        <time>2018-04-16T18:26:03Z</time>
      </trkpt>
      <trkpt lat="46.99721" lon="2.24628">
        <ele>139</ele>
        <time>2018-04-16T18:26:04Z</time>
      </trkpt>
      <trkpt lat="46.99728" lon="2.24632">
        <ele>140</ele>
        <time>2018-04-16T18:26:06Z</time>
      </trkpt>
      <trkpt lat="46.99748" lon="2.24647">
        <ele>140</ele>
        <time>2018-04-16T18:26:13Z</time>
      </trkpt>
      <trkpt lat="46.99751" lon="2.24649">
        <ele>141</ele>
        <time>2018-04-16T18:26:14Z</time>
      </trkpt>
      <trkpt lat="46.99758" lon="2.24655">
        <ele>141</ele>
        <time>2018-04-16T18:26:17Z</time>
      </trkpt>
      <trkpt lat="46.99763" lon="2.24659">
        <ele>141</ele>
        <time>2018-04-16T18:26:22Z</time>
      </trkpt>
      <trkpt lat="46.99765" lon="2.24661">
        <ele>141</ele>
        <time>2018-04-16T18:26:25Z</time>
      </trkpt>
      <trkpt lat="46.99765" lon="2.24661">
        <ele>141</ele>
        <time>2018-04-16T18:26:28Z</time>
      </trkpt>
      <trkpt lat="46.99765" lon="2.24661">
        <ele>141</ele>
        <time>2018-04-16T18:26:30Z</time>
      </trkpt>
      <trkpt lat="46.99765" lon="2.24661">
        <ele>141</ele>
        <time>2018-04-16T18:26:37Z</time>
      </trkpt>
      <trkpt lat="46.99768" lon="2.24667">
        <ele>141</ele>
        <time>2018-04-16T18:26:43Z</time>
      </trkpt>
      <trkpt lat="46.99786" lon="2.24696">
        <ele>142</ele>
        <time>2018-04-16T18:26:53Z</time>
      </trkpt>
      <trkpt lat="46.99817" lon="2.24743">
        <ele>142</ele>
        <time>2018-04-16T18:27:06Z</time>
      </trkpt>
      <trkpt lat="46.9982" lon="2.24746">
        <ele>142</ele>
        <time>2018-04-16T18:27:07Z</time>
      </trkpt>
      <trkpt lat="46.99822" lon="2.24749">
        <ele>142</ele>
        <time>2018-04-16T18:27:08Z</time>
      </trkpt>
      <trkpt lat="46.99847" lon="2.2478">
        <ele>144</ele>
        <time>2018-04-16T18:27:17Z</time>
      </trkpt>
      <trkpt lat="46.9985" lon="2.24783">
        <ele>144</ele>
        <time>2018-04-16T18:27:18Z</time>
      </trkpt>
      <trkpt lat="46.9986" lon="2.24796">
        <ele>144</ele>
        <time>2018-04-16T18:27:22Z</time>
      </trkpt>
      <trkpt lat="46.99863" lon="2.24799">
        <ele>144</ele>
        <time>2018-04-16T18:27:23Z</time>
      </trkpt>
      <trkpt lat="46.9988" lon="2.24817">
        <ele>145</ele>
        <time>2018-04-16T18:27:29Z</time>
      </trkpt>
      <trkpt lat="46.99884" lon="2.2482">
        <ele>145</ele>
        <time>2018-04-16T18:27:30Z</time>
      </trkpt>
      <trkpt lat="46.9989" lon="2.24826">
        <ele>145</ele>
        <time>2018-04-16T18:27:32Z</time>
      </trkpt>
      <trkpt lat="46.99918" lon="2.2487">
        <ele>146</ele>
        <time>2018-04-16T18:27:47Z</time>
      </trkpt>
      <trkpt lat="46.99896" lon="2.24888">
        <ele>145</ele>
        <time>2018-04-16T18:27:55Z</time>
      </trkpt>
      <trkpt lat="46.99883" lon="2.24901">
        <ele>145</ele>
        <time>2018-04-16T18:28:00Z</time>
      </trkpt>
      <trkpt lat="46.99875" lon="2.24909">
        <ele>145</ele>
        <time>2018-04-16T18:28:04Z</time>
      </trkpt>
      <trkpt lat="46.99873" lon="2.24911">
        <ele>145</ele>
        <time>2018-04-16T18:28:05Z</time>
      </trkpt>
      <trkpt lat="46.99872" lon="2.24913">
        <ele>145</ele>
        <time>2018-04-16T18:28:06Z</time>
      </trkpt>
      <trkpt lat="46.99871" lon="2.24914">
        <ele>145</ele>
        <time>2018-04-16T18:28:07Z</time>
      </trkpt>
      <trkpt lat="46.99857" lon="2.24956">
        <ele>146</ele>
        <time>2018-04-16T18:28:22Z</time>
      </trkpt>
      <trkpt lat="46.99857" lon="2.24958">
        <ele>146</ele>
        <time>2018-04-16T18:28:23Z</time>
      </trkpt>
      <trkpt lat="46.99854" lon="2.24972">
        <ele>146</ele>
        <time>2018-04-16T18:28:30Z</time>
      </trkpt>
      <trkpt lat="46.99846" lon="2.24974">
        <ele>146</ele>
        <time>2018-04-16T18:28:37Z</time>
      </trkpt>
      <trkpt lat="46.99806" lon="2.24976">
        <ele>144</ele>
        <time>2018-04-16T18:28:49Z</time>
      </trkpt>
      <trkpt lat="46.99792" lon="2.25034">
        <ele>143</ele>
        <time>2018-04-16T18:29:23Z</time>
      </trkpt>
      <trkpt lat="46.9977" lon="2.25105">
        <ele>142</ele>
        <time>2018-04-16T18:29:33Z</time>
      </trkpt>
      <trkpt lat="46.99762" lon="2.25114">
        <ele>142</ele>
        <time>2018-04-16T18:29:35Z</time>
      </trkpt>
      <trkpt lat="46.99754" lon="2.25116">
        <ele>142</ele>
        <time>2018-04-16T18:29:37Z</time>
      </trkpt>
      <trkpt lat="46.99733" lon="2.2512">
        <ele>141</ele>
        <time>2018-04-16T18:29:44Z</time>
      </trkpt>
      <trkpt lat="46.99718" lon="2.25136">
        <ele>141</ele>
        <time>2018-04-16T18:29:53Z</time>
      </trkpt>
      <trkpt lat="46.99708" lon="2.25127">
        <ele>141</ele>
        <time>2018-04-16T18:30:08Z</time>
      </trkpt>
      <trkpt lat="46.99708" lon="2.25128">
        <ele>141</ele>
        <time>2018-04-16T18:30:18Z</time>
      </trkpt>
      <trkpt lat="46.99706" lon="2.2513">
        <ele>141</ele>
        <time>2018-04-16T18:30:28Z</time>
      </trkpt>
      <trkpt lat="46.99703" lon="2.25128">
        <ele>141</ele>
        <time>2018-04-16T18:30:30Z</time>
      </trkpt>
      <trkpt lat="46.997" lon="2.25123">
        <ele>141</ele>
        <time>2018-04-16T18:30:32Z</time>
      </trkpt>
      <trkpt lat="46.99686" lon="2.2511">
        <ele>141</ele>
        <time>2018-04-16T18:30:57Z</time>
      </trkpt>
      <trkpt lat="46.99686" lon="2.2511">
        <ele>141</ele>
        <time>2018-04-16T18:31:05Z</time>
      </trkpt>
      <trkpt lat="46.99686" lon="2.2511">
        <ele>141</ele>
        <time>2018-04-16T18:31:10Z</time>
      </trkpt>
      <trkpt lat="46.99686" lon="2.25111">
        <ele>141</ele>
        <time>2018-04-16T18:31:17Z</time>
      </trkpt>
      <trkpt lat="46.99688" lon="2.25111">
        <ele>141</ele>
        <time>2018-04-16T18:31:43Z</time>
      </trkpt>
      <trkpt lat="46.99688" lon="2.2511">
        <ele>141</ele>
        <time>2018-04-16T18:32:00Z</time>
      </trkpt>
      <trkpt lat="46.99688" lon="2.2511">
        <ele>141</ele>
        <time>2018-04-16T18:32:01Z</time>
      </trkpt>
      <trkpt lat="46.99688" lon="2.2511">
        <ele>141</ele>
        <time>2018-04-16T18:32:03Z</time>
      </trkpt>
      <trkpt lat="46.99688" lon="2.25109">
        <ele>141</ele>
        <time>2018-04-16T18:32:12Z</time>
      </trkpt>
      <trkpt lat="46.99688" lon="2.25109">
        <ele>141</ele>
        <time>2018-04-16T18:32:23Z</time>
      </trkpt>
      <trkpt lat="46.99688" lon="2.2511">
        <ele>141</ele>
        <time>2018-04-16T18:32:42Z</time>
      </trkpt>
      <trkpt lat="46.99712" lon="2.25137">
        <ele>141</ele>
        <time>2018-04-16T18:32:54Z</time>
      </trkpt>
      <trkpt lat="46.99715" lon="2.25142">
        <ele>141</ele>
        <time>2018-04-16T18:32:56Z</time>
      </trkpt>
      <trkpt lat="46.99722" lon="2.2515">
        <ele>141</ele>
        <time>2018-04-16T18:33:01Z</time>
      </trkpt>
      <trkpt lat="46.99726" lon="2.25154">
        <ele>141</ele>
        <time>2018-04-16T18:33:03Z</time>
      </trkpt>
      <trkpt lat="46.99735" lon="2.25166">
        <ele>141</ele>
        <time>2018-04-16T18:33:08Z</time>
      </trkpt>
      <trkpt lat="46.99739" lon="2.25172">
        <ele>142</ele>
        <time>2018-04-16T18:33:10Z</time>
      </trkpt>
      <trkpt lat="46.99744" lon="2.25177">
        <ele>142</ele>
        <time>2018-04-16T18:33:12Z</time>
      </trkpt>
      <trkpt lat="46.99777" lon="2.2522">
        <ele>143</ele>
        <time>2018-04-16T18:33:26Z</time>
      </trkpt>
      <trkpt lat="46.9978" lon="2.25238">
        <ele>143</ele>
        <time>2018-04-16T18:33:39Z</time>
      </trkpt>
      <trkpt lat="46.99779" lon="2.25241">
        <ele>143</ele>
        <time>2018-04-16T18:33:41Z</time>
      </trkpt>
      <trkpt lat="46.99779" lon="2.25252">
        <ele>144</ele>
        <time>2018-04-16T18:33:46Z</time>
      </trkpt>
      <trkpt lat="46.99832" lon="2.25267">
        <ele>144</ele>
        <time>2018-04-16T18:34:03Z</time>
      </trkpt>
      <trkpt lat="46.9985" lon="2.25272">
        <ele>145</ele>
        <time>2018-04-16T18:34:10Z</time>
      </trkpt>
      <trkpt lat="46.99854" lon="2.25277">
        <ele>145</ele>
        <time>2018-04-16T18:34:13Z</time>
      </trkpt>
      <trkpt lat="46.99854" lon="2.25281">
        <ele>145</ele>
        <time>2018-04-16T18:34:16Z</time>
      </trkpt>
      <trkpt lat="46.99855" lon="2.25281">
        <ele>145</ele>
        <time>2018-04-16T18:34:17Z</time>
      </trkpt>
      <trkpt lat="46.99855" lon="2.2528">
        <ele>145</ele>
        <time>2018-04-16T18:34:26Z</time>
      </trkpt>
      <trkpt lat="46.99855" lon="2.2528">
        <ele>145</ele>
        <time>2018-04-16T18:34:30Z</time>
      </trkpt>
      <trkpt lat="46.99853" lon="2.25278">
        <ele>145</ele>
        <time>2018-04-16T18:34:49Z</time>
      </trkpt>
      <trkpt lat="46.99848" lon="2.25276">
        <ele>145</ele>
        <time>2018-04-16T18:34:51Z</time>
      </trkpt>
      <trkpt lat="46.99793" lon="2.2527">
        <ele>144</ele>
        <time>2018-04-16T18:35:07Z</time>
      </trkpt>
      <trkpt lat="46.99772" lon="2.2525">
        <ele>143</ele>
        <time>2018-04-16T18:35:15Z</time>
      </trkpt>
      <trkpt lat="46.99778" lon="2.25236">
        <ele>143</ele>
        <time>2018-04-16T18:35:20Z</time>
      </trkpt>
      <trkpt lat="46.99781" lon="2.25235">
        <ele>143</ele>
        <time>2018-04-16T18:35:24Z</time>
      </trkpt>
      <trkpt lat="46.99781" lon="2.25235">
        <ele>143</ele>
        <time>2018-04-16T18:35:33Z</time>
      </trkpt>
      <trkpt lat="46.99781" lon="2.25235">
        <ele>143</ele>
        <time>2018-04-16T18:35:34Z</time>
      </trkpt>
      <trkpt lat="46.99781" lon="2.25235">
        <ele>143</ele>
        <time>2018-04-16T18:35:35Z</time>
      </trkpt>
      <trkpt lat="46.99781" lon="2.25235">
        <ele>143</ele>
        <time>2018-04-16T18:35:36Z</time>
      </trkpt>
      <trkpt lat="46.99781" lon="2.25235">
        <ele>143</ele>
        <time>2018-04-16T18:35:38Z</time>
      </trkpt>
      <trkpt lat="46.99781" lon="2.25235">
        <ele>143</ele>
        <time>2018-04-16T18:35:48Z</time>
      </trkpt>
      <trkpt lat="46.99781" lon="2.25235">
        <ele>143</ele>
        <time>2018-04-16T18:35:49Z</time>
      </trkpt>
      <trkpt lat="46.99781" lon="2.25235">
        <ele>143</ele>
        <time>2018-04-16T18:35:50Z</time>
      </trkpt>
      <trkpt lat="46.99781" lon="2.25235">
        <ele>143</ele>
        <time>2018-04-16T18:35:53Z</time>
      </trkpt>
      <trkpt lat="46.99782" lon="2.25235">
        <ele>143</ele>
        <time>2018-04-16T18:36:21Z</time>
      </trkpt>
      <trkpt lat="46.99785" lon="2.25236">
        <ele>143</ele>
        <time>2018-04-16T18:36:23Z</time>
      </trkpt>
      <trkpt lat="46.99797" lon="2.25239">
        <ele>143</ele>
        <time>2018-04-16T18:36:28Z</time>
      </trkpt>
      <trkpt lat="46.99807" lon="2.2524">
        <ele>144</ele>
        <time>2018-04-16T18:36:31Z</time>
      </trkpt>
      <trkpt lat="46.9981" lon="2.25241">
        <ele>144</ele>
        <time>2018-04-16T18:36:32Z</time>
      </trkpt>
      <trkpt lat="46.99818" lon="2.25242">
        <ele>144</ele>
        <time>2018-04-16T18:36:34Z</time>
      </trkpt>
      <trkpt lat="46.99824" lon="2.25242">
        <ele>144</ele>
        <time>2018-04-16T18:36:36Z</time>
      </trkpt>
      <trkpt lat="46.99828" lon="2.25242">
        <ele>144</ele>
        <time>2018-04-16T18:36:37Z</time>
      </trkpt>
      <trkpt lat="46.99831" lon="2.25242">
        <ele>144</ele>
        <time>2018-04-16T18:36:38Z</time>
      </trkpt>
      <trkpt lat="46.9987" lon="2.25246">
        <ele>146</ele>
        <time>2018-04-16T18:36:50Z</time>
      </trkpt>
      <trkpt lat="46.99882" lon="2.25246">
        <ele>146</ele>
        <time>2018-04-16T18:36:54Z</time>
      </trkpt>
      <trkpt lat="46.99912" lon="2.25247">
        <ele>147</ele>
        <time>2018-04-16T18:37:04Z</time>
      </trkpt>
      <trkpt lat="46.99921" lon="2.25247">
        <ele>147</ele>
        <time>2018-04-16T18:37:07Z</time>
      </trkpt>
      <trkpt lat="46.99923" lon="2.25247">
        <ele>147</ele>
        <time>2018-04-16T18:37:08Z</time>
      </trkpt>
      <trkpt lat="46.99929" lon="2.25248">
        <ele>148</ele>
        <time>2018-04-16T18:37:10Z</time>
      </trkpt>
      <trkpt lat="46.9994" lon="2.25249">
        <ele>148</ele>
        <time>2018-04-16T18:37:14Z</time>
      </trkpt>
      <trkpt lat="46.99946" lon="2.2525">
        <ele>148</ele>
        <time>2018-04-16T18:37:16Z</time>
      </trkpt>
      <trkpt lat="46.99953" lon="2.25251">
        <ele>148</ele>
        <time>2018-04-16T18:37:18Z</time>
      </trkpt>
      <trkpt lat="46.99956" lon="2.25252">
        <ele>148</ele>
        <time>2018-04-16T18:37:19Z</time>
      </trkpt>
      <trkpt lat="46.99959" lon="2.25252">
        <ele>148</ele>
        <time>2018-04-16T18:37:20Z</time>
      </trkpt>
      <trkpt lat="47.00005" lon="2.25253">
        <ele>149</ele>
        <time>2018-04-16T18:37:35Z</time>
      </trkpt>
      <trkpt lat="47.00032" lon="2.2526">
        <ele>150</ele>
        <time>2018-04-16T18:37:44Z</time>
      </trkpt>
      <trkpt lat="47.00035" lon="2.2526">
        <ele>151</ele>
        <time>2018-04-16T18:37:45Z</time>
      </trkpt>
      <trkpt lat="47.00038" lon="2.25261">
        <ele>151</ele>
        <time>2018-04-16T18:37:46Z</time>
      </trkpt>
      <trkpt lat="47.00048" lon="2.25272">
        <ele>151</ele>
        <time>2018-04-16T18:37:50Z</time>
      </trkpt>
      <trkpt lat="47.00077" lon="2.2534">
        <ele>152</ele>
        <time>2018-04-16T18:38:09Z</time>
      </trkpt>
      <trkpt lat="47.00089" lon="2.25379">
        <ele>152</ele>
        <time>2018-04-16T18:38:24Z</time>
      </trkpt>
      <trkpt lat="47.00123" lon="2.25384">
        <ele>152</ele>
        <time>2018-04-16T18:38:36Z</time>
      </trkpt>
      <trkpt lat="47.00133" lon="2.25385">
        <ele>152</ele>
        <time>2018-04-16T18:38:39Z</time>
      </trkpt>
      <trkpt lat="47.00136" lon="2.25385">
        <ele>152</ele>
        <time>2018-04-16T18:38:40Z</time>
      </trkpt>
      <trkpt lat="47.00192" lon="2.25387">
        <ele>152</ele>
        <time>2018-04-16T18:38:55Z</time>
      </trkpt>
      <trkpt lat="47.00248" lon="2.25392">
        <ele>153</ele>
        <time>2018-04-16T18:39:09Z</time>
      </trkpt>
      <trkpt lat="47.00301" lon="2.25383">
        <ele>153</ele>
        <time>2018-04-16T18:39:23Z</time>
      </trkpt>
      <trkpt lat="47.0031" lon="2.25376">
        <ele>153</ele>
        <time>2018-04-16T18:39:26Z</time>
      </trkpt>
      <trkpt lat="47.0032" lon="2.25367">
        <ele>153</ele>
        <time>2018-04-16T18:39:31Z</time>
      </trkpt>
      <trkpt lat="47.00332" lon="2.25357">
        <ele>153</ele>
        <time>2018-04-16T18:39:53Z</time>
      </trkpt>
      <trkpt lat="47.00348" lon="2.25369">
        <ele>153</ele>
        <time>2018-04-16T18:40:02Z</time>
      </trkpt>
      <trkpt lat="47.00351" lon="2.25399">
        <ele>154</ele>
        <time>2018-04-16T18:40:09Z</time>
      </trkpt>
      <trkpt lat="47.00349" lon="2.25437">
        <ele>154</ele>
        <time>2018-04-16T18:40:18Z</time>
      </trkpt>
      <trkpt lat="47.00337" lon="2.25466">
        <ele>154</ele>
        <time>2018-04-16T18:40:27Z</time>
      </trkpt>
      <trkpt lat="47.00336" lon="2.25469">
        <ele>154</ele>
        <time>2018-04-16T18:40:29Z</time>
      </trkpt>
      <trkpt lat="47.00294" lon="2.25521">
        <ele>155</ele>
        <time>2018-04-16T18:40:49Z</time>
      </trkpt>
      <trkpt lat="47.00273" lon="2.2555">
        <ele>155</ele>
        <time>2018-04-16T18:40:57Z</time>
      </trkpt>
      <trkpt lat="47.00251" lon="2.25585">
        <ele>155</ele>
        <time>2018-04-16T18:41:05Z</time>
      </trkpt>
      <trkpt lat="47.00248" lon="2.25589">
        <ele>155</ele>
        <time>2018-04-16T18:41:06Z</time>
      </trkpt>
      <trkpt lat="47.00223" lon="2.25628">
        <ele>156</ele>
        <time>2018-04-16T18:41:15Z</time>
      </trkpt>
      <trkpt lat="47.00207" lon="2.25656">
        <ele>156</ele>
        <time>2018-04-16T18:41:21Z</time>
      </trkpt>
      <trkpt lat="47.0019" lon="2.25684">
        <ele>156</ele>
        <time>2018-04-16T18:41:27Z</time>
      </trkpt>
      <trkpt lat="47.0015" lon="2.25742">
        <ele>156</ele>
        <time>2018-04-16T18:41:41Z</time>
      </trkpt>
      <trkpt lat="47.00108" lon="2.25798">
        <ele>155</ele>
        <time>2018-04-16T18:41:55Z</time>
      </trkpt>
      <trkpt lat="47.00066" lon="2.25852">
        <ele>155</ele>
        <time>2018-04-16T18:42:09Z</time>
      </trkpt>
      <trkpt lat="47.00033" lon="2.25914">
        <ele>155</ele>
        <time>2018-04-16T18:42:23Z</time>
      </trkpt>
      <trkpt lat="47.00027" lon="2.25938">
        <ele>155</ele>
        <time>2018-04-16T18:42:27Z</time>
      </trkpt>
      <trkpt lat="47.00018" lon="2.25994">
        <ele>156</ele>
        <time>2018-04-16T18:42:37Z</time>
      </trkpt>
      <trkpt lat="46.99997" lon="2.26034">
        <ele>156</ele>
        <time>2018-04-16T18:42:54Z</time>
      </trkpt>
      <trkpt lat="46.99989" lon="2.26023">
        <ele>156</ele>
        <time>2018-04-16T18:43:04Z</time>
      </trkpt>
      <trkpt lat="46.99988" lon="2.26022">
        <ele>156</ele>
        <time>2018-04-16T18:43:18Z</time>
      </trkpt>
      <trkpt lat="46.99988" lon="2.26022">
        <ele>156</ele>
        <time>2018-04-16T18:43:58Z</time>
      </trkpt>
      <trkpt lat="46.99988" lon="2.26022">
        <ele>156</ele>
        <time>2018-04-16T18:44:34Z</time>
      </trkpt>
      <trkpt lat="46.99988" lon="2.26022">
        <ele>156</ele>
        <time>2018-04-16T18:44:41Z</time>
      </trkpt>
      <trkpt lat="46.99988" lon="2.26022">
        <ele>156</ele>
        <time>2018-04-16T18:44:50Z</time>
      </trkpt>
      <trkpt lat="46.99985" lon="2.26026">
        <ele>156</ele>
        <time>2018-04-16T18:44:53Z</time>
      </trkpt>
      <trkpt lat="46.99983" lon="2.26038">
        <ele>156</ele>
        <time>2018-04-16T18:44:57Z</time>
      </trkpt>
      <trkpt lat="46.99992" lon="2.26085">
        <ele>156</ele>
        <time>2018-04-16T18:45:06Z</time>
      </trkpt>
      <trkpt lat="46.99993" lon="2.26089">
        <ele>156</ele>
        <time>2018-04-16T18:45:07Z</time>
      </trkpt>
      <trkpt lat="46.99993" lon="2.26095">
        <ele>156</ele>
        <time>2018-04-16T18:45:14Z</time>
      </trkpt>
      <trkpt lat="46.99993" lon="2.26095">
        <ele>156</ele>
        <time>2018-04-16T18:45:16Z</time>
      </trkpt>
      <trkpt lat="46.99993" lon="2.26095">
        <ele>156</ele>
        <time>2018-04-16T18:45:21Z</time>
      </trkpt>
      <trkpt lat="46.99993" lon="2.26095">
        <ele>156</ele>
        <time>2018-04-16T18:45:24Z</time>
      </trkpt>
      <trkpt lat="46.99993" lon="2.26095">
        <ele>156</ele>
        <time>2018-04-16T18:45:50Z</time>
      </trkpt>
      <trkpt lat="46.99993" lon="2.26095">
        <ele>156</ele>
        <time>2018-04-16T18:45:51Z</time>
      </trkpt>
      <trkpt lat="46.99993" lon="2.26095">
        <ele>156</ele>
        <time>2018-04-16T18:45:58Z</time>
      </trkpt>
      <trkpt lat="46.99993" lon="2.26095">
        <ele>156</ele>
        <time>2018-04-16T18:46:03Z</time>
      </trkpt>
      <trkpt lat="46.99993" lon="2.26095">
        <ele>156</ele>
        <time>2018-04-16T18:46:04Z</time>
      </trkpt>
      <trkpt lat="46.99993" lon="2.26095">
        <ele>156</ele>
        <time>2018-04-16T18:46:05Z</time>
      </trkpt>
      <trkpt lat="46.99993" lon="2.26095">
        <ele>156</ele>
        <time>2018-04-16T18:46:06Z</time>
      </trkpt>
      <trkpt lat="46.99993" lon="2.26095">
        <ele>156</ele>
        <time>2018-04-16T18:46:14Z</time>
      </trkpt>
      <trkpt lat="46.99994" lon="2.26096">
        <ele>156</ele>
        <time>2018-04-16T18:46:20Z</time>
      </trkpt>
      <trkpt lat="46.99994" lon="2.26096">
        <ele>156</ele>
        <time>2018-04-16T18:46:25Z</time>
      </trkpt>
      <trkpt lat="46.99994" lon="2.26096">
        <ele>156</ele>
        <time>2018-04-16T18:46:29Z</time>
      </trkpt>
      <trkpt lat="46.99994" lon="2.26096">
        <ele>156</ele>
        <time>2018-04-16T18:46:31Z</time>
      </trkpt>
      <trkpt lat="46.99994" lon="2.26096">
        <ele>156</ele>
        <time>2018-04-16T18:46:33Z</time>
      </trkpt>
      <trkpt lat="46.99994" lon="2.26096">
        <ele>156</ele>
        <time>2018-04-16T18:46:35Z</time>
      </trkpt>
      <trkpt lat="46.99996" lon="2.26101">
        <ele>156</ele>
        <time>2018-04-16T18:46:50Z</time>
      </trkpt>
      <trkpt lat="47.00016" lon="2.26177">
        <ele>156</ele>
        <time>2018-04-16T18:47:05Z</time>
      </trkpt>
      <trkpt lat="47.00026" lon="2.26214">
        <ele>156</ele>
        <time>2018-04-16T18:47:12Z</time>
      </trkpt>
      <trkpt lat="47.00041" lon="2.26291">
        <ele>156</ele>
        <time>2018-04-16T18:47:28Z</time>
      </trkpt>
      <trkpt lat="47.0004" lon="2.26321">
        <ele>156</ele>
        <time>2018-04-16T18:47:33Z</time>
      </trkpt>
      <trkpt lat="47.00033" lon="2.26397">
        <ele>156</ele>
        <time>2018-04-16T18:47:49Z</time>
      </trkpt>
      <trkpt lat="47.00045" lon="2.26409">
        <ele>156</ele>
        <time>2018-04-16T18:47:52Z</time>
      </trkpt>
      <trkpt lat="47.00096" lon="2.26444">
        <ele>155</ele>
        <time>2018-04-16T18:48:03Z</time>
      </trkpt>
      <trkpt lat="47.00138" lon="2.26474">
        <ele>155</ele>
        <time>2018-04-16T18:48:12Z</time>
      </trkpt>
      <trkpt lat="47.00142" lon="2.26478">
        <ele>155</ele>
        <time>2018-04-16T18:48:13Z</time>
      </trkpt>
      <trkpt lat="47.0016" lon="2.265">
        <ele>154</ele>
        <time>2018-04-16T18:48:17Z</time>
      </trkpt>
      <trkpt lat="47.0019" lon="2.26568">
        <ele>153</ele>
        <time>2018-04-16T18:48:27Z</time>
      </trkpt>
      <trkpt lat="47.00212" lon="2.26641">
        <ele>153</ele>
        <time>2018-04-16T18:48:37Z</time>
      </trkpt>
      <trkpt lat="47.00221" lon="2.26722">
        <ele>152</ele>
        <time>2018-04-16T18:48:48Z</time>
      </trkpt>
      <trkpt lat="47.0023" lon="2.26807">
        <ele>152</ele>
        <time>2018-04-16T18:48:59Z</time>
      </trkpt>
      <trkpt lat="47.00242" lon="2.26883">
        <ele>153</ele>
        <time>2018-04-16T18:49:08Z</time>
      </trkpt>
      <trkpt lat="47.00268" lon="2.2696">
        <ele>155</ele>
        <time>2018-04-16T18:49:18Z</time>
      </trkpt>
      <trkpt lat="47.00303" lon="2.27027">
        <ele>157</ele>
        <time>2018-04-16T18:49:28Z</time>
      </trkpt>
      <trkpt lat="47.00346" lon="2.27081">
        <ele>156</ele>
        <time>2018-04-16T18:49:37Z</time>
      </trkpt>
      <trkpt lat="47.00382" lon="2.27148">
        <ele>158</ele>
        <time>2018-04-16T18:49:47Z</time>
      </trkpt>
      <trkpt lat="47.00415" lon="2.27216">
        <ele>159</ele>
        <time>2018-04-16T18:49:57Z</time>
      </trkpt>
      <trkpt lat="47.00447" lon="2.27287">
        <ele>157</ele>
        <time>2018-04-16T18:50:08Z</time>
      </trkpt>
      <trkpt lat="47.00463" lon="2.27324">
        <ele>157</ele>
        <time>2018-04-16T18:50:14Z</time>
      </trkpt>
      <trkpt lat="47.00471" lon="2.27341">
        <ele>156</ele>
        <time>2018-04-16T18:50:17Z</time>
      </trkpt>
      <trkpt lat="47.00483" lon="2.27365">
        <ele>156</ele>
        <time>2018-04-16T18:50:21Z</time>
      </trkpt>
      <trkpt lat="47.00486" lon="2.27372">
        <ele>156</ele>
        <time>2018-04-16T18:50:22Z</time>
      </trkpt>
      <trkpt lat="47.00489" lon="2.27378">
        <ele>156</ele>
        <time>2018-04-16T18:50:23Z</time>
      </trkpt>
      <trkpt lat="47.00522" lon="2.27444">
        <ele>155</ele>
        <time>2018-04-16T18:50:35Z</time>
      </trkpt>
      <trkpt lat="47.00562" lon="2.27504">
        <ele>156</ele>
        <time>2018-04-16T18:50:47Z</time>
      </trkpt>
      <trkpt lat="47.00573" lon="2.2752">
        <ele>156</ele>
        <time>2018-04-16T18:50:50Z</time>
      </trkpt>
      <trkpt lat="47.00588" lon="2.27554">
        <ele>156</ele>
        <time>2018-04-16T18:50:56Z</time>
      </trkpt>
      <trkpt lat="47.00596" lon="2.27577">
        <ele>156</ele>
        <time>2018-04-16T18:51:00Z</time>
      </trkpt>
      <trkpt lat="47.00616" lon="2.27633">
        <ele>156</ele>
        <time>2018-04-16T18:51:13Z</time>
      </trkpt>
      <trkpt lat="47.00645" lon="2.27701">
        <ele>157</ele>
        <time>2018-04-16T18:51:26Z</time>
      </trkpt>
      <trkpt lat="47.00665" lon="2.27779">
        <ele>160</ele>
        <time>2018-04-16T18:51:39Z</time>
      </trkpt>
      <trkpt lat="47.00674" lon="2.27862">
        <ele>159</ele>
        <time>2018-04-16T18:51:52Z</time>
      </trkpt>
      <trkpt lat="47.00686" lon="2.27941">
        <ele>160</ele>
        <time>2018-04-16T18:52:04Z</time>
      </trkpt>
      <trkpt lat="47.00696" lon="2.28001">
        <ele>159</ele>
        <time>2018-04-16T18:52:14Z</time>
      </trkpt>
      <trkpt lat="47.00701" lon="2.28025">
        <ele>158</ele>
        <time>2018-04-16T18:52:18Z</time>
      </trkpt>
      <trkpt lat="47.00723" lon="2.281">
        <ele>157</ele>
        <time>2018-04-16T18:52:31Z</time>
      </trkpt>
      <trkpt lat="47.00727" lon="2.28117">
        <ele>157</ele>
        <time>2018-04-16T18:52:34Z</time>
      </trkpt>
      <trkpt lat="47.0073" lon="2.28129">
        <ele>158</ele>
        <time>2018-04-16T18:52:36Z</time>
      </trkpt>
      <trkpt lat="47.00736" lon="2.28146">
        <ele>157</ele>
        <time>2018-04-16T18:52:39Z</time>
      </trkpt>
      <trkpt lat="47.00738" lon="2.28151">
        <ele>157</ele>
        <time>2018-04-16T18:52:40Z</time>
      </trkpt>
      <trkpt lat="47.00739" lon="2.28156">
        <ele>157</ele>
        <time>2018-04-16T18:52:41Z</time>
      </trkpt>
      <trkpt lat="47.0074" lon="2.28161">
        <ele>157</ele>
        <time>2018-04-16T18:52:42Z</time>
      </trkpt>
      <trkpt lat="47.00742" lon="2.28167">
        <ele>157</ele>
        <time>2018-04-16T18:52:43Z</time>
      </trkpt>
      <trkpt lat="47.00744" lon="2.28173">
        <ele>157</ele>
        <time>2018-04-16T18:52:44Z</time>
      </trkpt>
      <trkpt lat="47.00745" lon="2.28179">
        <ele>157</ele>
        <time>2018-04-16T18:52:45Z</time>
      </trkpt>
      <trkpt lat="47.00755" lon="2.28219">
        <ele>155</ele>
        <time>2018-04-16T18:52:52Z</time>
      </trkpt>
      <trkpt lat="47.0076" lon="2.28238">
        <ele>155</ele>
        <time>2018-04-16T18:52:55Z</time>
      </trkpt>
      <trkpt lat="47.00768" lon="2.28263">
        <ele>154</ele>
        <time>2018-04-16T18:52:59Z</time>
      </trkpt>
      <trkpt lat="47.00776" lon="2.28289">
        <ele>153</ele>
        <time>2018-04-16T18:53:03Z</time>
      </trkpt>
      <trkpt lat="47.00786" lon="2.28322">
        <ele>153</ele>
        <time>2018-04-16T18:53:08Z</time>
      </trkpt>
      <trkpt lat="47.00799" lon="2.28368">
        <ele>152</ele>
        <time>2018-04-16T18:53:15Z</time>
      </trkpt>
      <trkpt lat="47.00816" lon="2.28421">
        <ele>151</ele>
        <time>2018-04-16T18:53:23Z</time>
      </trkpt>
      <trkpt lat="47.00826" lon="2.28456">
        <ele>151</ele>
        <time>2018-04-16T18:53:28Z</time>
      </trkpt>
      <trkpt lat="47.00848" lon="2.28531">
        <ele>151</ele>
        <time>2018-04-16T18:53:39Z</time>
      </trkpt>
      <trkpt lat="47.0087" lon="2.28609">
        <ele>151</ele>
        <time>2018-04-16T18:53:51Z</time>
      </trkpt>
      <trkpt lat="47.00891" lon="2.28683">
        <ele>150</ele>
        <time>2018-04-16T18:54:01Z</time>
      </trkpt>
      <trkpt lat="47.00913" lon="2.28757">
        <ele>150</ele>
        <time>2018-04-16T18:54:11Z</time>
      </trkpt>
      <trkpt lat="47.00936" lon="2.28838">
        <ele>149</ele>
        <time>2018-04-16T18:54:21Z</time>
      </trkpt>
      <trkpt lat="47.00955" lon="2.28912">
        <ele>148</ele>
        <time>2018-04-16T18:54:31Z</time>
      </trkpt>
      <trkpt lat="47.00977" lon="2.28982">
        <ele>148</ele>
        <time>2018-04-16T18:54:44Z</time>
      </trkpt>
      <trkpt lat="47.00991" lon="2.29031">
        <ele>149</ele>
        <time>2018-04-16T18:54:52Z</time>
      </trkpt>
      <trkpt lat="47.01006" lon="2.29085">
        <ele>152</ele>
        <time>2018-04-16T18:55:02Z</time>
      </trkpt>
      <trkpt lat="47.01014" lon="2.29113">
        <ele>155</ele>
        <time>2018-04-16T18:55:07Z</time>
      </trkpt>
      <trkpt lat="47.01015" lon="2.29118">
        <ele>155</ele>
        <time>2018-04-16T18:55:08Z</time>
      </trkpt>
      <trkpt lat="47.01022" lon="2.29139">
        <ele>155</ele>
        <time>2018-04-16T18:55:12Z</time>
      </trkpt>
      <trkpt lat="47.01035" lon="2.29186">
        <ele>157</ele>
        <time>2018-04-16T18:55:22Z</time>
      </trkpt>
      <trkpt lat="47.01057" lon="2.29251">
        <ele>158</ele>
        <time>2018-04-16T18:55:41Z</time>
      </trkpt>
      <trkpt lat="47.0107" lon="2.29312">
        <ele>158</ele>
        <time>2018-04-16T18:56:03Z</time>
      </trkpt>
      <trkpt lat="47.01077" lon="2.29338">
        <ele>159</ele>
        <time>2018-04-16T18:56:14Z</time>
      </trkpt>
      <trkpt lat="47.01078" lon="2.2934">
        <ele>159</ele>
        <time>2018-04-16T18:56:24Z</time>
      </trkpt>
      <trkpt lat="47.01078" lon="2.2934">
        <ele>159</ele>
        <time>2018-04-16T18:56:40Z</time>
      </trkpt>
      <trkpt lat="47.01078" lon="2.2934">
        <ele>159</ele>
        <time>2018-04-16T18:56:45Z</time>
      </trkpt>
      <trkpt lat="47.01078" lon="2.2934">
        <ele>159</ele>
        <time>2018-04-16T18:56:51Z</time>
      </trkpt>
      <trkpt lat="47.01078" lon="2.2934">
        <ele>159</ele>
        <time>2018-04-16T18:56:56Z</time>
      </trkpt>
      <trkpt lat="47.01078" lon="2.2934">
        <ele>159</ele>
        <time>2018-04-16T18:57:03Z</time>
      </trkpt>
      <trkpt lat="47.01078" lon="2.2934">
        <ele>159</ele>
        <time>2018-04-16T18:57:06Z</time>
      </trkpt>
      <trkpt lat="47.01078" lon="2.2934">
        <ele>159</ele>
        <time>2018-04-16T18:57:11Z</time>
      </trkpt>
      <trkpt lat="47.01078" lon="2.2934">
        <ele>159</ele>
        <time>2018-04-16T18:57:15Z</time>
      </trkpt>
      <trkpt lat="47.01078" lon="2.2934">
        <ele>159</ele>
        <time>2018-04-16T18:57:16Z</time>
      </trkpt>
      <trkpt lat="47.01078" lon="2.2934">
        <ele>159</ele>
        <time>2018-04-16T18:57:19Z</time>
      </trkpt>
      <trkpt lat="47.01078" lon="2.2934">
        <ele>159</ele>
        <time>2018-04-16T18:57:20Z</time>
      </trkpt>
      <trkpt lat="47.01078" lon="2.2934">
        <ele>159</ele>
        <time>2018-04-16T18:57:21Z</time>
      </trkpt>
      <trkpt lat="47.01082" lon="2.29341">
        <ele>159</ele>
        <time>2018-04-16T18:57:27Z</time>
      </trkpt>
      <trkpt lat="47.01084" lon="2.2934">
        <ele>159</ele>
        <time>2018-04-16T18:57:28Z</time>
      </trkpt>
      <trkpt lat="47.01091" lon="2.29336">
        <ele>159</ele>
        <time>2018-04-16T18:57:30Z</time>
      </trkpt>
      <trkpt lat="47.01135" lon="2.29305">
        <ele>159</ele>
        <time>2018-04-16T18:57:45Z</time>
      </trkpt>
      <trkpt lat="47.01159" lon="2.29268">
        <ele>159</ele>
        <time>2018-04-16T18:58:01Z</time>
      </trkpt>
      <trkpt lat="47.01205" lon="2.29224">
        <ele>158</ele>
        <time>2018-04-16T18:58:33Z</time>
      </trkpt>
      <trkpt lat="47.01257" lon="2.2919">
        <ele>155</ele>
        <time>2018-04-16T18:58:46Z</time>
      </trkpt>
      <trkpt lat="47.01276" lon="2.29179">
        <ele>155</ele>
        <time>2018-04-16T18:58:56Z</time>
      </trkpt>
      <trkpt lat="47.01276" lon="2.29179">
        <ele>155</ele>
        <time>2018-04-16T18:59:00Z</time>
      </trkpt>
      <trkpt lat="47.01276" lon="2.29179">
        <ele>155</ele>
        <time>2018-04-16T18:59:03Z</time>
      </trkpt>
      <trkpt lat="47.01276" lon="2.29179">
        <ele>155</ele>
        <time>2018-04-16T18:59:04Z</time>
      </trkpt>
      <trkpt lat="47.01276" lon="2.29179">
        <ele>155</ele>
        <time>2018-04-16T18:59:05Z</time>
      </trkpt>
      <trkpt lat="47.01278" lon="2.29183">
        <ele>155</ele>
        <time>2018-04-16T18:59:11Z</time>
      </trkpt>
      <trkpt lat="47.01278" lon="2.29187">
        <ele>155</ele>
        <time>2018-04-16T18:59:13Z</time>
      </trkpt>
      <trkpt lat="47.01324" lon="2.29231">
        <ele>157</ele>
        <time>2018-04-16T18:59:28Z</time>
      </trkpt>
      <trkpt lat="47.0133" lon="2.29237">
        <ele>157</ele>
        <time>2018-04-16T18:59:30Z</time>
      </trkpt>
      <trkpt lat="47.01333" lon="2.29239">
        <ele>157</ele>
        <time>2018-04-16T18:59:31Z</time>
      </trkpt>
      <trkpt lat="47.01337" lon="2.29241">
        <ele>158</ele>
        <time>2018-04-16T18:59:32Z</time>
      </trkpt>
      <trkpt lat="47.01339" lon="2.29244">
        <ele>158</ele>
        <time>2018-04-16T18:59:33Z</time>
      </trkpt>
      <trkpt lat="47.01342" lon="2.29246">
        <ele>158</ele>
        <time>2018-04-16T18:59:34Z</time>
      </trkpt>
      <trkpt lat="47.01344" lon="2.29248">
        <ele>157</ele>
        <time>2018-04-16T18:59:35Z</time>
      </trkpt>
      <trkpt lat="47.01352" lon="2.29258">
        <ele>158</ele>
        <time>2018-04-16T18:59:38Z</time>
      </trkpt>
      <trkpt lat="47.01357" lon="2.29265">
        <ele>158</ele>
        <time>2018-04-16T18:59:40Z</time>
      </trkpt>
      <trkpt lat="47.0136" lon="2.29268">
        <ele>158</ele>
        <time>2018-04-16T18:59:41Z</time>
      </trkpt>
      <trkpt lat="47.01364" lon="2.29271">
        <ele>158</ele>
        <time>2018-04-16T18:59:42Z</time>
      </trkpt>
      <trkpt lat="47.01366" lon="2.29273">
        <ele>158</ele>
        <time>2018-04-16T18:59:43Z</time>
      </trkpt>
      <trkpt lat="47.01373" lon="2.29279">
        <ele>158</ele>
        <time>2018-04-16T18:59:45Z</time>
      </trkpt>
      <trkpt lat="47.01376" lon="2.29281">
        <ele>158</ele>
        <time>2018-04-16T18:59:46Z</time>
      </trkpt>
      <trkpt lat="47.0139" lon="2.29292">
        <ele>158</ele>
        <time>2018-04-16T18:59:51Z</time>
      </trkpt>
      <trkpt lat="47.01396" lon="2.29296">
        <ele>158</ele>
        <time>2018-04-16T18:59:53Z</time>
      </trkpt>
      <trkpt lat="47.01446" lon="2.2933">
        <ele>158</ele>
        <time>2018-04-16T19:00:08Z</time>
      </trkpt>
      <trkpt lat="47.01498" lon="2.2936">
        <ele>158</ele>
        <time>2018-04-16T19:00:21Z</time>
      </trkpt>
      <trkpt lat="47.01552" lon="2.29395">
        <ele>155</ele>
        <time>2018-04-16T19:00:33Z</time>
      </trkpt>
      <trkpt lat="47.01599" lon="2.29436">
        <ele>153</ele>
        <time>2018-04-16T19:00:47Z</time>
      </trkpt>
      <trkpt lat="47.01646" lon="2.2948">
        <ele>153</ele>
        <time>2018-04-16T19:01:01Z</time>
      </trkpt>
      <trkpt lat="47.01695" lon="2.29525">
        <ele>153</ele>
        <time>2018-04-16T19:01:15Z</time>
      </trkpt>
      <trkpt lat="47.01715" lon="2.29533">
        <ele>153</ele>
        <time>2018-04-16T19:01:53Z</time>
      </trkpt>
      <trkpt lat="47.01715" lon="2.29533">
        <ele>153</ele>
        <time>2018-04-16T19:01:58Z</time>
      </trkpt>
      <trkpt lat="47.01715" lon="2.29533">
        <ele>153</ele>
        <time>2018-04-16T19:02:03Z</time>
      </trkpt>
      <trkpt lat="47.01715" lon="2.29533">
        <ele>153</ele>
        <time>2018-04-16T19:02:09Z</time>
      </trkpt>
      <trkpt lat="47.01715" lon="2.29533">
        <ele>153</ele>
        <time>2018-04-16T19:02:14Z</time>
      </trkpt>
      <trkpt lat="47.01717" lon="2.29534">
        <ele>153</ele>
        <time>2018-04-16T19:02:21Z</time>
      </trkpt>
      <trkpt lat="47.01739" lon="2.29539">
        <ele>153</ele>
        <time>2018-04-16T19:02:29Z</time>
      </trkpt>
      <trkpt lat="47.01742" lon="2.2954">
        <ele>153</ele>
        <time>2018-04-16T19:02:30Z</time>
      </trkpt>
      <trkpt lat="47.01745" lon="2.29541">
        <ele>153</ele>
        <time>2018-04-16T19:02:31Z</time>
      </trkpt>
      <trkpt lat="47.01765" lon="2.29544">
        <ele>155</ele>
        <time>2018-04-16T19:02:38Z</time>
      </trkpt>
      <trkpt lat="47.0178" lon="2.29544">
        <ele>156</ele>
        <time>2018-04-16T19:02:43Z</time>
      </trkpt>
      <trkpt lat="47.018" lon="2.29546">
        <ele>156</ele>
        <time>2018-04-16T19:02:50Z</time>
      </trkpt>
      <trkpt lat="47.01806" lon="2.29546">
        <ele>156</ele>
        <time>2018-04-16T19:02:52Z</time>
      </trkpt>
      <trkpt lat="47.01809" lon="2.29545">
        <ele>156</ele>
        <time>2018-04-16T19:02:53Z</time>
      </trkpt>
      <trkpt lat="47.01812" lon="2.29545">
        <ele>156</ele>
        <time>2018-04-16T19:02:54Z</time>
      </trkpt>
      <trkpt lat="47.01815" lon="2.29545">
        <ele>156</ele>
        <time>2018-04-16T19:02:55Z</time>
      </trkpt>
      <trkpt lat="47.01818" lon="2.29545">
        <ele>156</ele>
        <time>2018-04-16T19:02:56Z</time>
      </trkpt>
      <trkpt lat="47.0182" lon="2.29545">
        <ele>156</ele>
        <time>2018-04-16T19:02:57Z</time>
      </trkpt>
      <trkpt lat="47.01827" lon="2.29544">
        <ele>156</ele>
        <time>2018-04-16T19:02:59Z</time>
      </trkpt>
      <trkpt lat="47.0183" lon="2.29545">
        <ele>156</ele>
        <time>2018-04-16T19:03:00Z</time>
      </trkpt>
      <trkpt lat="47.01844" lon="2.29543">
        <ele>158</ele>
        <time>2018-04-16T19:03:05Z</time>
      </trkpt>
      <trkpt lat="47.01859" lon="2.29543">
        <ele>159</ele>
        <time>2018-04-16T19:03:10Z</time>
      </trkpt>
      <trkpt lat="47.01862" lon="2.29543">
        <ele>159</ele>
        <time>2018-04-16T19:03:11Z</time>
      </trkpt>
      <trkpt lat="47.01865" lon="2.29542">
        <ele>159</ele>
        <time>2018-04-16T19:03:12Z</time>
      </trkpt>
      <trkpt lat="47.01874" lon="2.29543">
        <ele>159</ele>
        <time>2018-04-16T19:03:15Z</time>
      </trkpt>
      <trkpt lat="47.01931" lon="2.29545">
        <ele>160</ele>
        <time>2018-04-16T19:03:31Z</time>
      </trkpt>
      <trkpt lat="47.01985" lon="2.29555">
        <ele>160</ele>
        <time>2018-04-16T19:03:45Z</time>
      </trkpt>
      <trkpt lat="47.02042" lon="2.29565">
        <ele>159</ele>
        <time>2018-04-16T19:03:59Z</time>
      </trkpt>
      <trkpt lat="47.02096" lon="2.29574">
        <ele>159</ele>
        <time>2018-04-16T19:04:13Z</time>
      </trkpt>
      <trkpt lat="47.02129" lon="2.2956">
        <ele>157</ele>
        <time>2018-04-16T19:04:21Z</time>
      </trkpt>
      <trkpt lat="47.02133" lon="2.29556">
        <ele>157</ele>
        <time>2018-04-16T19:04:22Z</time>
      </trkpt>
      <trkpt lat="47.02178" lon="2.29503">
        <ele>154</ele>
        <time>2018-04-16T19:04:32Z</time>
      </trkpt>
      <trkpt lat="47.02201" lon="2.29459">
        <ele>151</ele>
        <time>2018-04-16T19:04:44Z</time>
      </trkpt>
      <trkpt lat="47.02237" lon="2.2952">
        <ele>152</ele>
        <time>2018-04-16T19:05:04Z</time>
      </trkpt>
      <trkpt lat="47.0225" lon="2.29596">
        <ele>153</ele>
        <time>2018-04-16T19:05:19Z</time>
      </trkpt>
      <trkpt lat="47.02248" lon="2.29627">
        <ele>153</ele>
        <time>2018-04-16T19:05:26Z</time>
      </trkpt>
      <trkpt lat="47.022" lon="2.29665">
        <ele>154</ele>
        <time>2018-04-16T19:05:47Z</time>
      </trkpt>
      <trkpt lat="47.02154" lon="2.29713">
        <ele>157</ele>
        <time>2018-04-16T19:06:05Z</time>
      </trkpt>
      <trkpt lat="47.02142" lon="2.29729">
        <ele>157</ele>
        <time>2018-04-16T19:06:10Z</time>
      </trkpt>
      <trkpt lat="47.0211" lon="2.29774">
        <ele>156</ele>
        <time>2018-04-16T19:06:23Z</time>
      </trkpt>
      <trkpt lat="47.02072" lon="2.29833">
        <ele>156</ele>
        <time>2018-04-16T19:06:41Z</time>
      </trkpt>
      <trkpt lat="47.02054" lon="2.29862">
        <ele>156</ele>
        <time>2018-04-16T19:06:55Z</time>
      </trkpt>
      <trkpt lat="47.02046" lon="2.29869">
        <ele>156</ele>
        <time>2018-04-16T19:07:03Z</time>
      </trkpt>
      <trkpt lat="47.02042" lon="2.29868">
        <ele>156</ele>
        <time>2018-04-16T19:07:20Z</time>
      </trkpt>
      <trkpt lat="47.02026" lon="2.29863">
        <ele>156</ele>
        <time>2018-04-16T19:07:28Z</time>
      </trkpt>
      <trkpt lat="47.02025" lon="2.29858">
        <ele>156</ele>
        <time>2018-04-16T19:07:30Z</time>
      </trkpt>
      <trkpt lat="47.02026" lon="2.29856">
        <ele>156</ele>
        <time>2018-04-16T19:07:41Z</time>
      </trkpt>
      <trkpt lat="47.02026" lon="2.29855">
        <ele>156</ele>
        <time>2018-04-16T19:07:51Z</time>
      </trkpt>
      <trkpt lat="47.02026" lon="2.29855">
        <ele>156</ele>
        <time>2018-04-16T19:07:57Z</time>
      </trkpt>
      <trkpt lat="47.02026" lon="2.29855">
        <ele>156</ele>
        <time>2018-04-16T19:08:04Z</time>
      </trkpt>
      <trkpt lat="47.02026" lon="2.29856">
        <ele>156</ele>
        <time>2018-04-16T19:08:18Z</time>
      </trkpt>
      <trkpt lat="47.02026" lon="2.29856">
        <ele>156</ele>
        <time>2018-04-16T19:08:19Z</time>
      </trkpt>
      <trkpt lat="47.02026" lon="2.29856">
        <ele>156</ele>
        <time>2018-04-16T19:08:27Z</time>
      </trkpt>
      <trkpt lat="47.02026" lon="2.29856">
        <ele>156</ele>
        <time>2018-04-16T19:08:28Z</time>
      </trkpt>
      <trkpt lat="47.02026" lon="2.29856">
        <ele>156</ele>
        <time>2018-04-16T19:08:30Z</time>
      </trkpt>
      <trkpt lat="47.02026" lon="2.29856">
        <ele>156</ele>
        <time>2018-04-16T19:08:31Z</time>
      </trkpt>
      <trkpt lat="47.02025" lon="2.29856">
        <ele>156</ele>
        <time>2018-04-16T19:08:34Z</time>
      </trkpt>
      <trkpt lat="47.02025" lon="2.29856">
        <ele>156</ele>
        <time>2018-04-16T19:08:41Z</time>
      </trkpt>
      <trkpt lat="47.02025" lon="2.29855">
        <ele>156</ele>
        <time>2018-04-16T19:08:46Z</time>
      </trkpt>
      <trkpt lat="47.02025" lon="2.29855">
        <ele>156</ele>
        <time>2018-04-16T19:08:48Z</time>
      </trkpt>
      <trkpt lat="47.02025" lon="2.29855">
        <ele>156</ele>
        <time>2018-04-16T19:08:51Z</time>
      </trkpt>
      <trkpt lat="47.02025" lon="2.29855">
        <ele>156</ele>
        <time>2018-04-16T19:08:53Z</time>
      </trkpt>
      <trkpt lat="47.02024" lon="2.29855">
        <ele>156</ele>
        <time>2018-04-16T19:09:04Z</time>
      </trkpt>
      <trkpt lat="47.02025" lon="2.29855">
        <ele>156</ele>
        <time>2018-04-16T19:09:55Z</time>
      </trkpt>
      <trkpt lat="47.02025" lon="2.29855">
        <ele>156</ele>
        <time>2018-04-16T19:10:13Z</time>
      </trkpt>
      <trkpt lat="47.02025" lon="2.29855">
        <ele>156</ele>
        <time>2018-04-16T19:10:15Z</time>
      </trkpt>
      <trkpt lat="47.02025" lon="2.29855">
        <ele>156</ele>
        <time>2018-04-16T19:10:17Z</time>
      </trkpt>
      <trkpt lat="47.02025" lon="2.29855">
        <ele>156</ele>
        <time>2018-04-16T19:10:18Z</time>
      </trkpt>
      <trkpt lat="47.02025" lon="2.29855">
        <ele>156</ele>
        <time>2018-04-16T19:10:21Z</time>
      </trkpt>
      <trkpt lat="47.02025" lon="2.29855">
        <ele>156</ele>
        <time>2018-04-16T19:10:22Z</time>
      </trkpt>
      <trkpt lat="47.02025" lon="2.29855">
        <ele>156</ele>
        <time>2018-04-16T19:10:23Z</time>
      </trkpt>
      <trkpt lat="47.02025" lon="2.29855">
        <ele>156</ele>
        <time>2018-04-16T19:10:25Z</time>
      </trkpt>
      <trkpt lat="47.02025" lon="2.29855">
        <ele>156</ele>
        <time>2018-04-16T19:10:26Z</time>
      </trkpt>
      <trkpt lat="47.02026" lon="2.29856">
        <ele>156</ele>
        <time>2018-04-16T19:10:44Z</time>
      </trkpt>
      <trkpt lat="47.02026" lon="2.2986">
        <ele>156</ele>
        <time>2018-04-16T19:11:17Z</time>
      </trkpt>
      <trkpt lat="47.02027" lon="2.29861">
        <ele>156</ele>
        <time>2018-04-16T19:11:22Z</time>
      </trkpt>
      <trkpt lat="47.02027" lon="2.2986">
        <ele>156</ele>
        <time>2018-04-16T19:11:23Z</time>
      </trkpt>
      <trkpt lat="47.02028" lon="2.2986">
        <ele>156</ele>
        <time>2018-04-16T19:11:24Z</time>
      </trkpt>
      <trkpt lat="47.02027" lon="2.2986">
        <ele>156</ele>
        <time>2018-04-16T19:11:25Z</time>
      </trkpt>
      <trkpt lat="47.02027" lon="2.29859">
        <ele>156</ele>
        <time>2018-04-16T19:11:30Z</time>
      </trkpt>
      <trkpt lat="47.02027" lon="2.29858">
        <ele>156</ele>
        <time>2018-04-16T19:11:31Z</time>
      </trkpt>
      <trkpt lat="47.02027" lon="2.29858">
        <ele>156</ele>
        <time>2018-04-16T19:11:32Z</time>
      </trkpt>
      <trkpt lat="47.02027" lon="2.29858">
        <ele>156</ele>
        <time>2018-04-16T19:11:33Z</time>
      </trkpt>
      <trkpt lat="47.02028" lon="2.29859">
        <ele>156</ele>
        <time>2018-04-16T19:11:56Z</time>
      </trkpt>
      <trkpt lat="47.02029" lon="2.29859">
        <ele>156</ele>
        <time>2018-04-16T19:12:05Z</time>
      </trkpt>
      <trkpt lat="47.02029" lon="2.2986">
        <ele>156</ele>
        <time>2018-04-16T19:12:11Z</time>
      </trkpt>
      <trkpt lat="47.0203" lon="2.2986">
        <ele>156</ele>
        <time>2018-04-16T19:12:25Z</time>
      </trkpt>
      <trkpt lat="47.02031" lon="2.2986">
        <ele>156</ele>
        <time>2018-04-16T19:12:34Z</time>
      </trkpt>
      <trkpt lat="47.02031" lon="2.2986">
        <ele>156</ele>
        <time>2018-04-16T19:12:44Z</time>
      </trkpt>
      <trkpt lat="47.0203" lon="2.29861">
        <ele>156</ele>
        <time>2018-04-16T19:13:35Z</time>
      </trkpt>
      <trkpt lat="47.02033" lon="2.29864">
        <ele>156</ele>
        <time>2018-04-16T19:13:41Z</time>
      </trkpt>
      <trkpt lat="47.0205" lon="2.29873">
        <ele>156</ele>
        <time>2018-04-16T19:13:52Z</time>
      </trkpt>
    </trkseg>
  </trk>
  <trk>
    <name><![CDATA[20180610195922-k1GEa]]></name>
    <trkseg>
      <trkpt lat="46.76637" lon="2.43194">
        <ele>170</ele>
      </trkpt>
      <trkpt lat="46.7669" lon="2.43162">
        <ele>163</ele>
      </trkpt>
      <trkpt lat="46.76714" lon="2.43128">
        <ele>161</ele>
      </trkpt>
      <trkpt lat="46.76746" lon="2.43111">
        <ele>160</ele>
      </trkpt>
      <trkpt lat="46.76775" lon="2.43101">
        <ele>161</ele>
      </trkpt>
      <trkpt lat="46.76809" lon="2.43092">
        <ele>162</ele>
      </trkpt>
      <trkpt lat="46.76845" lon="2.43078">
        <ele>160</ele>
      </trkpt>
      <trkpt lat="46.76839" lon="2.43063">
        <ele>159</ele>
      </trkpt>
      <trkpt lat="46.76832" lon="2.43055">
        <ele>158</ele>
      </trkpt>
      <trkpt lat="46.76813" lon="2.43048">
        <ele>157</ele>
      </trkpt>
      <trkpt lat="46.76799" lon="2.43028">
        <ele>155</ele>
      </trkpt>
      <trkpt lat="46.76786" lon="2.43005">
        <ele>154</ele>
      </trkpt>
      <trkpt lat="46.76782" lon="2.43">
        <ele>154</ele>
      </trkpt>
    </trkseg>
  </trk>
  <trk>
    <name><![CDATA[20180610195922-k1GEa]]></name>
    <trkseg>
      <trkpt lat="46.7679" lon="2.43025">
        <ele>155</ele>
        <time>2018-04-16T11:22:40Z</time>
      </trkpt>
      <trkpt lat="46.7679" lon="2.43023">
        <ele>155</ele>
        <time>2018-04-16T11:22:41Z</time>
      </trkpt>
      <trkpt lat="46.76778" lon="2.42972">
        <ele>149</ele>
        <time>2018-04-16T11:23:19Z</time>
      </trkpt>
      <trkpt lat="46.76778" lon="2.42972">
        <ele>149</ele>
        <time>2018-04-16T11:23:31Z</time>
      </trkpt>
      <trkpt lat="46.76779" lon="2.42972">
        <ele>149</ele>
        <time>2018-04-16T11:23:38Z</time>
      </trkpt>
      <trkpt lat="46.76777" lon="2.42971">
        <ele>149</ele>
        <time>2018-04-16T11:23:43Z</time>
      </trkpt>
      <trkpt lat="46.76772" lon="2.42939">
        <ele>149</ele>
        <time>2018-04-16T11:23:53Z</time>
      </trkpt>
      <trkpt lat="46.76771" lon="2.42935">
        <ele>148</ele>
        <time>2018-04-16T11:23:54Z</time>
      </trkpt>
      <trkpt lat="46.76765" lon="2.42898">
        <ele>147</ele>
        <time>2018-04-16T11:24:03Z</time>
      </trkpt>
      <trkpt lat="46.76765" lon="2.42893">
        <ele>147</ele>
        <time>2018-04-16T11:24:04Z</time>
      </trkpt>
      <trkpt lat="46.76761" lon="2.4287">
        <ele>147</ele>
        <time>2018-04-16T11:24:09Z</time>
      </trkpt>
      <trkpt lat="46.76758" lon="2.42852">
        <ele>147</ele>
        <time>2018-04-16T11:24:13Z</time>
      </trkpt>
      <trkpt lat="46.76756" lon="2.42843">
        <ele>148</ele>
        <time>2018-04-16T11:24:15Z</time>
      </trkpt>
      <trkpt lat="46.76756" lon="2.42838">
        <ele>148</ele>
        <time>2018-04-16T11:24:16Z</time>
      </trkpt>
      <trkpt lat="46.76754" lon="2.42827">
        <ele>148</ele>
        <time>2018-04-16T11:24:18Z</time>
      </trkpt>
      <trkpt lat="46.76752" lon="2.42815">
        <ele>148</ele>
        <time>2018-04-16T11:24:20Z</time>
      </trkpt>
      <trkpt lat="46.76741" lon="2.4275">
        <ele>150</ele>
        <time>2018-04-16T11:24:29Z</time>
      </trkpt>
      <trkpt lat="46.76736" lon="2.42708">
        <ele>148</ele>
        <time>2018-04-16T11:24:39Z</time>
      </trkpt>
      <trkpt lat="46.76773" lon="2.42702">
        <ele>148</ele>
        <time>2018-04-16T11:24:56Z</time>
      </trkpt>
      <trkpt lat="46.76777" lon="2.42702">
        <ele>148</ele>
        <time>2018-04-16T11:24:57Z</time>
      </trkpt>
      <trkpt lat="46.76801" lon="2.42704">
        <ele>148</ele>
        <time>2018-04-16T11:25:03Z</time>
      </trkpt>
      <trkpt lat="46.76816" lon="2.42703">
        <ele>148</ele>
        <time>2018-04-16T11:25:07Z</time>
      </trkpt>
      <trkpt lat="46.76824" lon="2.42702">
        <ele>148</ele>
        <time>2018-04-16T11:25:09Z</time>
      </trkpt>
      <trkpt lat="46.76837" lon="2.427">
        <ele>147</ele>
        <time>2018-04-16T11:25:12Z</time>
      </trkpt>
      <trkpt lat="46.76841" lon="2.42699">
        <ele>147</ele>
        <time>2018-04-16T11:25:13Z</time>
      </trkpt>
      <trkpt lat="46.76858" lon="2.42695">
        <ele>147</ele>
        <time>2018-04-16T11:25:17Z</time>
      </trkpt>
      <trkpt lat="46.76909" lon="2.42683">
        <ele>147</ele>
        <time>2018-04-16T11:25:31Z</time>
      </trkpt>
      <trkpt lat="46.76959" lon="2.42666">
        <ele>146</ele>
        <time>2018-04-16T11:25:45Z</time>
      </trkpt>
      <trkpt lat="46.77008" lon="2.42632">
        <ele>146</ele>
        <time>2018-04-16T11:25:59Z</time>
      </trkpt>
      <trkpt lat="46.77046" lon="2.42585">
        <ele>146</ele>
        <time>2018-04-16T11:26:12Z</time>
      </trkpt>
      <trkpt lat="46.77057" lon="2.42564">
        <ele>147</ele>
        <time>2018-04-16T11:26:17Z</time>
      </trkpt>
      <trkpt lat="46.77063" lon="2.42551">
        <ele>147</ele>
        <time>2018-04-16T11:26:20Z</time>
      </trkpt>
      <trkpt lat="46.77065" lon="2.42546">
        <ele>147</ele>
        <time>2018-04-16T11:26:21Z</time>
      </trkpt>
      <trkpt lat="46.77081" lon="2.42506">
        <ele>148</ele>
        <time>2018-04-16T11:26:29Z</time>
      </trkpt>
      <trkpt lat="46.77087" lon="2.4249">
        <ele>148</ele>
        <time>2018-04-16T11:26:32Z</time>
      </trkpt>
      <trkpt lat="46.77101" lon="2.42454">
        <ele>149</ele>
        <time>2018-04-16T11:26:39Z</time>
      </trkpt>
      <trkpt lat="46.77125" lon="2.42384">
        <ele>150</ele>
        <time>2018-04-16T11:26:52Z</time>
      </trkpt>
      <trkpt lat="46.7714" lon="2.42317">
        <ele>149</ele>
        <time>2018-04-16T11:27:03Z</time>
      </trkpt>
      <trkpt lat="46.77139" lon="2.42298">
        <ele>149</ele>
        <time>2018-04-16T11:27:06Z</time>
      </trkpt>
      <trkpt lat="46.77112" lon="2.42225">
        <ele>148</ele>
        <time>2018-04-16T11:27:18Z</time>
      </trkpt>
      <trkpt lat="46.77108" lon="2.42185">
        <ele>148</ele>
        <time>2018-04-16T11:27:24Z</time>
      </trkpt>
      <trkpt lat="46.77109" lon="2.42171">
        <ele>148</ele>
        <time>2018-04-16T11:27:26Z</time>
      </trkpt>
      <trkpt lat="46.77119" lon="2.42093">
        <ele>149</ele>
        <time>2018-04-16T11:27:38Z</time>
      </trkpt>
      <trkpt lat="46.77136" lon="2.42018">
        <ele>149</ele>
        <time>2018-04-16T11:27:50Z</time>
      </trkpt>
      <trkpt lat="46.77169" lon="2.41955">
        <ele>148</ele>
        <time>2018-04-16T11:28:02Z</time>
      </trkpt>
      <trkpt lat="46.77214" lon="2.41911">
        <ele>148</ele>
        <time>2018-04-16T11:28:14Z</time>
      </trkpt>
      <trkpt lat="46.7727" lon="2.41885">
        <ele>146</ele>
        <time>2018-04-16T11:28:25Z</time>
      </trkpt>
      <trkpt lat="46.77317" lon="2.41849">
        <ele>146</ele>
        <time>2018-04-16T11:28:36Z</time>
      </trkpt>
      <trkpt lat="46.77369" lon="2.41811">
        <ele>146</ele>
        <time>2018-04-16T11:28:48Z</time>
      </trkpt>
      <trkpt lat="46.77385" lon="2.41796">
        <ele>146</ele>
        <time>2018-04-16T11:28:52Z</time>
      </trkpt>
      <trkpt lat="46.77421" lon="2.41747">
        <ele>145</ele>
        <time>2018-04-16T11:29:02Z</time>
      </trkpt>
      <trkpt lat="46.77457" lon="2.41681">
        <ele>146</ele>
        <time>2018-04-16T11:29:14Z</time>
      </trkpt>
      <trkpt lat="46.77486" lon="2.41609">
        <ele>146</ele>
        <time>2018-04-16T11:29:26Z</time>
      </trkpt>
      <trkpt lat="46.77487" lon="2.41598">
        <ele>146</ele>
        <time>2018-04-16T11:29:46Z</time>
      </trkpt>
      <trkpt lat="46.77487" lon="2.41597">
        <ele>146</ele>
        <time>2018-04-16T11:29:54Z</time>
      </trkpt>
      <trkpt lat="46.7753" lon="2.41546">
        <ele>146</ele>
        <time>2018-04-16T11:30:11Z</time>
      </trkpt>
      <trkpt lat="46.7758" lon="2.41508">
        <ele>145</ele>
        <time>2018-04-16T11:30:26Z</time>
      </trkpt>
      <trkpt lat="46.77604" lon="2.4149">
        <ele>145</ele>
        <time>2018-04-16T11:30:32Z</time>
      </trkpt>
      <trkpt lat="46.77609" lon="2.41487">
        <ele>145</ele>
        <time>2018-04-16T11:30:33Z</time>
      </trkpt>
      <trkpt lat="46.77643" lon="2.41461">
        <ele>145</ele>
        <time>2018-04-16T11:30:41Z</time>
      </trkpt>
      <trkpt lat="46.7766" lon="2.41448">
        <ele>145</ele>
        <time>2018-04-16T11:30:45Z</time>
      </trkpt>
      <trkpt lat="46.77664" lon="2.41445">
        <ele>145</ele>
        <time>2018-04-16T11:30:46Z</time>
      </trkpt>
      <trkpt lat="46.77668" lon="2.41441">
        <ele>145</ele>
        <time>2018-04-16T11:30:47Z</time>
      </trkpt>
      <trkpt lat="46.77677" lon="2.41434">
        <ele>145</ele>
        <time>2018-04-16T11:30:49Z</time>
      </trkpt>
      <trkpt lat="46.77697" lon="2.41417">
        <ele>145</ele>
        <time>2018-04-16T11:30:54Z</time>
      </trkpt>
      <trkpt lat="46.77709" lon="2.41406">
        <ele>146</ele>
        <time>2018-04-16T11:30:57Z</time>
      </trkpt>
      <trkpt lat="46.77725" lon="2.4139">
        <ele>146</ele>
        <time>2018-04-16T11:31:01Z</time>
      </trkpt>
      <trkpt lat="46.77747" lon="2.41363">
        <ele>146</ele>
        <time>2018-04-16T11:31:07Z</time>
      </trkpt>
      <trkpt lat="46.77751" lon="2.41358">
        <ele>146</ele>
        <time>2018-04-16T11:31:08Z</time>
      </trkpt>
      <trkpt lat="46.77757" lon="2.41348">
        <ele>146</ele>
        <time>2018-04-16T11:31:10Z</time>
      </trkpt>
      <trkpt lat="46.77763" lon="2.41338">
        <ele>146</ele>
        <time>2018-04-16T11:31:12Z</time>
      </trkpt>
      <trkpt lat="46.77769" lon="2.41327">
        <ele>146</ele>
        <time>2018-04-16T11:31:14Z</time>
      </trkpt>
      <trkpt lat="46.778" lon="2.41254">
        <ele>145</ele>
        <time>2018-04-16T11:31:26Z</time>
      </trkpt>
      <trkpt lat="46.7783" lon="2.41181">
        <ele>146</ele>
        <time>2018-04-16T11:31:38Z</time>
      </trkpt>
      <trkpt lat="46.77856" lon="2.41111">
        <ele>147</ele>
        <time>2018-04-16T11:31:49Z</time>
      </trkpt>
      <trkpt lat="46.77881" lon="2.41041">
        <ele>147</ele>
        <time>2018-04-16T11:32:00Z</time>
      </trkpt>
      <trkpt lat="46.77883" lon="2.41027">
        <ele>147</ele>
        <time>2018-04-16T11:32:02Z</time>
      </trkpt>
      <trkpt lat="46.77878" lon="2.40988">
        <ele>148</ele>
        <time>2018-04-16T11:32:08Z</time>
      </trkpt>
      <trkpt lat="46.77847" lon="2.40922">
        <ele>150</ele>
        <time>2018-04-16T11:32:20Z</time>
      </trkpt>
      <trkpt lat="46.7783" lon="2.40873">
        <ele>152</ele>
        <time>2018-04-16T11:32:28Z</time>
      </trkpt>
      <trkpt lat="46.77829" lon="2.40854">
        <ele>152</ele>
        <time>2018-04-16T11:32:31Z</time>
      </trkpt>
      <trkpt lat="46.77842" lon="2.40798">
        <ele>151</ele>
        <time>2018-04-16T11:32:40Z</time>
      </trkpt>
      <trkpt lat="46.77869" lon="2.40728">
        <ele>150</ele>
        <time>2018-04-16T11:32:51Z</time>
      </trkpt>
      <trkpt lat="46.77886" lon="2.4065">
        <ele>150</ele>
        <time>2018-04-16T11:33:02Z</time>
      </trkpt>
      <trkpt lat="46.77896" lon="2.40615">
        <ele>150</ele>
        <time>2018-04-16T11:33:07Z</time>
      </trkpt>
      <trkpt lat="46.77938" lon="2.40555">
        <ele>149</ele>
        <time>2018-04-16T11:33:18Z</time>
      </trkpt>
      <trkpt lat="46.77945" lon="2.40544">
        <ele>149</ele>
        <time>2018-04-16T11:33:20Z</time>
      </trkpt>
      <trkpt lat="46.77961" lon="2.40525">
        <ele>149</ele>
        <time>2018-04-16T11:33:24Z</time>
      </trkpt>
      <trkpt lat="46.7801" lon="2.40478">
        <ele>148</ele>
        <time>2018-04-16T11:33:35Z</time>
      </trkpt>
      <trkpt lat="46.78046" lon="2.40466">
        <ele>148</ele>
        <time>2018-04-16T11:33:42Z</time>
      </trkpt>
      <trkpt lat="46.78081" lon="2.40455">
        <ele>147</ele>
        <time>2018-04-16T11:33:50Z</time>
      </trkpt>
      <trkpt lat="46.78114" lon="2.4044">
        <ele>146</ele>
        <time>2018-04-16T11:34:27Z</time>
      </trkpt>
      <trkpt lat="46.78119" lon="2.40438">
        <ele>146</ele>
        <time>2018-04-16T11:34:53Z</time>
      </trkpt>
      <trkpt lat="46.78119" lon="2.40438">
        <ele>146</ele>
        <time>2018-04-16T11:34:54Z</time>
      </trkpt>
      <trkpt lat="46.78119" lon="2.40438">
        <ele>146</ele>
        <time>2018-04-16T11:34:57Z</time>
      </trkpt>
      <trkpt lat="46.78119" lon="2.40438">
        <ele>146</ele>
        <time>2018-04-16T11:34:58Z</time>
      </trkpt>
      <trkpt lat="46.78119" lon="2.40438">
        <ele>146</ele>
        <time>2018-04-16T11:34:59Z</time>
      </trkpt>
      <trkpt lat="46.78119" lon="2.40438">
        <ele>146</ele>
        <time>2018-04-16T11:35:02Z</time>
      </trkpt>
      <trkpt lat="46.78119" lon="2.40438">
        <ele>146</ele>
        <time>2018-04-16T11:35:09Z</time>
      </trkpt>
      <trkpt lat="46.78119" lon="2.40438">
        <ele>146</ele>
        <time>2018-04-16T11:35:15Z</time>
      </trkpt>
      <trkpt lat="46.78119" lon="2.40438">
        <ele>146</ele>
        <time>2018-04-16T11:35:24Z</time>
      </trkpt>
      <trkpt lat="46.78119" lon="2.40438">
        <ele>146</ele>
        <time>2018-04-16T11:35:40Z</time>
      </trkpt>
      <trkpt lat="46.78119" lon="2.40438">
        <ele>146</ele>
        <time>2018-04-16T11:35:44Z</time>
      </trkpt>
      <trkpt lat="46.78119" lon="2.40437">
        <ele>146</ele>
        <time>2018-04-16T11:35:48Z</time>
      </trkpt>
      <trkpt lat="46.78119" lon="2.40435">
        <ele>146</ele>
        <time>2018-04-16T11:36:41Z</time>
      </trkpt>
      <trkpt lat="46.78122" lon="2.40425">
        <ele>146</ele>
        <time>2018-04-16T11:36:44Z</time>
      </trkpt>
      <trkpt lat="46.78138" lon="2.40387">
        <ele>146</ele>
        <time>2018-04-16T11:36:54Z</time>
      </trkpt>
      <trkpt lat="46.78153" lon="2.40349">
        <ele>146</ele>
        <time>2018-04-16T11:37:02Z</time>
      </trkpt>
      <trkpt lat="46.78166" lon="2.40312">
        <ele>146</ele>
        <time>2018-04-16T11:37:09Z</time>
      </trkpt>
      <trkpt lat="46.78175" lon="2.40291">
        <ele>146</ele>
        <time>2018-04-16T11:37:13Z</time>
      </trkpt>
      <trkpt lat="46.78179" lon="2.4028">
        <ele>146</ele>
        <time>2018-04-16T11:37:15Z</time>
      </trkpt>
      <trkpt lat="46.78192" lon="2.40247">
        <ele>146</ele>
        <time>2018-04-16T11:37:21Z</time>
      </trkpt>
      <trkpt lat="46.78203" lon="2.40219">
        <ele>146</ele>
        <time>2018-04-16T11:37:26Z</time>
      </trkpt>
      <trkpt lat="46.78212" lon="2.40196">
        <ele>147</ele>
        <time>2018-04-16T11:37:30Z</time>
      </trkpt>
      <trkpt lat="46.78216" lon="2.40184">
        <ele>147</ele>
        <time>2018-04-16T11:37:32Z</time>
      </trkpt>
      <trkpt lat="46.78226" lon="2.40161">
        <ele>147</ele>
        <time>2018-04-16T11:37:36Z</time>
      </trkpt>
      <trkpt lat="46.78237" lon="2.40133">
        <ele>147</ele>
        <time>2018-04-16T11:37:41Z</time>
      </trkpt>
      <trkpt lat="46.78241" lon="2.40122">
        <ele>147</ele>
        <time>2018-04-16T11:37:43Z</time>
      </trkpt>
      <trkpt lat="46.78251" lon="2.401">
        <ele>146</ele>
        <time>2018-04-16T11:37:47Z</time>
      </trkpt>
      <trkpt lat="46.78275" lon="2.40043">
        <ele>147</ele>
        <time>2018-04-16T11:37:57Z</time>
      </trkpt>
      <trkpt lat="46.78301" lon="2.39973">
        <ele>149</ele>
        <time>2018-04-16T11:38:09Z</time>
      </trkpt>
      <trkpt lat="46.78308" lon="2.3989">
        <ele>152</ele>
        <time>2018-04-16T11:38:22Z</time>
      </trkpt>
      <trkpt lat="46.78312" lon="2.39809">
        <ele>157</ele>
        <time>2018-04-16T11:38:35Z</time>
      </trkpt>
      <trkpt lat="46.78315" lon="2.39747">
        <ele>160</ele>
        <time>2018-04-16T11:38:48Z</time>
      </trkpt>
      <trkpt lat="46.78318" lon="2.39715">
        <ele>161</ele>
        <time>2018-04-16T11:38:54Z</time>
      </trkpt>
      <trkpt lat="46.78323" lon="2.39651">
        <ele>163</ele>
        <time>2018-04-16T11:39:07Z</time>
      </trkpt>
      <trkpt lat="46.78332" lon="2.3958">
        <ele>165</ele>
        <time>2018-04-16T11:39:24Z</time>
      </trkpt>
      <trkpt lat="46.7834" lon="2.39513">
        <ele>166</ele>
        <time>2018-04-16T11:39:45Z</time>
      </trkpt>
      <trkpt lat="46.78342" lon="2.39478">
        <ele>167</ele>
        <time>2018-04-16T11:39:58Z</time>
      </trkpt>
      <trkpt lat="46.78344" lon="2.39444">
        <ele>167</ele>
        <time>2018-04-16T11:40:10Z</time>
      </trkpt>
      <trkpt lat="46.78343" lon="2.39426">
        <ele>166</ele>
        <time>2018-04-16T11:40:15Z</time>
      </trkpt>
      <trkpt lat="46.7834" lon="2.39387">
        <ele>166</ele>
        <time>2018-04-16T11:40:25Z</time>
      </trkpt>
      <trkpt lat="46.78338" lon="2.39371">
        <ele>165</ele>
        <time>2018-04-16T11:40:29Z</time>
      </trkpt>
      <trkpt lat="46.78335" lon="2.39309">
        <ele>165</ele>
        <time>2018-04-16T11:40:44Z</time>
      </trkpt>
      <trkpt lat="46.78335" lon="2.39296">
        <ele>165</ele>
        <time>2018-04-16T11:40:47Z</time>
      </trkpt>
      <trkpt lat="46.78334" lon="2.39282">
        <ele>166</ele>
        <time>2018-04-16T11:40:50Z</time>
      </trkpt>
      <trkpt lat="46.78332" lon="2.39247">
        <ele>165</ele>
        <time>2018-04-16T11:40:57Z</time>
      </trkpt>
      <trkpt lat="46.78332" lon="2.39223">
        <ele>163</ele>
        <time>2018-04-16T11:41:01Z</time>
      </trkpt>
      <trkpt lat="46.78334" lon="2.39196">
        <ele>168</ele>
        <time>2018-04-16T11:41:05Z</time>
      </trkpt>
      <trkpt lat="46.78335" lon="2.39165">
        <ele>166</ele>
        <time>2018-04-16T11:41:09Z</time>
      </trkpt>
      <trkpt lat="46.78347" lon="2.39086">
        <ele>166</ele>
        <time>2018-04-16T11:41:21Z</time>
      </trkpt>
      <trkpt lat="46.78385" lon="2.39024">
        <ele>163</ele>
        <time>2018-04-16T11:41:34Z</time>
      </trkpt>
      <trkpt lat="46.78414" lon="2.38979">
        <ele>158</ele>
        <time>2018-04-16T11:41:41Z</time>
      </trkpt>
      <trkpt lat="46.78452" lon="2.38921">
        <ele>156</ele>
        <time>2018-04-16T11:41:49Z</time>
      </trkpt>
      <trkpt lat="46.78491" lon="2.38863">
        <ele>153</ele>
        <time>2018-04-16T11:41:57Z</time>
      </trkpt>
      <trkpt lat="46.78502" lon="2.38854">
        <ele>152</ele>
        <time>2018-04-16T11:41:59Z</time>
      </trkpt>
      <trkpt lat="46.78561" lon="2.3884">
        <ele>151</ele>
        <time>2018-04-16T11:42:09Z</time>
      </trkpt>
      <trkpt lat="46.78617" lon="2.3886">
        <ele>150</ele>
        <time>2018-04-16T11:42:17Z</time>
      </trkpt>
      <trkpt lat="46.78669" lon="2.38902">
        <ele>149</ele>
        <time>2018-04-16T11:42:26Z</time>
      </trkpt>
      <trkpt lat="46.78716" lon="2.38946">
        <ele>149</ele>
        <time>2018-04-16T11:42:37Z</time>
      </trkpt>
      <trkpt lat="46.78763" lon="2.38991">
        <ele>149</ele>
        <time>2018-04-16T11:42:49Z</time>
      </trkpt>
      <trkpt lat="46.78775" lon="2.39004">
        <ele>149</ele>
        <time>2018-04-16T11:42:52Z</time>
      </trkpt>
      <trkpt lat="46.78812" lon="2.39062">
        <ele>149</ele>
        <time>2018-04-16T11:43:03Z</time>
      </trkpt>
      <trkpt lat="46.78846" lon="2.39121">
        <ele>149</ele>
        <time>2018-04-16T11:43:15Z</time>
      </trkpt>
      <trkpt lat="46.78871" lon="2.39156">
        <ele>149</ele>
        <time>2018-04-16T11:43:23Z</time>
      </trkpt>
      <trkpt lat="46.78912" lon="2.39209">
        <ele>150</ele>
        <time>2018-04-16T11:43:36Z</time>
      </trkpt>
      <trkpt lat="46.78926" lon="2.39234">
        <ele>148</ele>
        <time>2018-04-16T11:43:41Z</time>
      </trkpt>
      <trkpt lat="46.78946" lon="2.39272">
        <ele>147</ele>
        <time>2018-04-16T11:43:52Z</time>
      </trkpt>
      <trkpt lat="46.78967" lon="2.39237">
        <ele>146</ele>
        <time>2018-04-16T11:44:01Z</time>
      </trkpt>
      <trkpt lat="46.78976" lon="2.39205">
        <ele>146</ele>
        <time>2018-04-16T11:44:06Z</time>
      </trkpt>
      <trkpt lat="46.78992" lon="2.39142">
        <ele>146</ele>
        <time>2018-04-16T11:44:16Z</time>
      </trkpt>
      <trkpt lat="46.79014" lon="2.39064">
        <ele>145</ele>
        <time>2018-04-16T11:44:30Z</time>
      </trkpt>
      <trkpt lat="46.79033" lon="2.3899">
        <ele>146</ele>
        <time>2018-04-16T11:44:43Z</time>
      </trkpt>
      <trkpt lat="46.79055" lon="2.38915">
        <ele>147</ele>
        <time>2018-04-16T11:44:56Z</time>
      </trkpt>
      <trkpt lat="46.79065" lon="2.38879">
        <ele>147</ele>
        <time>2018-04-16T11:45:02Z</time>
      </trkpt>
      <trkpt lat="46.79086" lon="2.38799">
        <ele>147</ele>
        <time>2018-04-16T11:45:15Z</time>
      </trkpt>
      <trkpt lat="46.79107" lon="2.3872">
        <ele>148</ele>
        <time>2018-04-16T11:45:28Z</time>
      </trkpt>
      <trkpt lat="46.79129" lon="2.38643">
        <ele>150</ele>
        <time>2018-04-16T11:45:41Z</time>
      </trkpt>
      <trkpt lat="46.7915" lon="2.38567">
        <ele>151</ele>
        <time>2018-04-16T11:45:54Z</time>
      </trkpt>
      <trkpt lat="46.79161" lon="2.38536">
        <ele>152</ele>
        <time>2018-04-16T11:46:00Z</time>
      </trkpt>
      <trkpt lat="46.79181" lon="2.38508">
        <ele>149</ele>
        <time>2018-04-16T11:46:07Z</time>
      </trkpt>
      <trkpt lat="46.79227" lon="2.38467">
        <ele>149</ele>
        <time>2018-04-16T11:46:22Z</time>
      </trkpt>
      <trkpt lat="46.79236" lon="2.38461">
        <ele>149</ele>
        <time>2018-04-16T11:46:24Z</time>
      </trkpt>
      <trkpt lat="46.7929" lon="2.38437">
        <ele>146</ele>
        <time>2018-04-16T11:46:33Z</time>
      </trkpt>
      <trkpt lat="46.79314" lon="2.38421">
        <ele>146</ele>
        <time>2018-04-16T11:46:37Z</time>
      </trkpt>
      <trkpt lat="46.79323" lon="2.3841">
        <ele>147</ele>
        <time>2018-04-16T11:46:39Z</time>
      </trkpt>
      <trkpt lat="46.7933" lon="2.38396">
        <ele>148</ele>
        <time>2018-04-16T11:46:41Z</time>
      </trkpt>
      <trkpt lat="46.7935" lon="2.38321">
        <ele>149</ele>
        <time>2018-04-16T11:46:56Z</time>
      </trkpt>
      <trkpt lat="46.7936" lon="2.383">
        <ele>149</ele>
        <time>2018-04-16T11:47:03Z</time>
      </trkpt>
      <trkpt lat="46.79397" lon="2.38239">
        <ele>150</ele>
        <time>2018-04-16T11:47:25Z</time>
      </trkpt>
      <trkpt lat="46.79432" lon="2.3818">
        <ele>151</ele>
        <time>2018-04-16T11:47:47Z</time>
      </trkpt>
      <trkpt lat="46.79475" lon="2.38131">
        <ele>155</ele>
        <time>2018-04-16T11:48:08Z</time>
      </trkpt>
      <trkpt lat="46.79519" lon="2.38087">
        <ele>155</ele>
        <time>2018-04-16T11:48:27Z</time>
      </trkpt>
      <trkpt lat="46.79535" lon="2.38073">
        <ele>156</ele>
        <time>2018-04-16T11:48:33Z</time>
      </trkpt>
      <trkpt lat="46.79584" lon="2.38034">
        <ele>150</ele>
        <time>2018-04-16T11:48:47Z</time>
      </trkpt>
      <trkpt lat="46.79637" lon="2.38002">
        <ele>148</ele>
        <time>2018-04-16T11:48:55Z</time>
      </trkpt>
      <trkpt lat="46.79675" lon="2.37972">
        <ele>146</ele>
        <time>2018-04-16T11:49:01Z</time>
      </trkpt>
      <trkpt lat="46.79722" lon="2.37932">
        <ele>147</ele>
        <time>2018-04-16T11:49:10Z</time>
      </trkpt>
      <trkpt lat="46.79768" lon="2.37889">
        <ele>149</ele>
        <time>2018-04-16T11:49:23Z</time>
      </trkpt>
      <trkpt lat="46.79793" lon="2.37869">
        <ele>149</ele>
        <time>2018-04-16T11:49:34Z</time>
      </trkpt>
      <trkpt lat="46.79803" lon="2.37887">
        <ele>149</ele>
        <time>2018-04-16T11:49:41Z</time>
      </trkpt>
      <trkpt lat="46.79843" lon="2.3795">
        <ele>145</ele>
        <time>2018-04-16T11:49:52Z</time>
      </trkpt>
      <trkpt lat="46.7988" lon="2.3801">
        <ele>143</ele>
        <time>2018-04-16T11:50:01Z</time>
      </trkpt>
      <trkpt lat="46.79916" lon="2.38077">
        <ele>142</ele>
        <time>2018-04-16T11:50:13Z</time>
      </trkpt>
      <trkpt lat="46.79956" lon="2.38141">
        <ele>142</ele>
        <time>2018-04-16T11:50:23Z</time>
      </trkpt>
      <trkpt lat="46.7999" lon="2.38195">
        <ele>141</ele>
        <time>2018-04-16T11:50:36Z</time>
      </trkpt>
      <trkpt lat="46.80019" lon="2.38242">
        <ele>140</ele>
        <time>2018-04-16T11:50:47Z</time>
      </trkpt>
      <trkpt lat="46.80059" lon="2.38303">
        <ele>141</ele>
        <time>2018-04-16T11:51:00Z</time>
      </trkpt>
      <trkpt lat="46.80096" lon="2.38363">
        <ele>141</ele>
        <time>2018-04-16T11:51:12Z</time>
      </trkpt>
      <trkpt lat="46.80121" lon="2.38403">
        <ele>142</ele>
        <time>2018-04-16T11:51:21Z</time>
      </trkpt>
      <trkpt lat="46.80124" lon="2.38407">
        <ele>142</ele>
        <time>2018-04-16T11:51:22Z</time>
      </trkpt>
      <trkpt lat="46.80126" lon="2.3841">
        <ele>142</ele>
        <time>2018-04-16T11:51:23Z</time>
      </trkpt>
      <trkpt lat="46.8014" lon="2.38425">
        <ele>142</ele>
        <time>2018-04-16T11:51:31Z</time>
      </trkpt>
      <trkpt lat="46.8018" lon="2.38369">
        <ele>143</ele>
        <time>2018-04-16T11:51:45Z</time>
      </trkpt>
      <trkpt lat="46.80192" lon="2.38353">
        <ele>143</ele>
        <time>2018-04-16T11:51:49Z</time>
      </trkpt>
      <trkpt lat="46.80201" lon="2.38339">
        <ele>143</ele>
        <time>2018-04-16T11:51:52Z</time>
      </trkpt>
      <trkpt lat="46.80231" lon="2.38274">
        <ele>144</ele>
        <time>2018-04-16T11:52:05Z</time>
      </trkpt>
      <trkpt lat="46.80254" lon="2.38201">
        <ele>144</ele>
        <time>2018-04-16T11:52:17Z</time>
      </trkpt>
      <trkpt lat="46.8028" lon="2.3813">
        <ele>144</ele>
        <time>2018-04-16T11:52:29Z</time>
      </trkpt>
      <trkpt lat="46.80286" lon="2.38114">
        <ele>144</ele>
        <time>2018-04-16T11:52:32Z</time>
      </trkpt>
      <trkpt lat="46.80321" lon="2.38048">
        <ele>144</ele>
        <time>2018-04-16T11:52:45Z</time>
      </trkpt>
      <trkpt lat="46.80327" lon="2.38038">
        <ele>144</ele>
        <time>2018-04-16T11:52:47Z</time>
      </trkpt>
      <trkpt lat="46.8035" lon="2.3799">
        <ele>142</ele>
        <time>2018-04-16T11:52:57Z</time>
      </trkpt>
      <trkpt lat="46.80339" lon="2.37932">
        <ele>142</ele>
        <time>2018-04-16T11:53:07Z</time>
      </trkpt>
      <trkpt lat="46.80308" lon="2.37867">
        <ele>145</ele>
        <time>2018-04-16T11:53:18Z</time>
      </trkpt>
      <trkpt lat="46.8028" lon="2.37794">
        <ele>146</ele>
        <time>2018-04-16T11:53:32Z</time>
      </trkpt>
      <trkpt lat="46.80288" lon="2.3772">
        <ele>145</ele>
        <time>2018-04-16T11:53:46Z</time>
      </trkpt>
      <trkpt lat="46.80293" lon="2.3764">
        <ele>144</ele>
        <time>2018-04-16T11:53:59Z</time>
      </trkpt>
      <trkpt lat="46.80297" lon="2.37597">
        <ele>144</ele>
        <time>2018-04-16T11:54:06Z</time>
      </trkpt>
      <trkpt lat="46.80298" lon="2.37591">
        <ele>144</ele>
        <time>2018-04-16T11:54:07Z</time>
      </trkpt>
      <trkpt lat="46.80299" lon="2.3756">
        <ele>144</ele>
        <time>2018-04-16T11:54:12Z</time>
      </trkpt>
      <trkpt lat="46.80299" lon="2.37547">
        <ele>144</ele>
        <time>2018-04-16T11:54:14Z</time>
      </trkpt>
      <trkpt lat="46.80306" lon="2.37467">
        <ele>142</ele>
        <time>2018-04-16T11:54:26Z</time>
      </trkpt>
      <trkpt lat="46.80311" lon="2.37441">
        <ele>142</ele>
        <time>2018-04-16T11:54:30Z</time>
      </trkpt>
      <trkpt lat="46.80323" lon="2.37362">
        <ele>141</ele>
        <time>2018-04-16T11:54:42Z</time>
      </trkpt>
      <trkpt lat="46.80327" lon="2.37346">
        <ele>141</ele>
        <time>2018-04-16T11:54:45Z</time>
      </trkpt>
      <trkpt lat="46.80346" lon="2.37265">
        <ele>142</ele>
        <time>2018-04-16T11:54:59Z</time>
      </trkpt>
      <trkpt lat="46.80353" lon="2.37188">
        <ele>142</ele>
        <time>2018-04-16T11:55:12Z</time>
      </trkpt>
      <trkpt lat="46.80353" lon="2.37152">
        <ele>143</ele>
        <time>2018-04-16T11:55:23Z</time>
      </trkpt>
      <trkpt lat="46.80358" lon="2.37145">
        <ele>143</ele>
        <time>2018-04-16T11:55:48Z</time>
      </trkpt>
      <trkpt lat="46.80363" lon="2.37146">
        <ele>143</ele>
        <time>2018-04-16T11:55:51Z</time>
      </trkpt>
      <trkpt lat="46.8041" lon="2.37111">
        <ele>143</ele>
        <time>2018-04-16T11:56:13Z</time>
      </trkpt>
      <trkpt lat="46.80434" lon="2.37118">
        <ele>142</ele>
        <time>2018-04-16T11:56:24Z</time>
      </trkpt>
      <trkpt lat="46.8044" lon="2.37121">
        <ele>142</ele>
        <time>2018-04-16T11:57:02Z</time>
      </trkpt>
      <trkpt lat="46.80465" lon="2.37133">
        <ele>142</ele>
        <time>2018-04-16T11:57:13Z</time>
      </trkpt>
      <trkpt lat="46.80476" lon="2.37138">
        <ele>142</ele>
        <time>2018-04-16T11:57:17Z</time>
      </trkpt>
      <trkpt lat="46.80519" lon="2.37155">
        <ele>141</ele>
        <time>2018-04-16T11:57:36Z</time>
      </trkpt>
      <trkpt lat="46.80522" lon="2.37154">
        <ele>141</ele>
        <time>2018-04-16T11:57:41Z</time>
      </trkpt>
      <trkpt lat="46.80523" lon="2.37154">
        <ele>141</ele>
        <time>2018-04-16T11:57:44Z</time>
      </trkpt>
      <trkpt lat="46.80524" lon="2.37153">
        <ele>141</ele>
        <time>2018-04-16T11:57:47Z</time>
      </trkpt>
      <trkpt lat="46.80524" lon="2.37153">
        <ele>141</ele>
        <time>2018-04-16T11:57:49Z</time>
      </trkpt>
      <trkpt lat="46.80524" lon="2.37153">
        <ele>141</ele>
        <time>2018-04-16T11:57:50Z</time>
      </trkpt>
      <trkpt lat="46.80524" lon="2.37153">
        <ele>141</ele>
        <time>2018-04-16T11:57:51Z</time>
      </trkpt>
      <trkpt lat="46.80524" lon="2.37153">
        <ele>141</ele>
        <time>2018-04-16T11:57:53Z</time>
      </trkpt>
      <trkpt lat="46.80524" lon="2.37153">
        <ele>141</ele>
        <time>2018-04-16T11:57:54Z</time>
      </trkpt>
      <trkpt lat="46.80524" lon="2.37153">
        <ele>141</ele>
        <time>2018-04-16T11:57:57Z</time>
      </trkpt>
      <trkpt lat="46.80524" lon="2.37153">
        <ele>141</ele>
        <time>2018-04-16T11:57:58Z</time>
      </trkpt>
      <trkpt lat="46.80524" lon="2.37153">
        <ele>141</ele>
        <time>2018-04-16T11:58:12Z</time>
      </trkpt>
      <trkpt lat="46.80524" lon="2.37153">
        <ele>141</ele>
        <time>2018-04-16T11:58:34Z</time>
      </trkpt>
      <trkpt lat="46.80524" lon="2.37153">
        <ele>141</ele>
        <time>2018-04-16T11:58:47Z</time>
      </trkpt>
      <trkpt lat="46.80525" lon="2.37153">
        <ele>141</ele>
        <time>2018-04-16T11:58:53Z</time>
      </trkpt>
      <trkpt lat="46.80525" lon="2.37152">
        <ele>141</ele>
        <time>2018-04-16T11:58:59Z</time>
      </trkpt>
      <trkpt lat="46.80525" lon="2.37152">
        <ele>141</ele>
        <time>2018-04-16T11:59:09Z</time>
      </trkpt>
      <trkpt lat="46.80526" lon="2.37152">
        <ele>141</ele>
        <time>2018-04-16T11:59:22Z</time>
      </trkpt>
      <trkpt lat="46.80526" lon="2.37152">
        <ele>141</ele>
        <time>2018-04-16T11:59:29Z</time>
      </trkpt>
      <trkpt lat="46.80525" lon="2.37153">
        <ele>141</ele>
        <time>2018-04-16T11:59:56Z</time>
      </trkpt>
      <trkpt lat="46.80525" lon="2.37153">
        <ele>141</ele>
        <time>2018-04-16T12:00:05Z</time>
      </trkpt>
      <trkpt lat="46.80525" lon="2.37153">
        <ele>141</ele>
        <time>2018-04-16T12:00:06Z</time>
      </trkpt>
      <trkpt lat="46.80525" lon="2.37153">
        <ele>141</ele>
        <time>2018-04-16T12:00:07Z</time>
      </trkpt>
      <trkpt lat="46.80525" lon="2.37153">
        <ele>141</ele>
        <time>2018-04-16T12:00:08Z</time>
      </trkpt>
      <trkpt lat="46.80525" lon="2.37153">
        <ele>141</ele>
        <time>2018-04-16T12:00:09Z</time>
      </trkpt>
      <trkpt lat="46.80532" lon="2.3715">
        <ele>141</ele>
        <time>2018-04-16T12:00:17Z</time>
      </trkpt>
      <trkpt lat="46.80536" lon="2.37141">
        <ele>141</ele>
        <time>2018-04-16T12:00:19Z</time>
      </trkpt>
      <trkpt lat="46.80554" lon="2.37061">
        <ele>141</ele>
        <time>2018-04-16T12:00:30Z</time>
      </trkpt>
      <trkpt lat="46.80561" lon="2.37012">
        <ele>141</ele>
        <time>2018-04-16T12:00:46Z</time>
      </trkpt>
      <trkpt lat="46.80563" lon="2.37005">
        <ele>140</ele>
        <time>2018-04-16T12:00:49Z</time>
      </trkpt>
      <trkpt lat="46.80569" lon="2.36973">
        <ele>141</ele>
        <time>2018-04-16T12:00:57Z</time>
      </trkpt>
      <trkpt lat="46.8057" lon="2.36968">
        <ele>141</ele>
        <time>2018-04-16T12:00:58Z</time>
      </trkpt>
      <trkpt lat="46.80598" lon="2.36898">
        <ele>141</ele>
        <time>2018-04-16T12:01:12Z</time>
      </trkpt>
      <trkpt lat="46.806" lon="2.36894">
        <ele>141</ele>
        <time>2018-04-16T12:01:13Z</time>
      </trkpt>
      <trkpt lat="46.80611" lon="2.3687">
        <ele>141</ele>
        <time>2018-04-16T12:01:19Z</time>
      </trkpt>
      <trkpt lat="46.80615" lon="2.3686">
        <ele>141</ele>
        <time>2018-04-16T12:01:21Z</time>
      </trkpt>
      <trkpt lat="46.80634" lon="2.36827">
        <ele>142</ele>
        <time>2018-04-16T12:01:29Z</time>
      </trkpt>
      <trkpt lat="46.80665" lon="2.36784">
        <ele>142</ele>
        <time>2018-04-16T12:01:41Z</time>
      </trkpt>
      <trkpt lat="46.80707" lon="2.36734">
        <ele>141</ele>
        <time>2018-04-16T12:01:56Z</time>
      </trkpt>
      <trkpt lat="46.80752" lon="2.36684">
        <ele>141</ele>
        <time>2018-04-16T12:02:10Z</time>
      </trkpt>
      <trkpt lat="46.80774" lon="2.36666">
        <ele>142</ele>
        <time>2018-04-16T12:02:16Z</time>
      </trkpt>
      <trkpt lat="46.80828" lon="2.36637">
        <ele>142</ele>
        <time>2018-04-16T12:02:29Z</time>
      </trkpt>
      <trkpt lat="46.80883" lon="2.36642">
        <ele>141</ele>
        <time>2018-04-16T12:02:42Z</time>
      </trkpt>
      <trkpt lat="46.80937" lon="2.36658">
        <ele>141</ele>
        <time>2018-04-16T12:02:54Z</time>
      </trkpt>
      <trkpt lat="46.80992" lon="2.36675">
        <ele>141</ele>
        <time>2018-04-16T12:03:06Z</time>
      </trkpt>
      <trkpt lat="46.81049" lon="2.36683">
        <ele>141</ele>
        <time>2018-04-16T12:03:19Z</time>
      </trkpt>
      <trkpt lat="46.81074" lon="2.36678">
        <ele>141</ele>
        <time>2018-04-16T12:03:25Z</time>
      </trkpt>
      <trkpt lat="46.81079" lon="2.36676">
        <ele>141</ele>
        <time>2018-04-16T12:03:26Z</time>
      </trkpt>
      <trkpt lat="46.81113" lon="2.36664">
        <ele>141</ele>
        <time>2018-04-16T12:03:34Z</time>
      </trkpt>
      <trkpt lat="46.81167" lon="2.36634">
        <ele>141</ele>
        <time>2018-04-16T12:03:48Z</time>
      </trkpt>
      <trkpt lat="46.81175" lon="2.36627">
        <ele>141</ele>
        <time>2018-04-16T12:03:50Z</time>
      </trkpt>
      <trkpt lat="46.81226" lon="2.3659">
        <ele>140</ele>
        <time>2018-04-16T12:04:04Z</time>
      </trkpt>
      <trkpt lat="46.81231" lon="2.36589">
        <ele>140</ele>
        <time>2018-04-16T12:04:05Z</time>
      </trkpt>
      <trkpt lat="46.81284" lon="2.36601">
        <ele>140</ele>
        <time>2018-04-16T12:04:16Z</time>
      </trkpt>
      <trkpt lat="46.81338" lon="2.36616">
        <ele>139</ele>
        <time>2018-04-16T12:04:27Z</time>
      </trkpt>
      <trkpt lat="46.81392" lon="2.36611">
        <ele>140</ele>
        <time>2018-04-16T12:04:38Z</time>
      </trkpt>
      <trkpt lat="46.81447" lon="2.36585">
        <ele>140</ele>
        <time>2018-04-16T12:04:51Z</time>
      </trkpt>
      <trkpt lat="46.81496" lon="2.36546">
        <ele>139</ele>
        <time>2018-04-16T12:05:03Z</time>
      </trkpt>
      <trkpt lat="46.81544" lon="2.36502">
        <ele>139</ele>
        <time>2018-04-16T12:05:14Z</time>
      </trkpt>
      <trkpt lat="46.81594" lon="2.36466">
        <ele>139</ele>
        <time>2018-04-16T12:05:25Z</time>
      </trkpt>
      <trkpt lat="46.8164" lon="2.36414">
        <ele>138</ele>
        <time>2018-04-16T12:05:36Z</time>
      </trkpt>
      <trkpt lat="46.81675" lon="2.36349">
        <ele>138</ele>
        <time>2018-04-16T12:05:47Z</time>
      </trkpt>
      <trkpt lat="46.81692" lon="2.36274">
        <ele>138</ele>
        <time>2018-04-16T12:05:58Z</time>
      </trkpt>
      <trkpt lat="46.81706" lon="2.36195">
        <ele>138</ele>
        <time>2018-04-16T12:06:09Z</time>
      </trkpt>
      <trkpt lat="46.81736" lon="2.36126">
        <ele>139</ele>
        <time>2018-04-16T12:06:20Z</time>
      </trkpt>
      <trkpt lat="46.81763" lon="2.36088">
        <ele>140</ele>
        <time>2018-04-16T12:06:28Z</time>
      </trkpt>
      <trkpt lat="46.81802" lon="2.36031">
        <ele>140</ele>
        <time>2018-04-16T12:06:40Z</time>
      </trkpt>
      <trkpt lat="46.8184" lon="2.35974">
        <ele>139</ele>
        <time>2018-04-16T12:06:52Z</time>
      </trkpt>
      <trkpt lat="46.81879" lon="2.35914">
        <ele>138</ele>
        <time>2018-04-16T12:07:04Z</time>
      </trkpt>
      <trkpt lat="46.81921" lon="2.35855">
        <ele>139</ele>
        <time>2018-04-16T12:07:16Z</time>
      </trkpt>
      <trkpt lat="46.81956" lon="2.35796">
        <ele>140</ele>
        <time>2018-04-16T12:07:28Z</time>
      </trkpt>
      <trkpt lat="46.81978" lon="2.35719">
        <ele>139</ele>
        <time>2018-04-16T12:07:40Z</time>
      </trkpt>
      <trkpt lat="46.81991" lon="2.35642">
        <ele>140</ele>
        <time>2018-04-16T12:07:51Z</time>
      </trkpt>
      <trkpt lat="46.81992" lon="2.35603">
        <ele>140</ele>
        <time>2018-04-16T12:07:56Z</time>
      </trkpt>
      <trkpt lat="46.81995" lon="2.35589">
        <ele>141</ele>
        <time>2018-04-16T12:07:58Z</time>
      </trkpt>
      <trkpt lat="46.82024" lon="2.35534">
        <ele>140</ele>
        <time>2018-04-16T12:08:08Z</time>
      </trkpt>
      <trkpt lat="46.82027" lon="2.35529">
        <ele>140</ele>
        <time>2018-04-16T12:08:09Z</time>
      </trkpt>
      <trkpt lat="46.82031" lon="2.35523">
        <ele>140</ele>
        <time>2018-04-16T12:08:10Z</time>
      </trkpt>
      <trkpt lat="46.82034" lon="2.35518">
        <ele>140</ele>
        <time>2018-04-16T12:08:11Z</time>
      </trkpt>
      <trkpt lat="46.82037" lon="2.35513">
        <ele>140</ele>
        <time>2018-04-16T12:08:12Z</time>
      </trkpt>
      <trkpt lat="46.8204" lon="2.35508">
        <ele>140</ele>
        <time>2018-04-16T12:08:13Z</time>
      </trkpt>
      <trkpt lat="46.82044" lon="2.35503">
        <ele>140</ele>
        <time>2018-04-16T12:08:14Z</time>
      </trkpt>
      <trkpt lat="46.8206" lon="2.35477">
        <ele>140</ele>
        <time>2018-04-16T12:08:19Z</time>
      </trkpt>
      <trkpt lat="46.82098" lon="2.35416">
        <ele>140</ele>
        <time>2018-04-16T12:08:31Z</time>
      </trkpt>
      <trkpt lat="46.82127" lon="2.35371">
        <ele>140</ele>
        <time>2018-04-16T12:08:40Z</time>
      </trkpt>
      <trkpt lat="46.8215" lon="2.35344">
        <ele>140</ele>
        <time>2018-04-16T12:08:47Z</time>
      </trkpt>
      <trkpt lat="46.82189" lon="2.3536">
        <ele>141</ele>
        <time>2018-04-16T12:08:59Z</time>
      </trkpt>
      <trkpt lat="46.82238" lon="2.35384">
        <ele>141</ele>
        <time>2018-04-16T12:09:14Z</time>
      </trkpt>
      <trkpt lat="46.82295" lon="2.35386">
        <ele>143</ele>
        <time>2018-04-16T12:09:30Z</time>
      </trkpt>
      <trkpt lat="46.82313" lon="2.35375">
        <ele>143</ele>
        <time>2018-04-16T12:09:38Z</time>
      </trkpt>
      <trkpt lat="46.82315" lon="2.35377">
        <ele>143</ele>
        <time>2018-04-16T12:09:41Z</time>
      </trkpt>
      <trkpt lat="46.82317" lon="2.35379">
        <ele>143</ele>
        <time>2018-04-16T12:09:43Z</time>
      </trkpt>
      <trkpt lat="46.82329" lon="2.35343">
        <ele>144</ele>
        <time>2018-04-16T12:09:58Z</time>
      </trkpt>
      <trkpt lat="46.82331" lon="2.3534">
        <ele>144</ele>
        <time>2018-04-16T12:10:27Z</time>
      </trkpt>
      <trkpt lat="46.82335" lon="2.35344">
        <ele>144</ele>
        <time>2018-04-16T12:10:46Z</time>
      </trkpt>
      <trkpt lat="46.82337" lon="2.35346">
        <ele>145</ele>
        <time>2018-04-16T12:11:16Z</time>
      </trkpt>
      <trkpt lat="46.82359" lon="2.35354">
        <ele>145</ele>
        <time>2018-04-16T12:11:28Z</time>
      </trkpt>
      <trkpt lat="46.82366" lon="2.35357">
        <ele>145</ele>
        <time>2018-04-16T12:11:31Z</time>
      </trkpt>
      <trkpt lat="46.82369" lon="2.3536">
        <ele>145</ele>
        <time>2018-04-16T12:11:32Z</time>
      </trkpt>
      <trkpt lat="46.82373" lon="2.35364">
        <ele>145</ele>
        <time>2018-04-16T12:11:34Z</time>
      </trkpt>
      <trkpt lat="46.82378" lon="2.35374">
        <ele>145</ele>
        <time>2018-04-16T12:11:37Z</time>
      </trkpt>
      <trkpt lat="46.8238" lon="2.35378">
        <ele>145</ele>
        <time>2018-04-16T12:11:38Z</time>
      </trkpt>
      <trkpt lat="46.82402" lon="2.3545">
        <ele>145</ele>
        <time>2018-04-16T12:11:56Z</time>
      </trkpt>
      <trkpt lat="46.82414" lon="2.35481">
        <ele>145</ele>
        <time>2018-04-16T12:12:03Z</time>
      </trkpt>
      <trkpt lat="46.82452" lon="2.35539">
        <ele>148</ele>
        <time>2018-04-16T12:12:18Z</time>
      </trkpt>
      <trkpt lat="46.82491" lon="2.35573">
        <ele>148</ele>
        <time>2018-04-16T12:12:31Z</time>
      </trkpt>
      <trkpt lat="46.82537" lon="2.35568">
        <ele>154</ele>
        <time>2018-04-16T12:12:52Z</time>
      </trkpt>
      <trkpt lat="46.82548" lon="2.35574">
        <ele>154</ele>
        <time>2018-04-16T12:12:57Z</time>
      </trkpt>
      <trkpt lat="46.82565" lon="2.35591">
        <ele>153</ele>
        <time>2018-04-16T12:13:08Z</time>
      </trkpt>
      <trkpt lat="46.82567" lon="2.35592">
        <ele>153</ele>
        <time>2018-04-16T12:13:09Z</time>
      </trkpt>
      <trkpt lat="46.82568" lon="2.35594">
        <ele>153</ele>
        <time>2018-04-16T12:13:10Z</time>
      </trkpt>
      <trkpt lat="46.8257" lon="2.35597">
        <ele>153</ele>
        <time>2018-04-16T12:13:11Z</time>
      </trkpt>
      <trkpt lat="46.82615" lon="2.35637">
        <ele>156</ele>
        <time>2018-04-16T12:13:36Z</time>
      </trkpt>
      <trkpt lat="46.82626" lon="2.35634">
        <ele>156</ele>
        <time>2018-04-16T12:13:42Z</time>
      </trkpt>
      <trkpt lat="46.82642" lon="2.35617">
        <ele>157</ele>
        <time>2018-04-16T12:13:51Z</time>
      </trkpt>
      <trkpt lat="46.82648" lon="2.35609">
        <ele>158</ele>
        <time>2018-04-16T12:13:55Z</time>
      </trkpt>
      <trkpt lat="46.82663" lon="2.3559">
        <ele>159</ele>
        <time>2018-04-16T12:14:04Z</time>
      </trkpt>
      <trkpt lat="46.82669" lon="2.35585">
        <ele>160</ele>
        <time>2018-04-16T12:14:07Z</time>
      </trkpt>
      <trkpt lat="46.82716" lon="2.35556">
        <ele>163</ele>
        <time>2018-04-16T12:14:33Z</time>
      </trkpt>
      <trkpt lat="46.82768" lon="2.35576">
        <ele>165</ele>
        <time>2018-04-16T12:14:57Z</time>
      </trkpt>
      <trkpt lat="46.82803" lon="2.35589">
        <ele>165</ele>
        <time>2018-04-16T12:15:09Z</time>
      </trkpt>
      <trkpt lat="46.82857" lon="2.35608">
        <ele>165</ele>
        <time>2018-04-16T12:15:26Z</time>
      </trkpt>
      <trkpt lat="46.82913" lon="2.35628">
        <ele>165</ele>
        <time>2018-04-16T12:15:42Z</time>
      </trkpt>
      <trkpt lat="46.82944" lon="2.35646">
        <ele>165</ele>
        <time>2018-04-16T12:15:51Z</time>
      </trkpt>
      <trkpt lat="46.8296" lon="2.35654">
        <ele>165</ele>
        <time>2018-04-16T12:15:56Z</time>
      </trkpt>
      <trkpt lat="46.83017" lon="2.35653">
        <ele>166</ele>
        <time>2018-04-16T12:16:12Z</time>
      </trkpt>
      <trkpt lat="46.83061" lon="2.35653">
        <ele>165</ele>
        <time>2018-04-16T12:16:24Z</time>
      </trkpt>
      <trkpt lat="46.831" lon="2.35687">
        <ele>163</ele>
        <time>2018-04-16T12:16:35Z</time>
      </trkpt>
      <trkpt lat="46.83121" lon="2.35712">
        <ele>162</ele>
        <time>2018-04-16T12:16:41Z</time>
      </trkpt>
      <trkpt lat="46.83125" lon="2.35716">
        <ele>162</ele>
        <time>2018-04-16T12:16:42Z</time>
      </trkpt>
      <trkpt lat="46.83128" lon="2.35721">
        <ele>162</ele>
        <time>2018-04-16T12:16:43Z</time>
      </trkpt>
      <trkpt lat="46.83131" lon="2.35726">
        <ele>162</ele>
        <time>2018-04-16T12:16:44Z</time>
      </trkpt>
      <trkpt lat="46.83133" lon="2.35732">
        <ele>162</ele>
        <time>2018-04-16T12:16:45Z</time>
      </trkpt>
      <trkpt lat="46.83161" lon="2.35807">
        <ele>161</ele>
        <time>2018-04-16T12:16:56Z</time>
      </trkpt>
      <trkpt lat="46.83189" lon="2.35866">
        <ele>160</ele>
        <time>2018-04-16T12:17:05Z</time>
      </trkpt>
      <trkpt lat="46.83236" lon="2.35911">
        <ele>159</ele>
        <time>2018-04-16T12:17:16Z</time>
      </trkpt>
      <trkpt lat="46.83264" lon="2.35936">
        <ele>158</ele>
        <time>2018-04-16T12:17:23Z</time>
      </trkpt>
      <trkpt lat="46.8329" lon="2.35957">
        <ele>158</ele>
        <time>2018-04-16T12:17:29Z</time>
      </trkpt>
      <trkpt lat="46.83339" lon="2.35999">
        <ele>158</ele>
        <time>2018-04-16T12:17:41Z</time>
      </trkpt>
      <trkpt lat="46.83371" lon="2.36027">
        <ele>158</ele>
        <time>2018-04-16T12:17:50Z</time>
      </trkpt>
      <trkpt lat="46.83401" lon="2.36043">
        <ele>159</ele>
        <time>2018-04-16T12:18:04Z</time>
      </trkpt>
      <trkpt lat="46.83403" lon="2.36043">
        <ele>159</ele>
        <time>2018-04-16T12:18:50Z</time>
      </trkpt>
      <trkpt lat="46.83403" lon="2.36043">
        <ele>159</ele>
        <time>2018-04-16T12:18:55Z</time>
      </trkpt>
      <trkpt lat="46.83403" lon="2.36043">
        <ele>159</ele>
        <time>2018-04-16T12:19:00Z</time>
      </trkpt>
      <trkpt lat="46.83404" lon="2.36043">
        <ele>159</ele>
        <time>2018-04-16T12:19:06Z</time>
      </trkpt>
      <trkpt lat="46.83403" lon="2.36045">
        <ele>159</ele>
        <time>2018-04-16T12:19:17Z</time>
      </trkpt>
      <trkpt lat="46.83398" lon="2.36048">
        <ele>159</ele>
        <time>2018-04-16T12:19:21Z</time>
      </trkpt>
      <trkpt lat="46.83423" lon="2.36071">
        <ele>159</ele>
        <time>2018-04-16T12:19:33Z</time>
      </trkpt>
      <trkpt lat="46.83441" lon="2.36086">
        <ele>159</ele>
        <time>2018-04-16T12:19:40Z</time>
      </trkpt>
      <trkpt lat="46.83489" lon="2.36127">
        <ele>160</ele>
        <time>2018-04-16T12:19:58Z</time>
      </trkpt>
      <trkpt lat="46.83497" lon="2.36135">
        <ele>160</ele>
        <time>2018-04-16T12:20:01Z</time>
      </trkpt>
      <trkpt lat="46.83517" lon="2.36152">
        <ele>160</ele>
        <time>2018-04-16T12:20:08Z</time>
      </trkpt>
      <trkpt lat="46.8352" lon="2.36154">
        <ele>160</ele>
        <time>2018-04-16T12:20:09Z</time>
      </trkpt>
      <trkpt lat="46.83532" lon="2.36164">
        <ele>160</ele>
        <time>2018-04-16T12:20:13Z</time>
      </trkpt>
      <trkpt lat="46.83552" lon="2.36181">
        <ele>160</ele>
        <time>2018-04-16T12:20:20Z</time>
      </trkpt>
      <trkpt lat="46.83557" lon="2.36185">
        <ele>160</ele>
        <time>2018-04-16T12:20:22Z</time>
      </trkpt>
      <trkpt lat="46.83563" lon="2.3619">
        <ele>160</ele>
        <time>2018-04-16T12:20:24Z</time>
      </trkpt>
      <trkpt lat="46.83601" lon="2.36222">
        <ele>161</ele>
        <time>2018-04-16T12:20:38Z</time>
      </trkpt>
      <trkpt lat="46.8364" lon="2.36255">
        <ele>162</ele>
        <time>2018-04-16T12:20:51Z</time>
      </trkpt>
      <trkpt lat="46.83681" lon="2.36289">
        <ele>162</ele>
        <time>2018-04-16T12:21:06Z</time>
      </trkpt>
      <trkpt lat="46.83704" lon="2.36309">
        <ele>162</ele>
        <time>2018-04-16T12:21:17Z</time>
      </trkpt>
      <trkpt lat="46.83707" lon="2.36307">
        <ele>162</ele>
        <time>2018-04-16T12:21:19Z</time>
      </trkpt>
      <trkpt lat="46.83715" lon="2.36245">
        <ele>162</ele>
        <time>2018-04-16T12:21:32Z</time>
      </trkpt>
      <trkpt lat="46.83726" lon="2.36163">
        <ele>163</ele>
        <time>2018-04-16T12:21:47Z</time>
      </trkpt>
      <trkpt lat="46.83737" lon="2.36084">
        <ele>163</ele>
        <time>2018-04-16T12:22:03Z</time>
      </trkpt>
      <trkpt lat="46.83749" lon="2.36004">
        <ele>162</ele>
        <time>2018-04-16T12:22:17Z</time>
      </trkpt>
      <trkpt lat="46.83761" lon="2.35926">
        <ele>162</ele>
        <time>2018-04-16T12:22:30Z</time>
      </trkpt>
      <trkpt lat="46.83773" lon="2.35844">
        <ele>161</ele>
        <time>2018-04-16T12:22:42Z</time>
      </trkpt>
      <trkpt lat="46.83786" lon="2.35763">
        <ele>161</ele>
        <time>2018-04-16T12:22:53Z</time>
      </trkpt>
      <trkpt lat="46.83799" lon="2.35682">
        <ele>161</ele>
        <time>2018-04-16T12:23:04Z</time>
      </trkpt>
      <trkpt lat="46.83811" lon="2.35601">
        <ele>160</ele>
        <time>2018-04-16T12:23:14Z</time>
      </trkpt>
      <trkpt lat="46.83824" lon="2.35519">
        <ele>160</ele>
        <time>2018-04-16T12:23:24Z</time>
      </trkpt>
      <trkpt lat="46.83837" lon="2.35436">
        <ele>160</ele>
        <time>2018-04-16T12:23:35Z</time>
      </trkpt>
      <trkpt lat="46.83845" lon="2.35383">
        <ele>160</ele>
        <time>2018-04-16T12:23:43Z</time>
      </trkpt>
      <trkpt lat="46.83857" lon="2.35307">
        <ele>161</ele>
        <time>2018-04-16T12:23:55Z</time>
      </trkpt>
      <trkpt lat="46.83869" lon="2.35224">
        <ele>162</ele>
        <time>2018-04-16T12:24:08Z</time>
      </trkpt>
      <trkpt lat="46.83881" lon="2.35156">
        <ele>164</ele>
        <time>2018-04-16T12:24:19Z</time>
      </trkpt>
      <trkpt lat="46.83893" lon="2.35077">
        <ele>165</ele>
        <time>2018-04-16T12:24:37Z</time>
      </trkpt>
      <trkpt lat="46.83909" lon="2.35001">
        <ele>166</ele>
        <time>2018-04-16T12:24:58Z</time>
      </trkpt>
      <trkpt lat="46.8392" lon="2.34953">
        <ele>165</ele>
        <time>2018-04-16T12:25:08Z</time>
      </trkpt>
      <trkpt lat="46.83937" lon="2.34873">
        <ele>164</ele>
        <time>2018-04-16T12:25:22Z</time>
      </trkpt>
      <trkpt lat="46.83948" lon="2.34828">
        <ele>164</ele>
        <time>2018-04-16T12:25:28Z</time>
      </trkpt>
      <trkpt lat="46.83954" lon="2.34796">
        <ele>163</ele>
        <time>2018-04-16T12:25:32Z</time>
      </trkpt>
      <trkpt lat="46.83956" lon="2.34788">
        <ele>163</ele>
        <time>2018-04-16T12:25:33Z</time>
      </trkpt>
      <trkpt lat="46.83958" lon="2.34781">
        <ele>163</ele>
        <time>2018-04-16T12:25:34Z</time>
      </trkpt>
      <trkpt lat="46.83966" lon="2.34743">
        <ele>164</ele>
        <time>2018-04-16T12:25:39Z</time>
      </trkpt>
      <trkpt lat="46.83968" lon="2.34736">
        <ele>164</ele>
        <time>2018-04-16T12:25:40Z</time>
      </trkpt>
      <trkpt lat="46.83985" lon="2.34656">
        <ele>165</ele>
        <time>2018-04-16T12:25:53Z</time>
      </trkpt>
      <trkpt lat="46.83986" lon="2.3465">
        <ele>165</ele>
        <time>2018-04-16T12:25:54Z</time>
      </trkpt>
      <trkpt lat="46.83996" lon="2.34595">
        <ele>165</ele>
        <time>2018-04-16T12:26:04Z</time>
      </trkpt>
      <trkpt lat="46.84007" lon="2.34512">
        <ele>163</ele>
        <time>2018-04-16T12:26:17Z</time>
      </trkpt>
      <trkpt lat="46.8401" lon="2.34486">
        <ele>161</ele>
        <time>2018-04-16T12:26:20Z</time>
      </trkpt>
      <trkpt lat="46.84019" lon="2.34445">
        <ele>160</ele>
        <time>2018-04-16T12:26:24Z</time>
      </trkpt>
      <trkpt lat="46.84035" lon="2.34368">
        <ele>159</ele>
        <time>2018-04-16T12:26:31Z</time>
      </trkpt>
      <trkpt lat="46.84043" lon="2.34336">
        <ele>159</ele>
        <time>2018-04-16T12:26:34Z</time>
      </trkpt>
      <trkpt lat="46.84049" lon="2.34254">
        <ele>159</ele>
        <time>2018-04-16T12:26:42Z</time>
      </trkpt>
      <trkpt lat="46.84058" lon="2.34167">
        <ele>155</ele>
        <time>2018-04-16T12:26:51Z</time>
      </trkpt>
      <trkpt lat="46.84067" lon="2.34149">
        <ele>152</ele>
        <time>2018-04-16T12:26:53Z</time>
      </trkpt>
      <trkpt lat="46.84079" lon="2.34134">
        <ele>152</ele>
        <time>2018-04-16T12:26:55Z</time>
      </trkpt>
      <trkpt lat="46.84121" lon="2.34085">
        <ele>150</ele>
        <time>2018-04-16T12:27:02Z</time>
      </trkpt>
      <trkpt lat="46.84127" lon="2.34067">
        <ele>150</ele>
        <time>2018-04-16T12:27:04Z</time>
      </trkpt>
      <trkpt lat="46.84131" lon="2.34048">
        <ele>150</ele>
        <time>2018-04-16T12:27:06Z</time>
      </trkpt>
      <trkpt lat="46.84132" lon="2.34021">
        <ele>150</ele>
        <time>2018-04-16T12:27:09Z</time>
      </trkpt>
      <trkpt lat="46.84128" lon="2.33938">
        <ele>151</ele>
        <time>2018-04-16T12:27:21Z</time>
      </trkpt>
      <trkpt lat="46.84103" lon="2.33863">
        <ele>152</ele>
        <time>2018-04-16T12:27:36Z</time>
      </trkpt>
      <trkpt lat="46.84069" lon="2.33801">
        <ele>148</ele>
        <time>2018-04-16T12:27:48Z</time>
      </trkpt>
      <trkpt lat="46.84057" lon="2.3378">
        <ele>148</ele>
        <time>2018-04-16T12:27:52Z</time>
      </trkpt>
      <trkpt lat="46.84054" lon="2.33774">
        <ele>148</ele>
        <time>2018-04-16T12:27:53Z</time>
      </trkpt>
      <trkpt lat="46.84051" lon="2.33769">
        <ele>148</ele>
        <time>2018-04-16T12:27:54Z</time>
      </trkpt>
      <trkpt lat="46.84031" lon="2.3374">
        <ele>148</ele>
        <time>2018-04-16T12:28:01Z</time>
      </trkpt>
      <trkpt lat="46.84027" lon="2.33734">
        <ele>148</ele>
        <time>2018-04-16T12:28:05Z</time>
      </trkpt>
      <trkpt lat="46.84027" lon="2.33734">
        <ele>148</ele>
        <time>2018-04-16T12:28:09Z</time>
      </trkpt>
      <trkpt lat="46.84027" lon="2.33734">
        <ele>148</ele>
        <time>2018-04-16T12:28:10Z</time>
      </trkpt>
      <trkpt lat="46.84028" lon="2.33734">
        <ele>148</ele>
        <time>2018-04-16T12:28:13Z</time>
      </trkpt>
      <trkpt lat="46.84027" lon="2.33734">
        <ele>148</ele>
        <time>2018-04-16T12:28:15Z</time>
      </trkpt>
      <trkpt lat="46.84028" lon="2.33734">
        <ele>148</ele>
        <time>2018-04-16T12:28:18Z</time>
      </trkpt>
      <trkpt lat="46.84027" lon="2.33734">
        <ele>148</ele>
        <time>2018-04-16T12:28:21Z</time>
      </trkpt>
      <trkpt lat="46.84027" lon="2.33734">
        <ele>148</ele>
        <time>2018-04-16T12:28:24Z</time>
      </trkpt>
      <trkpt lat="46.84027" lon="2.33734">
        <ele>148</ele>
        <time>2018-04-16T12:28:38Z</time>
      </trkpt>
      <trkpt lat="46.84027" lon="2.33734">
        <ele>148</ele>
        <time>2018-04-16T12:28:42Z</time>
      </trkpt>
      <trkpt lat="46.84027" lon="2.33734">
        <ele>148</ele>
        <time>2018-04-16T12:28:45Z</time>
      </trkpt>
      <trkpt lat="46.84028" lon="2.33734">
        <ele>148</ele>
        <time>2018-04-16T12:28:51Z</time>
      </trkpt>
      <trkpt lat="46.84028" lon="2.33733">
        <ele>148</ele>
        <time>2018-04-16T12:28:57Z</time>
      </trkpt>
      <trkpt lat="46.84028" lon="2.33733">
        <ele>148</ele>
        <time>2018-04-16T12:29:04Z</time>
      </trkpt>
      <trkpt lat="46.84028" lon="2.33733">
        <ele>148</ele>
        <time>2018-04-16T12:29:10Z</time>
      </trkpt>
      <trkpt lat="46.84028" lon="2.33733">
        <ele>148</ele>
        <time>2018-04-16T12:29:16Z</time>
      </trkpt>
      <trkpt lat="46.84028" lon="2.33733">
        <ele>148</ele>
        <time>2018-04-16T12:29:25Z</time>
      </trkpt>
      <trkpt lat="46.84029" lon="2.33729">
        <ele>148</ele>
        <time>2018-04-16T12:29:30Z</time>
      </trkpt>
      <trkpt lat="46.84032" lon="2.33713">
        <ele>148</ele>
        <time>2018-04-16T12:29:34Z</time>
      </trkpt>
      <trkpt lat="46.84042" lon="2.33655">
        <ele>149</ele>
        <time>2018-04-16T12:29:43Z</time>
      </trkpt>
      <trkpt lat="46.84046" lon="2.33637">
        <ele>149</ele>
        <time>2018-04-16T12:29:46Z</time>
      </trkpt>
      <trkpt lat="46.84049" lon="2.33625">
        <ele>149</ele>
        <time>2018-04-16T12:29:48Z</time>
      </trkpt>
      <trkpt lat="46.84055" lon="2.33606">
        <ele>150</ele>
        <time>2018-04-16T12:29:51Z</time>
      </trkpt>
      <trkpt lat="46.84057" lon="2.336">
        <ele>150</ele>
        <time>2018-04-16T12:29:52Z</time>
      </trkpt>
      <trkpt lat="46.84059" lon="2.33593">
        <ele>150</ele>
        <time>2018-04-16T12:29:53Z</time>
      </trkpt>
      <trkpt lat="46.84086" lon="2.33518">
        <ele>151</ele>
        <time>2018-04-16T12:30:02Z</time>
      </trkpt>
      <trkpt lat="46.84092" lon="2.33505">
        <ele>150</ele>
        <time>2018-04-16T12:30:04Z</time>
      </trkpt>
      <trkpt lat="46.84096" lon="2.33486">
        <ele>148</ele>
        <time>2018-04-16T12:30:09Z</time>
      </trkpt>
      <trkpt lat="46.84067" lon="2.33492">
        <ele>144</ele>
        <time>2018-04-16T12:30:17Z</time>
      </trkpt>
      <trkpt lat="46.84048" lon="2.33499">
        <ele>143</ele>
        <time>2018-04-16T12:30:21Z</time>
      </trkpt>
      <trkpt lat="46.84044" lon="2.33501">
        <ele>146</ele>
        <time>2018-04-16T12:30:22Z</time>
      </trkpt>
      <trkpt lat="46.8404" lon="2.33504">
        <ele>146</ele>
        <time>2018-04-16T12:30:23Z</time>
      </trkpt>
      <trkpt lat="46.84019" lon="2.33517">
        <ele>145</ele>
        <time>2018-04-16T12:30:29Z</time>
      </trkpt>
      <trkpt lat="46.83995" lon="2.33543">
        <ele>142</ele>
        <time>2018-04-16T12:30:38Z</time>
      </trkpt>
      <trkpt lat="46.83976" lon="2.33575">
        <ele>142</ele>
        <time>2018-04-16T12:30:48Z</time>
      </trkpt>
      <trkpt lat="46.83975" lon="2.33577">
        <ele>142</ele>
        <time>2018-04-16T12:30:49Z</time>
      </trkpt>
      <trkpt lat="46.83973" lon="2.33577">
        <ele>142</ele>
        <time>2018-04-16T12:30:50Z</time>
      </trkpt>
      <trkpt lat="46.83971" lon="2.33579">
        <ele>142</ele>
        <time>2018-04-16T12:31:00Z</time>
      </trkpt>
      <trkpt lat="46.83971" lon="2.33579">
        <ele>142</ele>
        <time>2018-04-16T12:31:02Z</time>
      </trkpt>
      <trkpt lat="46.83971" lon="2.33579">
        <ele>142</ele>
        <time>2018-04-16T12:31:05Z</time>
      </trkpt>
      <trkpt lat="46.83971" lon="2.33579">
        <ele>142</ele>
        <time>2018-04-16T12:31:07Z</time>
      </trkpt>
      <trkpt lat="46.83971" lon="2.33579">
        <ele>142</ele>
        <time>2018-04-16T12:31:10Z</time>
      </trkpt>
      <trkpt lat="46.83971" lon="2.33579">
        <ele>142</ele>
        <time>2018-04-16T12:31:11Z</time>
      </trkpt>
      <trkpt lat="46.8397" lon="2.33579">
        <ele>142</ele>
        <time>2018-04-16T12:31:12Z</time>
      </trkpt>
      <trkpt lat="46.8397" lon="2.3358">
        <ele>142</ele>
        <time>2018-04-16T12:31:13Z</time>
      </trkpt>
      <trkpt lat="46.83969" lon="2.3358">
        <ele>142</ele>
        <time>2018-04-16T12:31:14Z</time>
      </trkpt>
      <trkpt lat="46.8394" lon="2.33596">
        <ele>140</ele>
        <time>2018-04-16T12:31:28Z</time>
      </trkpt>
      <trkpt lat="46.83915" lon="2.33602">
        <ele>138</ele>
        <time>2018-04-16T12:31:34Z</time>
      </trkpt>
      <trkpt lat="46.83863" lon="2.33595">
        <ele>139</ele>
        <time>2018-04-16T12:31:48Z</time>
      </trkpt>
      <trkpt lat="46.8384" lon="2.33575">
        <ele>140</ele>
        <time>2018-04-16T12:31:59Z</time>
      </trkpt>
      <trkpt lat="46.83817" lon="2.33507">
        <ele>141</ele>
        <time>2018-04-16T12:32:18Z</time>
      </trkpt>
      <trkpt lat="46.83835" lon="2.3343">
        <ele>141</ele>
        <time>2018-04-16T12:32:34Z</time>
      </trkpt>
      <trkpt lat="46.83838" lon="2.33416">
        <ele>141</ele>
        <time>2018-04-16T12:32:37Z</time>
      </trkpt>
      <trkpt lat="46.83831" lon="2.33335">
        <ele>140</ele>
        <time>2018-04-16T12:32:54Z</time>
      </trkpt>
      <trkpt lat="46.83814" lon="2.33258">
        <ele>140</ele>
        <time>2018-04-16T12:33:08Z</time>
      </trkpt>
      <trkpt lat="46.83799" lon="2.33176">
        <ele>139</ele>
        <time>2018-04-16T12:33:22Z</time>
      </trkpt>
      <trkpt lat="46.83796" lon="2.33164">
        <ele>139</ele>
        <time>2018-04-16T12:33:24Z</time>
      </trkpt>
      <trkpt lat="46.83795" lon="2.33117">
        <ele>138</ele>
        <time>2018-04-16T12:33:32Z</time>
      </trkpt>
      <trkpt lat="46.83821" lon="2.33085">
        <ele>138</ele>
        <time>2018-04-16T12:33:41Z</time>
      </trkpt>
      <trkpt lat="46.83876" lon="2.3306">
        <ele>137</ele>
        <time>2018-04-16T12:33:55Z</time>
      </trkpt>
      <trkpt lat="46.83916" lon="2.3303">
        <ele>137</ele>
        <time>2018-04-16T12:34:07Z</time>
      </trkpt>
      <trkpt lat="46.83964" lon="2.3299">
        <ele>138</ele>
        <time>2018-04-16T12:34:21Z</time>
      </trkpt>
      <trkpt lat="46.84018" lon="2.32958">
        <ele>138</ele>
        <time>2018-04-16T12:34:35Z</time>
      </trkpt>
      <trkpt lat="46.84065" lon="2.32912">
        <ele>138</ele>
        <time>2018-04-16T12:34:49Z</time>
      </trkpt>
      <trkpt lat="46.84076" lon="2.32901">
        <ele>139</ele>
        <time>2018-04-16T12:34:52Z</time>
      </trkpt>
      <trkpt lat="46.84114" lon="2.32844">
        <ele>138</ele>
        <time>2018-04-16T12:35:05Z</time>
      </trkpt>
      <trkpt lat="46.8413" lon="2.32804">
        <ele>137</ele>
        <time>2018-04-16T12:35:13Z</time>
      </trkpt>
      <trkpt lat="46.84138" lon="2.32722">
        <ele>136</ele>
        <time>2018-04-16T12:35:27Z</time>
      </trkpt>
      <trkpt lat="46.84146" lon="2.3271">
        <ele>136</ele>
        <time>2018-04-16T12:35:30Z</time>
      </trkpt>
      <trkpt lat="46.8419" lon="2.3266">
        <ele>138</ele>
        <time>2018-04-16T12:35:44Z</time>
      </trkpt>
      <trkpt lat="46.84213" lon="2.32634">
        <ele>138</ele>
        <time>2018-04-16T12:35:51Z</time>
      </trkpt>
      <trkpt lat="46.84268" lon="2.3261">
        <ele>139</ele>
        <time>2018-04-16T12:36:05Z</time>
      </trkpt>
      <trkpt lat="46.84299" lon="2.32547">
        <ele>142</ele>
        <time>2018-04-16T12:36:18Z</time>
      </trkpt>
      <trkpt lat="46.84318" lon="2.32467">
        <ele>144</ele>
        <time>2018-04-16T12:36:31Z</time>
      </trkpt>
      <trkpt lat="46.84334" lon="2.32386">
        <ele>141</ele>
        <time>2018-04-16T12:36:44Z</time>
      </trkpt>
      <trkpt lat="46.84347" lon="2.32354">
        <ele>140</ele>
        <time>2018-04-16T12:36:50Z</time>
      </trkpt>
      <trkpt lat="46.84353" lon="2.32337">
        <ele>140</ele>
        <time>2018-04-16T12:36:53Z</time>
      </trkpt>
      <trkpt lat="46.84399" lon="2.32286">
        <ele>140</ele>
        <time>2018-04-16T12:37:06Z</time>
      </trkpt>
      <trkpt lat="46.84407" lon="2.32279">
        <ele>140</ele>
        <time>2018-04-16T12:37:08Z</time>
      </trkpt>
      <trkpt lat="46.84452" lon="2.32228">
        <ele>140</ele>
        <time>2018-04-16T12:37:21Z</time>
      </trkpt>
      <trkpt lat="46.84491" lon="2.32171">
        <ele>139</ele>
        <time>2018-04-16T12:37:33Z</time>
      </trkpt>
      <trkpt lat="46.84526" lon="2.32135">
        <ele>138</ele>
        <time>2018-04-16T12:37:42Z</time>
      </trkpt>
      <trkpt lat="46.8458" lon="2.32123">
        <ele>138</ele>
        <time>2018-04-16T12:37:54Z</time>
      </trkpt>
      <trkpt lat="46.84597" lon="2.32118">
        <ele>137</ele>
        <time>2018-04-16T12:37:58Z</time>
      </trkpt>
      <trkpt lat="46.84647" lon="2.32083">
        <ele>136</ele>
        <time>2018-04-16T12:38:10Z</time>
      </trkpt>
      <trkpt lat="46.84695" lon="2.32046">
        <ele>136</ele>
        <time>2018-04-16T12:38:22Z</time>
      </trkpt>
      <trkpt lat="46.84743" lon="2.32009">
        <ele>135</ele>
        <time>2018-04-16T12:38:34Z</time>
      </trkpt>
      <trkpt lat="46.84774" lon="2.31988">
        <ele>135</ele>
        <time>2018-04-16T12:38:41Z</time>
      </trkpt>
      <trkpt lat="46.84811" lon="2.31969">
        <ele>135</ele>
        <time>2018-04-16T12:38:49Z</time>
      </trkpt>
      <trkpt lat="46.84868" lon="2.31948">
        <ele>136</ele>
        <time>2018-04-16T12:39:01Z</time>
      </trkpt>
      <trkpt lat="46.84921" lon="2.31923">
        <ele>136</ele>
        <time>2018-04-16T12:39:12Z</time>
      </trkpt>
      <trkpt lat="46.84934" lon="2.31915">
        <ele>136</ele>
        <time>2018-04-16T12:39:15Z</time>
      </trkpt>
      <trkpt lat="46.84939" lon="2.31912">
        <ele>136</ele>
        <time>2018-04-16T12:39:16Z</time>
      </trkpt>
      <trkpt lat="46.84943" lon="2.3191">
        <ele>136</ele>
        <time>2018-04-16T12:39:17Z</time>
      </trkpt>
      <trkpt lat="46.84961" lon="2.31898">
        <ele>136</ele>
        <time>2018-04-16T12:39:21Z</time>
      </trkpt>
      <trkpt lat="46.84984" lon="2.31882">
        <ele>136</ele>
        <time>2018-04-16T12:39:26Z</time>
      </trkpt>
      <trkpt lat="46.85037" lon="2.31857">
        <ele>137</ele>
        <time>2018-04-16T12:39:37Z</time>
      </trkpt>
      <trkpt lat="46.85081" lon="2.31838">
        <ele>137</ele>
        <time>2018-04-16T12:39:46Z</time>
      </trkpt>
      <trkpt lat="46.85134" lon="2.31813">
        <ele>136</ele>
        <time>2018-04-16T12:39:57Z</time>
      </trkpt>
      <trkpt lat="46.85174" lon="2.3179">
        <ele>136</ele>
        <time>2018-04-16T12:40:06Z</time>
      </trkpt>
      <trkpt lat="46.85191" lon="2.31778">
        <ele>136</ele>
        <time>2018-04-16T12:40:10Z</time>
      </trkpt>
      <trkpt lat="46.8521" lon="2.31757">
        <ele>136</ele>
        <time>2018-04-16T12:40:15Z</time>
      </trkpt>
      <trkpt lat="46.85237" lon="2.31696">
        <ele>135</ele>
        <time>2018-04-16T12:40:25Z</time>
      </trkpt>
      <trkpt lat="46.85243" lon="2.31684">
        <ele>135</ele>
        <time>2018-04-16T12:40:27Z</time>
      </trkpt>
      <trkpt lat="46.85247" lon="2.31679">
        <ele>135</ele>
        <time>2018-04-16T12:40:28Z</time>
      </trkpt>
      <trkpt lat="46.85286" lon="2.31645">
        <ele>135</ele>
        <time>2018-04-16T12:40:38Z</time>
      </trkpt>
      <trkpt lat="46.85342" lon="2.31634">
        <ele>136</ele>
        <time>2018-04-16T12:40:50Z</time>
      </trkpt>
      <trkpt lat="46.85398" lon="2.31648">
        <ele>136</ele>
        <time>2018-04-16T12:41:02Z</time>
      </trkpt>
      <trkpt lat="46.85451" lon="2.31674">
        <ele>136</ele>
        <time>2018-04-16T12:41:14Z</time>
      </trkpt>
      <trkpt lat="46.85495" lon="2.31701">
        <ele>136</ele>
        <time>2018-04-16T12:41:25Z</time>
      </trkpt>
      <trkpt lat="46.85507" lon="2.31704">
        <ele>136</ele>
        <time>2018-04-16T12:41:28Z</time>
      </trkpt>
      <trkpt lat="46.85532" lon="2.317">
        <ele>137</ele>
        <time>2018-04-16T12:41:35Z</time>
      </trkpt>
      <trkpt lat="46.85544" lon="2.31701">
        <ele>137</ele>
        <time>2018-04-16T12:41:41Z</time>
      </trkpt>
      <trkpt lat="46.85545" lon="2.31708">
        <ele>137</ele>
        <time>2018-04-16T12:41:43Z</time>
      </trkpt>
      <trkpt lat="46.8553" lon="2.31784">
        <ele>137</ele>
        <time>2018-04-16T12:42:03Z</time>
      </trkpt>
      <trkpt lat="46.85523" lon="2.3185">
        <ele>137</ele>
        <time>2018-04-16T12:42:25Z</time>
      </trkpt>
      <trkpt lat="46.85525" lon="2.31852">
        <ele>137</ele>
        <time>2018-04-16T12:42:27Z</time>
      </trkpt>
      <trkpt lat="46.85538" lon="2.31877">
        <ele>137</ele>
        <time>2018-04-16T12:42:39Z</time>
      </trkpt>
      <trkpt lat="46.85542" lon="2.31881">
        <ele>138</ele>
        <time>2018-04-16T12:42:42Z</time>
      </trkpt>
      <trkpt lat="46.85572" lon="2.31909">
        <ele>138</ele>
        <time>2018-04-16T12:43:03Z</time>
      </trkpt>
      <trkpt lat="46.85574" lon="2.31912">
        <ele>138</ele>
        <time>2018-04-16T12:43:04Z</time>
      </trkpt>
      <trkpt lat="46.85579" lon="2.31918">
        <ele>139</ele>
        <time>2018-04-16T12:43:07Z</time>
      </trkpt>
      <trkpt lat="46.8563" lon="2.3194">
        <ele>139</ele>
        <time>2018-04-16T12:43:28Z</time>
      </trkpt>
      <trkpt lat="46.85664" lon="2.31929">
        <ele>139</ele>
        <time>2018-04-16T12:43:52Z</time>
      </trkpt>
      <trkpt lat="46.85665" lon="2.3193">
        <ele>139</ele>
        <time>2018-04-16T12:43:53Z</time>
      </trkpt>
      <trkpt lat="46.85674" lon="2.31945">
        <ele>139</ele>
        <time>2018-04-16T12:44:04Z</time>
      </trkpt>
      <trkpt lat="46.85687" lon="2.31947">
        <ele>139</ele>
        <time>2018-04-16T12:44:31Z</time>
      </trkpt>
      <trkpt lat="46.85689" lon="2.31946">
        <ele>139</ele>
        <time>2018-04-16T12:44:49Z</time>
      </trkpt>
      <trkpt lat="46.85689" lon="2.31946">
        <ele>139</ele>
        <time>2018-04-16T12:45:00Z</time>
      </trkpt>
      <trkpt lat="46.85692" lon="2.31942">
        <ele>139</ele>
        <time>2018-04-16T12:45:06Z</time>
      </trkpt>
      <trkpt lat="46.85694" lon="2.31941">
        <ele>139</ele>
        <time>2018-04-16T12:45:07Z</time>
      </trkpt>
      <trkpt lat="46.85708" lon="2.31936">
        <ele>139</ele>
        <time>2018-04-16T12:45:14Z</time>
      </trkpt>
      <trkpt lat="46.85723" lon="2.31933">
        <ele>139</ele>
        <time>2018-04-16T12:45:20Z</time>
      </trkpt>
      <trkpt lat="46.85734" lon="2.31929">
        <ele>139</ele>
        <time>2018-04-16T12:45:25Z</time>
      </trkpt>
      <trkpt lat="46.85741" lon="2.3193">
        <ele>139</ele>
        <time>2018-04-16T12:45:28Z</time>
      </trkpt>
      <trkpt lat="46.85752" lon="2.31932">
        <ele>141</ele>
        <time>2018-04-16T12:45:32Z</time>
      </trkpt>
      <trkpt lat="46.85759" lon="2.31946">
        <ele>142</ele>
        <time>2018-04-16T12:45:36Z</time>
      </trkpt>
      <trkpt lat="46.8576" lon="2.31949">
        <ele>143</ele>
        <time>2018-04-16T12:45:37Z</time>
      </trkpt>
      <trkpt lat="46.85762" lon="2.3197">
        <ele>144</ele>
        <time>2018-04-16T12:45:42Z</time>
      </trkpt>
      <trkpt lat="46.85766" lon="2.31981">
        <ele>144</ele>
        <time>2018-04-16T12:45:45Z</time>
      </trkpt>
      <trkpt lat="46.85767" lon="2.31988">
        <ele>144</ele>
        <time>2018-04-16T12:45:47Z</time>
      </trkpt>
      <trkpt lat="46.85765" lon="2.31997">
        <ele>144</ele>
        <time>2018-04-16T12:45:49Z</time>
      </trkpt>
      <trkpt lat="46.85763" lon="2.32005">
        <ele>146</ele>
        <time>2018-04-16T12:45:51Z</time>
      </trkpt>
      <trkpt lat="46.85762" lon="2.32008">
        <ele>146</ele>
        <time>2018-04-16T12:45:52Z</time>
      </trkpt>
      <trkpt lat="46.85757" lon="2.32017">
        <ele>147</ele>
        <time>2018-04-16T12:45:58Z</time>
      </trkpt>
      <trkpt lat="46.85759" lon="2.32023">
        <ele>148</ele>
        <time>2018-04-16T12:46:08Z</time>
      </trkpt>
      <trkpt lat="46.8576" lon="2.32023">
        <ele>148</ele>
        <time>2018-04-16T12:46:17Z</time>
      </trkpt>
      <trkpt lat="46.85763" lon="2.32022">
        <ele>148</ele>
        <time>2018-04-16T12:46:27Z</time>
      </trkpt>
      <trkpt lat="46.85762" lon="2.32023">
        <ele>148</ele>
        <time>2018-04-16T12:46:44Z</time>
      </trkpt>
      <trkpt lat="46.85763" lon="2.32023">
        <ele>149</ele>
        <time>2018-04-16T12:47:01Z</time>
      </trkpt>
      <trkpt lat="46.85762" lon="2.32023">
        <ele>148</ele>
        <time>2018-04-16T12:47:16Z</time>
      </trkpt>
      <trkpt lat="46.85765" lon="2.32023">
        <ele>149</ele>
        <time>2018-04-16T12:47:28Z</time>
      </trkpt>
      <trkpt lat="46.85764" lon="2.32023">
        <ele>149</ele>
        <time>2018-04-16T12:47:36Z</time>
      </trkpt>
      <trkpt lat="46.8576" lon="2.32024">
        <ele>148</ele>
        <time>2018-04-16T12:47:46Z</time>
      </trkpt>
      <trkpt lat="46.8576" lon="2.32024">
        <ele>148</ele>
        <time>2018-04-16T12:47:52Z</time>
      </trkpt>
      <trkpt lat="46.8576" lon="2.32024">
        <ele>148</ele>
        <time>2018-04-16T12:47:53Z</time>
      </trkpt>
      <trkpt lat="46.8576" lon="2.32024">
        <ele>148</ele>
        <time>2018-04-16T12:47:59Z</time>
      </trkpt>
      <trkpt lat="46.8576" lon="2.32024">
        <ele>148</ele>
        <time>2018-04-16T12:48:03Z</time>
      </trkpt>
      <trkpt lat="46.8576" lon="2.32024">
        <ele>148</ele>
        <time>2018-04-16T12:48:06Z</time>
      </trkpt>
      <trkpt lat="46.8576" lon="2.32024">
        <ele>148</ele>
        <time>2018-04-16T12:48:08Z</time>
      </trkpt>
      <trkpt lat="46.8576" lon="2.32024">
        <ele>148</ele>
        <time>2018-04-16T12:48:09Z</time>
      </trkpt>
      <trkpt lat="46.8576" lon="2.32025">
        <ele>148</ele>
        <time>2018-04-16T12:48:16Z</time>
      </trkpt>
      <trkpt lat="46.8576" lon="2.32025">
        <ele>148</ele>
        <time>2018-04-16T12:48:25Z</time>
      </trkpt>
      <trkpt lat="46.8576" lon="2.32025">
        <ele>148</ele>
        <time>2018-04-16T12:48:26Z</time>
      </trkpt>
      <trkpt lat="46.85761" lon="2.32024">
        <ele>148</ele>
        <time>2018-04-16T12:48:53Z</time>
      </trkpt>
      <trkpt lat="46.85762" lon="2.32033">
        <ele>149</ele>
        <time>2018-04-16T12:49:31Z</time>
      </trkpt>
      <trkpt lat="46.85763" lon="2.32034">
        <ele>149</ele>
        <time>2018-04-16T12:49:33Z</time>
      </trkpt>
      <trkpt lat="46.85766" lon="2.32035">
        <ele>150</ele>
        <time>2018-04-16T12:49:36Z</time>
      </trkpt>
      <trkpt lat="46.85769" lon="2.3204">
        <ele>150</ele>
        <time>2018-04-16T12:49:41Z</time>
      </trkpt>
      <trkpt lat="46.8577" lon="2.32043">
        <ele>150</ele>
        <time>2018-04-16T12:49:43Z</time>
      </trkpt>
      <trkpt lat="46.85769" lon="2.32044">
        <ele>150</ele>
        <time>2018-04-16T12:49:46Z</time>
      </trkpt>
      <trkpt lat="46.85765" lon="2.32042">
        <ele>150</ele>
        <time>2018-04-16T12:49:49Z</time>
      </trkpt>
      <trkpt lat="46.85766" lon="2.32043">
        <ele>150</ele>
        <time>2018-04-16T12:49:51Z</time>
      </trkpt>
      <trkpt lat="46.85769" lon="2.32047">
        <ele>150</ele>
        <time>2018-04-16T12:49:59Z</time>
      </trkpt>
      <trkpt lat="46.85769" lon="2.32049">
        <ele>151</ele>
        <time>2018-04-16T12:50:01Z</time>
      </trkpt>
      <trkpt lat="46.85771" lon="2.32053">
        <ele>151</ele>
        <time>2018-04-16T12:50:06Z</time>
      </trkpt>
      <trkpt lat="46.85774" lon="2.32059">
        <ele>151</ele>
        <time>2018-04-16T12:50:11Z</time>
      </trkpt>
      <trkpt lat="46.85775" lon="2.32061">
        <ele>151</ele>
        <time>2018-04-16T12:50:13Z</time>
      </trkpt>
      <trkpt lat="46.85775" lon="2.32065">
        <ele>151</ele>
        <time>2018-04-16T12:50:16Z</time>
      </trkpt>
      <trkpt lat="46.85778" lon="2.32077">
        <ele>151</ele>
        <time>2018-04-16T12:50:23Z</time>
      </trkpt>
      <trkpt lat="46.85801" lon="2.32114">
        <ele>155</ele>
        <time>2018-04-16T12:50:53Z</time>
      </trkpt>
      <trkpt lat="46.85816" lon="2.32139">
        <ele>155</ele>
        <time>2018-04-16T12:51:14Z</time>
      </trkpt>
      <trkpt lat="46.8582" lon="2.3215">
        <ele>155</ele>
        <time>2018-04-16T12:51:20Z</time>
      </trkpt>
      <trkpt lat="46.85833" lon="2.32179">
        <ele>155</ele>
        <time>2018-04-16T12:51:36Z</time>
      </trkpt>
      <trkpt lat="46.85836" lon="2.32194">
        <ele>157</ele>
        <time>2018-04-16T12:51:52Z</time>
      </trkpt>
      <trkpt lat="46.85833" lon="2.32194">
        <ele>154</ele>
        <time>2018-04-16T12:52:05Z</time>
      </trkpt>
      <trkpt lat="46.85833" lon="2.32195">
        <ele>154</ele>
        <time>2018-04-16T12:52:06Z</time>
      </trkpt>
      <trkpt lat="46.85832" lon="2.32199">
        <ele>153</ele>
        <time>2018-04-16T12:52:09Z</time>
      </trkpt>
      <trkpt lat="46.85834" lon="2.32223">
        <ele>156</ele>
        <time>2018-04-16T12:52:14Z</time>
      </trkpt>
      <trkpt lat="46.85836" lon="2.32232">
        <ele>156</ele>
        <time>2018-04-16T12:52:16Z</time>
      </trkpt>
      <trkpt lat="46.85842" lon="2.32249">
        <ele>155</ele>
        <time>2018-04-16T12:52:20Z</time>
      </trkpt>
      <trkpt lat="46.85851" lon="2.3227">
        <ele>154</ele>
        <time>2018-04-16T12:52:25Z</time>
      </trkpt>
      <trkpt lat="46.85858" lon="2.32281">
        <ele>155</ele>
        <time>2018-04-16T12:52:28Z</time>
      </trkpt>
      <trkpt lat="46.85865" lon="2.3229">
        <ele>155</ele>
        <time>2018-04-16T12:52:31Z</time>
      </trkpt>
      <trkpt lat="46.85872" lon="2.32294">
        <ele>155</ele>
        <time>2018-04-16T12:52:34Z</time>
      </trkpt>
      <trkpt lat="46.85875" lon="2.32294">
        <ele>155</ele>
        <time>2018-04-16T12:52:35Z</time>
      </trkpt>
      <trkpt lat="46.85881" lon="2.32292">
        <ele>156</ele>
        <time>2018-04-16T12:52:36Z</time>
      </trkpt>
      <trkpt lat="46.8589" lon="2.3229">
        <ele>156</ele>
        <time>2018-04-16T12:52:40Z</time>
      </trkpt>
      <trkpt lat="46.85927" lon="2.32261">
        <ele>160</ele>
        <time>2018-04-16T12:52:56Z</time>
      </trkpt>
      <trkpt lat="46.85977" lon="2.32224">
        <ele>162</ele>
        <time>2018-04-16T12:53:16Z</time>
      </trkpt>
      <trkpt lat="46.86026" lon="2.32191">
        <ele>162</ele>
        <time>2018-04-16T12:53:35Z</time>
      </trkpt>
      <trkpt lat="46.86039" lon="2.32187">
        <ele>162</ele>
        <time>2018-04-16T12:53:58Z</time>
      </trkpt>
      <trkpt lat="46.86047" lon="2.32172">
        <ele>162</ele>
        <time>2018-04-16T12:54:04Z</time>
      </trkpt>
      <trkpt lat="46.86053" lon="2.32095">
        <ele>164</ele>
        <time>2018-04-16T12:54:23Z</time>
      </trkpt>
      <trkpt lat="46.86058" lon="2.32091">
        <ele>164</ele>
        <time>2018-04-16T12:54:26Z</time>
      </trkpt>
      <trkpt lat="46.86067" lon="2.32088">
        <ele>163</ele>
        <time>2018-04-16T12:54:32Z</time>
      </trkpt>
      <trkpt lat="46.86065" lon="2.32087">
        <ele>163</ele>
        <time>2018-04-16T12:54:42Z</time>
      </trkpt>
    </trkseg>
  </trk>
  <trk>
    <name><![CDATA[20180610195922-k1GEa]]></name>
    <trkseg>
      <trkpt lat="46.94218" lon="2.27239">
        <ele>138</ele>
        <time>2018-04-17T07:47:13Z</time>
      </trkpt>
      <trkpt lat="46.94221" lon="2.27235">
        <ele>138</ele>
        <time>2018-04-17T07:47:18Z</time>
      </trkpt>
      <trkpt lat="46.94224" lon="2.27234">
        <ele>138</ele>
        <time>2018-04-17T07:47:27Z</time>
      </trkpt>
      <trkpt lat="46.94226" lon="2.27228">
        <ele>138</ele>
        <time>2018-04-17T07:47:30Z</time>
      </trkpt>
      <trkpt lat="46.94227" lon="2.27225">
        <ele>138</ele>
        <time>2018-04-17T07:47:31Z</time>
      </trkpt>
      <trkpt lat="46.94222" lon="2.27199">
        <ele>137</ele>
        <time>2018-04-17T07:47:37Z</time>
      </trkpt>
      <trkpt lat="46.94215" lon="2.27167">
        <ele>137</ele>
        <time>2018-04-17T07:47:42Z</time>
      </trkpt>
      <trkpt lat="46.94213" lon="2.27161">
        <ele>136</ele>
        <time>2018-04-17T07:47:43Z</time>
      </trkpt>
      <trkpt lat="46.94207" lon="2.27139">
        <ele>136</ele>
        <time>2018-04-17T07:47:46Z</time>
      </trkpt>
      <trkpt lat="46.94199" lon="2.27108">
        <ele>136</ele>
        <time>2018-04-17T07:47:50Z</time>
      </trkpt>
      <trkpt lat="46.94199" lon="2.27101">
        <ele>136</ele>
        <time>2018-04-17T07:47:51Z</time>
      </trkpt>
      <trkpt lat="46.94198" lon="2.27081">
        <ele>135</ele>
        <time>2018-04-17T07:47:54Z</time>
      </trkpt>
      <trkpt lat="46.94199" lon="2.27073">
        <ele>135</ele>
        <time>2018-04-17T07:47:55Z</time>
      </trkpt>
      <trkpt lat="46.942" lon="2.27066">
        <ele>135</ele>
        <time>2018-04-17T07:47:56Z</time>
      </trkpt>
      <trkpt lat="46.94206" lon="2.27047">
        <ele>135</ele>
        <time>2018-04-17T07:47:59Z</time>
      </trkpt>
      <trkpt lat="46.94208" lon="2.2704">
        <ele>135</ele>
        <time>2018-04-17T07:48:00Z</time>
      </trkpt>
      <trkpt lat="46.94222" lon="2.26998">
        <ele>134</ele>
        <time>2018-04-17T07:48:06Z</time>
      </trkpt>
      <trkpt lat="46.94229" lon="2.26979">
        <ele>134</ele>
        <time>2018-04-17T07:48:09Z</time>
      </trkpt>
      <trkpt lat="46.94241" lon="2.26953">
        <ele>133</ele>
        <time>2018-04-17T07:48:13Z</time>
      </trkpt>
      <trkpt lat="46.94243" lon="2.26945">
        <ele>133</ele>
        <time>2018-04-17T07:48:14Z</time>
      </trkpt>
      <trkpt lat="46.94246" lon="2.26937">
        <ele>133</ele>
        <time>2018-04-17T07:48:15Z</time>
      </trkpt>
      <trkpt lat="46.94248" lon="2.26929">
        <ele>133</ele>
        <time>2018-04-17T07:48:16Z</time>
      </trkpt>
      <trkpt lat="46.94249" lon="2.2692">
        <ele>133</ele>
        <time>2018-04-17T07:48:17Z</time>
      </trkpt>
      <trkpt lat="46.94246" lon="2.26893">
        <ele>132</ele>
        <time>2018-04-17T07:48:20Z</time>
      </trkpt>
      <trkpt lat="46.94244" lon="2.26885">
        <ele>132</ele>
        <time>2018-04-17T07:48:21Z</time>
      </trkpt>
      <trkpt lat="46.94241" lon="2.26877">
        <ele>132</ele>
        <time>2018-04-17T07:48:22Z</time>
      </trkpt>
      <trkpt lat="46.9424" lon="2.2686">
        <ele>131</ele>
        <time>2018-04-17T07:48:24Z</time>
      </trkpt>
      <trkpt lat="46.94242" lon="2.26852">
        <ele>131</ele>
        <time>2018-04-17T07:48:25Z</time>
      </trkpt>
      <trkpt lat="46.94249" lon="2.26839">
        <ele>131</ele>
        <time>2018-04-17T07:48:27Z</time>
      </trkpt>
      <trkpt lat="46.9426" lon="2.26815">
        <ele>130</ele>
        <time>2018-04-17T07:48:31Z</time>
      </trkpt>
      <trkpt lat="46.94268" lon="2.26797">
        <ele>130</ele>
        <time>2018-04-17T07:48:34Z</time>
      </trkpt>
      <trkpt lat="46.9428" lon="2.26788">
        <ele>130</ele>
        <time>2018-04-17T07:48:37Z</time>
      </trkpt>
      <trkpt lat="46.94284" lon="2.26788">
        <ele>130</ele>
        <time>2018-04-17T07:48:38Z</time>
      </trkpt>
      <trkpt lat="46.94289" lon="2.26788">
        <ele>129</ele>
        <time>2018-04-17T07:48:39Z</time>
      </trkpt>
      <trkpt lat="46.94301" lon="2.26793">
        <ele>129</ele>
        <time>2018-04-17T07:48:42Z</time>
      </trkpt>
      <trkpt lat="46.94314" lon="2.26799">
        <ele>129</ele>
        <time>2018-04-17T07:48:44Z</time>
      </trkpt>
      <trkpt lat="46.9432" lon="2.26804">
        <ele>130</ele>
        <time>2018-04-17T07:48:45Z</time>
      </trkpt>
      <trkpt lat="46.94333" lon="2.26811">
        <ele>130</ele>
        <time>2018-04-17T07:48:47Z</time>
      </trkpt>
      <trkpt lat="46.9434" lon="2.26814">
        <ele>129</ele>
        <time>2018-04-17T07:48:48Z</time>
      </trkpt>
      <trkpt lat="46.94361" lon="2.26822">
        <ele>129</ele>
        <time>2018-04-17T07:48:51Z</time>
      </trkpt>
      <trkpt lat="46.94374" lon="2.26827">
        <ele>129</ele>
        <time>2018-04-17T07:48:53Z</time>
      </trkpt>
      <trkpt lat="46.9441" lon="2.26836">
        <ele>128</ele>
        <time>2018-04-17T07:48:59Z</time>
      </trkpt>
      <trkpt lat="46.9442" lon="2.26838">
        <ele>128</ele>
        <time>2018-04-17T07:49:01Z</time>
      </trkpt>
      <trkpt lat="46.94442" lon="2.26844">
        <ele>127</ele>
        <time>2018-04-17T07:49:06Z</time>
      </trkpt>
      <trkpt lat="46.94456" lon="2.26857">
        <ele>127</ele>
        <time>2018-04-17T07:49:10Z</time>
      </trkpt>
      <trkpt lat="46.94472" lon="2.26885">
        <ele>127</ele>
        <time>2018-04-17T07:49:15Z</time>
      </trkpt>
      <trkpt lat="46.94478" lon="2.26898">
        <ele>127</ele>
        <time>2018-04-17T07:49:17Z</time>
      </trkpt>
      <trkpt lat="46.94493" lon="2.2693">
        <ele>127</ele>
        <time>2018-04-17T07:49:22Z</time>
      </trkpt>
      <trkpt lat="46.94501" lon="2.26947">
        <ele>127</ele>
        <time>2018-04-17T07:49:25Z</time>
      </trkpt>
      <trkpt lat="46.94523" lon="2.2699">
        <ele>127</ele>
        <time>2018-04-17T07:49:33Z</time>
      </trkpt>
      <trkpt lat="46.94544" lon="2.27016">
        <ele>128</ele>
        <time>2018-04-17T07:49:39Z</time>
      </trkpt>
      <trkpt lat="46.94547" lon="2.27021">
        <ele>128</ele>
        <time>2018-04-17T07:49:40Z</time>
      </trkpt>
      <trkpt lat="46.94571" lon="2.27047">
        <ele>129</ele>
        <time>2018-04-17T07:49:46Z</time>
      </trkpt>
      <trkpt lat="46.94591" lon="2.27082">
        <ele>128</ele>
        <time>2018-04-17T07:49:52Z</time>
      </trkpt>
      <trkpt lat="46.94601" lon="2.271">
        <ele>129</ele>
        <time>2018-04-17T07:49:55Z</time>
      </trkpt>
      <trkpt lat="46.94613" lon="2.27114">
        <ele>129</ele>
        <time>2018-04-17T07:49:58Z</time>
      </trkpt>
      <trkpt lat="46.94627" lon="2.27125">
        <ele>129</ele>
        <time>2018-04-17T07:50:01Z</time>
      </trkpt>
      <trkpt lat="46.94642" lon="2.27132">
        <ele>129</ele>
        <time>2018-04-17T07:50:04Z</time>
      </trkpt>
      <trkpt lat="46.94688" lon="2.27144">
        <ele>128</ele>
        <time>2018-04-17T07:50:13Z</time>
      </trkpt>
      <trkpt lat="46.94728" lon="2.27154">
        <ele>128</ele>
        <time>2018-04-17T07:50:21Z</time>
      </trkpt>
      <trkpt lat="46.94768" lon="2.27164">
        <ele>130</ele>
        <time>2018-04-17T07:50:29Z</time>
      </trkpt>
      <trkpt lat="46.94778" lon="2.27166">
        <ele>130</ele>
        <time>2018-04-17T07:50:31Z</time>
      </trkpt>
      <trkpt lat="46.94798" lon="2.2717">
        <ele>134</ele>
        <time>2018-04-17T07:50:35Z</time>
      </trkpt>
      <trkpt lat="46.94835" lon="2.27178">
        <ele>134</ele>
        <time>2018-04-17T07:50:42Z</time>
      </trkpt>
      <trkpt lat="46.94871" lon="2.27182">
        <ele>135</ele>
        <time>2018-04-17T07:50:49Z</time>
      </trkpt>
      <trkpt lat="46.94881" lon="2.27183">
        <ele>135</ele>
        <time>2018-04-17T07:50:51Z</time>
      </trkpt>
      <trkpt lat="46.94913" lon="2.27186">
        <ele>134</ele>
        <time>2018-04-17T07:50:57Z</time>
      </trkpt>
      <trkpt lat="46.94943" lon="2.27188">
        <ele>134</ele>
        <time>2018-04-17T07:51:03Z</time>
      </trkpt>
      <trkpt lat="46.94958" lon="2.27188">
        <ele>134</ele>
        <time>2018-04-17T07:51:06Z</time>
      </trkpt>
      <trkpt lat="46.94993" lon="2.27188">
        <ele>134</ele>
        <time>2018-04-17T07:51:13Z</time>
      </trkpt>
      <trkpt lat="46.95032" lon="2.27186">
        <ele>134</ele>
        <time>2018-04-17T07:51:20Z</time>
      </trkpt>
      <trkpt lat="46.9507" lon="2.27181">
        <ele>132</ele>
        <time>2018-04-17T07:51:27Z</time>
      </trkpt>
      <trkpt lat="46.95081" lon="2.27178">
        <ele>131</ele>
        <time>2018-04-17T07:51:29Z</time>
      </trkpt>
      <trkpt lat="46.95131" lon="2.27163">
        <ele>129</ele>
        <time>2018-04-17T07:51:38Z</time>
      </trkpt>
      <trkpt lat="46.95172" lon="2.27142">
        <ele>133</ele>
        <time>2018-04-17T07:51:46Z</time>
      </trkpt>
      <trkpt lat="46.95207" lon="2.27121">
        <ele>133</ele>
        <time>2018-04-17T07:51:53Z</time>
      </trkpt>
      <trkpt lat="46.95247" lon="2.27089">
        <ele>133</ele>
        <time>2018-04-17T07:52:01Z</time>
      </trkpt>
      <trkpt lat="46.95287" lon="2.27046">
        <ele>136</ele>
        <time>2018-04-17T07:52:10Z</time>
      </trkpt>
      <trkpt lat="46.95309" lon="2.2702">
        <ele>135</ele>
        <time>2018-04-17T07:52:16Z</time>
      </trkpt>
      <trkpt lat="46.95331" lon="2.26985">
        <ele>133</ele>
        <time>2018-04-17T07:52:23Z</time>
      </trkpt>
      <trkpt lat="46.9536" lon="2.26939">
        <ele>136</ele>
        <time>2018-04-17T07:52:31Z</time>
      </trkpt>
      <trkpt lat="46.95379" lon="2.26906">
        <ele>133</ele>
        <time>2018-04-17T07:52:37Z</time>
      </trkpt>
      <trkpt lat="46.95382" lon="2.269">
        <ele>133</ele>
        <time>2018-04-17T07:52:38Z</time>
      </trkpt>
      <trkpt lat="46.95405" lon="2.26854">
        <ele>132</ele>
        <time>2018-04-17T07:52:45Z</time>
      </trkpt>
      <trkpt lat="46.95426" lon="2.2681">
        <ele>134</ele>
        <time>2018-04-17T07:52:51Z</time>
      </trkpt>
      <trkpt lat="46.95457" lon="2.26748">
        <ele>131</ele>
        <time>2018-04-17T07:53:00Z</time>
      </trkpt>
      <trkpt lat="46.95477" lon="2.2671">
        <ele>131</ele>
        <time>2018-04-17T07:53:06Z</time>
      </trkpt>
      <trkpt lat="46.95508" lon="2.26657">
        <ele>132</ele>
        <time>2018-04-17T07:53:15Z</time>
      </trkpt>
      <trkpt lat="46.9553" lon="2.26623">
        <ele>133</ele>
        <time>2018-04-17T07:53:21Z</time>
      </trkpt>
      <trkpt lat="46.95566" lon="2.26574">
        <ele>131</ele>
        <time>2018-04-17T07:53:30Z</time>
      </trkpt>
      <trkpt lat="46.95573" lon="2.26564">
        <ele>131</ele>
        <time>2018-04-17T07:53:32Z</time>
      </trkpt>
      <trkpt lat="46.95581" lon="2.26551">
        <ele>130</ele>
        <time>2018-04-17T07:53:35Z</time>
      </trkpt>
      <trkpt lat="46.95583" lon="2.26548">
        <ele>130</ele>
        <time>2018-04-17T07:53:36Z</time>
      </trkpt>
      <trkpt lat="46.95587" lon="2.26542">
        <ele>134</ele>
        <time>2018-04-17T07:53:38Z</time>
      </trkpt>
      <trkpt lat="46.9559" lon="2.26536">
        <ele>134</ele>
        <time>2018-04-17T07:53:41Z</time>
      </trkpt>
      <trkpt lat="46.9559" lon="2.26537">
        <ele>134</ele>
        <time>2018-04-17T07:53:42Z</time>
      </trkpt>
      <trkpt lat="46.95595" lon="2.26531">
        <ele>134</ele>
        <time>2018-04-17T07:53:46Z</time>
      </trkpt>
      <trkpt lat="46.95605" lon="2.26519">
        <ele>134</ele>
        <time>2018-04-17T07:53:49Z</time>
      </trkpt>
      <trkpt lat="46.95613" lon="2.2651">
        <ele>134</ele>
        <time>2018-04-17T07:53:51Z</time>
      </trkpt>
      <trkpt lat="46.95625" lon="2.26496">
        <ele>132</ele>
        <time>2018-04-17T07:53:54Z</time>
      </trkpt>
      <trkpt lat="46.9564" lon="2.26476">
        <ele>132</ele>
        <time>2018-04-17T07:53:58Z</time>
      </trkpt>
      <trkpt lat="46.95644" lon="2.2647">
        <ele>132</ele>
        <time>2018-04-17T07:53:59Z</time>
      </trkpt>
      <trkpt lat="46.95665" lon="2.26437">
        <ele>131</ele>
        <time>2018-04-17T07:54:05Z</time>
      </trkpt>
      <trkpt lat="46.95694" lon="2.26395">
        <ele>131</ele>
        <time>2018-04-17T07:54:13Z</time>
      </trkpt>
      <trkpt lat="46.95704" lon="2.26382">
        <ele>131</ele>
        <time>2018-04-17T07:54:16Z</time>
      </trkpt>
      <trkpt lat="46.95715" lon="2.26368">
        <ele>131</ele>
        <time>2018-04-17T07:54:19Z</time>
      </trkpt>
      <trkpt lat="46.95734" lon="2.26339">
        <ele>130</ele>
        <time>2018-04-17T07:54:26Z</time>
      </trkpt>
      <trkpt lat="46.9574" lon="2.26333">
        <ele>129</ele>
        <time>2018-04-17T07:54:28Z</time>
      </trkpt>
      <trkpt lat="46.95745" lon="2.26326">
        <ele>129</ele>
        <time>2018-04-17T07:54:31Z</time>
      </trkpt>
      <trkpt lat="46.95747" lon="2.26324">
        <ele>129</ele>
        <time>2018-04-17T07:54:32Z</time>
      </trkpt>
      <trkpt lat="46.95761" lon="2.26311">
        <ele>131</ele>
        <time>2018-04-17T07:54:39Z</time>
      </trkpt>
      <trkpt lat="46.95774" lon="2.26292">
        <ele>131</ele>
        <time>2018-04-17T07:54:47Z</time>
      </trkpt>
      <trkpt lat="46.95777" lon="2.26288">
        <ele>131</ele>
        <time>2018-04-17T07:54:52Z</time>
      </trkpt>
      <trkpt lat="46.95777" lon="2.26288">
        <ele>131</ele>
        <time>2018-04-17T07:55:00Z</time>
      </trkpt>
      <trkpt lat="46.95777" lon="2.26288">
        <ele>131</ele>
        <time>2018-04-17T07:55:12Z</time>
      </trkpt>
      <trkpt lat="46.95777" lon="2.26288">
        <ele>131</ele>
        <time>2018-04-17T07:55:29Z</time>
      </trkpt>
      <trkpt lat="46.95778" lon="2.26287">
        <ele>131</ele>
        <time>2018-04-17T07:55:37Z</time>
      </trkpt>
      <trkpt lat="46.95778" lon="2.26287">
        <ele>131</ele>
        <time>2018-04-17T07:55:48Z</time>
      </trkpt>
      <trkpt lat="46.95778" lon="2.26287">
        <ele>131</ele>
        <time>2018-04-17T07:55:59Z</time>
      </trkpt>
      <trkpt lat="46.95778" lon="2.26287">
        <ele>131</ele>
        <time>2018-04-17T07:56:00Z</time>
      </trkpt>
      <trkpt lat="46.95778" lon="2.26287">
        <ele>131</ele>
        <time>2018-04-17T07:56:11Z</time>
      </trkpt>
      <trkpt lat="46.95778" lon="2.26287">
        <ele>131</ele>
        <time>2018-04-17T07:56:22Z</time>
      </trkpt>
      <trkpt lat="46.95779" lon="2.26284">
        <ele>131</ele>
        <time>2018-04-17T07:56:29Z</time>
      </trkpt>
      <trkpt lat="46.95791" lon="2.26269">
        <ele>131</ele>
        <time>2018-04-17T07:56:34Z</time>
      </trkpt>
      <trkpt lat="46.95808" lon="2.26248">
        <ele>129</ele>
        <time>2018-04-17T07:56:40Z</time>
      </trkpt>
      <trkpt lat="46.95829" lon="2.26222">
        <ele>129</ele>
        <time>2018-04-17T07:56:47Z</time>
      </trkpt>
      <trkpt lat="46.95844" lon="2.26207">
        <ele>132</ele>
        <time>2018-04-17T07:56:52Z</time>
      </trkpt>
      <trkpt lat="46.95862" lon="2.26185">
        <ele>132</ele>
        <time>2018-04-17T07:56:57Z</time>
      </trkpt>
      <trkpt lat="46.95866" lon="2.26181">
        <ele>132</ele>
        <time>2018-04-17T07:56:58Z</time>
      </trkpt>
      <trkpt lat="46.95892" lon="2.26153">
        <ele>130</ele>
        <time>2018-04-17T07:57:04Z</time>
      </trkpt>
      <trkpt lat="46.95916" lon="2.26131">
        <ele>130</ele>
        <time>2018-04-17T07:57:10Z</time>
      </trkpt>
      <trkpt lat="46.95936" lon="2.26113">
        <ele>132</ele>
        <time>2018-04-17T07:57:15Z</time>
      </trkpt>
      <trkpt lat="46.95941" lon="2.2611">
        <ele>133</ele>
        <time>2018-04-17T07:57:16Z</time>
      </trkpt>
      <trkpt lat="46.95969" lon="2.26087">
        <ele>133</ele>
        <time>2018-04-17T07:57:22Z</time>
      </trkpt>
      <trkpt lat="46.95997" lon="2.26065">
        <ele>131</ele>
        <time>2018-04-17T07:57:28Z</time>
      </trkpt>
      <trkpt lat="46.96025" lon="2.26045">
        <ele>131</ele>
        <time>2018-04-17T07:57:34Z</time>
      </trkpt>
      <trkpt lat="46.9606" lon="2.26018">
        <ele>131</ele>
        <time>2018-04-17T07:57:42Z</time>
      </trkpt>
      <trkpt lat="46.96085" lon="2.25999">
        <ele>129</ele>
        <time>2018-04-17T07:57:48Z</time>
      </trkpt>
      <trkpt lat="46.9609" lon="2.25996">
        <ele>129</ele>
        <time>2018-04-17T07:57:49Z</time>
      </trkpt>
      <trkpt lat="46.9612" lon="2.25978">
        <ele>130</ele>
        <time>2018-04-17T07:57:55Z</time>
      </trkpt>
      <trkpt lat="46.96138" lon="2.25964">
        <ele>130</ele>
        <time>2018-04-17T07:58:00Z</time>
      </trkpt>
      <trkpt lat="46.96166" lon="2.25944">
        <ele>129</ele>
        <time>2018-04-17T07:58:07Z</time>
      </trkpt>
      <trkpt lat="46.96169" lon="2.25942">
        <ele>131</ele>
        <time>2018-04-17T07:58:08Z</time>
      </trkpt>
      <trkpt lat="46.9617" lon="2.25942">
        <ele>131</ele>
        <time>2018-04-17T07:58:09Z</time>
      </trkpt>
      <trkpt lat="46.9617" lon="2.25942">
        <ele>131</ele>
        <time>2018-04-17T07:58:10Z</time>
      </trkpt>
      <trkpt lat="46.96171" lon="2.25942">
        <ele>131</ele>
        <time>2018-04-17T07:58:20Z</time>
      </trkpt>
      <trkpt lat="46.96173" lon="2.25941">
        <ele>131</ele>
        <time>2018-04-17T07:58:29Z</time>
      </trkpt>
      <trkpt lat="46.96175" lon="2.25939">
        <ele>131</ele>
        <time>2018-04-17T07:58:30Z</time>
      </trkpt>
      <trkpt lat="46.96195" lon="2.25928">
        <ele>131</ele>
        <time>2018-04-17T07:58:36Z</time>
      </trkpt>
      <trkpt lat="46.96213" lon="2.25917">
        <ele>132</ele>
        <time>2018-04-17T07:58:41Z</time>
      </trkpt>
      <trkpt lat="46.96221" lon="2.25913">
        <ele>127</ele>
        <time>2018-04-17T07:58:43Z</time>
      </trkpt>
      <trkpt lat="46.96229" lon="2.25909">
        <ele>128</ele>
        <time>2018-04-17T07:58:45Z</time>
      </trkpt>
      <trkpt lat="46.96237" lon="2.25904">
        <ele>128</ele>
        <time>2018-04-17T07:58:47Z</time>
      </trkpt>
      <trkpt lat="46.96264" lon="2.25889">
        <ele>129</ele>
        <time>2018-04-17T07:58:53Z</time>
      </trkpt>
      <trkpt lat="46.96295" lon="2.25877">
        <ele>129</ele>
        <time>2018-04-17T07:59:00Z</time>
      </trkpt>
      <trkpt lat="46.96324" lon="2.25866">
        <ele>129</ele>
        <time>2018-04-17T07:59:07Z</time>
      </trkpt>
      <trkpt lat="46.96355" lon="2.25855">
        <ele>132</ele>
        <time>2018-04-17T07:59:14Z</time>
      </trkpt>
      <trkpt lat="46.96388" lon="2.25846">
        <ele>134</ele>
        <time>2018-04-17T07:59:22Z</time>
      </trkpt>
      <trkpt lat="46.96394" lon="2.25845">
        <ele>134</ele>
        <time>2018-04-17T07:59:24Z</time>
      </trkpt>
      <trkpt lat="46.964" lon="2.25842">
        <ele>134</ele>
        <time>2018-04-17T07:59:26Z</time>
      </trkpt>
      <trkpt lat="46.9642" lon="2.25835">
        <ele>135</ele>
        <time>2018-04-17T07:59:32Z</time>
      </trkpt>
      <trkpt lat="46.96448" lon="2.2583">
        <ele>132</ele>
        <time>2018-04-17T07:59:39Z</time>
      </trkpt>
      <trkpt lat="46.96484" lon="2.2582">
        <ele>133</ele>
        <time>2018-04-17T07:59:47Z</time>
      </trkpt>
      <trkpt lat="46.96514" lon="2.25816">
        <ele>132</ele>
        <time>2018-04-17T07:59:53Z</time>
      </trkpt>
      <trkpt lat="46.96545" lon="2.25809">
        <ele>130</ele>
        <time>2018-04-17T07:59:59Z</time>
      </trkpt>
      <trkpt lat="46.96552" lon="2.25808">
        <ele>130</ele>
        <time>2018-04-17T08:00:01Z</time>
      </trkpt>
      <trkpt lat="46.96564" lon="2.25805">
        <ele>130</ele>
        <time>2018-04-17T08:00:04Z</time>
      </trkpt>
      <trkpt lat="46.96579" lon="2.25803">
        <ele>130</ele>
        <time>2018-04-17T08:00:09Z</time>
      </trkpt>
      <trkpt lat="46.96589" lon="2.2581">
        <ele>130</ele>
        <time>2018-04-17T08:00:14Z</time>
      </trkpt>
      <trkpt lat="46.96591" lon="2.25818">
        <ele>130</ele>
        <time>2018-04-17T08:00:17Z</time>
      </trkpt>
      <trkpt lat="46.96592" lon="2.25821">
        <ele>131</ele>
        <time>2018-04-17T08:00:18Z</time>
      </trkpt>
      <trkpt lat="46.96592" lon="2.25828">
        <ele>131</ele>
        <time>2018-04-17T08:00:20Z</time>
      </trkpt>
      <trkpt lat="46.96595" lon="2.25843">
        <ele>133</ele>
        <time>2018-04-17T08:00:25Z</time>
      </trkpt>
      <trkpt lat="46.96595" lon="2.2586">
        <ele>133</ele>
        <time>2018-04-17T08:00:31Z</time>
      </trkpt>
      <trkpt lat="46.96596" lon="2.25869">
        <ele>133</ele>
        <time>2018-04-17T08:00:35Z</time>
      </trkpt>
      <trkpt lat="46.96597" lon="2.25873">
        <ele>134</ele>
        <time>2018-04-17T08:00:37Z</time>
      </trkpt>
      <trkpt lat="46.96602" lon="2.25876">
        <ele>134</ele>
        <time>2018-04-17T08:00:42Z</time>
      </trkpt>
      <trkpt lat="46.9661" lon="2.25881">
        <ele>134</ele>
        <time>2018-04-17T08:00:50Z</time>
      </trkpt>
      <trkpt lat="46.96618" lon="2.25886">
        <ele>134</ele>
        <time>2018-04-17T08:00:57Z</time>
      </trkpt>
      <trkpt lat="46.96626" lon="2.25887">
        <ele>133</ele>
        <time>2018-04-17T08:01:03Z</time>
      </trkpt>
      <trkpt lat="46.96638" lon="2.25888">
        <ele>133</ele>
        <time>2018-04-17T08:01:10Z</time>
      </trkpt>
      <trkpt lat="46.96648" lon="2.25887">
        <ele>133</ele>
        <time>2018-04-17T08:01:15Z</time>
      </trkpt>
      <trkpt lat="46.96649" lon="2.25886">
        <ele>133</ele>
        <time>2018-04-17T08:01:16Z</time>
      </trkpt>
      <trkpt lat="46.9666" lon="2.25883">
        <ele>133</ele>
        <time>2018-04-17T08:01:22Z</time>
      </trkpt>
      <trkpt lat="46.96672" lon="2.25882">
        <ele>134</ele>
        <time>2018-04-17T08:01:29Z</time>
      </trkpt>
      <trkpt lat="46.96674" lon="2.25881">
        <ele>134</ele>
        <time>2018-04-17T08:01:30Z</time>
      </trkpt>
      <trkpt lat="46.96684" lon="2.25878">
        <ele>134</ele>
        <time>2018-04-17T08:01:36Z</time>
      </trkpt>
      <trkpt lat="46.96695" lon="2.25874">
        <ele>134</ele>
        <time>2018-04-17T08:01:43Z</time>
      </trkpt>
      <trkpt lat="46.96706" lon="2.25878">
        <ele>134</ele>
        <time>2018-04-17T08:01:49Z</time>
      </trkpt>
      <trkpt lat="46.96713" lon="2.25884">
        <ele>135</ele>
        <time>2018-04-17T08:01:53Z</time>
      </trkpt>
      <trkpt lat="46.96716" lon="2.25887">
        <ele>135</ele>
        <time>2018-04-17T08:01:55Z</time>
      </trkpt>
      <trkpt lat="46.9672" lon="2.25894">
        <ele>135</ele>
        <time>2018-04-17T08:01:59Z</time>
      </trkpt>
      <trkpt lat="46.96724" lon="2.25897">
        <ele>135</ele>
        <time>2018-04-17T08:02:01Z</time>
      </trkpt>
      <trkpt lat="46.9673" lon="2.25908">
        <ele>136</ele>
        <time>2018-04-17T08:02:06Z</time>
      </trkpt>
      <trkpt lat="46.96733" lon="2.25914">
        <ele>136</ele>
        <time>2018-04-17T08:02:09Z</time>
      </trkpt>
      <trkpt lat="46.96735" lon="2.25918">
        <ele>138</ele>
        <time>2018-04-17T08:02:11Z</time>
      </trkpt>
      <trkpt lat="46.96743" lon="2.25932">
        <ele>139</ele>
        <time>2018-04-17T08:02:17Z</time>
      </trkpt>
      <trkpt lat="46.96751" lon="2.25952">
        <ele>142</ele>
        <time>2018-04-17T08:02:25Z</time>
      </trkpt>
      <trkpt lat="46.96752" lon="2.25955">
        <ele>143</ele>
        <time>2018-04-17T08:02:26Z</time>
      </trkpt>
      <trkpt lat="46.96754" lon="2.25965">
        <ele>143</ele>
        <time>2018-04-17T08:02:30Z</time>
      </trkpt>
      <trkpt lat="46.96761" lon="2.25976">
        <ele>143</ele>
        <time>2018-04-17T08:02:35Z</time>
      </trkpt>
      <trkpt lat="46.96762" lon="2.25979">
        <ele>143</ele>
        <time>2018-04-17T08:02:37Z</time>
      </trkpt>
      <trkpt lat="46.96766" lon="2.25985">
        <ele>144</ele>
        <time>2018-04-17T08:02:40Z</time>
      </trkpt>
      <trkpt lat="46.96775" lon="2.26">
        <ele>144</ele>
        <time>2018-04-17T08:02:45Z</time>
      </trkpt>
      <trkpt lat="46.96777" lon="2.26006">
        <ele>145</ele>
        <time>2018-04-17T08:02:47Z</time>
      </trkpt>
      <trkpt lat="46.96779" lon="2.26012">
        <ele>145</ele>
        <time>2018-04-17T08:02:50Z</time>
      </trkpt>
      <trkpt lat="46.9678" lon="2.26016">
        <ele>145</ele>
        <time>2018-04-17T08:02:52Z</time>
      </trkpt>
      <trkpt lat="46.96783" lon="2.26026">
        <ele>145</ele>
        <time>2018-04-17T08:02:56Z</time>
      </trkpt>
      <trkpt lat="46.96788" lon="2.26035">
        <ele>146</ele>
        <time>2018-04-17T08:02:59Z</time>
      </trkpt>
      <trkpt lat="46.96794" lon="2.26047">
        <ele>146</ele>
        <time>2018-04-17T08:03:03Z</time>
      </trkpt>
      <trkpt lat="46.96804" lon="2.26067">
        <ele>146</ele>
        <time>2018-04-17T08:03:10Z</time>
      </trkpt>
      <trkpt lat="46.96807" lon="2.26076">
        <ele>146</ele>
        <time>2018-04-17T08:03:13Z</time>
      </trkpt>
      <trkpt lat="46.96808" lon="2.26084">
        <ele>146</ele>
        <time>2018-04-17T08:03:16Z</time>
      </trkpt>
      <trkpt lat="46.96808" lon="2.26086">
        <ele>146</ele>
        <time>2018-04-17T08:03:17Z</time>
      </trkpt>
      <trkpt lat="46.96809" lon="2.26099">
        <ele>146</ele>
        <time>2018-04-17T08:03:22Z</time>
      </trkpt>
      <trkpt lat="46.96807" lon="2.26113">
        <ele>146</ele>
        <time>2018-04-17T08:03:27Z</time>
      </trkpt>
      <trkpt lat="46.96807" lon="2.26122">
        <ele>146</ele>
        <time>2018-04-17T08:03:30Z</time>
      </trkpt>
      <trkpt lat="46.96808" lon="2.26134">
        <ele>146</ele>
        <time>2018-04-17T08:03:34Z</time>
      </trkpt>
      <trkpt lat="46.96809" lon="2.26146">
        <ele>145</ele>
        <time>2018-04-17T08:03:37Z</time>
      </trkpt>
      <trkpt lat="46.96808" lon="2.26158">
        <ele>145</ele>
        <time>2018-04-17T08:03:40Z</time>
      </trkpt>
      <trkpt lat="46.96808" lon="2.26172">
        <ele>145</ele>
        <time>2018-04-17T08:03:44Z</time>
      </trkpt>
      <trkpt lat="46.96809" lon="2.26179">
        <ele>145</ele>
        <time>2018-04-17T08:03:46Z</time>
      </trkpt>
      <trkpt lat="46.96806" lon="2.262">
        <ele>145</ele>
        <time>2018-04-17T08:03:52Z</time>
      </trkpt>
      <trkpt lat="46.96804" lon="2.26221">
        <ele>145</ele>
        <time>2018-04-17T08:03:58Z</time>
      </trkpt>
      <trkpt lat="46.96803" lon="2.26247">
        <ele>145</ele>
        <time>2018-04-17T08:04:05Z</time>
      </trkpt>
      <trkpt lat="46.96802" lon="2.2625">
        <ele>145</ele>
        <time>2018-04-17T08:04:06Z</time>
      </trkpt>
      <trkpt lat="46.96803" lon="2.26268">
        <ele>145</ele>
        <time>2018-04-17T08:04:11Z</time>
      </trkpt>
      <trkpt lat="46.96803" lon="2.26275">
        <ele>145</ele>
        <time>2018-04-17T08:04:13Z</time>
      </trkpt>
      <trkpt lat="46.96804" lon="2.26297">
        <ele>145</ele>
        <time>2018-04-17T08:04:19Z</time>
      </trkpt>
      <trkpt lat="46.96806" lon="2.2632">
        <ele>145</ele>
        <time>2018-04-17T08:04:25Z</time>
      </trkpt>
      <trkpt lat="46.96812" lon="2.26352">
        <ele>145</ele>
        <time>2018-04-17T08:04:33Z</time>
      </trkpt>
      <trkpt lat="46.96817" lon="2.26375">
        <ele>146</ele>
        <time>2018-04-17T08:04:39Z</time>
      </trkpt>
      <trkpt lat="46.96819" lon="2.26391">
        <ele>146</ele>
        <time>2018-04-17T08:04:44Z</time>
      </trkpt>
      <trkpt lat="46.96827" lon="2.26422">
        <ele>145</ele>
        <time>2018-04-17T08:04:52Z</time>
      </trkpt>
      <trkpt lat="46.96832" lon="2.26446">
        <ele>145</ele>
        <time>2018-04-17T08:04:58Z</time>
      </trkpt>
      <trkpt lat="46.96835" lon="2.26466">
        <ele>143</ele>
        <time>2018-04-17T08:05:04Z</time>
      </trkpt>
      <trkpt lat="46.9684" lon="2.26489">
        <ele>143</ele>
        <time>2018-04-17T08:05:11Z</time>
      </trkpt>
      <trkpt lat="46.96846" lon="2.26497">
        <ele>143</ele>
        <time>2018-04-17T08:05:16Z</time>
      </trkpt>
      <trkpt lat="46.96847" lon="2.26497">
        <ele>143</ele>
        <time>2018-04-17T08:05:24Z</time>
      </trkpt>
      <trkpt lat="46.96855" lon="2.26508">
        <ele>141</ele>
        <time>2018-04-17T08:05:31Z</time>
      </trkpt>
      <trkpt lat="46.96855" lon="2.26509">
        <ele>141</ele>
        <time>2018-04-17T08:05:36Z</time>
      </trkpt>
      <trkpt lat="46.96855" lon="2.26509">
        <ele>141</ele>
        <time>2018-04-17T08:05:49Z</time>
      </trkpt>
      <trkpt lat="46.96855" lon="2.26509">
        <ele>141</ele>
        <time>2018-04-17T08:05:59Z</time>
      </trkpt>
      <trkpt lat="46.96855" lon="2.26509">
        <ele>141</ele>
        <time>2018-04-17T08:06:13Z</time>
      </trkpt>
      <trkpt lat="46.96855" lon="2.2651">
        <ele>141</ele>
        <time>2018-04-17T08:06:25Z</time>
      </trkpt>
      <trkpt lat="46.96855" lon="2.2651">
        <ele>141</ele>
        <time>2018-04-17T08:06:34Z</time>
      </trkpt>
      <trkpt lat="46.96855" lon="2.2651">
        <ele>141</ele>
        <time>2018-04-17T08:06:48Z</time>
      </trkpt>
      <trkpt lat="46.96855" lon="2.2651">
        <ele>141</ele>
        <time>2018-04-17T08:06:58Z</time>
      </trkpt>
      <trkpt lat="46.96856" lon="2.2651">
        <ele>141</ele>
        <time>2018-04-17T08:07:09Z</time>
      </trkpt>
      <trkpt lat="46.96857" lon="2.26513">
        <ele>141</ele>
        <time>2018-04-17T08:07:13Z</time>
      </trkpt>
      <trkpt lat="46.96859" lon="2.26515">
        <ele>140</ele>
        <time>2018-04-17T08:07:14Z</time>
      </trkpt>
      <trkpt lat="46.96873" lon="2.26531">
        <ele>140</ele>
        <time>2018-04-17T08:07:20Z</time>
      </trkpt>
      <trkpt lat="46.96885" lon="2.26549">
        <ele>139</ele>
        <time>2018-04-17T08:07:27Z</time>
      </trkpt>
      <trkpt lat="46.96899" lon="2.26566">
        <ele>139</ele>
        <time>2018-04-17T08:07:34Z</time>
      </trkpt>
      <trkpt lat="46.96912" lon="2.26583">
        <ele>137</ele>
        <time>2018-04-17T08:07:41Z</time>
      </trkpt>
      <trkpt lat="46.96929" lon="2.26606">
        <ele>138</ele>
        <time>2018-04-17T08:07:50Z</time>
      </trkpt>
      <trkpt lat="46.96945" lon="2.26629">
        <ele>139</ele>
        <time>2018-04-17T08:07:59Z</time>
      </trkpt>
      <trkpt lat="46.96961" lon="2.26653">
        <ele>139</ele>
        <time>2018-04-17T08:08:07Z</time>
      </trkpt>
      <trkpt lat="46.96971" lon="2.26671">
        <ele>140</ele>
        <time>2018-04-17T08:08:13Z</time>
      </trkpt>
      <trkpt lat="46.96973" lon="2.26674">
        <ele>140</ele>
        <time>2018-04-17T08:08:14Z</time>
      </trkpt>
      <trkpt lat="46.96986" lon="2.26698">
        <ele>140</ele>
        <time>2018-04-17T08:08:22Z</time>
      </trkpt>
      <trkpt lat="46.9699" lon="2.26704">
        <ele>140</ele>
        <time>2018-04-17T08:08:24Z</time>
      </trkpt>
      <trkpt lat="46.97005" lon="2.26732">
        <ele>140</ele>
        <time>2018-04-17T08:08:32Z</time>
      </trkpt>
      <trkpt lat="46.97021" lon="2.26764">
        <ele>139</ele>
        <time>2018-04-17T08:08:41Z</time>
      </trkpt>
      <trkpt lat="46.97037" lon="2.26799">
        <ele>139</ele>
        <time>2018-04-17T08:08:51Z</time>
      </trkpt>
      <trkpt lat="46.97053" lon="2.26836">
        <ele>140</ele>
        <time>2018-04-17T08:09:01Z</time>
      </trkpt>
      <trkpt lat="46.97068" lon="2.26875">
        <ele>140</ele>
        <time>2018-04-17T08:09:11Z</time>
      </trkpt>
      <trkpt lat="46.97081" lon="2.26911">
        <ele>140</ele>
        <time>2018-04-17T08:09:20Z</time>
      </trkpt>
      <trkpt lat="46.9709" lon="2.26945">
        <ele>141</ele>
        <time>2018-04-17T08:09:28Z</time>
      </trkpt>
      <trkpt lat="46.97098" lon="2.26985">
        <ele>141</ele>
        <time>2018-04-17T08:09:37Z</time>
      </trkpt>
      <trkpt lat="46.97104" lon="2.2701">
        <ele>140</ele>
        <time>2018-04-17T08:09:43Z</time>
      </trkpt>
      <trkpt lat="46.97107" lon="2.27023">
        <ele>140</ele>
        <time>2018-04-17T08:09:46Z</time>
      </trkpt>
      <trkpt lat="46.97116" lon="2.27055">
        <ele>140</ele>
        <time>2018-04-17T08:09:54Z</time>
      </trkpt>
      <trkpt lat="46.97127" lon="2.27084">
        <ele>140</ele>
        <time>2018-04-17T08:10:02Z</time>
      </trkpt>
      <trkpt lat="46.97129" lon="2.27087">
        <ele>140</ele>
        <time>2018-04-17T08:10:03Z</time>
      </trkpt>
      <trkpt lat="46.97137" lon="2.27104">
        <ele>140</ele>
        <time>2018-04-17T08:10:08Z</time>
      </trkpt>
      <trkpt lat="46.97146" lon="2.2712">
        <ele>140</ele>
        <time>2018-04-17T08:10:13Z</time>
      </trkpt>
      <trkpt lat="46.97153" lon="2.27132">
        <ele>140</ele>
        <time>2018-04-17T08:10:18Z</time>
      </trkpt>
      <trkpt lat="46.97161" lon="2.27149">
        <ele>141</ele>
        <time>2018-04-17T08:10:23Z</time>
      </trkpt>
      <trkpt lat="46.97175" lon="2.27171">
        <ele>143</ele>
        <time>2018-04-17T08:10:30Z</time>
      </trkpt>
      <trkpt lat="46.97177" lon="2.27174">
        <ele>143</ele>
        <time>2018-04-17T08:10:31Z</time>
      </trkpt>
      <trkpt lat="46.97191" lon="2.27196">
        <ele>144</ele>
        <time>2018-04-17T08:10:38Z</time>
      </trkpt>
      <trkpt lat="46.97201" lon="2.2721">
        <ele>144</ele>
        <time>2018-04-17T08:10:43Z</time>
      </trkpt>
      <trkpt lat="46.97216" lon="2.27235">
        <ele>145</ele>
        <time>2018-04-17T08:10:51Z</time>
      </trkpt>
      <trkpt lat="46.97226" lon="2.27251">
        <ele>146</ele>
        <time>2018-04-17T08:10:56Z</time>
      </trkpt>
      <trkpt lat="46.97235" lon="2.27263">
        <ele>146</ele>
        <time>2018-04-17T08:11:00Z</time>
      </trkpt>
      <trkpt lat="46.97239" lon="2.27269">
        <ele>146</ele>
        <time>2018-04-17T08:11:02Z</time>
      </trkpt>
      <trkpt lat="46.97256" lon="2.27293">
        <ele>147</ele>
        <time>2018-04-17T08:11:10Z</time>
      </trkpt>
      <trkpt lat="46.97267" lon="2.27308">
        <ele>147</ele>
        <time>2018-04-17T08:11:15Z</time>
      </trkpt>
      <trkpt lat="46.97278" lon="2.27323">
        <ele>147</ele>
        <time>2018-04-17T08:11:20Z</time>
      </trkpt>
      <trkpt lat="46.97292" lon="2.27341">
        <ele>148</ele>
        <time>2018-04-17T08:11:26Z</time>
      </trkpt>
      <trkpt lat="46.97296" lon="2.27346">
        <ele>148</ele>
        <time>2018-04-17T08:11:28Z</time>
      </trkpt>
      <trkpt lat="46.97313" lon="2.27367">
        <ele>149</ele>
        <time>2018-04-17T08:11:36Z</time>
      </trkpt>
      <trkpt lat="46.97318" lon="2.27372">
        <ele>149</ele>
        <time>2018-04-17T08:11:38Z</time>
      </trkpt>
      <trkpt lat="46.97335" lon="2.27395">
        <ele>150</ele>
        <time>2018-04-17T08:11:46Z</time>
      </trkpt>
      <trkpt lat="46.9734" lon="2.274">
        <ele>150</ele>
        <time>2018-04-17T08:11:48Z</time>
      </trkpt>
      <trkpt lat="46.97351" lon="2.27415">
        <ele>150</ele>
        <time>2018-04-17T08:11:53Z</time>
      </trkpt>
      <trkpt lat="46.97379" lon="2.27449">
        <ele>151</ele>
        <time>2018-04-17T08:12:04Z</time>
      </trkpt>
      <trkpt lat="46.97407" lon="2.27484">
        <ele>151</ele>
        <time>2018-04-17T08:12:15Z</time>
      </trkpt>
      <trkpt lat="46.97427" lon="2.2751">
        <ele>150</ele>
        <time>2018-04-17T08:12:23Z</time>
      </trkpt>
      <trkpt lat="46.97432" lon="2.27516">
        <ele>150</ele>
        <time>2018-04-17T08:12:25Z</time>
      </trkpt>
      <trkpt lat="46.97452" lon="2.27542">
        <ele>151</ele>
        <time>2018-04-17T08:12:33Z</time>
      </trkpt>
      <trkpt lat="46.97477" lon="2.27573">
        <ele>151</ele>
        <time>2018-04-17T08:12:42Z</time>
      </trkpt>
      <trkpt lat="46.97501" lon="2.27601">
        <ele>151</ele>
        <time>2018-04-17T08:12:50Z</time>
      </trkpt>
      <trkpt lat="46.97524" lon="2.27628">
        <ele>150</ele>
        <time>2018-04-17T08:12:58Z</time>
      </trkpt>
      <trkpt lat="46.97549" lon="2.27662">
        <ele>150</ele>
        <time>2018-04-17T08:13:07Z</time>
      </trkpt>
      <trkpt lat="46.97573" lon="2.27698">
        <ele>150</ele>
        <time>2018-04-17T08:13:17Z</time>
      </trkpt>
      <trkpt lat="46.97582" lon="2.27712">
        <ele>150</ele>
        <time>2018-04-17T08:13:23Z</time>
      </trkpt>
      <trkpt lat="46.97595" lon="2.27727">
        <ele>151</ele>
        <time>2018-04-17T08:13:28Z</time>
      </trkpt>
      <trkpt lat="46.97615" lon="2.27753">
        <ele>151</ele>
        <time>2018-04-17T08:13:35Z</time>
      </trkpt>
      <trkpt lat="46.97624" lon="2.27763">
        <ele>151</ele>
        <time>2018-04-17T08:13:38Z</time>
      </trkpt>
      <trkpt lat="46.9764" lon="2.27779">
        <ele>151</ele>
        <time>2018-04-17T08:13:43Z</time>
      </trkpt>
      <trkpt lat="46.97669" lon="2.27796">
        <ele>151</ele>
        <time>2018-04-17T08:13:51Z</time>
      </trkpt>
      <trkpt lat="46.97696" lon="2.27808">
        <ele>152</ele>
        <time>2018-04-17T08:13:58Z</time>
      </trkpt>
      <trkpt lat="46.9773" lon="2.27825">
        <ele>152</ele>
        <time>2018-04-17T08:14:07Z</time>
      </trkpt>
      <trkpt lat="46.97752" lon="2.27849">
        <ele>152</ele>
        <time>2018-04-17T08:14:14Z</time>
      </trkpt>
      <trkpt lat="46.97784" lon="2.27886">
        <ele>151</ele>
        <time>2018-04-17T08:14:24Z</time>
      </trkpt>
      <trkpt lat="46.97817" lon="2.27923">
        <ele>150</ele>
        <time>2018-04-17T08:14:34Z</time>
      </trkpt>
      <trkpt lat="46.97846" lon="2.27952">
        <ele>150</ele>
        <time>2018-04-17T08:14:43Z</time>
      </trkpt>
      <trkpt lat="46.97864" lon="2.27968">
        <ele>150</ele>
        <time>2018-04-17T08:14:50Z</time>
      </trkpt>
      <trkpt lat="46.97872" lon="2.27973">
        <ele>150</ele>
        <time>2018-04-17T08:14:56Z</time>
      </trkpt>
      <trkpt lat="46.97871" lon="2.27973">
        <ele>150</ele>
        <time>2018-04-17T08:15:02Z</time>
      </trkpt>
      <trkpt lat="46.97871" lon="2.27973">
        <ele>150</ele>
        <time>2018-04-17T08:15:13Z</time>
      </trkpt>
      <trkpt lat="46.97871" lon="2.27973">
        <ele>150</ele>
        <time>2018-04-17T08:15:24Z</time>
      </trkpt>
      <trkpt lat="46.97871" lon="2.27973">
        <ele>150</ele>
        <time>2018-04-17T08:15:33Z</time>
      </trkpt>
      <trkpt lat="46.97871" lon="2.27973">
        <ele>150</ele>
        <time>2018-04-17T08:15:44Z</time>
      </trkpt>
      <trkpt lat="46.97871" lon="2.27973">
        <ele>150</ele>
        <time>2018-04-17T08:15:55Z</time>
      </trkpt>
      <trkpt lat="46.97871" lon="2.27973">
        <ele>150</ele>
        <time>2018-04-17T08:16:01Z</time>
      </trkpt>
      <trkpt lat="46.97871" lon="2.27973">
        <ele>150</ele>
        <time>2018-04-17T08:16:12Z</time>
      </trkpt>
      <trkpt lat="46.97871" lon="2.27973">
        <ele>150</ele>
        <time>2018-04-17T08:16:23Z</time>
      </trkpt>
      <trkpt lat="46.97871" lon="2.27973">
        <ele>150</ele>
        <time>2018-04-17T08:16:33Z</time>
      </trkpt>
      <trkpt lat="46.97871" lon="2.27973">
        <ele>150</ele>
        <time>2018-04-17T08:16:36Z</time>
      </trkpt>
      <trkpt lat="46.97871" lon="2.27973">
        <ele>150</ele>
        <time>2018-04-17T08:16:47Z</time>
      </trkpt>
      <trkpt lat="46.97873" lon="2.27977">
        <ele>150</ele>
        <time>2018-04-17T08:16:51Z</time>
      </trkpt>
      <trkpt lat="46.97874" lon="2.27977">
        <ele>150</ele>
        <time>2018-04-17T08:16:52Z</time>
      </trkpt>
      <trkpt lat="46.97887" lon="2.27983">
        <ele>151</ele>
        <time>2018-04-17T08:16:59Z</time>
      </trkpt>
      <trkpt lat="46.97904" lon="2.27992">
        <ele>151</ele>
        <time>2018-04-17T08:17:05Z</time>
      </trkpt>
      <trkpt lat="46.97922" lon="2.28003">
        <ele>151</ele>
        <time>2018-04-17T08:17:11Z</time>
      </trkpt>
      <trkpt lat="46.97945" lon="2.28016">
        <ele>152</ele>
        <time>2018-04-17T08:17:19Z</time>
      </trkpt>
      <trkpt lat="46.97969" lon="2.2803">
        <ele>153</ele>
        <time>2018-04-17T08:17:27Z</time>
      </trkpt>
      <trkpt lat="46.97997" lon="2.28041">
        <ele>153</ele>
        <time>2018-04-17T08:17:36Z</time>
      </trkpt>
      <trkpt lat="46.98022" lon="2.28045">
        <ele>155</ele>
        <time>2018-04-17T08:17:44Z</time>
      </trkpt>
      <trkpt lat="46.98025" lon="2.28045">
        <ele>155</ele>
        <time>2018-04-17T08:17:45Z</time>
      </trkpt>
      <trkpt lat="46.98049" lon="2.28047">
        <ele>156</ele>
        <time>2018-04-17T08:17:52Z</time>
      </trkpt>
      <trkpt lat="46.98056" lon="2.28048">
        <ele>156</ele>
        <time>2018-04-17T08:17:54Z</time>
      </trkpt>
      <trkpt lat="46.98066" lon="2.28046">
        <ele>156</ele>
        <time>2018-04-17T08:17:57Z</time>
      </trkpt>
      <trkpt lat="46.98081" lon="2.28044">
        <ele>156</ele>
        <time>2018-04-17T08:18:02Z</time>
      </trkpt>
      <trkpt lat="46.9809" lon="2.28043">
        <ele>157</ele>
        <time>2018-04-17T08:18:05Z</time>
      </trkpt>
      <trkpt lat="46.98112" lon="2.28039">
        <ele>158</ele>
        <time>2018-04-17T08:18:13Z</time>
      </trkpt>
      <trkpt lat="46.98118" lon="2.28038">
        <ele>158</ele>
        <time>2018-04-17T08:18:15Z</time>
      </trkpt>
      <trkpt lat="46.98129" lon="2.28043">
        <ele>158</ele>
        <time>2018-04-17T08:18:20Z</time>
      </trkpt>
      <trkpt lat="46.98147" lon="2.28064">
        <ele>158</ele>
        <time>2018-04-17T08:18:26Z</time>
      </trkpt>
      <trkpt lat="46.98171" lon="2.28093">
        <ele>159</ele>
        <time>2018-04-17T08:18:34Z</time>
      </trkpt>
      <trkpt lat="46.9818" lon="2.28102">
        <ele>159</ele>
        <time>2018-04-17T08:18:37Z</time>
      </trkpt>
      <trkpt lat="46.9819" lon="2.28116">
        <ele>159</ele>
        <time>2018-04-17T08:18:41Z</time>
      </trkpt>
      <trkpt lat="46.98201" lon="2.2813">
        <ele>159</ele>
        <time>2018-04-17T08:18:46Z</time>
      </trkpt>
      <trkpt lat="46.98202" lon="2.28134">
        <ele>159</ele>
        <time>2018-04-17T08:18:49Z</time>
      </trkpt>
      <trkpt lat="46.98203" lon="2.28134">
        <ele>159</ele>
        <time>2018-04-17T08:18:51Z</time>
      </trkpt>
      <trkpt lat="46.98203" lon="2.28134">
        <ele>159</ele>
        <time>2018-04-17T08:19:01Z</time>
      </trkpt>
      <trkpt lat="46.98203" lon="2.28134">
        <ele>159</ele>
        <time>2018-04-17T08:19:23Z</time>
      </trkpt>
      <trkpt lat="46.98203" lon="2.28134">
        <ele>159</ele>
        <time>2018-04-17T08:19:40Z</time>
      </trkpt>
      <trkpt lat="46.98203" lon="2.28134">
        <ele>159</ele>
        <time>2018-04-17T08:19:56Z</time>
      </trkpt>
      <trkpt lat="46.98207" lon="2.28138">
        <ele>159</ele>
        <time>2018-04-17T08:20:02Z</time>
      </trkpt>
      <trkpt lat="46.98219" lon="2.28149">
        <ele>160</ele>
        <time>2018-04-17T08:20:06Z</time>
      </trkpt>
      <trkpt lat="46.98244" lon="2.28171">
        <ele>160</ele>
        <time>2018-04-17T08:20:14Z</time>
      </trkpt>
      <trkpt lat="46.98274" lon="2.28188">
        <ele>161</ele>
        <time>2018-04-17T08:20:23Z</time>
      </trkpt>
      <trkpt lat="46.98287" lon="2.28195">
        <ele>161</ele>
        <time>2018-04-17T08:20:27Z</time>
      </trkpt>
      <trkpt lat="46.98304" lon="2.28204">
        <ele>161</ele>
        <time>2018-04-17T08:20:32Z</time>
      </trkpt>
      <trkpt lat="46.98327" lon="2.28221">
        <ele>161</ele>
        <time>2018-04-17T08:20:39Z</time>
      </trkpt>
      <trkpt lat="46.9835" lon="2.28247">
        <ele>161</ele>
        <time>2018-04-17T08:20:47Z</time>
      </trkpt>
      <trkpt lat="46.98377" lon="2.28284">
        <ele>162</ele>
        <time>2018-04-17T08:20:56Z</time>
      </trkpt>
      <trkpt lat="46.98399" lon="2.28316">
        <ele>162</ele>
        <time>2018-04-17T08:21:05Z</time>
      </trkpt>
      <trkpt lat="46.98415" lon="2.28323">
        <ele>163</ele>
        <time>2018-04-17T08:21:11Z</time>
      </trkpt>
      <trkpt lat="46.98441" lon="2.2833">
        <ele>162</ele>
        <time>2018-04-17T08:21:18Z</time>
      </trkpt>
      <trkpt lat="46.98471" lon="2.28338">
        <ele>162</ele>
        <time>2018-04-17T08:21:26Z</time>
      </trkpt>
      <trkpt lat="46.98501" lon="2.28352">
        <ele>161</ele>
        <time>2018-04-17T08:21:34Z</time>
      </trkpt>
      <trkpt lat="46.98524" lon="2.28359">
        <ele>161</ele>
        <time>2018-04-17T08:21:41Z</time>
      </trkpt>
      <trkpt lat="46.98546" lon="2.28357">
        <ele>161</ele>
        <time>2018-04-17T08:21:47Z</time>
      </trkpt>
      <trkpt lat="46.98576" lon="2.28341">
        <ele>161</ele>
        <time>2018-04-17T08:21:55Z</time>
      </trkpt>
      <trkpt lat="46.98609" lon="2.28315">
        <ele>160</ele>
        <time>2018-04-17T08:22:04Z</time>
      </trkpt>
      <trkpt lat="46.98633" lon="2.28296">
        <ele>160</ele>
        <time>2018-04-17T08:22:11Z</time>
      </trkpt>
      <trkpt lat="46.98664" lon="2.28274">
        <ele>159</ele>
        <time>2018-04-17T08:22:20Z</time>
      </trkpt>
      <trkpt lat="46.98691" lon="2.28264">
        <ele>159</ele>
        <time>2018-04-17T08:22:27Z</time>
      </trkpt>
      <trkpt lat="46.98715" lon="2.2826">
        <ele>160</ele>
        <time>2018-04-17T08:22:34Z</time>
      </trkpt>
      <trkpt lat="46.98725" lon="2.28263">
        <ele>160</ele>
        <time>2018-04-17T08:22:40Z</time>
      </trkpt>
      <trkpt lat="46.98732" lon="2.28277">
        <ele>160</ele>
        <time>2018-04-17T08:22:45Z</time>
      </trkpt>
      <trkpt lat="46.98746" lon="2.28306">
        <ele>159</ele>
        <time>2018-04-17T08:22:53Z</time>
      </trkpt>
      <trkpt lat="46.98771" lon="2.28336">
        <ele>159</ele>
        <time>2018-04-17T08:23:02Z</time>
      </trkpt>
      <trkpt lat="46.98807" lon="2.28371">
        <ele>160</ele>
        <time>2018-04-17T08:23:13Z</time>
      </trkpt>
      <trkpt lat="46.98837" lon="2.28403">
        <ele>160</ele>
        <time>2018-04-17T08:23:22Z</time>
      </trkpt>
      <trkpt lat="46.98866" lon="2.28432">
        <ele>161</ele>
        <time>2018-04-17T08:23:30Z</time>
      </trkpt>
      <trkpt lat="46.98903" lon="2.2847">
        <ele>162</ele>
        <time>2018-04-17T08:23:41Z</time>
      </trkpt>
      <trkpt lat="46.9892" lon="2.28488">
        <ele>162</ele>
        <time>2018-04-17T08:23:48Z</time>
      </trkpt>
      <trkpt lat="46.98934" lon="2.285">
        <ele>162</ele>
        <time>2018-04-17T08:23:53Z</time>
      </trkpt>
      <trkpt lat="46.98957" lon="2.28523">
        <ele>161</ele>
        <time>2018-04-17T08:24:00Z</time>
      </trkpt>
      <trkpt lat="46.98987" lon="2.28555">
        <ele>161</ele>
        <time>2018-04-17T08:24:09Z</time>
      </trkpt>
      <trkpt lat="46.99008" lon="2.28577">
        <ele>161</ele>
        <time>2018-04-17T08:24:16Z</time>
      </trkpt>
      <trkpt lat="46.9902" lon="2.28592">
        <ele>161</ele>
        <time>2018-04-17T08:24:22Z</time>
      </trkpt>
      <trkpt lat="46.99033" lon="2.28611">
        <ele>160</ele>
        <time>2018-04-17T08:24:31Z</time>
      </trkpt>
      <trkpt lat="46.99044" lon="2.28619">
        <ele>160</ele>
        <time>2018-04-17T08:24:37Z</time>
      </trkpt>
      <trkpt lat="46.99055" lon="2.28628">
        <ele>160</ele>
        <time>2018-04-17T08:24:43Z</time>
      </trkpt>
      <trkpt lat="46.99059" lon="2.28631">
        <ele>160</ele>
        <time>2018-04-17T08:24:48Z</time>
      </trkpt>
      <trkpt lat="46.99059" lon="2.28631">
        <ele>160</ele>
        <time>2018-04-17T08:24:49Z</time>
      </trkpt>
      <trkpt lat="46.99059" lon="2.28631">
        <ele>160</ele>
        <time>2018-04-17T08:24:57Z</time>
      </trkpt>
      <trkpt lat="46.99059" lon="2.28631">
        <ele>160</ele>
        <time>2018-04-17T08:25:13Z</time>
      </trkpt>
      <trkpt lat="46.99059" lon="2.28631">
        <ele>160</ele>
        <time>2018-04-17T08:25:28Z</time>
      </trkpt>
      <trkpt lat="46.99059" lon="2.28631">
        <ele>160</ele>
        <time>2018-04-17T08:25:43Z</time>
      </trkpt>
      <trkpt lat="46.99059" lon="2.28631">
        <ele>160</ele>
        <time>2018-04-17T08:25:55Z</time>
      </trkpt>
      <trkpt lat="46.99059" lon="2.28631">
        <ele>160</ele>
        <time>2018-04-17T08:26:04Z</time>
      </trkpt>
      <trkpt lat="46.99059" lon="2.28631">
        <ele>160</ele>
        <time>2018-04-17T08:26:07Z</time>
      </trkpt>
      <trkpt lat="46.99059" lon="2.28631">
        <ele>160</ele>
        <time>2018-04-17T08:26:15Z</time>
      </trkpt>
      <trkpt lat="46.99058" lon="2.28631">
        <ele>160</ele>
        <time>2018-04-17T08:26:21Z</time>
      </trkpt>
      <trkpt lat="46.99054" lon="2.28627">
        <ele>160</ele>
        <time>2018-04-17T08:26:28Z</time>
      </trkpt>
      <trkpt lat="46.99038" lon="2.28615">
        <ele>160</ele>
        <time>2018-04-17T08:26:34Z</time>
      </trkpt>
      <trkpt lat="46.99023" lon="2.28597">
        <ele>160</ele>
        <time>2018-04-17T08:26:40Z</time>
      </trkpt>
      <trkpt lat="46.99005" lon="2.28575">
        <ele>161</ele>
        <time>2018-04-17T08:26:47Z</time>
      </trkpt>
      <trkpt lat="46.98995" lon="2.28565">
        <ele>161</ele>
        <time>2018-04-17T08:26:50Z</time>
      </trkpt>
      <trkpt lat="46.98987" lon="2.28558">
        <ele>161</ele>
        <time>2018-04-17T08:26:52Z</time>
      </trkpt>
      <trkpt lat="46.98956" lon="2.28527">
        <ele>161</ele>
        <time>2018-04-17T08:27:00Z</time>
      </trkpt>
      <trkpt lat="46.98928" lon="2.28498">
        <ele>162</ele>
        <time>2018-04-17T08:27:08Z</time>
      </trkpt>
      <trkpt lat="46.98899" lon="2.28467">
        <ele>161</ele>
        <time>2018-04-17T08:27:17Z</time>
      </trkpt>
      <trkpt lat="46.98863" lon="2.28429">
        <ele>161</ele>
        <time>2018-04-17T08:27:27Z</time>
      </trkpt>
      <trkpt lat="46.9883" lon="2.28396">
        <ele>160</ele>
        <time>2018-04-17T08:27:36Z</time>
      </trkpt>
      <trkpt lat="46.98795" lon="2.28361">
        <ele>160</ele>
        <time>2018-04-17T08:27:46Z</time>
      </trkpt>
      <trkpt lat="46.98768" lon="2.28333">
        <ele>159</ele>
        <time>2018-04-17T08:27:54Z</time>
      </trkpt>
      <trkpt lat="46.98762" lon="2.28326">
        <ele>159</ele>
        <time>2018-04-17T08:27:56Z</time>
      </trkpt>
      <trkpt lat="46.98735" lon="2.28291">
        <ele>160</ele>
        <time>2018-04-17T08:28:05Z</time>
      </trkpt>
      <trkpt lat="46.98727" lon="2.28268">
        <ele>160</ele>
        <time>2018-04-17T08:28:11Z</time>
      </trkpt>
      <trkpt lat="46.98727" lon="2.28263">
        <ele>160</ele>
        <time>2018-04-17T08:28:13Z</time>
      </trkpt>
      <trkpt lat="46.98727" lon="2.28263">
        <ele>160</ele>
        <time>2018-04-17T08:28:15Z</time>
      </trkpt>
      <trkpt lat="46.98727" lon="2.28262">
        <ele>160</ele>
        <time>2018-04-17T08:28:25Z</time>
      </trkpt>
      <trkpt lat="46.98727" lon="2.28262">
        <ele>160</ele>
        <time>2018-04-17T08:28:46Z</time>
      </trkpt>
      <trkpt lat="46.98727" lon="2.28263">
        <ele>160</ele>
        <time>2018-04-17T08:29:01Z</time>
      </trkpt>
      <trkpt lat="46.98727" lon="2.28263">
        <ele>160</ele>
        <time>2018-04-17T08:29:13Z</time>
      </trkpt>
      <trkpt lat="46.98734" lon="2.28263">
        <ele>160</ele>
        <time>2018-04-17T08:29:17Z</time>
      </trkpt>
      <trkpt lat="46.98744" lon="2.28264">
        <ele>160</ele>
        <time>2018-04-17T08:29:20Z</time>
      </trkpt>
      <trkpt lat="46.98756" lon="2.28263">
        <ele>160</ele>
        <time>2018-04-17T08:29:23Z</time>
      </trkpt>
      <trkpt lat="46.98794" lon="2.28265">
        <ele>160</ele>
        <time>2018-04-17T08:29:31Z</time>
      </trkpt>
      <trkpt lat="46.98837" lon="2.28271">
        <ele>160</ele>
        <time>2018-04-17T08:29:40Z</time>
      </trkpt>
      <trkpt lat="46.98869" lon="2.28286">
        <ele>160</ele>
        <time>2018-04-17T08:29:47Z</time>
      </trkpt>
      <trkpt lat="46.98906" lon="2.28301">
        <ele>160</ele>
        <time>2018-04-17T08:29:55Z</time>
      </trkpt>
      <trkpt lat="46.98925" lon="2.28304">
        <ele>160</ele>
        <time>2018-04-17T08:29:59Z</time>
      </trkpt>
      <trkpt lat="46.98934" lon="2.28305">
        <ele>160</ele>
        <time>2018-04-17T08:30:01Z</time>
      </trkpt>
      <trkpt lat="46.98968" lon="2.28304">
        <ele>160</ele>
        <time>2018-04-17T08:30:08Z</time>
      </trkpt>
      <trkpt lat="46.98976" lon="2.28303">
        <ele>160</ele>
        <time>2018-04-17T08:30:10Z</time>
      </trkpt>
      <trkpt lat="46.9898" lon="2.28302">
        <ele>160</ele>
        <time>2018-04-17T08:30:11Z</time>
      </trkpt>
      <trkpt lat="46.99004" lon="2.28293">
        <ele>160</ele>
        <time>2018-04-17T08:30:17Z</time>
      </trkpt>
      <trkpt lat="46.99038" lon="2.28272">
        <ele>160</ele>
        <time>2018-04-17T08:30:25Z</time>
      </trkpt>
      <trkpt lat="46.99076" lon="2.28248">
        <ele>159</ele>
        <time>2018-04-17T08:30:34Z</time>
      </trkpt>
      <trkpt lat="46.99115" lon="2.28225">
        <ele>159</ele>
        <time>2018-04-17T08:30:43Z</time>
      </trkpt>
      <trkpt lat="46.99134" lon="2.28206">
        <ele>159</ele>
        <time>2018-04-17T08:30:49Z</time>
      </trkpt>
      <trkpt lat="46.9914" lon="2.28184">
        <ele>159</ele>
        <time>2018-04-17T08:30:55Z</time>
      </trkpt>
      <trkpt lat="46.99144" lon="2.28155">
        <ele>159</ele>
        <time>2018-04-17T08:31:01Z</time>
      </trkpt>
      <trkpt lat="46.99149" lon="2.28125">
        <ele>159</ele>
        <time>2018-04-17T08:31:08Z</time>
      </trkpt>
      <trkpt lat="46.99155" lon="2.28089">
        <ele>160</ele>
        <time>2018-04-17T08:31:17Z</time>
      </trkpt>
      <trkpt lat="46.99158" lon="2.28059">
        <ele>160</ele>
        <time>2018-04-17T08:31:24Z</time>
      </trkpt>
      <trkpt lat="46.99162" lon="2.28027">
        <ele>160</ele>
        <time>2018-04-17T08:31:32Z</time>
      </trkpt>
      <trkpt lat="46.99165" lon="2.28002">
        <ele>161</ele>
        <time>2018-04-17T08:31:39Z</time>
      </trkpt>
      <trkpt lat="46.99168" lon="2.27968">
        <ele>160</ele>
        <time>2018-04-17T08:31:47Z</time>
      </trkpt>
      <trkpt lat="46.99173" lon="2.27935">
        <ele>160</ele>
        <time>2018-04-17T08:31:55Z</time>
      </trkpt>
      <trkpt lat="46.99178" lon="2.27908">
        <ele>160</ele>
        <time>2018-04-17T08:32:02Z</time>
      </trkpt>
      <trkpt lat="46.9919" lon="2.27875">
        <ele>160</ele>
        <time>2018-04-17T08:32:09Z</time>
      </trkpt>
      <trkpt lat="46.99201" lon="2.27839">
        <ele>160</ele>
        <time>2018-04-17T08:32:16Z</time>
      </trkpt>
      <trkpt lat="46.99222" lon="2.27781">
        <ele>159</ele>
        <time>2018-04-17T08:32:27Z</time>
      </trkpt>
      <trkpt lat="46.9923" lon="2.27748">
        <ele>159</ele>
        <time>2018-04-17T08:32:34Z</time>
      </trkpt>
      <trkpt lat="46.99234" lon="2.27725">
        <ele>159</ele>
        <time>2018-04-17T08:32:40Z</time>
      </trkpt>
      <trkpt lat="46.99235" lon="2.27689">
        <ele>159</ele>
        <time>2018-04-17T08:32:48Z</time>
      </trkpt>
      <trkpt lat="46.99238" lon="2.2766">
        <ele>160</ele>
        <time>2018-04-17T08:32:53Z</time>
      </trkpt>
      <trkpt lat="46.9924" lon="2.27627">
        <ele>160</ele>
        <time>2018-04-17T08:32:58Z</time>
      </trkpt>
      <trkpt lat="46.9924" lon="2.27621">
        <ele>160</ele>
        <time>2018-04-17T08:32:59Z</time>
      </trkpt>
      <trkpt lat="46.99242" lon="2.27573">
        <ele>161</ele>
        <time>2018-04-17T08:33:07Z</time>
      </trkpt>
      <trkpt lat="46.99244" lon="2.27514">
        <ele>162</ele>
        <time>2018-04-17T08:33:17Z</time>
      </trkpt>
      <trkpt lat="46.99243" lon="2.27508">
        <ele>162</ele>
        <time>2018-04-17T08:33:18Z</time>
      </trkpt>
      <trkpt lat="46.99245" lon="2.27467">
        <ele>161</ele>
        <time>2018-04-17T08:33:25Z</time>
      </trkpt>
      <trkpt lat="46.99246" lon="2.27428">
        <ele>161</ele>
        <time>2018-04-17T08:33:33Z</time>
      </trkpt>
      <trkpt lat="46.99246" lon="2.2742">
        <ele>160</ele>
        <time>2018-04-17T08:33:37Z</time>
      </trkpt>
      <trkpt lat="46.99247" lon="2.27419">
        <ele>160</ele>
        <time>2018-04-17T08:33:38Z</time>
      </trkpt>
      <trkpt lat="46.9925" lon="2.27414">
        <ele>160</ele>
        <time>2018-04-17T08:33:45Z</time>
      </trkpt>
      <trkpt lat="46.9925" lon="2.27414">
        <ele>160</ele>
        <time>2018-04-17T08:33:50Z</time>
      </trkpt>
      <trkpt lat="46.9925" lon="2.27414">
        <ele>160</ele>
        <time>2018-04-17T08:33:53Z</time>
      </trkpt>
      <trkpt lat="46.9925" lon="2.27414">
        <ele>160</ele>
        <time>2018-04-17T08:34:01Z</time>
      </trkpt>
      <trkpt lat="46.9925" lon="2.27413">
        <ele>160</ele>
        <time>2018-04-17T08:34:04Z</time>
      </trkpt>
      <trkpt lat="46.99254" lon="2.27409">
        <ele>160</ele>
        <time>2018-04-17T08:34:07Z</time>
      </trkpt>
      <trkpt lat="46.99261" lon="2.27404">
        <ele>160</ele>
        <time>2018-04-17T08:34:10Z</time>
      </trkpt>
      <trkpt lat="46.99267" lon="2.274">
        <ele>159</ele>
        <time>2018-04-17T08:34:12Z</time>
      </trkpt>
      <trkpt lat="46.9929" lon="2.27387">
        <ele>159</ele>
        <time>2018-04-17T08:34:18Z</time>
      </trkpt>
      <trkpt lat="46.99294" lon="2.27384">
        <ele>159</ele>
        <time>2018-04-17T08:34:19Z</time>
      </trkpt>
      <trkpt lat="46.99331" lon="2.27361">
        <ele>158</ele>
        <time>2018-04-17T08:34:27Z</time>
      </trkpt>
      <trkpt lat="46.99357" lon="2.27345">
        <ele>158</ele>
        <time>2018-04-17T08:34:32Z</time>
      </trkpt>
      <trkpt lat="46.99377" lon="2.27333">
        <ele>157</ele>
        <time>2018-04-17T08:34:36Z</time>
      </trkpt>
      <trkpt lat="46.99391" lon="2.27324">
        <ele>157</ele>
        <time>2018-04-17T08:34:39Z</time>
      </trkpt>
      <trkpt lat="46.994" lon="2.27318">
        <ele>157</ele>
        <time>2018-04-17T08:34:41Z</time>
      </trkpt>
      <trkpt lat="46.99418" lon="2.27306">
        <ele>157</ele>
        <time>2018-04-17T08:34:45Z</time>
      </trkpt>
      <trkpt lat="46.99453" lon="2.27273">
        <ele>158</ele>
        <time>2018-04-17T08:34:53Z</time>
      </trkpt>
      <trkpt lat="46.99468" lon="2.2725">
        <ele>158</ele>
        <time>2018-04-17T08:34:57Z</time>
      </trkpt>
      <trkpt lat="46.99477" lon="2.2723">
        <ele>158</ele>
        <time>2018-04-17T08:35:00Z</time>
      </trkpt>
      <trkpt lat="46.99495" lon="2.27176">
        <ele>159</ele>
        <time>2018-04-17T08:35:08Z</time>
      </trkpt>
      <trkpt lat="46.99502" lon="2.27156">
        <ele>159</ele>
        <time>2018-04-17T08:35:11Z</time>
      </trkpt>
      <trkpt lat="46.99511" lon="2.27127">
        <ele>160</ele>
        <time>2018-04-17T08:35:15Z</time>
      </trkpt>
      <trkpt lat="46.99523" lon="2.27089">
        <ele>159</ele>
        <time>2018-04-17T08:35:21Z</time>
      </trkpt>
      <trkpt lat="46.99525" lon="2.27083">
        <ele>158</ele>
        <time>2018-04-17T08:35:22Z</time>
      </trkpt>
      <trkpt lat="46.99527" lon="2.27078">
        <ele>158</ele>
        <time>2018-04-17T08:35:23Z</time>
      </trkpt>
      <trkpt lat="46.99536" lon="2.2706">
        <ele>158</ele>
        <time>2018-04-17T08:35:26Z</time>
      </trkpt>
      <trkpt lat="46.99536" lon="2.27053">
        <ele>158</ele>
        <time>2018-04-17T08:35:27Z</time>
      </trkpt>
      <trkpt lat="46.99545" lon="2.27011">
        <ele>157</ele>
        <time>2018-04-17T08:35:33Z</time>
      </trkpt>
      <trkpt lat="46.9955" lon="2.2699">
        <ele>155</ele>
        <time>2018-04-17T08:35:36Z</time>
      </trkpt>
      <trkpt lat="46.99563" lon="2.26945">
        <ele>154</ele>
        <time>2018-04-17T08:35:42Z</time>
      </trkpt>
      <trkpt lat="46.99584" lon="2.26879">
        <ele>154</ele>
        <time>2018-04-17T08:35:51Z</time>
      </trkpt>
      <trkpt lat="46.996" lon="2.26829">
        <ele>154</ele>
        <time>2018-04-17T08:35:58Z</time>
      </trkpt>
      <trkpt lat="46.99616" lon="2.26778">
        <ele>155</ele>
        <time>2018-04-17T08:36:06Z</time>
      </trkpt>
      <trkpt lat="46.99618" lon="2.26772">
        <ele>155</ele>
        <time>2018-04-17T08:36:07Z</time>
      </trkpt>
      <trkpt lat="46.99635" lon="2.2674">
        <ele>156</ele>
        <time>2018-04-17T08:36:13Z</time>
      </trkpt>
      <trkpt lat="46.99663" lon="2.26709">
        <ele>156</ele>
        <time>2018-04-17T08:36:20Z</time>
      </trkpt>
      <trkpt lat="46.99686" lon="2.26693">
        <ele>156</ele>
        <time>2018-04-17T08:36:25Z</time>
      </trkpt>
      <trkpt lat="46.99694" lon="2.26686">
        <ele>156</ele>
        <time>2018-04-17T08:36:27Z</time>
      </trkpt>
      <trkpt lat="46.99699" lon="2.26684">
        <ele>156</ele>
        <time>2018-04-17T08:36:28Z</time>
      </trkpt>
      <trkpt lat="46.99732" lon="2.26662">
        <ele>156</ele>
        <time>2018-04-17T08:36:35Z</time>
      </trkpt>
      <trkpt lat="46.99773" lon="2.26637">
        <ele>156</ele>
        <time>2018-04-17T08:36:44Z</time>
      </trkpt>
      <trkpt lat="46.99812" lon="2.26614">
        <ele>156</ele>
        <time>2018-04-17T08:36:53Z</time>
      </trkpt>
      <trkpt lat="46.99852" lon="2.26589">
        <ele>157</ele>
        <time>2018-04-17T08:37:03Z</time>
      </trkpt>
      <trkpt lat="46.99882" lon="2.26578">
        <ele>158</ele>
        <time>2018-04-17T08:37:11Z</time>
      </trkpt>
      <trkpt lat="46.999" lon="2.26567">
        <ele>158</ele>
        <time>2018-04-17T08:37:16Z</time>
      </trkpt>
      <trkpt lat="46.99923" lon="2.26552">
        <ele>157</ele>
        <time>2018-04-17T08:37:22Z</time>
      </trkpt>
      <trkpt lat="46.99933" lon="2.26543">
        <ele>157</ele>
        <time>2018-04-17T08:37:25Z</time>
      </trkpt>
      <trkpt lat="46.99943" lon="2.26532">
        <ele>157</ele>
        <time>2018-04-17T08:37:28Z</time>
      </trkpt>
      <trkpt lat="46.99966" lon="2.26493">
        <ele>157</ele>
        <time>2018-04-17T08:37:36Z</time>
      </trkpt>
      <trkpt lat="46.99985" lon="2.26457">
        <ele>157</ele>
        <time>2018-04-17T08:37:43Z</time>
      </trkpt>
      <trkpt lat="46.99994" lon="2.2644">
        <ele>157</ele>
        <time>2018-04-17T08:37:48Z</time>
      </trkpt>
      <trkpt lat="46.99997" lon="2.26434">
        <ele>157</ele>
        <time>2018-04-17T08:37:53Z</time>
      </trkpt>
      <trkpt lat="47.00003" lon="2.26424">
        <ele>157</ele>
        <time>2018-04-17T08:37:58Z</time>
      </trkpt>
      <trkpt lat="47.00014" lon="2.26403">
        <ele>157</ele>
        <time>2018-04-17T08:38:05Z</time>
      </trkpt>
      <trkpt lat="47.00016" lon="2.26401">
        <ele>157</ele>
        <time>2018-04-17T08:38:06Z</time>
      </trkpt>
      <trkpt lat="47.00021" lon="2.26398">
        <ele>156</ele>
        <time>2018-04-17T08:38:09Z</time>
      </trkpt>
      <trkpt lat="47.00029" lon="2.26399">
        <ele>156</ele>
        <time>2018-04-17T08:38:12Z</time>
      </trkpt>
      <trkpt lat="47.00034" lon="2.26403">
        <ele>156</ele>
        <time>2018-04-17T08:38:14Z</time>
      </trkpt>
      <trkpt lat="47.00047" lon="2.26411">
        <ele>156</ele>
        <time>2018-04-17T08:38:19Z</time>
      </trkpt>
      <trkpt lat="47.00061" lon="2.2642">
        <ele>156</ele>
        <time>2018-04-17T08:38:24Z</time>
      </trkpt>
      <trkpt lat="47.0007" lon="2.26426">
        <ele>156</ele>
        <time>2018-04-17T08:38:30Z</time>
      </trkpt>
      <trkpt lat="47.00079" lon="2.26433">
        <ele>156</ele>
        <time>2018-04-17T08:38:36Z</time>
      </trkpt>
      <trkpt lat="47.00091" lon="2.26442">
        <ele>155</ele>
        <time>2018-04-17T08:38:43Z</time>
      </trkpt>
      <trkpt lat="47.00107" lon="2.26452">
        <ele>155</ele>
        <time>2018-04-17T08:38:50Z</time>
      </trkpt>
      <trkpt lat="47.00115" lon="2.26457">
        <ele>155</ele>
        <time>2018-04-17T08:38:53Z</time>
      </trkpt>
      <trkpt lat="47.00123" lon="2.26462">
        <ele>155</ele>
        <time>2018-04-17T08:38:56Z</time>
      </trkpt>
      <trkpt lat="47.00135" lon="2.2647">
        <ele>155</ele>
        <time>2018-04-17T08:39:02Z</time>
      </trkpt>
      <trkpt lat="47.00135" lon="2.26471">
        <ele>155</ele>
        <time>2018-04-17T08:39:06Z</time>
      </trkpt>
      <trkpt lat="47.00135" lon="2.26471">
        <ele>155</ele>
        <time>2018-04-17T08:39:17Z</time>
      </trkpt>
      <trkpt lat="47.00135" lon="2.26471">
        <ele>155</ele>
        <time>2018-04-17T08:39:28Z</time>
      </trkpt>
      <trkpt lat="47.00135" lon="2.26471">
        <ele>155</ele>
        <time>2018-04-17T08:39:32Z</time>
      </trkpt>
      <trkpt lat="47.00137" lon="2.26475">
        <ele>155</ele>
        <time>2018-04-17T08:39:34Z</time>
      </trkpt>
      <trkpt lat="47.00146" lon="2.26486">
        <ele>154</ele>
        <time>2018-04-17T08:39:38Z</time>
      </trkpt>
      <trkpt lat="47.00148" lon="2.26489">
        <ele>154</ele>
        <time>2018-04-17T08:39:39Z</time>
      </trkpt>
      <trkpt lat="47.00159" lon="2.26507">
        <ele>154</ele>
        <time>2018-04-17T08:39:43Z</time>
      </trkpt>
      <trkpt lat="47.00161" lon="2.26512">
        <ele>154</ele>
        <time>2018-04-17T08:39:44Z</time>
      </trkpt>
      <trkpt lat="47.0018" lon="2.26555">
        <ele>153</ele>
        <time>2018-04-17T08:39:52Z</time>
      </trkpt>
      <trkpt lat="47.00197" lon="2.26596">
        <ele>153</ele>
        <time>2018-04-17T08:39:59Z</time>
      </trkpt>
      <trkpt lat="47.00208" lon="2.26639">
        <ele>153</ele>
        <time>2018-04-17T08:40:06Z</time>
      </trkpt>
      <trkpt lat="47.00209" lon="2.26645">
        <ele>153</ele>
        <time>2018-04-17T08:40:07Z</time>
      </trkpt>
      <trkpt lat="47.00215" lon="2.26703">
        <ele>152</ele>
        <time>2018-04-17T08:40:16Z</time>
      </trkpt>
      <trkpt lat="47.00221" lon="2.26764">
        <ele>152</ele>
        <time>2018-04-17T08:40:25Z</time>
      </trkpt>
      <trkpt lat="47.00222" lon="2.26771">
        <ele>152</ele>
        <time>2018-04-17T08:40:26Z</time>
      </trkpt>
      <trkpt lat="47.00228" lon="2.2683">
        <ele>152</ele>
        <time>2018-04-17T08:40:34Z</time>
      </trkpt>
      <trkpt lat="47.0023" lon="2.26844">
        <ele>152</ele>
        <time>2018-04-17T08:40:36Z</time>
      </trkpt>
      <trkpt lat="47.0024" lon="2.26895">
        <ele>154</ele>
        <time>2018-04-17T08:40:43Z</time>
      </trkpt>
      <trkpt lat="47.00242" lon="2.26902">
        <ele>154</ele>
        <time>2018-04-17T08:40:44Z</time>
      </trkpt>
      <trkpt lat="47.00256" lon="2.26941">
        <ele>154</ele>
        <time>2018-04-17T08:40:50Z</time>
      </trkpt>
      <trkpt lat="47.00275" lon="2.26988">
        <ele>156</ele>
        <time>2018-04-17T08:40:58Z</time>
      </trkpt>
      <trkpt lat="47.00288" lon="2.27014">
        <ele>157</ele>
        <time>2018-04-17T08:41:03Z</time>
      </trkpt>
      <trkpt lat="47.00293" lon="2.27022">
        <ele>157</ele>
        <time>2018-04-17T08:41:05Z</time>
      </trkpt>
      <trkpt lat="47.00299" lon="2.27031">
        <ele>157</ele>
        <time>2018-04-17T08:41:09Z</time>
      </trkpt>
      <trkpt lat="47.00301" lon="2.27033">
        <ele>157</ele>
        <time>2018-04-17T08:41:10Z</time>
      </trkpt>
      <trkpt lat="47.00314" lon="2.27049">
        <ele>157</ele>
        <time>2018-04-17T08:41:16Z</time>
      </trkpt>
      <trkpt lat="47.00318" lon="2.27053">
        <ele>157</ele>
        <time>2018-04-17T08:41:17Z</time>
      </trkpt>
      <trkpt lat="47.00332" lon="2.2707">
        <ele>157</ele>
        <time>2018-04-17T08:41:21Z</time>
      </trkpt>
      <trkpt lat="47.00352" lon="2.27103">
        <ele>157</ele>
        <time>2018-04-17T08:41:28Z</time>
      </trkpt>
      <trkpt lat="47.00371" lon="2.27144">
        <ele>158</ele>
        <time>2018-04-17T08:41:36Z</time>
      </trkpt>
      <trkpt lat="47.0039" lon="2.27185">
        <ele>159</ele>
        <time>2018-04-17T08:41:44Z</time>
      </trkpt>
      <trkpt lat="47.00392" lon="2.2719">
        <ele>159</ele>
        <time>2018-04-17T08:41:45Z</time>
      </trkpt>
      <trkpt lat="47.00406" lon="2.2722">
        <ele>159</ele>
        <time>2018-04-17T08:41:51Z</time>
      </trkpt>
      <trkpt lat="47.00417" lon="2.27249">
        <ele>159</ele>
        <time>2018-04-17T08:41:57Z</time>
      </trkpt>
      <trkpt lat="47.00435" lon="2.27288">
        <ele>157</ele>
        <time>2018-04-17T08:42:04Z</time>
      </trkpt>
      <trkpt lat="47.00454" lon="2.27327">
        <ele>157</ele>
        <time>2018-04-17T08:42:11Z</time>
      </trkpt>
      <trkpt lat="47.00458" lon="2.27332">
        <ele>157</ele>
        <time>2018-04-17T08:42:12Z</time>
      </trkpt>
      <trkpt lat="47.00461" lon="2.27337">
        <ele>157</ele>
        <time>2018-04-17T08:42:13Z</time>
      </trkpt>
      <trkpt lat="47.00483" lon="2.27381">
        <ele>156</ele>
        <time>2018-04-17T08:42:21Z</time>
      </trkpt>
      <trkpt lat="47.00505" lon="2.27426">
        <ele>155</ele>
        <time>2018-04-17T08:42:30Z</time>
      </trkpt>
      <trkpt lat="47.00526" lon="2.27462">
        <ele>155</ele>
        <time>2018-04-17T08:42:38Z</time>
      </trkpt>
      <trkpt lat="47.00554" lon="2.27502">
        <ele>156</ele>
        <time>2018-04-17T08:42:47Z</time>
      </trkpt>
      <trkpt lat="47.00569" lon="2.27526">
        <ele>156</ele>
        <time>2018-04-17T08:42:53Z</time>
      </trkpt>
      <trkpt lat="47.00581" lon="2.27554">
        <ele>156</ele>
        <time>2018-04-17T08:43:00Z</time>
      </trkpt>
      <trkpt lat="47.00591" lon="2.27584">
        <ele>156</ele>
        <time>2018-04-17T08:43:07Z</time>
      </trkpt>
      <trkpt lat="47.00603" lon="2.27616">
        <ele>156</ele>
        <time>2018-04-17T08:43:14Z</time>
      </trkpt>
      <trkpt lat="47.0062" lon="2.2766">
        <ele>156</ele>
        <time>2018-04-17T08:43:23Z</time>
      </trkpt>
      <trkpt lat="47.00635" lon="2.27692">
        <ele>157</ele>
        <time>2018-04-17T08:43:30Z</time>
      </trkpt>
      <trkpt lat="47.00643" lon="2.27712">
        <ele>158</ele>
        <time>2018-04-17T08:43:34Z</time>
      </trkpt>
      <trkpt lat="47.00646" lon="2.27722">
        <ele>158</ele>
        <time>2018-04-17T08:43:36Z</time>
      </trkpt>
      <trkpt lat="47.00656" lon="2.27761">
        <ele>159</ele>
        <time>2018-04-17T08:43:43Z</time>
      </trkpt>
      <trkpt lat="47.00657" lon="2.27767">
        <ele>159</ele>
        <time>2018-04-17T08:43:44Z</time>
      </trkpt>
      <trkpt lat="47.0066" lon="2.2779">
        <ele>160</ele>
        <time>2018-04-17T08:43:48Z</time>
      </trkpt>
      <trkpt lat="47.00662" lon="2.27828">
        <ele>160</ele>
        <time>2018-04-17T08:43:55Z</time>
      </trkpt>
      <trkpt lat="47.00667" lon="2.27875">
        <ele>159</ele>
        <time>2018-04-17T08:44:03Z</time>
      </trkpt>
      <trkpt lat="47.00674" lon="2.27922">
        <ele>161</ele>
        <time>2018-04-17T08:44:11Z</time>
      </trkpt>
      <trkpt lat="47.00681" lon="2.27961">
        <ele>160</ele>
        <time>2018-04-17T08:44:18Z</time>
      </trkpt>
      <trkpt lat="47.0069" lon="2.28012">
        <ele>159</ele>
        <time>2018-04-17T08:44:27Z</time>
      </trkpt>
      <trkpt lat="47.00693" lon="2.28024">
        <ele>159</ele>
        <time>2018-04-17T08:44:29Z</time>
      </trkpt>
      <trkpt lat="47.00696" lon="2.28035">
        <ele>159</ele>
        <time>2018-04-17T08:44:31Z</time>
      </trkpt>
      <trkpt lat="47.00706" lon="2.28063">
        <ele>158</ele>
        <time>2018-04-17T08:44:36Z</time>
      </trkpt>
      <trkpt lat="47.0072" lon="2.2811">
        <ele>158</ele>
        <time>2018-04-17T08:44:44Z</time>
      </trkpt>
      <trkpt lat="47.00722" lon="2.28115">
        <ele>158</ele>
        <time>2018-04-17T08:44:45Z</time>
      </trkpt>
      <trkpt lat="47.0073" lon="2.28144">
        <ele>158</ele>
        <time>2018-04-17T08:44:51Z</time>
      </trkpt>
      <trkpt lat="47.00734" lon="2.28163">
        <ele>157</ele>
        <time>2018-04-17T08:44:56Z</time>
      </trkpt>
      <trkpt lat="47.00734" lon="2.28168">
        <ele>157</ele>
        <time>2018-04-17T08:44:57Z</time>
      </trkpt>
      <trkpt lat="47.00735" lon="2.28174">
        <ele>157</ele>
        <time>2018-04-17T08:44:58Z</time>
      </trkpt>
      <trkpt lat="47.00736" lon="2.28181">
        <ele>157</ele>
        <time>2018-04-17T08:44:59Z</time>
      </trkpt>
      <trkpt lat="47.00739" lon="2.28195">
        <ele>158</ele>
        <time>2018-04-17T08:45:01Z</time>
      </trkpt>
      <trkpt lat="47.00748" lon="2.28228">
        <ele>157</ele>
        <time>2018-04-17T08:45:06Z</time>
      </trkpt>
      <trkpt lat="47.00755" lon="2.28246">
        <ele>155</ele>
        <time>2018-04-17T08:45:09Z</time>
      </trkpt>
      <trkpt lat="47.00769" lon="2.28282">
        <ele>153</ele>
        <time>2018-04-17T08:45:15Z</time>
      </trkpt>
      <trkpt lat="47.00772" lon="2.28287">
        <ele>153</ele>
        <time>2018-04-17T08:45:16Z</time>
      </trkpt>
      <trkpt lat="47.00778" lon="2.28305">
        <ele>153</ele>
        <time>2018-04-17T08:45:19Z</time>
      </trkpt>
      <trkpt lat="47.00786" lon="2.28333">
        <ele>153</ele>
        <time>2018-04-17T08:45:23Z</time>
      </trkpt>
      <trkpt lat="47.00793" lon="2.28354">
        <ele>152</ele>
        <time>2018-04-17T08:45:26Z</time>
      </trkpt>
      <trkpt lat="47.00812" lon="2.28418">
        <ele>151</ele>
        <time>2018-04-17T08:45:36Z</time>
      </trkpt>
      <trkpt lat="47.0083" lon="2.28483">
        <ele>151</ele>
        <time>2018-04-17T08:45:46Z</time>
      </trkpt>
      <trkpt lat="47.00835" lon="2.28501">
        <ele>151</ele>
        <time>2018-04-17T08:45:49Z</time>
      </trkpt>
      <trkpt lat="47.00841" lon="2.2852">
        <ele>151</ele>
        <time>2018-04-17T08:45:52Z</time>
      </trkpt>
      <trkpt lat="47.00852" lon="2.28562">
        <ele>151</ele>
        <time>2018-04-17T08:45:59Z</time>
      </trkpt>
      <trkpt lat="47.00869" lon="2.28618">
        <ele>151</ele>
        <time>2018-04-17T08:46:08Z</time>
      </trkpt>
      <trkpt lat="47.00886" lon="2.2868">
        <ele>150</ele>
        <time>2018-04-17T08:46:17Z</time>
      </trkpt>
      <trkpt lat="47.00888" lon="2.28687">
        <ele>150</ele>
        <time>2018-04-17T08:46:18Z</time>
      </trkpt>
      <trkpt lat="47.0089" lon="2.28694">
        <ele>150</ele>
        <time>2018-04-17T08:46:19Z</time>
      </trkpt>
      <trkpt lat="47.00897" lon="2.28717">
        <ele>150</ele>
        <time>2018-04-17T08:46:22Z</time>
      </trkpt>
      <trkpt lat="47.00904" lon="2.2874">
        <ele>150</ele>
        <time>2018-04-17T08:46:25Z</time>
      </trkpt>
      <trkpt lat="47.00915" lon="2.28779">
        <ele>149</ele>
        <time>2018-04-17T08:46:30Z</time>
      </trkpt>
      <trkpt lat="47.0092" lon="2.28794">
        <ele>150</ele>
        <time>2018-04-17T08:46:32Z</time>
      </trkpt>
      <trkpt lat="47.00929" lon="2.28826">
        <ele>150</ele>
        <time>2018-04-17T08:46:36Z</time>
      </trkpt>
      <trkpt lat="47.00931" lon="2.28834">
        <ele>149</ele>
        <time>2018-04-17T08:46:37Z</time>
      </trkpt>
      <trkpt lat="47.00939" lon="2.2886">
        <ele>149</ele>
        <time>2018-04-17T08:46:40Z</time>
      </trkpt>
      <trkpt lat="47.00945" lon="2.28885">
        <ele>149</ele>
        <time>2018-04-17T08:46:43Z</time>
      </trkpt>
      <trkpt lat="47.00957" lon="2.28923">
        <ele>148</ele>
        <time>2018-04-17T08:46:49Z</time>
      </trkpt>
      <trkpt lat="47.00972" lon="2.28973">
        <ele>148</ele>
        <time>2018-04-17T08:46:57Z</time>
      </trkpt>
      <trkpt lat="47.00975" lon="2.28986">
        <ele>148</ele>
        <time>2018-04-17T08:46:59Z</time>
      </trkpt>
      <trkpt lat="47.00977" lon="2.28993">
        <ele>148</ele>
        <time>2018-04-17T08:47:00Z</time>
      </trkpt>
      <trkpt lat="47.00985" lon="2.29017">
        <ele>149</ele>
        <time>2018-04-17T08:47:04Z</time>
      </trkpt>
      <trkpt lat="47.00987" lon="2.29024">
        <ele>149</ele>
        <time>2018-04-17T08:47:05Z</time>
      </trkpt>
      <trkpt lat="47.00989" lon="2.2903">
        <ele>149</ele>
        <time>2018-04-17T08:47:06Z</time>
      </trkpt>
      <trkpt lat="47.00998" lon="2.29063">
        <ele>150</ele>
        <time>2018-04-17T08:47:11Z</time>
      </trkpt>
      <trkpt lat="47.00999" lon="2.2907">
        <ele>150</ele>
        <time>2018-04-17T08:47:12Z</time>
      </trkpt>
      <trkpt lat="47.01004" lon="2.29088">
        <ele>152</ele>
        <time>2018-04-17T08:47:15Z</time>
      </trkpt>
      <trkpt lat="47.0101" lon="2.29107">
        <ele>154</ele>
        <time>2018-04-17T08:47:18Z</time>
      </trkpt>
      <trkpt lat="47.01015" lon="2.29126">
        <ele>155</ele>
        <time>2018-04-17T08:47:21Z</time>
      </trkpt>
      <trkpt lat="47.01022" lon="2.29157">
        <ele>155</ele>
        <time>2018-04-17T08:47:26Z</time>
      </trkpt>
      <trkpt lat="47.01031" lon="2.29191">
        <ele>157</ele>
        <time>2018-04-17T08:47:32Z</time>
      </trkpt>
      <trkpt lat="47.01033" lon="2.29196">
        <ele>157</ele>
        <time>2018-04-17T08:47:33Z</time>
      </trkpt>
      <trkpt lat="47.01045" lon="2.29223">
        <ele>157</ele>
        <time>2018-04-17T08:47:39Z</time>
      </trkpt>
      <trkpt lat="47.01052" lon="2.29249">
        <ele>157</ele>
        <time>2018-04-17T08:47:45Z</time>
      </trkpt>
      <trkpt lat="47.01059" lon="2.29276">
        <ele>158</ele>
        <time>2018-04-17T08:47:51Z</time>
      </trkpt>
      <trkpt lat="47.01066" lon="2.29298">
        <ele>158</ele>
        <time>2018-04-17T08:47:57Z</time>
      </trkpt>
      <trkpt lat="47.01067" lon="2.29302">
        <ele>158</ele>
        <time>2018-04-17T08:47:58Z</time>
      </trkpt>
      <trkpt lat="47.01068" lon="2.29317">
        <ele>158</ele>
        <time>2018-04-17T08:48:03Z</time>
      </trkpt>
      <trkpt lat="47.01069" lon="2.2932">
        <ele>158</ele>
        <time>2018-04-17T08:48:04Z</time>
      </trkpt>
      <trkpt lat="47.01073" lon="2.29335">
        <ele>159</ele>
        <time>2018-04-17T08:48:10Z</time>
      </trkpt>
      <trkpt lat="47.01074" lon="2.2934">
        <ele>159</ele>
        <time>2018-04-17T08:48:15Z</time>
      </trkpt>
      <trkpt lat="47.01074" lon="2.2934">
        <ele>159</ele>
        <time>2018-04-17T08:48:17Z</time>
      </trkpt>
      <trkpt lat="47.01075" lon="2.29343">
        <ele>159</ele>
        <time>2018-04-17T08:48:22Z</time>
      </trkpt>
      <trkpt lat="47.01077" lon="2.29344">
        <ele>159</ele>
        <time>2018-04-17T08:48:23Z</time>
      </trkpt>
      <trkpt lat="47.01082" lon="2.29342">
        <ele>159</ele>
        <time>2018-04-17T08:48:25Z</time>
      </trkpt>
      <trkpt lat="47.011" lon="2.2933">
        <ele>159</ele>
        <time>2018-04-17T08:48:31Z</time>
      </trkpt>
      <trkpt lat="47.0112" lon="2.29316">
        <ele>159</ele>
        <time>2018-04-17T08:48:37Z</time>
      </trkpt>
      <trkpt lat="47.01142" lon="2.29298">
        <ele>159</ele>
        <time>2018-04-17T08:48:43Z</time>
      </trkpt>
      <trkpt lat="47.01148" lon="2.29289">
        <ele>159</ele>
        <time>2018-04-17T08:48:45Z</time>
      </trkpt>
      <trkpt lat="47.01157" lon="2.29269">
        <ele>159</ele>
        <time>2018-04-17T08:48:49Z</time>
      </trkpt>
      <trkpt lat="47.0116" lon="2.29264">
        <ele>159</ele>
        <time>2018-04-17T08:48:50Z</time>
      </trkpt>
      <trkpt lat="47.01163" lon="2.29259">
        <ele>160</ele>
        <time>2018-04-17T08:48:51Z</time>
      </trkpt>
      <trkpt lat="47.0117" lon="2.29251">
        <ele>160</ele>
        <time>2018-04-17T08:48:53Z</time>
      </trkpt>
      <trkpt lat="47.01173" lon="2.29247">
        <ele>159</ele>
        <time>2018-04-17T08:48:54Z</time>
      </trkpt>
      <trkpt lat="47.01185" lon="2.29236">
        <ele>158</ele>
        <time>2018-04-17T08:48:57Z</time>
      </trkpt>
      <trkpt lat="47.0119" lon="2.29233">
        <ele>158</ele>
        <time>2018-04-17T08:48:58Z</time>
      </trkpt>
      <trkpt lat="47.01199" lon="2.29227">
        <ele>158</ele>
        <time>2018-04-17T08:49:00Z</time>
      </trkpt>
      <trkpt lat="47.01214" lon="2.29216">
        <ele>157</ele>
        <time>2018-04-17T08:49:03Z</time>
      </trkpt>
      <trkpt lat="47.01225" lon="2.29209">
        <ele>157</ele>
        <time>2018-04-17T08:49:05Z</time>
      </trkpt>
      <trkpt lat="47.01242" lon="2.29198">
        <ele>156</ele>
        <time>2018-04-17T08:49:08Z</time>
      </trkpt>
      <trkpt lat="47.01253" lon="2.29192">
        <ele>155</ele>
        <time>2018-04-17T08:49:10Z</time>
      </trkpt>
      <trkpt lat="47.01265" lon="2.2919">
        <ele>155</ele>
        <time>2018-04-17T08:49:13Z</time>
      </trkpt>
      <trkpt lat="47.01268" lon="2.29188">
        <ele>155</ele>
        <time>2018-04-17T08:49:14Z</time>
      </trkpt>
      <trkpt lat="47.01275" lon="2.29184">
        <ele>155</ele>
        <time>2018-04-17T08:49:17Z</time>
      </trkpt>
      <trkpt lat="47.01276" lon="2.29185">
        <ele>155</ele>
        <time>2018-04-17T08:49:18Z</time>
      </trkpt>
      <trkpt lat="47.01278" lon="2.2919">
        <ele>155</ele>
        <time>2018-04-17T08:49:21Z</time>
      </trkpt>
      <trkpt lat="47.01279" lon="2.29192">
        <ele>155</ele>
        <time>2018-04-17T08:49:22Z</time>
      </trkpt>
      <trkpt lat="47.0129" lon="2.29203">
        <ele>156</ele>
        <time>2018-04-17T08:49:28Z</time>
      </trkpt>
      <trkpt lat="47.01295" lon="2.29208">
        <ele>156</ele>
        <time>2018-04-17T08:49:31Z</time>
      </trkpt>
      <trkpt lat="47.013" lon="2.29213">
        <ele>156</ele>
        <time>2018-04-17T08:49:34Z</time>
      </trkpt>
      <trkpt lat="47.01314" lon="2.29224">
        <ele>156</ele>
        <time>2018-04-17T08:49:40Z</time>
      </trkpt>
      <trkpt lat="47.01324" lon="2.29231">
        <ele>157</ele>
        <time>2018-04-17T08:49:44Z</time>
      </trkpt>
      <trkpt lat="47.01326" lon="2.29233">
        <ele>157</ele>
        <time>2018-04-17T08:49:45Z</time>
      </trkpt>
      <trkpt lat="47.01339" lon="2.29244">
        <ele>158</ele>
        <time>2018-04-17T08:49:51Z</time>
      </trkpt>
      <trkpt lat="47.01351" lon="2.29263">
        <ele>158</ele>
        <time>2018-04-17T08:49:57Z</time>
      </trkpt>
      <trkpt lat="47.01365" lon="2.29273">
        <ele>158</ele>
        <time>2018-04-17T08:50:02Z</time>
      </trkpt>
      <trkpt lat="47.01388" lon="2.29287">
        <ele>158</ele>
        <time>2018-04-17T08:50:09Z</time>
      </trkpt>
      <trkpt lat="47.01413" lon="2.29301">
        <ele>158</ele>
        <time>2018-04-17T08:50:16Z</time>
      </trkpt>
      <trkpt lat="47.01433" lon="2.29315">
        <ele>158</ele>
        <time>2018-04-17T08:50:23Z</time>
      </trkpt>
      <trkpt lat="47.01462" lon="2.29332">
        <ele>158</ele>
        <time>2018-04-17T08:50:30Z</time>
      </trkpt>
      <trkpt lat="47.0148" lon="2.29342">
        <ele>158</ele>
        <time>2018-04-17T08:50:34Z</time>
      </trkpt>
      <trkpt lat="47.01488" lon="2.29346">
        <ele>158</ele>
        <time>2018-04-17T08:50:36Z</time>
      </trkpt>
      <trkpt lat="47.01506" lon="2.29357">
        <ele>157</ele>
        <time>2018-04-17T08:50:41Z</time>
      </trkpt>
      <trkpt lat="47.01516" lon="2.29361">
        <ele>156</ele>
        <time>2018-04-17T08:50:43Z</time>
      </trkpt>
      <trkpt lat="47.01528" lon="2.29369">
        <ele>156</ele>
        <time>2018-04-17T08:50:46Z</time>
      </trkpt>
      <trkpt lat="47.01539" lon="2.29378">
        <ele>156</ele>
        <time>2018-04-17T08:50:49Z</time>
      </trkpt>
      <trkpt lat="47.01561" lon="2.29397">
        <ele>155</ele>
        <time>2018-04-17T08:50:54Z</time>
      </trkpt>
      <trkpt lat="47.01566" lon="2.294">
        <ele>155</ele>
        <time>2018-04-17T08:50:55Z</time>
      </trkpt>
      <trkpt lat="47.01578" lon="2.29411">
        <ele>154</ele>
        <time>2018-04-17T08:50:59Z</time>
      </trkpt>
      <trkpt lat="47.01581" lon="2.29413">
        <ele>154</ele>
        <time>2018-04-17T08:51:00Z</time>
      </trkpt>
      <trkpt lat="47.01596" lon="2.29426">
        <ele>154</ele>
        <time>2018-04-17T08:51:05Z</time>
      </trkpt>
      <trkpt lat="47.0162" lon="2.29449">
        <ele>153</ele>
        <time>2018-04-17T08:51:13Z</time>
      </trkpt>
      <trkpt lat="47.0164" lon="2.2947">
        <ele>153</ele>
        <time>2018-04-17T08:51:20Z</time>
      </trkpt>
      <trkpt lat="47.01658" lon="2.29488">
        <ele>152</ele>
        <time>2018-04-17T08:51:26Z</time>
      </trkpt>
      <trkpt lat="47.01672" lon="2.29501">
        <ele>152</ele>
        <time>2018-04-17T08:51:30Z</time>
      </trkpt>
      <trkpt lat="47.01684" lon="2.29512">
        <ele>152</ele>
        <time>2018-04-17T08:51:33Z</time>
      </trkpt>
      <trkpt lat="47.01688" lon="2.29515">
        <ele>152</ele>
        <time>2018-04-17T08:51:34Z</time>
      </trkpt>
      <trkpt lat="47.01693" lon="2.29518">
        <ele>153</ele>
        <time>2018-04-17T08:51:35Z</time>
      </trkpt>
      <trkpt lat="47.01702" lon="2.29525">
        <ele>153</ele>
        <time>2018-04-17T08:51:37Z</time>
      </trkpt>
      <trkpt lat="47.01708" lon="2.29527">
        <ele>153</ele>
        <time>2018-04-17T08:51:38Z</time>
      </trkpt>
      <trkpt lat="47.01738" lon="2.29534">
        <ele>153</ele>
        <time>2018-04-17T08:51:44Z</time>
      </trkpt>
      <trkpt lat="47.01755" lon="2.29537">
        <ele>155</ele>
        <time>2018-04-17T08:51:48Z</time>
      </trkpt>
      <trkpt lat="47.01758" lon="2.29538">
        <ele>155</ele>
        <time>2018-04-17T08:51:49Z</time>
      </trkpt>
      <trkpt lat="47.01768" lon="2.2954">
        <ele>155</ele>
        <time>2018-04-17T08:51:52Z</time>
      </trkpt>
      <trkpt lat="47.01776" lon="2.29542">
        <ele>155</ele>
        <time>2018-04-17T08:51:55Z</time>
      </trkpt>
      <trkpt lat="47.01787" lon="2.29543">
        <ele>156</ele>
        <time>2018-04-17T08:51:59Z</time>
      </trkpt>
      <trkpt lat="47.01792" lon="2.29543">
        <ele>156</ele>
        <time>2018-04-17T08:52:01Z</time>
      </trkpt>
      <trkpt lat="47.01803" lon="2.29544">
        <ele>156</ele>
        <time>2018-04-17T08:52:05Z</time>
      </trkpt>
      <trkpt lat="47.01809" lon="2.29544">
        <ele>156</ele>
        <time>2018-04-17T08:52:07Z</time>
      </trkpt>
      <trkpt lat="47.01818" lon="2.29543">
        <ele>156</ele>
        <time>2018-04-17T08:52:10Z</time>
      </trkpt>
      <trkpt lat="47.01827" lon="2.29542">
        <ele>156</ele>
        <time>2018-04-17T08:52:13Z</time>
      </trkpt>
      <trkpt lat="47.01855" lon="2.29539">
        <ele>158</ele>
        <time>2018-04-17T08:52:22Z</time>
      </trkpt>
      <trkpt lat="47.01884" lon="2.29536">
        <ele>159</ele>
        <time>2018-04-17T08:52:30Z</time>
      </trkpt>
      <trkpt lat="47.0191" lon="2.29536">
        <ele>159</ele>
        <time>2018-04-17T08:52:36Z</time>
      </trkpt>
      <trkpt lat="47.01924" lon="2.29537">
        <ele>160</ele>
        <time>2018-04-17T08:52:39Z</time>
      </trkpt>
      <trkpt lat="47.01938" lon="2.29539">
        <ele>160</ele>
        <time>2018-04-17T08:52:42Z</time>
      </trkpt>
      <trkpt lat="47.01961" lon="2.29542">
        <ele>159</ele>
        <time>2018-04-17T08:52:47Z</time>
      </trkpt>
      <trkpt lat="47.0199" lon="2.29546">
        <ele>159</ele>
        <time>2018-04-17T08:52:53Z</time>
      </trkpt>
      <trkpt lat="47.01994" lon="2.29547">
        <ele>159</ele>
        <time>2018-04-17T08:52:54Z</time>
      </trkpt>
      <trkpt lat="47.02019" lon="2.29552">
        <ele>159</ele>
        <time>2018-04-17T08:52:59Z</time>
      </trkpt>
      <trkpt lat="47.0205" lon="2.29557">
        <ele>159</ele>
        <time>2018-04-17T08:53:06Z</time>
      </trkpt>
      <trkpt lat="47.02081" lon="2.29561">
        <ele>159</ele>
        <time>2018-04-17T08:53:13Z</time>
      </trkpt>
      <trkpt lat="47.02102" lon="2.29564">
        <ele>158</ele>
        <time>2018-04-17T08:53:18Z</time>
      </trkpt>
      <trkpt lat="47.02107" lon="2.29563">
        <ele>158</ele>
        <time>2018-04-17T08:53:19Z</time>
      </trkpt>
      <trkpt lat="47.0213" lon="2.29549">
        <ele>157</ele>
        <time>2018-04-17T08:53:24Z</time>
      </trkpt>
      <trkpt lat="47.02136" lon="2.29545">
        <ele>157</ele>
        <time>2018-04-17T08:53:25Z</time>
      </trkpt>
      <trkpt lat="47.02146" lon="2.29536">
        <ele>156</ele>
        <time>2018-04-17T08:53:27Z</time>
      </trkpt>
      <trkpt lat="47.02151" lon="2.29531">
        <ele>156</ele>
        <time>2018-04-17T08:53:28Z</time>
      </trkpt>
      <trkpt lat="47.02161" lon="2.29519">
        <ele>156</ele>
        <time>2018-04-17T08:53:30Z</time>
      </trkpt>
      <trkpt lat="47.02166" lon="2.29512">
        <ele>155</ele>
        <time>2018-04-17T08:53:31Z</time>
      </trkpt>
      <trkpt lat="47.02171" lon="2.29504">
        <ele>154</ele>
        <time>2018-04-17T08:53:32Z</time>
      </trkpt>
      <trkpt lat="47.02182" lon="2.29488">
        <ele>152</ele>
        <time>2018-04-17T08:53:34Z</time>
      </trkpt>
      <trkpt lat="47.02186" lon="2.29479">
        <ele>152</ele>
        <time>2018-04-17T08:53:35Z</time>
      </trkpt>
      <trkpt lat="47.02191" lon="2.29471">
        <ele>151</ele>
        <time>2018-04-17T08:53:36Z</time>
      </trkpt>
      <trkpt lat="47.02198" lon="2.29461">
        <ele>151</ele>
        <time>2018-04-17T08:53:38Z</time>
      </trkpt>
      <trkpt lat="47.02205" lon="2.29466">
        <ele>151</ele>
        <time>2018-04-17T08:53:41Z</time>
      </trkpt>
      <trkpt lat="47.02216" lon="2.29486">
        <ele>151</ele>
        <time>2018-04-17T08:53:46Z</time>
      </trkpt>
      <trkpt lat="47.02221" lon="2.29492">
        <ele>151</ele>
        <time>2018-04-17T08:53:48Z</time>
      </trkpt>
      <trkpt lat="47.02231" lon="2.2951">
        <ele>152</ele>
        <time>2018-04-17T08:53:53Z</time>
      </trkpt>
      <trkpt lat="47.02233" lon="2.29514">
        <ele>152</ele>
        <time>2018-04-17T08:53:54Z</time>
      </trkpt>
      <trkpt lat="47.02245" lon="2.29547">
        <ele>152</ele>
        <time>2018-04-17T08:54:02Z</time>
      </trkpt>
      <trkpt lat="47.02246" lon="2.29552">
        <ele>152</ele>
        <time>2018-04-17T08:54:03Z</time>
      </trkpt>
      <trkpt lat="47.02248" lon="2.29584">
        <ele>152</ele>
        <time>2018-04-17T08:54:10Z</time>
      </trkpt>
      <trkpt lat="47.02247" lon="2.29619">
        <ele>153</ele>
        <time>2018-04-17T08:54:17Z</time>
      </trkpt>
      <trkpt lat="47.02237" lon="2.2964">
        <ele>153</ele>
        <time>2018-04-17T08:54:22Z</time>
      </trkpt>
      <trkpt lat="47.02224" lon="2.29649">
        <ele>154</ele>
        <time>2018-04-17T08:54:26Z</time>
      </trkpt>
      <trkpt lat="47.02221" lon="2.2965">
        <ele>154</ele>
        <time>2018-04-17T08:54:27Z</time>
      </trkpt>
      <trkpt lat="47.02198" lon="2.29663">
        <ele>154</ele>
        <time>2018-04-17T08:54:34Z</time>
      </trkpt>
      <trkpt lat="47.02192" lon="2.29668">
        <ele>155</ele>
        <time>2018-04-17T08:54:36Z</time>
      </trkpt>
      <trkpt lat="47.02166" lon="2.29694">
        <ele>157</ele>
        <time>2018-04-17T08:54:45Z</time>
      </trkpt>
      <trkpt lat="47.02158" lon="2.29704">
        <ele>157</ele>
        <time>2018-04-17T08:54:48Z</time>
      </trkpt>
      <trkpt lat="47.02139" lon="2.29728">
        <ele>157</ele>
        <time>2018-04-17T08:54:55Z</time>
      </trkpt>
      <trkpt lat="47.02134" lon="2.29734">
        <ele>157</ele>
        <time>2018-04-17T08:54:57Z</time>
      </trkpt>
      <trkpt lat="47.0212" lon="2.29751">
        <ele>156</ele>
        <time>2018-04-17T08:55:02Z</time>
      </trkpt>
      <trkpt lat="47.02109" lon="2.29771">
        <ele>156</ele>
        <time>2018-04-17T08:55:07Z</time>
      </trkpt>
      <trkpt lat="47.02096" lon="2.2979">
        <ele>156</ele>
        <time>2018-04-17T08:55:12Z</time>
      </trkpt>
      <trkpt lat="47.02082" lon="2.29813">
        <ele>156</ele>
        <time>2018-04-17T08:55:18Z</time>
      </trkpt>
      <trkpt lat="47.02074" lon="2.29825">
        <ele>156</ele>
        <time>2018-04-17T08:55:21Z</time>
      </trkpt>
      <trkpt lat="47.02061" lon="2.29846">
        <ele>156</ele>
        <time>2018-04-17T08:55:28Z</time>
      </trkpt>
      <trkpt lat="47.02053" lon="2.29858">
        <ele>156</ele>
        <time>2018-04-17T08:55:35Z</time>
      </trkpt>
      <trkpt lat="47.02051" lon="2.29863">
        <ele>156</ele>
        <time>2018-04-17T08:55:41Z</time>
      </trkpt>
      <trkpt lat="47.02051" lon="2.29865">
        <ele>156</ele>
        <time>2018-04-17T08:55:47Z</time>
      </trkpt>
      <trkpt lat="47.0205" lon="2.29865">
        <ele>156</ele>
        <time>2018-04-17T08:56:02Z</time>
      </trkpt>
      <trkpt lat="47.02043" lon="2.29875">
        <ele>156</ele>
        <time>2018-04-17T08:56:06Z</time>
      </trkpt>
      <trkpt lat="47.02035" lon="2.29883">
        <ele>156</ele>
        <time>2018-04-17T08:56:10Z</time>
      </trkpt>
      <trkpt lat="47.02033" lon="2.29889">
        <ele>156</ele>
        <time>2018-04-17T08:56:12Z</time>
      </trkpt>
      <trkpt lat="47.02033" lon="2.2989">
        <ele>156</ele>
        <time>2018-04-17T08:56:14Z</time>
      </trkpt>
      <trkpt lat="47.02033" lon="2.2989">
        <ele>156</ele>
        <time>2018-04-17T08:56:30Z</time>
      </trkpt>
    </trkseg>
  </trk>
</gpx>